source: josm/trunk/test/data/regress/1433/2008-08-14-16-04-58.gpx@ 10906

Last change on this file since 10906 was 10906, checked in by Don-vip, 8 years ago

add more non-regression NMEA unit tests

File size: 294.7 KB
Line 
1<?xml version="1.0" encoding="UTF-8"?>
2<gpx
3 version="1.0"
4creator="GPSBabel - http://www.gpsbabel.org"
5xmlns:xsi="http://www.w3.org/2001/XMLSchema-instance"
6xmlns="http://www.topografix.com/GPX/1/0"
7xsi:schemaLocation="http://www.topografix.com/GPX/1/0 http://www.topografix.com/GPX/1/0/gpx.xsd">
8<time>2008-08-19T01:21:02Z</time>
9<bounds minlat="53.791926667" minlon="-1.782950000" maxlat="53.833996667" maxlon="-1.726721667"/>
10<trk>
11<trkseg>
12<trkpt lat="53.792560000" lon="-1.727446667">
13 <ele>144.400000</ele>
14<time>2008-08-14T15:05:53Z</time>
15 <course>241.589996</course>
16 <speed>0.000000</speed>
17 <fix>3d</fix>
18 <sat>8</sat>
19 <hdop>1.000000</hdop>
20</trkpt>
21<trkpt lat="53.792560000" lon="-1.727446667">
22 <ele>145.000000</ele>
23<time>2008-08-14T15:05:54Z</time>
24 <course>241.589996</course>
25 <speed>0.000000</speed>
26 <fix>3d</fix>
27 <sat>8</sat>
28 <hdop>1.000000</hdop>
29</trkpt>
30<trkpt lat="53.792560000" lon="-1.727445000">
31 <ele>145.800000</ele>
32<time>2008-08-14T15:05:55Z</time>
33 <course>241.589996</course>
34 <speed>0.000000</speed>
35 <fix>3d</fix>
36 <sat>8</sat>
37 <hdop>1.000000</hdop>
38</trkpt>
39<trkpt lat="53.792558333" lon="-1.727441667">
40 <ele>146.600000</ele>
41<time>2008-08-14T15:05:56Z</time>
42 <course>241.589996</course>
43 <speed>0.000000</speed>
44 <fix>3d</fix>
45 <sat>8</sat>
46 <hdop>1.000000</hdop>
47 <vdop>1.700000</vdop>
48 <pdop>2.000000</pdop>
49</trkpt>
50<trkpt lat="53.792556667" lon="-1.727438333">
51 <ele>147.400000</ele>
52<time>2008-08-14T15:05:57Z</time>
53 <course>241.589996</course>
54 <speed>0.000000</speed>
55 <fix>3d</fix>
56 <sat>8</sat>
57 <hdop>1.000000</hdop>
58</trkpt>
59<trkpt lat="53.792556667" lon="-1.727435000">
60 <ele>148.100000</ele>
61<time>2008-08-14T15:05:58Z</time>
62 <course>241.589996</course>
63 <speed>0.000000</speed>
64 <fix>3d</fix>
65 <sat>8</sat>
66 <hdop>1.000000</hdop>
67</trkpt>
68<trkpt lat="53.792556667" lon="-1.727436667">
69 <ele>148.400000</ele>
70<time>2008-08-14T15:05:59Z</time>
71 <course>241.589996</course>
72 <speed>0.000000</speed>
73 <fix>3d</fix>
74 <sat>8</sat>
75 <hdop>1.000000</hdop>
76</trkpt>
77<trkpt lat="53.792555000" lon="-1.727435000">
78 <ele>148.700000</ele>
79<time>2008-08-14T15:06:00Z</time>
80 <course>241.589996</course>
81 <speed>0.000000</speed>
82 <fix>3d</fix>
83 <sat>8</sat>
84 <hdop>1.000000</hdop>
85</trkpt>
86<trkpt lat="53.792555000" lon="-1.727433333">
87 <ele>149.000000</ele>
88<time>2008-08-14T15:06:01Z</time>
89 <course>241.589996</course>
90 <speed>0.000000</speed>
91 <fix>3d</fix>
92 <sat>8</sat>
93 <hdop>1.000000</hdop>
94 <vdop>1.700000</vdop>
95 <pdop>2.000000</pdop>
96</trkpt>
97<trkpt lat="53.792555000" lon="-1.727435000">
98 <ele>149.100000</ele>
99<time>2008-08-14T15:06:02Z</time>
100 <course>241.589996</course>
101 <speed>0.000000</speed>
102 <fix>3d</fix>
103 <sat>8</sat>
104 <hdop>1.000000</hdop>
105</trkpt>
106<trkpt lat="53.792555000" lon="-1.727435000">
107 <ele>149.200000</ele>
108<time>2008-08-14T15:06:03Z</time>
109 <course>241.589996</course>
110 <speed>0.000000</speed>
111 <fix>3d</fix>
112 <sat>8</sat>
113 <hdop>1.000000</hdop>
114</trkpt>
115<trkpt lat="53.792555000" lon="-1.727435000">
116 <ele>149.400000</ele>
117<time>2008-08-14T15:06:04Z</time>
118 <course>241.589996</course>
119 <speed>0.000000</speed>
120 <fix>3d</fix>
121 <sat>8</sat>
122 <hdop>1.000000</hdop>
123</trkpt>
124<trkpt lat="53.792555000" lon="-1.727435000">
125 <ele>149.400000</ele>
126<time>2008-08-14T15:06:05Z</time>
127 <course>241.589996</course>
128 <speed>0.000000</speed>
129 <fix>3d</fix>
130 <sat>8</sat>
131 <hdop>1.000000</hdop>
132</trkpt>
133<trkpt lat="53.792555000" lon="-1.727436667">
134 <ele>149.300000</ele>
135<time>2008-08-14T15:06:06Z</time>
136 <course>241.589996</course>
137 <speed>0.000000</speed>
138 <fix>3d</fix>
139 <sat>8</sat>
140 <hdop>1.000000</hdop>
141 <vdop>1.700000</vdop>
142 <pdop>2.000000</pdop>
143</trkpt>
144<trkpt lat="53.792553333" lon="-1.727435000">
145 <ele>149.800000</ele>
146<time>2008-08-14T15:06:07Z</time>
147 <course>241.589996</course>
148 <speed>0.000000</speed>
149 <fix>3d</fix>
150 <sat>8</sat>
151 <hdop>1.000000</hdop>
152</trkpt>
153<trkpt lat="53.792553333" lon="-1.727433333">
154 <ele>150.300000</ele>
155<time>2008-08-14T15:06:08Z</time>
156 <course>241.589996</course>
157 <speed>0.000000</speed>
158 <fix>3d</fix>
159 <sat>8</sat>
160 <hdop>1.000000</hdop>
161</trkpt>
162<trkpt lat="53.792553333" lon="-1.727431667">
163 <ele>150.800000</ele>
164<time>2008-08-14T15:06:09Z</time>
165 <course>241.589996</course>
166 <speed>0.000000</speed>
167 <fix>3d</fix>
168 <sat>8</sat>
169 <hdop>1.000000</hdop>
170</trkpt>
171<trkpt lat="53.792553333" lon="-1.727430000">
172 <ele>151.300000</ele>
173<time>2008-08-14T15:06:10Z</time>
174 <course>241.589996</course>
175 <speed>0.000000</speed>
176 <fix>3d</fix>
177 <sat>8</sat>
178 <hdop>1.000000</hdop>
179</trkpt>
180<trkpt lat="53.792553333" lon="-1.727426667">
181 <ele>151.700000</ele>
182<time>2008-08-14T15:06:11Z</time>
183 <course>241.589996</course>
184 <speed>0.000000</speed>
185 <fix>3d</fix>
186 <sat>8</sat>
187 <hdop>1.000000</hdop>
188 <vdop>1.700000</vdop>
189 <pdop>2.000000</pdop>
190</trkpt>
191<trkpt lat="53.792553333" lon="-1.727425000">
192 <ele>152.100000</ele>
193<time>2008-08-14T15:06:12Z</time>
194 <course>241.589996</course>
195 <speed>0.000000</speed>
196 <fix>3d</fix>
197 <sat>8</sat>
198 <hdop>1.000000</hdop>
199</trkpt>
200<trkpt lat="53.792553333" lon="-1.727423333">
201 <ele>152.600000</ele>
202<time>2008-08-14T15:06:13Z</time>
203 <course>241.589996</course>
204 <speed>0.000000</speed>
205 <fix>3d</fix>
206 <sat>8</sat>
207 <hdop>1.000000</hdop>
208</trkpt>
209<trkpt lat="53.792553333" lon="-1.727423333">
210 <ele>153.000000</ele>
211<time>2008-08-14T15:06:14Z</time>
212 <course>241.589996</course>
213 <speed>0.000000</speed>
214 <fix>3d</fix>
215 <sat>8</sat>
216 <hdop>1.000000</hdop>
217</trkpt>
218<trkpt lat="53.792553333" lon="-1.727421667">
219 <ele>153.400000</ele>
220<time>2008-08-14T15:06:15Z</time>
221 <course>241.589996</course>
222 <speed>0.000000</speed>
223 <fix>3d</fix>
224 <sat>8</sat>
225 <hdop>1.000000</hdop>
226</trkpt>
227<trkpt lat="53.792553333" lon="-1.727420000">
228 <ele>153.800000</ele>
229<time>2008-08-14T15:06:16Z</time>
230 <course>241.589996</course>
231 <speed>0.000000</speed>
232 <fix>3d</fix>
233 <sat>8</sat>
234 <hdop>1.000000</hdop>
235 <vdop>1.700000</vdop>
236 <pdop>2.000000</pdop>
237</trkpt>
238<trkpt lat="53.792553333" lon="-1.727418333">
239 <ele>154.100000</ele>
240<time>2008-08-14T15:06:17Z</time>
241 <course>241.589996</course>
242 <speed>0.000000</speed>
243 <fix>3d</fix>
244 <sat>8</sat>
245 <hdop>1.000000</hdop>
246</trkpt>
247<trkpt lat="53.792553333" lon="-1.727421667">
248 <ele>153.700000</ele>
249<time>2008-08-14T15:06:18Z</time>
250 <course>241.589996</course>
251 <speed>0.000000</speed>
252 <fix>3d</fix>
253 <sat>8</sat>
254 <hdop>1.000000</hdop>
255</trkpt>
256<trkpt lat="53.792555000" lon="-1.727423333">
257 <ele>153.300000</ele>
258<time>2008-08-14T15:06:19Z</time>
259 <course>241.589996</course>
260 <speed>0.000000</speed>
261 <fix>3d</fix>
262 <sat>8</sat>
263 <hdop>1.000000</hdop>
264</trkpt>
265<trkpt lat="53.792555000" lon="-1.727425000">
266 <ele>152.900000</ele>
267<time>2008-08-14T15:06:20Z</time>
268 <course>241.589996</course>
269 <speed>0.000000</speed>
270 <fix>3d</fix>
271 <sat>8</sat>
272 <hdop>1.000000</hdop>
273</trkpt>
274<trkpt lat="53.792555000" lon="-1.727426667">
275 <ele>152.600000</ele>
276<time>2008-08-14T15:06:21Z</time>
277 <course>241.589996</course>
278 <speed>0.000000</speed>
279 <fix>3d</fix>
280 <sat>8</sat>
281 <hdop>1.000000</hdop>
282 <vdop>1.700000</vdop>
283 <pdop>2.000000</pdop>
284</trkpt>
285<trkpt lat="53.792555000" lon="-1.727430000">
286 <ele>152.200000</ele>
287<time>2008-08-14T15:06:22Z</time>
288 <course>241.589996</course>
289 <speed>0.000000</speed>
290 <fix>3d</fix>
291 <sat>8</sat>
292 <hdop>1.000000</hdop>
293</trkpt>
294<trkpt lat="53.792555000" lon="-1.727431667">
295 <ele>151.900000</ele>
296<time>2008-08-14T15:06:23Z</time>
297 <course>241.589996</course>
298 <speed>0.000000</speed>
299 <fix>3d</fix>
300 <sat>8</sat>
301 <hdop>1.000000</hdop>
302</trkpt>
303<trkpt lat="53.792555000" lon="-1.727433333">
304 <ele>151.600000</ele>
305<time>2008-08-14T15:06:24Z</time>
306 <course>241.589996</course>
307 <speed>0.000000</speed>
308 <fix>3d</fix>
309 <sat>8</sat>
310 <hdop>1.000000</hdop>
311</trkpt>
312<trkpt lat="53.792555000" lon="-1.727433333">
313 <ele>151.400000</ele>
314<time>2008-08-14T15:06:25Z</time>
315 <course>241.589996</course>
316 <speed>0.000000</speed>
317 <fix>3d</fix>
318 <sat>8</sat>
319 <hdop>1.000000</hdop>
320</trkpt>
321<trkpt lat="53.792555000" lon="-1.727435000">
322 <ele>151.200000</ele>
323<time>2008-08-14T15:06:26Z</time>
324 <course>241.589996</course>
325 <speed>0.000000</speed>
326 <fix>3d</fix>
327 <sat>8</sat>
328 <hdop>1.000000</hdop>
329 <vdop>1.700000</vdop>
330 <pdop>2.000000</pdop>
331</trkpt>
332<trkpt lat="53.792555000" lon="-1.727436667">
333 <ele>151.000000</ele>
334<time>2008-08-14T15:06:27Z</time>
335 <course>241.589996</course>
336 <speed>0.000000</speed>
337 <fix>3d</fix>
338 <sat>8</sat>
339 <hdop>1.000000</hdop>
340</trkpt>
341<trkpt lat="53.792555000" lon="-1.727436667">
342 <ele>150.800000</ele>
343<time>2008-08-14T15:06:28Z</time>
344 <course>241.589996</course>
345 <speed>0.000000</speed>
346 <fix>3d</fix>
347 <sat>8</sat>
348 <hdop>1.000000</hdop>
349</trkpt>
350<trkpt lat="53.792555000" lon="-1.727438333">
351 <ele>150.700000</ele>
352<time>2008-08-14T15:06:29Z</time>
353 <course>241.589996</course>
354 <speed>0.000000</speed>
355 <fix>3d</fix>
356 <sat>8</sat>
357 <hdop>1.000000</hdop>
358</trkpt>
359<trkpt lat="53.792555000" lon="-1.727440000">
360 <ele>150.500000</ele>
361<time>2008-08-14T15:06:30Z</time>
362 <course>241.589996</course>
363 <speed>0.000000</speed>
364 <fix>3d</fix>
365 <sat>8</sat>
366 <hdop>1.000000</hdop>
367</trkpt>
368<trkpt lat="53.792555000" lon="-1.727440000">
369 <ele>150.400000</ele>
370<time>2008-08-14T15:06:31Z</time>
371 <course>241.589996</course>
372 <speed>0.000000</speed>
373 <fix>3d</fix>
374 <sat>8</sat>
375 <hdop>1.000000</hdop>
376 <vdop>1.700000</vdop>
377 <pdop>2.000000</pdop>
378</trkpt>
379<trkpt lat="53.792555000" lon="-1.727441667">
380 <ele>150.200000</ele>
381<time>2008-08-14T15:06:32Z</time>
382 <course>241.589996</course>
383 <speed>0.000000</speed>
384 <fix>3d</fix>
385 <sat>8</sat>
386 <hdop>1.000000</hdop>
387</trkpt>
388<trkpt lat="53.792556667" lon="-1.727443333">
389 <ele>150.000000</ele>
390<time>2008-08-14T15:06:33Z</time>
391 <course>241.589996</course>
392 <speed>0.000000</speed>
393 <fix>3d</fix>
394 <sat>8</sat>
395 <hdop>1.000000</hdop>
396</trkpt>
397<trkpt lat="53.792556667" lon="-1.727445000">
398 <ele>149.900000</ele>
399<time>2008-08-14T15:06:34Z</time>
400 <course>241.589996</course>
401 <speed>0.000000</speed>
402 <fix>3d</fix>
403 <sat>8</sat>
404 <hdop>1.000000</hdop>
405</trkpt>
406<trkpt lat="53.792556667" lon="-1.727445000">
407 <ele>149.800000</ele>
408<time>2008-08-14T15:06:35Z</time>
409 <course>241.589996</course>
410 <speed>0.000000</speed>
411 <fix>3d</fix>
412 <sat>8</sat>
413 <hdop>1.000000</hdop>
414</trkpt>
415<trkpt lat="53.792556667" lon="-1.727445000">
416 <ele>149.800000</ele>
417<time>2008-08-14T15:06:36Z</time>
418 <course>241.589996</course>
419 <speed>0.000000</speed>
420 <fix>3d</fix>
421 <sat>8</sat>
422 <hdop>1.000000</hdop>
423 <vdop>1.700000</vdop>
424 <pdop>2.000000</pdop>
425</trkpt>
426<trkpt lat="53.792556667" lon="-1.727445000">
427 <ele>149.800000</ele>
428<time>2008-08-14T15:06:37Z</time>
429 <course>241.589996</course>
430 <speed>0.000000</speed>
431 <fix>3d</fix>
432 <sat>8</sat>
433 <hdop>1.000000</hdop>
434</trkpt>
435<trkpt lat="53.792555000" lon="-1.727445000">
436 <ele>149.900000</ele>
437<time>2008-08-14T15:06:38Z</time>
438 <course>241.589996</course>
439 <speed>0.000000</speed>
440 <fix>3d</fix>
441 <sat>8</sat>
442 <hdop>1.000000</hdop>
443</trkpt>
444<trkpt lat="53.792555000" lon="-1.727446667">
445 <ele>149.900000</ele>
446<time>2008-08-14T15:06:39Z</time>
447 <course>241.589996</course>
448 <speed>0.000000</speed>
449 <fix>3d</fix>
450 <sat>8</sat>
451 <hdop>1.000000</hdop>
452</trkpt>
453<trkpt lat="53.792555000" lon="-1.727446667">
454 <ele>149.900000</ele>
455<time>2008-08-14T15:06:40Z</time>
456 <course>241.589996</course>
457 <speed>0.000000</speed>
458 <fix>3d</fix>
459 <sat>8</sat>
460 <hdop>1.000000</hdop>
461</trkpt>
462<trkpt lat="53.792555000" lon="-1.727446667">
463 <ele>150.000000</ele>
464<time>2008-08-14T15:06:41Z</time>
465 <course>241.589996</course>
466 <speed>0.000000</speed>
467 <fix>3d</fix>
468 <sat>8</sat>
469 <hdop>1.000000</hdop>
470 <vdop>1.700000</vdop>
471 <pdop>2.000000</pdop>
472</trkpt>
473<trkpt lat="53.792555000" lon="-1.727446667">
474 <ele>150.000000</ele>
475<time>2008-08-14T15:06:42Z</time>
476 <course>241.589996</course>
477 <speed>0.000000</speed>
478 <fix>3d</fix>
479 <sat>8</sat>
480 <hdop>1.000000</hdop>
481</trkpt>
482<trkpt lat="53.792555000" lon="-1.727445000">
483 <ele>150.100000</ele>
484<time>2008-08-14T15:06:43Z</time>
485 <course>241.589996</course>
486 <speed>0.000000</speed>
487 <fix>3d</fix>
488 <sat>8</sat>
489 <hdop>1.000000</hdop>
490</trkpt>
491<trkpt lat="53.792555000" lon="-1.727445000">
492 <ele>150.200000</ele>
493<time>2008-08-14T15:06:44Z</time>
494 <course>241.589996</course>
495 <speed>0.000000</speed>
496 <fix>3d</fix>
497 <sat>8</sat>
498 <hdop>1.000000</hdop>
499</trkpt>
500<trkpt lat="53.792553333" lon="-1.727445000">
501 <ele>150.200000</ele>
502<time>2008-08-14T15:06:45Z</time>
503 <course>241.589996</course>
504 <speed>0.000000</speed>
505 <fix>3d</fix>
506 <sat>8</sat>
507 <hdop>1.000000</hdop>
508</trkpt>
509<trkpt lat="53.792553333" lon="-1.727445000">
510 <ele>150.300000</ele>
511<time>2008-08-14T15:06:46Z</time>
512 <course>241.589996</course>
513 <speed>0.000000</speed>
514 <fix>3d</fix>
515 <sat>8</sat>
516 <hdop>1.000000</hdop>
517 <vdop>1.700000</vdop>
518 <pdop>2.000000</pdop>
519</trkpt>
520<trkpt lat="53.792553333" lon="-1.727443333">
521 <ele>150.400000</ele>
522<time>2008-08-14T15:06:47Z</time>
523 <course>241.589996</course>
524 <speed>0.000000</speed>
525 <fix>3d</fix>
526 <sat>8</sat>
527 <hdop>1.000000</hdop>
528</trkpt>
529<trkpt lat="53.792553333" lon="-1.727445000">
530 <ele>150.300000</ele>
531<time>2008-08-14T15:06:48Z</time>
532 <course>241.589996</course>
533 <speed>0.000000</speed>
534 <fix>3d</fix>
535 <sat>8</sat>
536 <hdop>1.000000</hdop>
537</trkpt>
538<trkpt lat="53.792553333" lon="-1.727445000">
539 <ele>150.300000</ele>
540<time>2008-08-14T15:06:49Z</time>
541 <course>241.589996</course>
542 <speed>0.000000</speed>
543 <fix>3d</fix>
544 <sat>8</sat>
545 <hdop>1.000000</hdop>
546</trkpt>
547<trkpt lat="53.792553333" lon="-1.727445000">
548 <ele>150.300000</ele>
549<time>2008-08-14T15:06:50Z</time>
550 <course>241.589996</course>
551 <speed>0.000000</speed>
552 <fix>3d</fix>
553 <sat>8</sat>
554 <hdop>1.000000</hdop>
555</trkpt>
556<trkpt lat="53.792553333" lon="-1.727445000">
557 <ele>150.400000</ele>
558<time>2008-08-14T15:06:51Z</time>
559 <course>241.589996</course>
560 <speed>0.000000</speed>
561 <fix>3d</fix>
562 <sat>8</sat>
563 <hdop>1.000000</hdop>
564 <vdop>1.700000</vdop>
565 <pdop>2.000000</pdop>
566</trkpt>
567<trkpt lat="53.792551667" lon="-1.727443333">
568 <ele>150.600000</ele>
569<time>2008-08-14T15:06:52Z</time>
570 <course>241.589996</course>
571 <speed>0.000000</speed>
572 <fix>3d</fix>
573 <sat>8</sat>
574 <hdop>1.000000</hdop>
575</trkpt>
576<trkpt lat="53.792551667" lon="-1.727443333">
577 <ele>150.700000</ele>
578<time>2008-08-14T15:06:53Z</time>
579 <course>241.589996</course>
580 <speed>0.000000</speed>
581 <fix>3d</fix>
582 <sat>8</sat>
583 <hdop>1.000000</hdop>
584</trkpt>
585<trkpt lat="53.792550000" lon="-1.727441667">
586 <ele>150.900000</ele>
587<time>2008-08-14T15:06:54Z</time>
588 <course>241.589996</course>
589 <speed>0.000000</speed>
590 <fix>3d</fix>
591 <sat>8</sat>
592 <hdop>1.000000</hdop>
593</trkpt>
594<trkpt lat="53.792550000" lon="-1.727441667">
595 <ele>150.800000</ele>
596<time>2008-08-14T15:06:55Z</time>
597 <course>241.589996</course>
598 <speed>0.000000</speed>
599 <fix>3d</fix>
600 <sat>8</sat>
601 <hdop>1.000000</hdop>
602</trkpt>
603<trkpt lat="53.792550000" lon="-1.727441667">
604 <ele>151.000000</ele>
605<time>2008-08-14T15:06:56Z</time>
606 <course>241.589996</course>
607 <speed>0.000000</speed>
608 <fix>3d</fix>
609 <sat>8</sat>
610 <hdop>1.000000</hdop>
611 <vdop>1.700000</vdop>
612 <pdop>2.000000</pdop>
613</trkpt>
614<trkpt lat="53.792548333" lon="-1.727440000">
615 <ele>151.100000</ele>
616<time>2008-08-14T15:06:57Z</time>
617 <course>241.589996</course>
618 <speed>0.000000</speed>
619 <fix>3d</fix>
620 <sat>8</sat>
621 <hdop>1.000000</hdop>
622</trkpt>
623<trkpt lat="53.792548333" lon="-1.727440000">
624 <ele>151.300000</ele>
625<time>2008-08-14T15:06:58Z</time>
626 <course>241.589996</course>
627 <speed>0.000000</speed>
628 <fix>3d</fix>
629 <sat>8</sat>
630 <hdop>1.000000</hdop>
631</trkpt>
632<trkpt lat="53.792546667" lon="-1.727438333">
633 <ele>151.500000</ele>
634<time>2008-08-14T15:06:59Z</time>
635 <course>241.589996</course>
636 <speed>0.000000</speed>
637 <fix>3d</fix>
638 <sat>8</sat>
639 <hdop>1.000000</hdop>
640</trkpt>
641<trkpt lat="53.792545000" lon="-1.727438333">
642 <ele>151.700000</ele>
643<time>2008-08-14T15:07:00Z</time>
644 <course>241.589996</course>
645 <speed>0.000000</speed>
646 <fix>3d</fix>
647 <sat>8</sat>
648 <hdop>1.000000</hdop>
649</trkpt>
650<trkpt lat="53.792545000" lon="-1.727436667">
651 <ele>151.800000</ele>
652<time>2008-08-14T15:07:01Z</time>
653 <course>241.589996</course>
654 <speed>0.000000</speed>
655 <fix>3d</fix>
656 <sat>8</sat>
657 <hdop>1.000000</hdop>
658 <vdop>1.700000</vdop>
659 <pdop>2.000000</pdop>
660</trkpt>
661<trkpt lat="53.792545000" lon="-1.727435000">
662 <ele>151.900000</ele>
663<time>2008-08-14T15:07:02Z</time>
664 <course>241.589996</course>
665 <speed>0.000000</speed>
666 <fix>3d</fix>
667 <sat>8</sat>
668 <hdop>1.000000</hdop>
669</trkpt>
670<trkpt lat="53.792543333" lon="-1.727435000">
671 <ele>152.000000</ele>
672<time>2008-08-14T15:07:03Z</time>
673 <course>241.589996</course>
674 <speed>0.000000</speed>
675 <fix>3d</fix>
676 <sat>8</sat>
677 <hdop>1.000000</hdop>
678</trkpt>
679<trkpt lat="53.792543333" lon="-1.727433333">
680 <ele>152.000000</ele>
681<time>2008-08-14T15:07:04Z</time>
682 <course>241.589996</course>
683 <speed>0.000000</speed>
684 <fix>3d</fix>
685 <sat>8</sat>
686 <hdop>1.000000</hdop>
687</trkpt>
688<trkpt lat="53.792541667" lon="-1.727431667">
689 <ele>152.200000</ele>
690<time>2008-08-14T15:07:05Z</time>
691 <course>241.589996</course>
692 <speed>0.000000</speed>
693 <fix>3d</fix>
694 <sat>8</sat>
695 <hdop>1.000000</hdop>
696</trkpt>
697<trkpt lat="53.792541667" lon="-1.727431667">
698 <ele>152.300000</ele>
699<time>2008-08-14T15:07:06Z</time>
700 <course>241.589996</course>
701 <speed>0.000000</speed>
702 <fix>3d</fix>
703 <sat>8</sat>
704 <hdop>1.000000</hdop>
705 <vdop>1.700000</vdop>
706 <pdop>2.000000</pdop>
707</trkpt>
708<trkpt lat="53.792543333" lon="-1.727430000">
709 <ele>152.800000</ele>
710<time>2008-08-14T15:07:07Z</time>
711 <course>241.589996</course>
712 <speed>0.000000</speed>
713 <fix>3d</fix>
714 <sat>8</sat>
715 <hdop>1.000000</hdop>
716</trkpt>
717<trkpt lat="53.792543333" lon="-1.727428333">
718 <ele>153.300000</ele>
719<time>2008-08-14T15:07:08Z</time>
720 <course>241.589996</course>
721 <speed>0.000000</speed>
722 <fix>3d</fix>
723 <sat>8</sat>
724 <hdop>1.000000</hdop>
725</trkpt>
726<trkpt lat="53.792543333" lon="-1.727426667">
727 <ele>154.000000</ele>
728<time>2008-08-14T15:07:09Z</time>
729 <course>241.589996</course>
730 <speed>0.000000</speed>
731 <fix>3d</fix>
732 <sat>8</sat>
733 <hdop>1.000000</hdop>
734</trkpt>
735<trkpt lat="53.792543333" lon="-1.727425000">
736 <ele>154.500000</ele>
737<time>2008-08-14T15:07:10Z</time>
738 <course>241.589996</course>
739 <speed>0.000000</speed>
740 <fix>3d</fix>
741 <sat>7</sat>
742 <hdop>1.100000</hdop>
743</trkpt>
744<trkpt lat="53.792545000" lon="-1.727423333">
745 <ele>154.900000</ele>
746<time>2008-08-14T15:07:11Z</time>
747 <course>241.589996</course>
748 <speed>0.000000</speed>
749 <fix>3d</fix>
750 <sat>7</sat>
751 <hdop>1.100000</hdop>
752 <vdop>2.100000</vdop>
753 <pdop>2.400000</pdop>
754</trkpt>
755<trkpt lat="53.792545000" lon="-1.727423333">
756 <ele>155.300000</ele>
757<time>2008-08-14T15:07:12Z</time>
758 <course>241.589996</course>
759 <speed>0.000000</speed>
760 <fix>3d</fix>
761 <sat>7</sat>
762 <hdop>1.100000</hdop>
763</trkpt>
764<trkpt lat="53.792545000" lon="-1.727420000">
765 <ele>155.900000</ele>
766<time>2008-08-14T15:07:13Z</time>
767 <course>241.589996</course>
768 <speed>0.000000</speed>
769 <fix>3d</fix>
770 <sat>7</sat>
771 <hdop>1.100000</hdop>
772</trkpt>
773<trkpt lat="53.792545000" lon="-1.727416667">
774 <ele>156.500000</ele>
775<time>2008-08-14T15:07:14Z</time>
776 <course>241.589996</course>
777 <speed>0.000000</speed>
778 <fix>3d</fix>
779 <sat>7</sat>
780 <hdop>1.100000</hdop>
781</trkpt>
782<trkpt lat="53.792545000" lon="-1.727415000">
783 <ele>156.900000</ele>
784<time>2008-08-14T15:07:15Z</time>
785 <course>241.589996</course>
786 <speed>0.000000</speed>
787 <fix>3d</fix>
788 <sat>7</sat>
789 <hdop>1.100000</hdop>
790</trkpt>
791<trkpt lat="53.792543333" lon="-1.727411667">
792 <ele>157.500000</ele>
793<time>2008-08-14T15:07:16Z</time>
794 <course>241.589996</course>
795 <speed>0.000000</speed>
796 <fix>3d</fix>
797 <sat>7</sat>
798 <hdop>1.100000</hdop>
799 <vdop>2.100000</vdop>
800 <pdop>2.400000</pdop>
801</trkpt>
802<trkpt lat="53.792543333" lon="-1.727410000">
803 <ele>157.900000</ele>
804<time>2008-08-14T15:07:17Z</time>
805 <course>241.589996</course>
806 <speed>0.000000</speed>
807 <fix>3d</fix>
808 <sat>7</sat>
809 <hdop>1.100000</hdop>
810</trkpt>
811<trkpt lat="53.792541667" lon="-1.727416667">
812 <ele>156.600000</ele>
813<time>2008-08-14T15:07:18Z</time>
814 <course>241.589996</course>
815 <speed>0.000000</speed>
816 <fix>3d</fix>
817 <sat>8</sat>
818 <hdop>1.000000</hdop>
819</trkpt>
820<trkpt lat="53.792540000" lon="-1.727416667">
821 <ele>156.700000</ele>
822<time>2008-08-14T15:07:19Z</time>
823 <course>241.589996</course>
824 <speed>0.000000</speed>
825 <fix>3d</fix>
826 <sat>8</sat>
827 <hdop>1.000000</hdop>
828</trkpt>
829<trkpt lat="53.792540000" lon="-1.727415000">
830 <ele>157.100000</ele>
831<time>2008-08-14T15:07:20Z</time>
832 <course>241.589996</course>
833 <speed>0.000000</speed>
834 <fix>3d</fix>
835 <sat>8</sat>
836 <hdop>1.000000</hdop>
837</trkpt>
838<trkpt lat="53.792538333" lon="-1.727420000">
839 <ele>155.900000</ele>
840<time>2008-08-14T15:07:21Z</time>
841 <course>241.589996</course>
842 <speed>0.000000</speed>
843 <fix>3d</fix>
844 <sat>8</sat>
845 <hdop>1.000000</hdop>
846 <vdop>1.700000</vdop>
847 <pdop>2.000000</pdop>
848</trkpt>
849<trkpt lat="53.792536667" lon="-1.727426667">
850 <ele>154.600000</ele>
851<time>2008-08-14T15:07:22Z</time>
852 <course>241.589996</course>
853 <speed>0.000000</speed>
854 <fix>3d</fix>
855 <sat>8</sat>
856 <hdop>1.000000</hdop>
857</trkpt>
858<trkpt lat="53.792535000" lon="-1.727433333">
859 <ele>153.300000</ele>
860<time>2008-08-14T15:07:23Z</time>
861 <course>241.589996</course>
862 <speed>0.000000</speed>
863 <fix>3d</fix>
864 <sat>8</sat>
865 <hdop>1.000000</hdop>
866</trkpt>
867<trkpt lat="53.792535000" lon="-1.727441667">
868 <ele>152.000000</ele>
869<time>2008-08-14T15:07:24Z</time>
870 <course>241.589996</course>
871 <speed>0.000000</speed>
872 <fix>3d</fix>
873 <sat>8</sat>
874 <hdop>1.000000</hdop>
875</trkpt>
876<trkpt lat="53.792533333" lon="-1.727446667">
877 <ele>151.000000</ele>
878<time>2008-08-14T15:07:25Z</time>
879 <course>241.589996</course>
880 <speed>0.000000</speed>
881 <fix>3d</fix>
882 <sat>8</sat>
883 <hdop>1.000000</hdop>
884</trkpt>
885<trkpt lat="53.792531667" lon="-1.727450000">
886 <ele>150.000000</ele>
887<time>2008-08-14T15:07:26Z</time>
888 <course>241.589996</course>
889 <speed>0.000000</speed>
890 <fix>3d</fix>
891 <sat>8</sat>
892 <hdop>1.000000</hdop>
893 <vdop>1.700000</vdop>
894 <pdop>2.000000</pdop>
895</trkpt>
896<trkpt lat="53.792531667" lon="-1.727455000">
897 <ele>149.000000</ele>
898<time>2008-08-14T15:07:27Z</time>
899 <course>241.589996</course>
900 <speed>0.000000</speed>
901 <fix>3d</fix>
902 <sat>8</sat>
903 <hdop>1.000000</hdop>
904</trkpt>
905<trkpt lat="53.792531667" lon="-1.727460000">
906 <ele>148.000000</ele>
907<time>2008-08-14T15:07:28Z</time>
908 <course>241.589996</course>
909 <speed>0.000000</speed>
910 <fix>3d</fix>
911 <sat>8</sat>
912 <hdop>1.000000</hdop>
913</trkpt>
914<trkpt lat="53.792531667" lon="-1.727463333">
915 <ele>147.200000</ele>
916<time>2008-08-14T15:07:29Z</time>
917 <course>241.589996</course>
918 <speed>0.000000</speed>
919 <fix>3d</fix>
920 <sat>8</sat>
921 <hdop>1.000000</hdop>
922</trkpt>
923<trkpt lat="53.792530000" lon="-1.727465000">
924 <ele>146.700000</ele>
925<time>2008-08-14T15:07:30Z</time>
926 <course>241.589996</course>
927 <speed>0.000000</speed>
928 <fix>3d</fix>
929 <sat>8</sat>
930 <hdop>1.000000</hdop>
931</trkpt>
932<trkpt lat="53.792528333" lon="-1.727466667">
933 <ele>146.300000</ele>
934<time>2008-08-14T15:07:31Z</time>
935 <course>241.589996</course>
936 <speed>0.000000</speed>
937 <fix>3d</fix>
938 <sat>8</sat>
939 <hdop>1.000000</hdop>
940 <vdop>1.700000</vdop>
941 <pdop>2.000000</pdop>
942</trkpt>
943<trkpt lat="53.792528333" lon="-1.727468333">
944 <ele>145.800000</ele>
945<time>2008-08-14T15:07:32Z</time>
946 <course>241.589996</course>
947 <speed>0.000000</speed>
948 <fix>3d</fix>
949 <sat>8</sat>
950 <hdop>1.000000</hdop>
951</trkpt>
952<trkpt lat="53.792526667" lon="-1.727468333">
953 <ele>145.500000</ele>
954<time>2008-08-14T15:07:33Z</time>
955 <course>241.589996</course>
956 <speed>0.000000</speed>
957 <fix>3d</fix>
958 <sat>8</sat>
959 <hdop>1.000000</hdop>
960</trkpt>
961<trkpt lat="53.792525000" lon="-1.727468333">
962 <ele>145.100000</ele>
963<time>2008-08-14T15:07:34Z</time>
964 <course>241.589996</course>
965 <speed>0.000000</speed>
966 <fix>3d</fix>
967 <sat>7</sat>
968 <hdop>1.400000</hdop>
969</trkpt>
970<trkpt lat="53.792523333" lon="-1.727470000">
971 <ele>144.800000</ele>
972<time>2008-08-14T15:07:35Z</time>
973 <course>241.589996</course>
974 <speed>0.000000</speed>
975 <fix>3d</fix>
976 <sat>7</sat>
977 <hdop>1.400000</hdop>
978</trkpt>
979<trkpt lat="53.792521667" lon="-1.727470000">
980 <ele>144.500000</ele>
981<time>2008-08-14T15:07:36Z</time>
982 <course>241.589996</course>
983 <speed>0.000000</speed>
984 <fix>3d</fix>
985 <sat>7</sat>
986 <hdop>1.400000</hdop>
987 <vdop>2.100000</vdop>
988 <pdop>2.500000</pdop>
989</trkpt>
990<trkpt lat="53.792520000" lon="-1.727470000">
991 <ele>143.800000</ele>
992<time>2008-08-14T15:07:37Z</time>
993 <course>241.589996</course>
994 <speed>0.000000</speed>
995 <fix>3d</fix>
996 <sat>7</sat>
997 <hdop>1.400000</hdop>
998</trkpt>
999<trkpt lat="53.792518333" lon="-1.727470000">
1000 <ele>143.000000</ele>
1001<time>2008-08-14T15:07:38Z</time>
1002 <course>241.589996</course>
1003 <speed>0.000000</speed>
1004 <fix>3d</fix>
1005 <sat>7</sat>
1006 <hdop>1.400000</hdop>
1007</trkpt>
1008<trkpt lat="53.792515000" lon="-1.727470000">
1009 <ele>142.100000</ele>
1010<time>2008-08-14T15:07:39Z</time>
1011 <course>241.589996</course>
1012 <speed>0.000000</speed>
1013 <fix>3d</fix>
1014 <sat>7</sat>
1015 <hdop>1.400000</hdop>
1016</trkpt>
1017<trkpt lat="53.792513333" lon="-1.727470000">
1018 <ele>141.400000</ele>
1019<time>2008-08-14T15:07:40Z</time>
1020 <course>241.589996</course>
1021 <speed>0.000000</speed>
1022 <fix>3d</fix>
1023 <sat>7</sat>
1024 <hdop>1.400000</hdop>
1025</trkpt>
1026<trkpt lat="53.792510000" lon="-1.727470000">
1027 <ele>140.600000</ele>
1028<time>2008-08-14T15:07:41Z</time>
1029 <course>241.589996</course>
1030 <speed>0.000000</speed>
1031 <fix>3d</fix>
1032 <sat>7</sat>
1033 <hdop>1.400000</hdop>
1034 <vdop>2.100000</vdop>
1035 <pdop>2.500000</pdop>
1036</trkpt>
1037<trkpt lat="53.792508333" lon="-1.727468333">
1038 <ele>139.800000</ele>
1039<time>2008-08-14T15:07:42Z</time>
1040 <course>241.589996</course>
1041 <speed>0.000000</speed>
1042 <fix>3d</fix>
1043 <sat>7</sat>
1044 <hdop>1.400000</hdop>
1045</trkpt>
1046<trkpt lat="53.792506667" lon="-1.727468333">
1047 <ele>139.000000</ele>
1048<time>2008-08-14T15:07:43Z</time>
1049 <course>241.589996</course>
1050 <speed>0.000000</speed>
1051 <fix>3d</fix>
1052 <sat>7</sat>
1053 <hdop>1.400000</hdop>
1054</trkpt>
1055<trkpt lat="53.792505000" lon="-1.727468333">
1056 <ele>138.200000</ele>
1057<time>2008-08-14T15:07:44Z</time>
1058 <course>241.589996</course>
1059 <speed>0.000000</speed>
1060 <fix>3d</fix>
1061 <sat>7</sat>
1062 <hdop>1.400000</hdop>
1063</trkpt>
1064<trkpt lat="53.792501667" lon="-1.727466667">
1065 <ele>137.500000</ele>
1066<time>2008-08-14T15:07:45Z</time>
1067 <course>241.589996</course>
1068 <speed>0.000000</speed>
1069 <fix>3d</fix>
1070 <sat>7</sat>
1071 <hdop>1.400000</hdop>
1072</trkpt>
1073<trkpt lat="53.792500000" lon="-1.727465000">
1074 <ele>136.700000</ele>
1075<time>2008-08-14T15:07:46Z</time>
1076 <course>241.589996</course>
1077 <speed>0.000000</speed>
1078 <fix>3d</fix>
1079 <sat>7</sat>
1080 <hdop>1.400000</hdop>
1081 <vdop>2.100000</vdop>
1082 <pdop>2.500000</pdop>
1083</trkpt>
1084<trkpt lat="53.792498333" lon="-1.727463333">
1085 <ele>136.100000</ele>
1086<time>2008-08-14T15:07:47Z</time>
1087 <course>241.589996</course>
1088 <speed>0.000000</speed>
1089 <fix>3d</fix>
1090 <sat>7</sat>
1091 <hdop>1.400000</hdop>
1092</trkpt>
1093<trkpt lat="53.792496667" lon="-1.727463333">
1094 <ele>135.400000</ele>
1095<time>2008-08-14T15:07:48Z</time>
1096 <course>241.589996</course>
1097 <speed>0.000000</speed>
1098 <fix>3d</fix>
1099 <sat>7</sat>
1100 <hdop>1.400000</hdop>
1101</trkpt>
1102<trkpt lat="53.792493333" lon="-1.727461667">
1103 <ele>134.600000</ele>
1104<time>2008-08-14T15:07:49Z</time>
1105 <course>241.589996</course>
1106 <speed>0.000000</speed>
1107 <fix>3d</fix>
1108 <sat>7</sat>
1109 <hdop>1.400000</hdop>
1110</trkpt>
1111<trkpt lat="53.792491667" lon="-1.727460000">
1112 <ele>134.200000</ele>
1113<time>2008-08-14T15:07:50Z</time>
1114 <course>241.589996</course>
1115 <speed>0.000000</speed>
1116 <fix>3d</fix>
1117 <sat>7</sat>
1118 <hdop>1.400000</hdop>
1119</trkpt>
1120<trkpt lat="53.792490000" lon="-1.727458333">
1121 <ele>133.500000</ele>
1122<time>2008-08-14T15:07:51Z</time>
1123 <course>241.589996</course>
1124 <speed>0.000000</speed>
1125 <fix>3d</fix>
1126 <sat>6</sat>
1127 <hdop>1.700000</hdop>
1128 <vdop>2.200000</vdop>
1129 <pdop>2.800000</pdop>
1130</trkpt>
1131<trkpt lat="53.792488333" lon="-1.727456667">
1132 <ele>133.000000</ele>
1133<time>2008-08-14T15:07:52Z</time>
1134 <course>241.589996</course>
1135 <speed>0.000000</speed>
1136 <fix>3d</fix>
1137 <sat>7</sat>
1138 <hdop>1.400000</hdop>
1139</trkpt>
1140<trkpt lat="53.792490000" lon="-1.727458333">
1141 <ele>132.100000</ele>
1142<time>2008-08-14T15:07:53Z</time>
1143 <course>241.589996</course>
1144 <speed>0.000000</speed>
1145 <fix>3d</fix>
1146 <sat>7</sat>
1147 <hdop>1.400000</hdop>
1148</trkpt>
1149<trkpt lat="53.792490000" lon="-1.727456667">
1150 <ele>131.600000</ele>
1151<time>2008-08-14T15:07:54Z</time>
1152 <course>241.589996</course>
1153 <speed>0.000000</speed>
1154 <fix>3d</fix>
1155 <sat>7</sat>
1156 <hdop>1.400000</hdop>
1157</trkpt>
1158<trkpt lat="53.792491667" lon="-1.727455000">
1159 <ele>131.500000</ele>
1160<time>2008-08-14T15:07:55Z</time>
1161 <course>241.589996</course>
1162 <speed>0.000000</speed>
1163 <fix>3d</fix>
1164 <sat>7</sat>
1165 <hdop>1.400000</hdop>
1166</trkpt>
1167<trkpt lat="53.792491667" lon="-1.727453333">
1168 <ele>131.700000</ele>
1169<time>2008-08-14T15:07:56Z</time>
1170 <course>241.589996</course>
1171 <speed>0.000000</speed>
1172 <fix>3d</fix>
1173 <sat>6</sat>
1174 <hdop>1.500000</hdop>
1175 <vdop>2.800000</vdop>
1176 <pdop>3.200000</pdop>
1177</trkpt>
1178<trkpt lat="53.792493333" lon="-1.727451667">
1179 <ele>132.000000</ele>
1180<time>2008-08-14T15:07:57Z</time>
1181 <course>241.589996</course>
1182 <speed>0.000000</speed>
1183 <fix>3d</fix>
1184 <sat>6</sat>
1185 <hdop>1.500000</hdop>
1186</trkpt>
1187<trkpt lat="53.792493333" lon="-1.727448333">
1188 <ele>132.300000</ele>
1189<time>2008-08-14T15:07:58Z</time>
1190 <course>241.589996</course>
1191 <speed>0.000000</speed>
1192 <fix>3d</fix>
1193 <sat>6</sat>
1194 <hdop>1.500000</hdop>
1195</trkpt>
1196<trkpt lat="53.792495000" lon="-1.727446667">
1197 <ele>132.700000</ele>
1198<time>2008-08-14T15:07:59Z</time>
1199 <course>241.589996</course>
1200 <speed>0.000000</speed>
1201 <fix>3d</fix>
1202 <sat>6</sat>
1203 <hdop>1.500000</hdop>
1204</trkpt>
1205<trkpt lat="53.792495000" lon="-1.727443333">
1206 <ele>133.100000</ele>
1207<time>2008-08-14T15:08:00Z</time>
1208 <course>241.589996</course>
1209 <speed>0.000000</speed>
1210 <fix>3d</fix>
1211 <sat>5</sat>
1212 <hdop>1.800000</hdop>
1213</trkpt>
1214<trkpt lat="53.792495000" lon="-1.727440000">
1215 <ele>133.600000</ele>
1216<time>2008-08-14T15:08:01Z</time>
1217 <course>241.589996</course>
1218 <speed>0.000000</speed>
1219 <fix>3d</fix>
1220 <sat>5</sat>
1221 <hdop>1.800000</hdop>
1222 <vdop>2.900000</vdop>
1223 <pdop>3.400000</pdop>
1224</trkpt>
1225<trkpt lat="53.792496667" lon="-1.727436667">
1226 <ele>134.100000</ele>
1227<time>2008-08-14T15:08:02Z</time>
1228 <course>241.589996</course>
1229 <speed>0.000000</speed>
1230 <fix>3d</fix>
1231 <sat>5</sat>
1232 <hdop>1.800000</hdop>
1233</trkpt>
1234<trkpt lat="53.792496667" lon="-1.727433333">
1235 <ele>134.700000</ele>
1236<time>2008-08-14T15:08:03Z</time>
1237 <course>241.589996</course>
1238 <speed>0.000000</speed>
1239 <fix>3d</fix>
1240 <sat>5</sat>
1241 <hdop>1.800000</hdop>
1242</trkpt>
1243<trkpt lat="53.792496667" lon="-1.727428333">
1244 <ele>135.300000</ele>
1245<time>2008-08-14T15:08:04Z</time>
1246 <course>241.589996</course>
1247 <speed>0.000000</speed>
1248 <fix>3d</fix>
1249 <sat>5</sat>
1250 <hdop>1.800000</hdop>
1251</trkpt>
1252<trkpt lat="53.792496667" lon="-1.727425000">
1253 <ele>136.000000</ele>
1254<time>2008-08-14T15:08:05Z</time>
1255 <course>241.589996</course>
1256 <speed>0.000000</speed>
1257 <fix>3d</fix>
1258 <sat>5</sat>
1259 <hdop>1.800000</hdop>
1260</trkpt>
1261<trkpt lat="53.792498333" lon="-1.727421667">
1262 <ele>136.700000</ele>
1263<time>2008-08-14T15:08:06Z</time>
1264 <course>241.589996</course>
1265 <speed>0.000000</speed>
1266 <fix>3d</fix>
1267 <sat>7</sat>
1268 <hdop>1.100000</hdop>
1269 <vdop>2.100000</vdop>
1270 <pdop>2.300000</pdop>
1271</trkpt>
1272<trkpt lat="53.792498333" lon="-1.727418333">
1273 <ele>137.400000</ele>
1274<time>2008-08-14T15:08:07Z</time>
1275 <course>241.589996</course>
1276 <speed>0.000000</speed>
1277 <fix>3d</fix>
1278 <sat>7</sat>
1279 <hdop>1.100000</hdop>
1280</trkpt>
1281<trkpt lat="53.792498333" lon="-1.727415000">
1282 <ele>138.200000</ele>
1283<time>2008-08-14T15:08:08Z</time>
1284 <course>241.589996</course>
1285 <speed>0.000000</speed>
1286 <fix>3d</fix>
1287 <sat>7</sat>
1288 <hdop>1.100000</hdop>
1289</trkpt>
1290<trkpt lat="53.792498333" lon="-1.727411667">
1291 <ele>138.900000</ele>
1292<time>2008-08-14T15:08:09Z</time>
1293 <course>241.589996</course>
1294 <speed>0.000000</speed>
1295 <fix>3d</fix>
1296 <sat>7</sat>
1297 <hdop>1.100000</hdop>
1298</trkpt>
1299<trkpt lat="53.792498333" lon="-1.727406667">
1300 <ele>139.600000</ele>
1301<time>2008-08-14T15:08:10Z</time>
1302 <course>241.589996</course>
1303 <speed>0.000000</speed>
1304 <fix>3d</fix>
1305 <sat>7</sat>
1306 <hdop>1.100000</hdop>
1307</trkpt>
1308<trkpt lat="53.792498333" lon="-1.727403333">
1309 <ele>140.300000</ele>
1310<time>2008-08-14T15:08:11Z</time>
1311 <course>241.589996</course>
1312 <speed>0.000000</speed>
1313 <fix>3d</fix>
1314 <sat>7</sat>
1315 <hdop>1.100000</hdop>
1316 <vdop>2.100000</vdop>
1317 <pdop>2.300000</pdop>
1318</trkpt>
1319<trkpt lat="53.792498333" lon="-1.727400000">
1320 <ele>141.100000</ele>
1321<time>2008-08-14T15:08:12Z</time>
1322 <course>241.589996</course>
1323 <speed>0.000000</speed>
1324 <fix>3d</fix>
1325 <sat>7</sat>
1326 <hdop>1.100000</hdop>
1327</trkpt>
1328<trkpt lat="53.792498333" lon="-1.727396667">
1329 <ele>141.900000</ele>
1330<time>2008-08-14T15:08:13Z</time>
1331 <course>241.589996</course>
1332 <speed>0.000000</speed>
1333 <fix>3d</fix>
1334 <sat>8</sat>
1335 <hdop>1.000000</hdop>
1336</trkpt>
1337<trkpt lat="53.792500000" lon="-1.727393333">
1338 <ele>142.600000</ele>
1339<time>2008-08-14T15:08:14Z</time>
1340 <course>241.589996</course>
1341 <speed>0.000000</speed>
1342 <fix>3d</fix>
1343 <sat>8</sat>
1344 <hdop>1.000000</hdop>
1345</trkpt>
1346<trkpt lat="53.792500000" lon="-1.727391667">
1347 <ele>143.500000</ele>
1348<time>2008-08-14T15:08:15Z</time>
1349 <course>241.589996</course>
1350 <speed>0.000000</speed>
1351 <fix>3d</fix>
1352 <sat>8</sat>
1353 <hdop>1.000000</hdop>
1354</trkpt>
1355<trkpt lat="53.792500000" lon="-1.727393333">
1356 <ele>142.800000</ele>
1357<time>2008-08-14T15:08:16Z</time>
1358 <course>241.589996</course>
1359 <speed>0.000000</speed>
1360 <fix>3d</fix>
1361 <sat>8</sat>
1362 <hdop>1.000000</hdop>
1363 <vdop>1.700000</vdop>
1364 <pdop>2.000000</pdop>
1365</trkpt>
1366<trkpt lat="53.792498333" lon="-1.727398333">
1367 <ele>141.000000</ele>
1368<time>2008-08-14T15:08:17Z</time>
1369 <course>241.589996</course>
1370 <speed>0.000000</speed>
1371 <fix>3d</fix>
1372 <sat>8</sat>
1373 <hdop>1.000000</hdop>
1374</trkpt>
1375<trkpt lat="53.792498333" lon="-1.727406667">
1376 <ele>138.900000</ele>
1377<time>2008-08-14T15:08:18Z</time>
1378 <course>241.589996</course>
1379 <speed>0.000000</speed>
1380 <fix>3d</fix>
1381 <sat>8</sat>
1382 <hdop>1.000000</hdop>
1383</trkpt>
1384<trkpt lat="53.792496667" lon="-1.727413333">
1385 <ele>136.800000</ele>
1386<time>2008-08-14T15:08:19Z</time>
1387 <course>241.589996</course>
1388 <speed>0.000000</speed>
1389 <fix>3d</fix>
1390 <sat>8</sat>
1391 <hdop>1.000000</hdop>
1392</trkpt>
1393<trkpt lat="53.792495000" lon="-1.727418333">
1394 <ele>135.300000</ele>
1395<time>2008-08-14T15:08:20Z</time>
1396 <course>241.589996</course>
1397 <speed>0.000000</speed>
1398 <fix>3d</fix>
1399 <sat>8</sat>
1400 <hdop>1.000000</hdop>
1401</trkpt>
1402<trkpt lat="53.792493333" lon="-1.727423333">
1403 <ele>133.500000</ele>
1404<time>2008-08-14T15:08:21Z</time>
1405 <course>241.589996</course>
1406 <speed>0.000000</speed>
1407 <fix>3d</fix>
1408 <sat>8</sat>
1409 <hdop>1.000000</hdop>
1410 <vdop>1.700000</vdop>
1411 <pdop>2.000000</pdop>
1412</trkpt>
1413<trkpt lat="53.792491667" lon="-1.727426667">
1414 <ele>131.900000</ele>
1415<time>2008-08-14T15:08:22Z</time>
1416 <course>241.589996</course>
1417 <speed>0.000000</speed>
1418 <fix>3d</fix>
1419 <sat>8</sat>
1420 <hdop>1.000000</hdop>
1421</trkpt>
1422<trkpt lat="53.792490000" lon="-1.727431667">
1423 <ele>130.200000</ele>
1424<time>2008-08-14T15:08:23Z</time>
1425 <course>241.589996</course>
1426 <speed>0.000000</speed>
1427 <fix>3d</fix>
1428 <sat>8</sat>
1429 <hdop>1.000000</hdop>
1430</trkpt>
1431<trkpt lat="53.792486667" lon="-1.727435000">
1432 <ele>128.700000</ele>
1433<time>2008-08-14T15:08:24Z</time>
1434 <course>241.589996</course>
1435 <speed>0.000000</speed>
1436 <fix>3d</fix>
1437 <sat>8</sat>
1438 <hdop>1.000000</hdop>
1439</trkpt>
1440<trkpt lat="53.792483333" lon="-1.727438333">
1441 <ele>127.100000</ele>
1442<time>2008-08-14T15:08:25Z</time>
1443 <course>241.589996</course>
1444 <speed>0.000000</speed>
1445 <fix>3d</fix>
1446 <sat>8</sat>
1447 <hdop>1.000000</hdop>
1448</trkpt>
1449<trkpt lat="53.792481667" lon="-1.727440000">
1450 <ele>126.000000</ele>
1451<time>2008-08-14T15:08:26Z</time>
1452 <course>241.589996</course>
1453 <speed>0.000000</speed>
1454 <fix>3d</fix>
1455 <sat>8</sat>
1456 <hdop>1.000000</hdop>
1457 <vdop>1.700000</vdop>
1458 <pdop>2.000000</pdop>
1459</trkpt>
1460<trkpt lat="53.792478333" lon="-1.727441667">
1461 <ele>124.800000</ele>
1462<time>2008-08-14T15:08:27Z</time>
1463 <course>241.589996</course>
1464 <speed>0.000000</speed>
1465 <fix>3d</fix>
1466 <sat>8</sat>
1467 <hdop>1.000000</hdop>
1468</trkpt>
1469<trkpt lat="53.792476667" lon="-1.727443333">
1470 <ele>123.700000</ele>
1471<time>2008-08-14T15:08:28Z</time>
1472 <course>241.589996</course>
1473 <speed>0.000000</speed>
1474 <fix>3d</fix>
1475 <sat>8</sat>
1476 <hdop>1.000000</hdop>
1477</trkpt>
1478<trkpt lat="53.792475000" lon="-1.727445000">
1479 <ele>122.700000</ele>
1480<time>2008-08-14T15:08:29Z</time>
1481 <course>241.589996</course>
1482 <speed>0.000000</speed>
1483 <fix>3d</fix>
1484 <sat>8</sat>
1485 <hdop>1.000000</hdop>
1486</trkpt>
1487<trkpt lat="53.792471667" lon="-1.727446667">
1488 <ele>121.700000</ele>
1489<time>2008-08-14T15:08:30Z</time>
1490 <course>241.589996</course>
1491 <speed>0.000000</speed>
1492 <fix>3d</fix>
1493 <sat>8</sat>
1494 <hdop>1.000000</hdop>
1495</trkpt>
1496<trkpt lat="53.792470000" lon="-1.727446667">
1497 <ele>120.800000</ele>
1498<time>2008-08-14T15:08:31Z</time>
1499 <course>241.589996</course>
1500 <speed>0.000000</speed>
1501 <fix>3d</fix>
1502 <sat>8</sat>
1503 <hdop>1.000000</hdop>
1504 <vdop>1.700000</vdop>
1505 <pdop>2.000000</pdop>
1506</trkpt>
1507<trkpt lat="53.792471667" lon="-1.727448333">
1508 <ele>122.100000</ele>
1509<time>2008-08-14T15:08:32Z</time>
1510 <course>241.589996</course>
1511 <speed>0.000000</speed>
1512 <fix>3d</fix>
1513 <sat>8</sat>
1514 <hdop>1.000000</hdop>
1515</trkpt>
1516<trkpt lat="53.792473333" lon="-1.727448333">
1517 <ele>123.200000</ele>
1518<time>2008-08-14T15:08:33Z</time>
1519 <course>241.589996</course>
1520 <speed>0.000000</speed>
1521 <fix>3d</fix>
1522 <sat>8</sat>
1523 <hdop>1.000000</hdop>
1524</trkpt>
1525<trkpt lat="53.792470000" lon="-1.727448333">
1526 <ele>122.400000</ele>
1527<time>2008-08-14T15:08:34Z</time>
1528 <course>241.589996</course>
1529 <speed>0.000000</speed>
1530 <fix>3d</fix>
1531 <sat>8</sat>
1532 <hdop>1.000000</hdop>
1533</trkpt>
1534<trkpt lat="53.792468333" lon="-1.727448333">
1535 <ele>121.900000</ele>
1536<time>2008-08-14T15:08:35Z</time>
1537 <course>241.589996</course>
1538 <speed>0.000000</speed>
1539 <fix>3d</fix>
1540 <sat>8</sat>
1541 <hdop>1.000000</hdop>
1542</trkpt>
1543<trkpt lat="53.792468333" lon="-1.727450000">
1544 <ele>123.100000</ele>
1545<time>2008-08-14T15:08:36Z</time>
1546 <course>241.589996</course>
1547 <speed>0.000000</speed>
1548 <fix>3d</fix>
1549 <sat>8</sat>
1550 <hdop>1.000000</hdop>
1551 <vdop>1.700000</vdop>
1552 <pdop>2.000000</pdop>
1553</trkpt>
1554<trkpt lat="53.792466667" lon="-1.727446667">
1555 <ele>124.300000</ele>
1556<time>2008-08-14T15:08:37Z</time>
1557 <course>241.589996</course>
1558 <speed>0.000000</speed>
1559 <fix>3d</fix>
1560 <sat>8</sat>
1561 <hdop>1.000000</hdop>
1562</trkpt>
1563<trkpt lat="53.792461667" lon="-1.727441667">
1564 <ele>125.100000</ele>
1565<time>2008-08-14T15:08:38Z</time>
1566 <course>241.589996</course>
1567 <speed>0.000000</speed>
1568 <fix>3d</fix>
1569 <sat>8</sat>
1570 <hdop>1.000000</hdop>
1571</trkpt>
1572<trkpt lat="53.792455000" lon="-1.727431667">
1573 <ele>125.800000</ele>
1574<time>2008-08-14T15:08:39Z</time>
1575 <course>142.339996</course>
1576 <speed>0.972222</speed>
1577 <fix>3d</fix>
1578 <sat>8</sat>
1579 <hdop>1.000000</hdop>
1580</trkpt>
1581<trkpt lat="53.792446667" lon="-1.727421667">
1582 <ele>126.500000</ele>
1583<time>2008-08-14T15:08:40Z</time>
1584 <course>142.339996</course>
1585 <speed>0.000000</speed>
1586 <fix>3d</fix>
1587 <sat>8</sat>
1588 <hdop>1.000000</hdop>
1589</trkpt>
1590<trkpt lat="53.792438333" lon="-1.727415000">
1591 <ele>127.800000</ele>
1592<time>2008-08-14T15:08:41Z</time>
1593 <course>179.369995</course>
1594 <speed>0.972222</speed>
1595 <fix>3d</fix>
1596 <sat>7</sat>
1597 <hdop>1.200000</hdop>
1598 <vdop>2.000000</vdop>
1599 <pdop>2.300000</pdop>
1600</trkpt>
1601<trkpt lat="53.792421667" lon="-1.727403333">
1602 <ele>130.200000</ele>
1603<time>2008-08-14T15:08:42Z</time>
1604 <course>179.369995</course>
1605 <speed>0.000000</speed>
1606 <fix>3d</fix>
1607 <sat>8</sat>
1608 <hdop>1.000000</hdop>
1609</trkpt>
1610<trkpt lat="53.792406667" lon="-1.727390000">
1611 <ele>132.900000</ele>
1612<time>2008-08-14T15:08:43Z</time>
1613 <course>179.369995</course>
1614 <speed>0.000000</speed>
1615 <fix>3d</fix>
1616 <sat>8</sat>
1617 <hdop>1.000000</hdop>
1618</trkpt>
1619<trkpt lat="53.792398333" lon="-1.727391667">
1620 <ele>133.800000</ele>
1621<time>2008-08-14T15:08:44Z</time>
1622 <course>182.119995</course>
1623 <speed>1.055556</speed>
1624 <fix>3d</fix>
1625 <sat>8</sat>
1626 <hdop>1.000000</hdop>
1627</trkpt>
1628<trkpt lat="53.792380000" lon="-1.727385000">
1629 <ele>135.700000</ele>
1630<time>2008-08-14T15:08:45Z</time>
1631 <course>191.639999</course>
1632 <speed>1.305556</speed>
1633 <fix>3d</fix>
1634 <sat>8</sat>
1635 <hdop>1.000000</hdop>
1636</trkpt>
1637<trkpt lat="53.792365000" lon="-1.727385000">
1638 <ele>136.100000</ele>
1639<time>2008-08-14T15:08:46Z</time>
1640 <course>186.699997</course>
1641 <speed>1.527778</speed>
1642 <fix>3d</fix>
1643 <sat>8</sat>
1644 <hdop>1.000000</hdop>
1645 <vdop>1.700000</vdop>
1646 <pdop>2.000000</pdop>
1647</trkpt>
1648<trkpt lat="53.792346667" lon="-1.727386667">
1649 <ele>136.500000</ele>
1650<time>2008-08-14T15:08:47Z</time>
1651 <course>186.940002</course>
1652 <speed>1.750000</speed>
1653 <fix>3d</fix>
1654 <sat>8</sat>
1655 <hdop>1.000000</hdop>
1656</trkpt>
1657<trkpt lat="53.792330000" lon="-1.727390000">
1658 <ele>136.600000</ele>
1659<time>2008-08-14T15:08:48Z</time>
1660 <course>188.649994</course>
1661 <speed>1.888889</speed>
1662 <fix>3d</fix>
1663 <sat>8</sat>
1664 <hdop>1.000000</hdop>
1665</trkpt>
1666<trkpt lat="53.792310000" lon="-1.727388333">
1667 <ele>136.400000</ele>
1668<time>2008-08-14T15:08:49Z</time>
1669 <course>173.539993</course>
1670 <speed>2.055556</speed>
1671 <fix>3d</fix>
1672 <sat>8</sat>
1673 <hdop>1.000000</hdop>
1674</trkpt>
1675<trkpt lat="53.792296667" lon="-1.727383333">
1676 <ele>137.200000</ele>
1677<time>2008-08-14T15:08:50Z</time>
1678 <course>171.649994</course>
1679 <speed>1.694444</speed>
1680 <fix>3d</fix>
1681 <sat>8</sat>
1682 <hdop>1.000000</hdop>
1683</trkpt>
1684<trkpt lat="53.792291667" lon="-1.727380000">
1685 <ele>138.000000</ele>
1686<time>2008-08-14T15:08:51Z</time>
1687 <course>171.649994</course>
1688 <speed>0.000000</speed>
1689 <fix>3d</fix>
1690 <sat>8</sat>
1691 <hdop>1.000000</hdop>
1692 <vdop>1.700000</vdop>
1693 <pdop>2.000000</pdop>
1694</trkpt>
1695<trkpt lat="53.792290000" lon="-1.727376667">
1696 <ele>138.900000</ele>
1697<time>2008-08-14T15:08:52Z</time>
1698 <course>171.649994</course>
1699 <speed>0.000000</speed>
1700 <fix>3d</fix>
1701 <sat>8</sat>
1702 <hdop>1.000000</hdop>
1703</trkpt>
1704<trkpt lat="53.792290000" lon="-1.727375000">
1705 <ele>139.800000</ele>
1706<time>2008-08-14T15:08:53Z</time>
1707 <course>171.649994</course>
1708 <speed>0.000000</speed>
1709 <fix>3d</fix>
1710 <sat>8</sat>
1711 <hdop>1.000000</hdop>
1712</trkpt>
1713<trkpt lat="53.792291667" lon="-1.727371667">
1714 <ele>140.600000</ele>
1715<time>2008-08-14T15:08:54Z</time>
1716 <course>171.649994</course>
1717 <speed>0.000000</speed>
1718 <fix>3d</fix>
1719 <sat>8</sat>
1720 <hdop>1.000000</hdop>
1721</trkpt>
1722<trkpt lat="53.792293333" lon="-1.727368333">
1723 <ele>141.300000</ele>
1724<time>2008-08-14T15:08:55Z</time>
1725 <course>171.649994</course>
1726 <speed>0.000000</speed>
1727 <fix>3d</fix>
1728 <sat>8</sat>
1729 <hdop>1.000000</hdop>
1730</trkpt>
1731<trkpt lat="53.792295000" lon="-1.727365000">
1732 <ele>142.100000</ele>
1733<time>2008-08-14T15:08:56Z</time>
1734 <course>171.649994</course>
1735 <speed>0.000000</speed>
1736 <fix>3d</fix>
1737 <sat>8</sat>
1738 <hdop>1.000000</hdop>
1739 <vdop>1.700000</vdop>
1740 <pdop>2.000000</pdop>
1741</trkpt>
1742<trkpt lat="53.792295000" lon="-1.727360000">
1743 <ele>143.000000</ele>
1744<time>2008-08-14T15:08:57Z</time>
1745 <course>171.649994</course>
1746 <speed>0.000000</speed>
1747 <fix>3d</fix>
1748 <sat>8</sat>
1749 <hdop>1.000000</hdop>
1750</trkpt>
1751<trkpt lat="53.792296667" lon="-1.727356667">
1752 <ele>143.600000</ele>
1753<time>2008-08-14T15:08:58Z</time>
1754 <course>171.649994</course>
1755 <speed>0.000000</speed>
1756 <fix>3d</fix>
1757 <sat>8</sat>
1758 <hdop>1.000000</hdop>
1759</trkpt>
1760<trkpt lat="53.792296667" lon="-1.727353333">
1761 <ele>144.200000</ele>
1762<time>2008-08-14T15:08:59Z</time>
1763 <course>171.649994</course>
1764 <speed>0.000000</speed>
1765 <fix>3d</fix>
1766 <sat>8</sat>
1767 <hdop>1.000000</hdop>
1768</trkpt>
1769<trkpt lat="53.792296667" lon="-1.727348333">
1770 <ele>145.000000</ele>
1771<time>2008-08-14T15:09:00Z</time>
1772 <course>171.649994</course>
1773 <speed>0.000000</speed>
1774 <fix>3d</fix>
1775 <sat>8</sat>
1776 <hdop>1.000000</hdop>
1777</trkpt>
1778<trkpt lat="53.792298333" lon="-1.727345000">
1779 <ele>145.500000</ele>
1780<time>2008-08-14T15:09:01Z</time>
1781 <course>171.649994</course>
1782 <speed>0.000000</speed>
1783 <fix>3d</fix>
1784 <sat>8</sat>
1785 <hdop>1.000000</hdop>
1786 <vdop>1.700000</vdop>
1787 <pdop>2.000000</pdop>
1788</trkpt>
1789<trkpt lat="53.792298333" lon="-1.727341667">
1790 <ele>146.000000</ele>
1791<time>2008-08-14T15:09:02Z</time>
1792 <course>171.649994</course>
1793 <speed>0.000000</speed>
1794 <fix>3d</fix>
1795 <sat>8</sat>
1796 <hdop>1.000000</hdop>
1797</trkpt>
1798<trkpt lat="53.792300000" lon="-1.727338333">
1799 <ele>146.400000</ele>
1800<time>2008-08-14T15:09:03Z</time>
1801 <course>171.649994</course>
1802 <speed>0.000000</speed>
1803 <fix>3d</fix>
1804 <sat>8</sat>
1805 <hdop>1.000000</hdop>
1806</trkpt>
1807<trkpt lat="53.792300000" lon="-1.727335000">
1808 <ele>146.900000</ele>
1809<time>2008-08-14T15:09:04Z</time>
1810 <course>171.649994</course>
1811 <speed>0.000000</speed>
1812 <fix>3d</fix>
1813 <sat>9</sat>
1814 <hdop>0.900000</hdop>
1815</trkpt>
1816<trkpt lat="53.792300000" lon="-1.727331667">
1817 <ele>147.400000</ele>
1818<time>2008-08-14T15:09:05Z</time>
1819 <course>171.649994</course>
1820 <speed>0.000000</speed>
1821 <fix>3d</fix>
1822 <sat>8</sat>
1823 <hdop>1.000000</hdop>
1824</trkpt>
1825<trkpt lat="53.792301667" lon="-1.727328333">
1826 <ele>147.700000</ele>
1827<time>2008-08-14T15:09:06Z</time>
1828 <course>171.649994</course>
1829 <speed>0.000000</speed>
1830 <fix>3d</fix>
1831 <sat>8</sat>
1832 <hdop>1.000000</hdop>
1833 <vdop>1.500000</vdop>
1834 <pdop>1.800000</pdop>
1835</trkpt>
1836<trkpt lat="53.792303333" lon="-1.727326667">
1837 <ele>148.100000</ele>
1838<time>2008-08-14T15:09:07Z</time>
1839 <course>171.649994</course>
1840 <speed>0.000000</speed>
1841 <fix>3d</fix>
1842 <sat>8</sat>
1843 <hdop>1.000000</hdop>
1844</trkpt>
1845<trkpt lat="53.792303333" lon="-1.727323333">
1846 <ele>148.600000</ele>
1847<time>2008-08-14T15:09:08Z</time>
1848 <course>171.649994</course>
1849 <speed>0.000000</speed>
1850 <fix>3d</fix>
1851 <sat>8</sat>
1852 <hdop>1.000000</hdop>
1853</trkpt>
1854<trkpt lat="53.792303333" lon="-1.727320000">
1855 <ele>148.900000</ele>
1856<time>2008-08-14T15:09:09Z</time>
1857 <course>171.649994</course>
1858 <speed>0.000000</speed>
1859 <fix>3d</fix>
1860 <sat>9</sat>
1861 <hdop>0.900000</hdop>
1862</trkpt>
1863<trkpt lat="53.792303333" lon="-1.727318333">
1864 <ele>149.200000</ele>
1865<time>2008-08-14T15:09:10Z</time>
1866 <course>171.649994</course>
1867 <speed>0.000000</speed>
1868 <fix>3d</fix>
1869 <sat>9</sat>
1870 <hdop>0.900000</hdop>
1871</trkpt>
1872<trkpt lat="53.792303333" lon="-1.727316667">
1873 <ele>149.500000</ele>
1874<time>2008-08-14T15:09:11Z</time>
1875 <course>171.649994</course>
1876 <speed>0.000000</speed>
1877 <fix>3d</fix>
1878 <sat>9</sat>
1879 <hdop>0.900000</hdop>
1880 <vdop>1.500000</vdop>
1881 <pdop>1.700000</pdop>
1882</trkpt>
1883<trkpt lat="53.792305000" lon="-1.727315000">
1884 <ele>149.800000</ele>
1885<time>2008-08-14T15:09:12Z</time>
1886 <course>171.649994</course>
1887 <speed>0.000000</speed>
1888 <fix>3d</fix>
1889 <sat>9</sat>
1890 <hdop>0.900000</hdop>
1891</trkpt>
1892<trkpt lat="53.792305000" lon="-1.727311667">
1893 <ele>150.200000</ele>
1894<time>2008-08-14T15:09:13Z</time>
1895 <course>171.649994</course>
1896 <speed>0.000000</speed>
1897 <fix>3d</fix>
1898 <sat>8</sat>
1899 <hdop>1.000000</hdop>
1900</trkpt>
1901<trkpt lat="53.792305000" lon="-1.727310000">
1902 <ele>150.500000</ele>
1903<time>2008-08-14T15:09:14Z</time>
1904 <course>171.649994</course>
1905 <speed>0.000000</speed>
1906 <fix>3d</fix>
1907 <sat>8</sat>
1908 <hdop>1.000000</hdop>
1909</trkpt>
1910<trkpt lat="53.792305000" lon="-1.727308333">
1911 <ele>150.800000</ele>
1912<time>2008-08-14T15:09:15Z</time>
1913 <course>171.649994</course>
1914 <speed>0.000000</speed>
1915 <fix>3d</fix>
1916 <sat>8</sat>
1917 <hdop>1.000000</hdop>
1918</trkpt>
1919<trkpt lat="53.792306667" lon="-1.727305000">
1920 <ele>151.100000</ele>
1921<time>2008-08-14T15:09:16Z</time>
1922 <course>171.649994</course>
1923 <speed>0.000000</speed>
1924 <fix>3d</fix>
1925 <sat>8</sat>
1926 <hdop>1.000000</hdop>
1927 <vdop>1.700000</vdop>
1928 <pdop>2.000000</pdop>
1929</trkpt>
1930<trkpt lat="53.792306667" lon="-1.727303333">
1931 <ele>151.400000</ele>
1932<time>2008-08-14T15:09:17Z</time>
1933 <course>171.649994</course>
1934 <speed>0.000000</speed>
1935 <fix>3d</fix>
1936 <sat>8</sat>
1937 <hdop>1.000000</hdop>
1938</trkpt>
1939<trkpt lat="53.792306667" lon="-1.727301667">
1940 <ele>151.800000</ele>
1941<time>2008-08-14T15:09:18Z</time>
1942 <course>171.649994</course>
1943 <speed>0.000000</speed>
1944 <fix>3d</fix>
1945 <sat>8</sat>
1946 <hdop>1.000000</hdop>
1947</trkpt>
1948<trkpt lat="53.792306667" lon="-1.727300000">
1949 <ele>152.100000</ele>
1950<time>2008-08-14T15:09:19Z</time>
1951 <course>171.649994</course>
1952 <speed>0.000000</speed>
1953 <fix>3d</fix>
1954 <sat>8</sat>
1955 <hdop>1.000000</hdop>
1956</trkpt>
1957<trkpt lat="53.792306667" lon="-1.727298333">
1958 <ele>152.500000</ele>
1959<time>2008-08-14T15:09:20Z</time>
1960 <course>171.649994</course>
1961 <speed>0.000000</speed>
1962 <fix>3d</fix>
1963 <sat>9</sat>
1964 <hdop>0.900000</hdop>
1965</trkpt>
1966<trkpt lat="53.792306667" lon="-1.727296667">
1967 <ele>152.900000</ele>
1968<time>2008-08-14T15:09:21Z</time>
1969 <course>171.649994</course>
1970 <speed>0.000000</speed>
1971 <fix>3d</fix>
1972 <sat>9</sat>
1973 <hdop>0.900000</hdop>
1974 <vdop>1.500000</vdop>
1975 <pdop>1.700000</pdop>
1976</trkpt>
1977<trkpt lat="53.792308333" lon="-1.727295000">
1978 <ele>153.300000</ele>
1979<time>2008-08-14T15:09:22Z</time>
1980 <course>171.649994</course>
1981 <speed>0.000000</speed>
1982 <fix>3d</fix>
1983 <sat>9</sat>
1984 <hdop>0.900000</hdop>
1985</trkpt>
1986<trkpt lat="53.792308333" lon="-1.727293333">
1987 <ele>153.600000</ele>
1988<time>2008-08-14T15:09:23Z</time>
1989 <course>171.649994</course>
1990 <speed>0.000000</speed>
1991 <fix>3d</fix>
1992 <sat>9</sat>
1993 <hdop>0.900000</hdop>
1994</trkpt>
1995<trkpt lat="53.792306667" lon="-1.727290000">
1996 <ele>154.100000</ele>
1997<time>2008-08-14T15:09:24Z</time>
1998 <course>171.649994</course>
1999 <speed>0.000000</speed>
2000 <fix>3d</fix>
2001 <sat>9</sat>
2002 <hdop>0.900000</hdop>
2003</trkpt>
2004<trkpt lat="53.792308333" lon="-1.727285000">
2005 <ele>155.000000</ele>
2006<time>2008-08-14T15:09:25Z</time>
2007 <course>171.649994</course>
2008 <speed>0.000000</speed>
2009 <fix>3d</fix>
2010 <sat>9</sat>
2011 <hdop>0.900000</hdop>
2012</trkpt>
2013<trkpt lat="53.792306667" lon="-1.727278333">
2014 <ele>155.300000</ele>
2015<time>2008-08-14T15:09:26Z</time>
2016 <course>171.649994</course>
2017 <speed>0.000000</speed>
2018 <fix>3d</fix>
2019 <sat>9</sat>
2020 <hdop>0.900000</hdop>
2021 <vdop>1.500000</vdop>
2022 <pdop>1.700000</pdop>
2023</trkpt>
2024<trkpt lat="53.792298333" lon="-1.727261667">
2025 <ele>155.600000</ele>
2026<time>2008-08-14T15:09:27Z</time>
2027 <course>129.880005</course>
2028 <speed>1.361111</speed>
2029 <fix>3d</fix>
2030 <sat>8</sat>
2031 <hdop>1.000000</hdop>
2032</trkpt>
2033<trkpt lat="53.792291667" lon="-1.727226667">
2034 <ele>154.900000</ele>
2035<time>2008-08-14T15:09:28Z</time>
2036 <course>105.279999</course>
2037 <speed>2.750000</speed>
2038 <fix>3d</fix>
2039 <sat>8</sat>
2040 <hdop>1.000000</hdop>
2041</trkpt>
2042<trkpt lat="53.792286667" lon="-1.727158333">
2043 <ele>155.600000</ele>
2044<time>2008-08-14T15:09:29Z</time>
2045 <course>92.010002</course>
2046 <speed>4.166667</speed>
2047 <fix>3d</fix>
2048 <sat>7</sat>
2049 <hdop>1.100000</hdop>
2050</trkpt>
2051<trkpt lat="53.792296667" lon="-1.727080000">
2052 <ele>155.000000</ele>
2053<time>2008-08-14T15:09:30Z</time>
2054 <course>87.889999</course>
2055 <speed>5.222222</speed>
2056 <fix>3d</fix>
2057 <sat>8</sat>
2058 <hdop>1.000000</hdop>
2059</trkpt>
2060<trkpt lat="53.792306667" lon="-1.726996667">
2061 <ele>155.300000</ele>
2062<time>2008-08-14T15:09:31Z</time>
2063 <course>85.169998</course>
2064 <speed>5.444445</speed>
2065 <fix>3d</fix>
2066 <sat>8</sat>
2067 <hdop>1.000000</hdop>
2068 <vdop>1.700000</vdop>
2069 <pdop>2.000000</pdop>
2070</trkpt>
2071<trkpt lat="53.792318333" lon="-1.726923333">
2072 <ele>155.400000</ele>
2073<time>2008-08-14T15:09:32Z</time>
2074 <course>85.440002</course>
2075 <speed>5.027778</speed>
2076 <fix>3d</fix>
2077 <sat>8</sat>
2078 <hdop>1.000000</hdop>
2079</trkpt>
2080<trkpt lat="53.792331667" lon="-1.726863333">
2081 <ele>155.300000</ele>
2082<time>2008-08-14T15:09:33Z</time>
2083 <course>84.320000</course>
2084 <speed>4.333333</speed>
2085 <fix>3d</fix>
2086 <sat>8</sat>
2087 <hdop>1.000000</hdop>
2088</trkpt>
2089<trkpt lat="53.792340000" lon="-1.726813333">
2090 <ele>155.900000</ele>
2091<time>2008-08-14T15:09:34Z</time>
2092 <course>84.610001</course>
2093 <speed>3.305556</speed>
2094 <fix>3d</fix>
2095 <sat>8</sat>
2096 <hdop>1.000000</hdop>
2097</trkpt>
2098<trkpt lat="53.792348333" lon="-1.726780000">
2099 <ele>156.100000</ele>
2100<time>2008-08-14T15:09:35Z</time>
2101 <course>87.349998</course>
2102 <speed>2.250000</speed>
2103 <fix>3d</fix>
2104 <sat>8</sat>
2105 <hdop>1.000000</hdop>
2106</trkpt>
2107<trkpt lat="53.792356667" lon="-1.726760000">
2108 <ele>156.600000</ele>
2109<time>2008-08-14T15:09:36Z</time>
2110 <course>70.290001</course>
2111 <speed>1.444444</speed>
2112 <fix>3d</fix>
2113 <sat>8</sat>
2114 <hdop>1.000000</hdop>
2115 <vdop>1.700000</vdop>
2116 <pdop>2.000000</pdop>
2117</trkpt>
2118<trkpt lat="53.792363333" lon="-1.726748333">
2119 <ele>156.800000</ele>
2120<time>2008-08-14T15:09:37Z</time>
2121 <course>70.290001</course>
2122 <speed>0.000000</speed>
2123 <fix>3d</fix>
2124 <sat>8</sat>
2125 <hdop>1.000000</hdop>
2126</trkpt>
2127<trkpt lat="53.792368333" lon="-1.726740000">
2128 <ele>156.900000</ele>
2129<time>2008-08-14T15:09:38Z</time>
2130 <course>70.290001</course>
2131 <speed>0.000000</speed>
2132 <fix>3d</fix>
2133 <sat>8</sat>
2134 <hdop>1.000000</hdop>
2135</trkpt>
2136<trkpt lat="53.792363333" lon="-1.726725000">
2137 <ele>157.300000</ele>
2138<time>2008-08-14T15:09:39Z</time>
2139 <course>128.520004</course>
2140 <speed>0.833333</speed>
2141 <fix>3d</fix>
2142 <sat>8</sat>
2143 <hdop>1.000000</hdop>
2144</trkpt>
2145<trkpt lat="53.792343333" lon="-1.726721667">
2146 <ele>157.200000</ele>
2147<time>2008-08-14T15:09:40Z</time>
2148 <course>189.119995</course>
2149 <speed>2.333333</speed>
2150 <fix>3d</fix>
2151 <sat>8</sat>
2152 <hdop>1.000000</hdop>
2153</trkpt>
2154<trkpt lat="53.792303333" lon="-1.726726667">
2155 <ele>157.200000</ele>
2156<time>2008-08-14T15:09:41Z</time>
2157 <course>184.020004</course>
2158 <speed>4.000000</speed>
2159 <fix>3d</fix>
2160 <sat>8</sat>
2161 <hdop>1.000000</hdop>
2162 <vdop>1.700000</vdop>
2163 <pdop>2.000000</pdop>
2164</trkpt>
2165<trkpt lat="53.792253333" lon="-1.726733333">
2166 <ele>157.300000</ele>
2167<time>2008-08-14T15:09:42Z</time>
2168 <course>191.690002</course>
2169 <speed>4.750000</speed>
2170 <fix>3d</fix>
2171 <sat>6</sat>
2172 <hdop>1.300000</hdop>
2173</trkpt>
2174<trkpt lat="53.792206667" lon="-1.726748333">
2175 <ele>156.900000</ele>
2176<time>2008-08-14T15:09:43Z</time>
2177 <course>189.449997</course>
2178 <speed>5.027778</speed>
2179 <fix>3d</fix>
2180 <sat>7</sat>
2181 <hdop>1.100000</hdop>
2182</trkpt>
2183<trkpt lat="53.792161667" lon="-1.726763333">
2184 <ele>156.600000</ele>
2185<time>2008-08-14T15:09:44Z</time>
2186 <course>190.139999</course>
2187 <speed>4.861111</speed>
2188 <fix>3d</fix>
2189 <sat>8</sat>
2190 <hdop>1.000000</hdop>
2191</trkpt>
2192<trkpt lat="53.792118333" lon="-1.726783333">
2193 <ele>155.800000</ele>
2194<time>2008-08-14T15:09:45Z</time>
2195 <course>191.220001</course>
2196 <speed>4.361111</speed>
2197 <fix>3d</fix>
2198 <sat>8</sat>
2199 <hdop>1.000000</hdop>
2200</trkpt>
2201<trkpt lat="53.792083333" lon="-1.726795000">
2202 <ele>155.400000</ele>
2203<time>2008-08-14T15:09:46Z</time>
2204 <course>188.210007</course>
2205 <speed>3.805556</speed>
2206 <fix>3d</fix>
2207 <sat>8</sat>
2208 <hdop>1.000000</hdop>
2209 <vdop>1.700000</vdop>
2210 <pdop>2.000000</pdop>
2211</trkpt>
2212<trkpt lat="53.792053333" lon="-1.726800000">
2213 <ele>154.900000</ele>
2214<time>2008-08-14T15:09:47Z</time>
2215 <course>181.509995</course>
2216 <speed>3.138889</speed>
2217 <fix>3d</fix>
2218 <sat>8</sat>
2219 <hdop>1.000000</hdop>
2220</trkpt>
2221<trkpt lat="53.792028333" lon="-1.726795000">
2222 <ele>154.300000</ele>
2223<time>2008-08-14T15:09:48Z</time>
2224 <course>165.449997</course>
2225 <speed>2.333333</speed>
2226 <fix>3d</fix>
2227 <sat>8</sat>
2228 <hdop>1.000000</hdop>
2229</trkpt>
2230<trkpt lat="53.792010000" lon="-1.726781667">
2231 <ele>154.100000</ele>
2232<time>2008-08-14T15:09:49Z</time>
2233 <course>152.869995</course>
2234 <speed>1.777778</speed>
2235 <fix>3d</fix>
2236 <sat>8</sat>
2237 <hdop>1.000000</hdop>
2238</trkpt>
2239<trkpt lat="53.791996667" lon="-1.726771667">
2240 <ele>153.400000</ele>
2241<time>2008-08-14T15:09:50Z</time>
2242 <course>143.399994</course>
2243 <speed>1.444444</speed>
2244 <fix>3d</fix>
2245 <sat>8</sat>
2246 <hdop>1.000000</hdop>
2247</trkpt>
2248<trkpt lat="53.791988333" lon="-1.726761667">
2249 <ele>153.300000</ele>
2250<time>2008-08-14T15:09:51Z</time>
2251 <course>143.399994</course>
2252 <speed>0.000000</speed>
2253 <fix>3d</fix>
2254 <sat>8</sat>
2255 <hdop>1.000000</hdop>
2256 <vdop>1.700000</vdop>
2257 <pdop>2.000000</pdop>
2258</trkpt>
2259<trkpt lat="53.791981667" lon="-1.726756667">
2260 <ele>153.200000</ele>
2261<time>2008-08-14T15:09:52Z</time>
2262 <course>143.399994</course>
2263 <speed>0.000000</speed>
2264 <fix>3d</fix>
2265 <sat>8</sat>
2266 <hdop>1.000000</hdop>
2267</trkpt>
2268<trkpt lat="53.791973333" lon="-1.726758333">
2269 <ele>153.200000</ele>
2270<time>2008-08-14T15:09:53Z</time>
2271 <course>143.399994</course>
2272 <speed>0.000000</speed>
2273 <fix>3d</fix>
2274 <sat>7</sat>
2275 <hdop>1.400000</hdop>
2276</trkpt>
2277<trkpt lat="53.791965000" lon="-1.726758333">
2278 <ele>153.200000</ele>
2279<time>2008-08-14T15:09:54Z</time>
2280 <course>181.039993</course>
2281 <speed>0.861111</speed>
2282 <fix>3d</fix>
2283 <sat>9</sat>
2284 <hdop>0.900000</hdop>
2285</trkpt>
2286<trkpt lat="53.791953333" lon="-1.726761667">
2287 <ele>153.100000</ele>
2288<time>2008-08-14T15:09:55Z</time>
2289 <course>191.479996</course>
2290 <speed>1.055556</speed>
2291 <fix>3d</fix>
2292 <sat>8</sat>
2293 <hdop>1.000000</hdop>
2294</trkpt>
2295<trkpt lat="53.791945000" lon="-1.726766667">
2296 <ele>153.000000</ele>
2297<time>2008-08-14T15:09:56Z</time>
2298 <course>191.479996</course>
2299 <speed>0.000000</speed>
2300 <fix>3d</fix>
2301 <sat>8</sat>
2302 <hdop>1.000000</hdop>
2303 <vdop>1.700000</vdop>
2304 <pdop>2.000000</pdop>
2305</trkpt>
2306<trkpt lat="53.791941667" lon="-1.726780000">
2307 <ele>152.000000</ele>
2308<time>2008-08-14T15:09:57Z</time>
2309 <course>191.479996</course>
2310 <speed>0.000000</speed>
2311 <fix>3d</fix>
2312 <sat>9</sat>
2313 <hdop>0.900000</hdop>
2314</trkpt>
2315<trkpt lat="53.791935000" lon="-1.726790000">
2316 <ele>151.400000</ele>
2317<time>2008-08-14T15:09:58Z</time>
2318 <course>191.479996</course>
2319 <speed>0.000000</speed>
2320 <fix>3d</fix>
2321 <sat>9</sat>
2322 <hdop>0.900000</hdop>
2323</trkpt>
2324<trkpt lat="53.791930000" lon="-1.726798333">
2325 <ele>151.300000</ele>
2326<time>2008-08-14T15:09:59Z</time>
2327 <course>191.479996</course>
2328 <speed>0.000000</speed>
2329 <fix>3d</fix>
2330 <sat>9</sat>
2331 <hdop>0.900000</hdop>
2332</trkpt>
2333<trkpt lat="53.791926667" lon="-1.726816667">
2334 <ele>151.300000</ele>
2335<time>2008-08-14T15:10:00Z</time>
2336 <course>264.600006</course>
2337 <speed>1.361111</speed>
2338 <fix>3d</fix>
2339 <sat>9</sat>
2340 <hdop>0.900000</hdop>
2341</trkpt>
2342<trkpt lat="53.791930000" lon="-1.726846667">
2343 <ele>151.400000</ele>
2344<time>2008-08-14T15:10:01Z</time>
2345 <course>296.369995</course>
2346 <speed>1.916667</speed>
2347 <fix>3d</fix>
2348 <sat>9</sat>
2349 <hdop>0.900000</hdop>
2350 <vdop>1.500000</vdop>
2351 <pdop>1.700000</pdop>
2352</trkpt>
2353<trkpt lat="53.791936667" lon="-1.726868333">
2354 <ele>151.600000</ele>
2355<time>2008-08-14T15:10:02Z</time>
2356 <course>328.880005</course>
2357 <speed>1.750000</speed>
2358 <fix>3d</fix>
2359 <sat>9</sat>
2360 <hdop>0.900000</hdop>
2361</trkpt>
2362<trkpt lat="53.791945000" lon="-1.726875000">
2363 <ele>151.700000</ele>
2364<time>2008-08-14T15:10:03Z</time>
2365 <course>328.880005</course>
2366 <speed>0.000000</speed>
2367 <fix>3d</fix>
2368 <sat>9</sat>
2369 <hdop>0.900000</hdop>
2370</trkpt>
2371<trkpt lat="53.791950000" lon="-1.726876667">
2372 <ele>151.400000</ele>
2373<time>2008-08-14T15:10:04Z</time>
2374 <course>328.880005</course>
2375 <speed>0.000000</speed>
2376 <fix>3d</fix>
2377 <sat>9</sat>
2378 <hdop>0.900000</hdop>
2379</trkpt>
2380<trkpt lat="53.791955000" lon="-1.726873333">
2381 <ele>151.700000</ele>
2382<time>2008-08-14T15:10:05Z</time>
2383 <course>328.880005</course>
2384 <speed>0.000000</speed>
2385 <fix>3d</fix>
2386 <sat>9</sat>
2387 <hdop>0.900000</hdop>
2388</trkpt>
2389<trkpt lat="53.791965000" lon="-1.726868333">
2390 <ele>152.200000</ele>
2391<time>2008-08-14T15:10:06Z</time>
2392 <course>18.049999</course>
2393 <speed>1.083333</speed>
2394 <fix>3d</fix>
2395 <sat>9</sat>
2396 <hdop>0.900000</hdop>
2397 <vdop>1.500000</vdop>
2398 <pdop>1.700000</pdop>
2399</trkpt>
2400<trkpt lat="53.791986667" lon="-1.726856667">
2401 <ele>152.900000</ele>
2402<time>2008-08-14T15:10:07Z</time>
2403 <course>23.110001</course>
2404 <speed>2.138889</speed>
2405 <fix>3d</fix>
2406 <sat>9</sat>
2407 <hdop>0.900000</hdop>
2408</trkpt>
2409<trkpt lat="53.792020000" lon="-1.726836667">
2410 <ele>153.200000</ele>
2411<time>2008-08-14T15:10:08Z</time>
2412 <course>19.780001</course>
2413 <speed>3.777778</speed>
2414 <fix>3d</fix>
2415 <sat>8</sat>
2416 <hdop>1.000000</hdop>
2417</trkpt>
2418<trkpt lat="53.792061667" lon="-1.726813333">
2419 <ele>153.100000</ele>
2420<time>2008-08-14T15:10:09Z</time>
2421 <course>16.790001</course>
2422 <speed>4.805555</speed>
2423 <fix>3d</fix>
2424 <sat>8</sat>
2425 <hdop>1.000000</hdop>
2426</trkpt>
2427<trkpt lat="53.792100000" lon="-1.726795000">
2428 <ele>153.100000</ele>
2429<time>2008-08-14T15:10:10Z</time>
2430 <course>14.090000</course>
2431 <speed>4.555555</speed>
2432 <fix>3d</fix>
2433 <sat>8</sat>
2434 <hdop>1.000000</hdop>
2435</trkpt>
2436<trkpt lat="53.792136667" lon="-1.726780000">
2437 <ele>153.200000</ele>
2438<time>2008-08-14T15:10:11Z</time>
2439 <course>10.700000</course>
2440 <speed>4.222222</speed>
2441 <fix>3d</fix>
2442 <sat>9</sat>
2443 <hdop>0.900000</hdop>
2444 <vdop>1.500000</vdop>
2445 <pdop>1.700000</pdop>
2446</trkpt>
2447<trkpt lat="53.792168333" lon="-1.726770000">
2448 <ele>153.200000</ele>
2449<time>2008-08-14T15:10:12Z</time>
2450 <course>8.220000</course>
2451 <speed>3.805556</speed>
2452 <fix>3d</fix>
2453 <sat>8</sat>
2454 <hdop>1.000000</hdop>
2455</trkpt>
2456<trkpt lat="53.792193333" lon="-1.726765000">
2457 <ele>153.300000</ele>
2458<time>2008-08-14T15:10:13Z</time>
2459 <course>8.100000</course>
2460 <speed>3.194444</speed>
2461 <fix>3d</fix>
2462 <sat>8</sat>
2463 <hdop>1.000000</hdop>
2464</trkpt>
2465<trkpt lat="53.792210000" lon="-1.726761667">
2466 <ele>153.700000</ele>
2467<time>2008-08-14T15:10:14Z</time>
2468 <course>5.590000</course>
2469 <speed>2.194444</speed>
2470 <fix>3d</fix>
2471 <sat>8</sat>
2472 <hdop>1.000000</hdop>
2473</trkpt>
2474<trkpt lat="53.792220000" lon="-1.726765000">
2475 <ele>154.200000</ele>
2476<time>2008-08-14T15:10:15Z</time>
2477 <course>5.590000</course>
2478 <speed>0.000000</speed>
2479 <fix>3d</fix>
2480 <sat>8</sat>
2481 <hdop>1.000000</hdop>
2482</trkpt>
2483<trkpt lat="53.792226667" lon="-1.726766667">
2484 <ele>155.100000</ele>
2485<time>2008-08-14T15:10:16Z</time>
2486 <course>5.590000</course>
2487 <speed>0.000000</speed>
2488 <fix>3d</fix>
2489 <sat>8</sat>
2490 <hdop>1.000000</hdop>
2491 <vdop>1.700000</vdop>
2492 <pdop>2.000000</pdop>
2493</trkpt>
2494<trkpt lat="53.792228333" lon="-1.726770000">
2495 <ele>155.400000</ele>
2496<time>2008-08-14T15:10:17Z</time>
2497 <course>5.590000</course>
2498 <speed>0.000000</speed>
2499 <fix>3d</fix>
2500 <sat>8</sat>
2501 <hdop>1.000000</hdop>
2502</trkpt>
2503<trkpt lat="53.792230000" lon="-1.726771667">
2504 <ele>155.700000</ele>
2505<time>2008-08-14T15:10:18Z</time>
2506 <course>5.590000</course>
2507 <speed>0.000000</speed>
2508 <fix>3d</fix>
2509 <sat>8</sat>
2510 <hdop>1.000000</hdop>
2511</trkpt>
2512<trkpt lat="53.792230000" lon="-1.726775000">
2513 <ele>156.100000</ele>
2514<time>2008-08-14T15:10:19Z</time>
2515 <course>5.590000</course>
2516 <speed>0.000000</speed>
2517 <fix>3d</fix>
2518 <sat>8</sat>
2519 <hdop>1.000000</hdop>
2520</trkpt>
2521<trkpt lat="53.792231667" lon="-1.726775000">
2522 <ele>156.700000</ele>
2523<time>2008-08-14T15:10:20Z</time>
2524 <course>5.590000</course>
2525 <speed>0.000000</speed>
2526 <fix>3d</fix>
2527 <sat>8</sat>
2528 <hdop>1.000000</hdop>
2529</trkpt>
2530<trkpt lat="53.792233333" lon="-1.726778333">
2531 <ele>157.000000</ele>
2532<time>2008-08-14T15:10:21Z</time>
2533 <course>5.590000</course>
2534 <speed>0.000000</speed>
2535 <fix>3d</fix>
2536 <sat>8</sat>
2537 <hdop>1.000000</hdop>
2538 <vdop>1.700000</vdop>
2539 <pdop>2.000000</pdop>
2540</trkpt>
2541<trkpt lat="53.792233333" lon="-1.726780000">
2542 <ele>157.300000</ele>
2543<time>2008-08-14T15:10:22Z</time>
2544 <course>5.590000</course>
2545 <speed>0.000000</speed>
2546 <fix>3d</fix>
2547 <sat>8</sat>
2548 <hdop>1.000000</hdop>
2549</trkpt>
2550<trkpt lat="53.792235000" lon="-1.726783333">
2551 <ele>157.500000</ele>
2552<time>2008-08-14T15:10:23Z</time>
2553 <course>5.590000</course>
2554 <speed>0.000000</speed>
2555 <fix>3d</fix>
2556 <sat>8</sat>
2557 <hdop>1.000000</hdop>
2558</trkpt>
2559<trkpt lat="53.792235000" lon="-1.726783333">
2560 <ele>157.800000</ele>
2561<time>2008-08-14T15:10:24Z</time>
2562 <course>5.590000</course>
2563 <speed>0.000000</speed>
2564 <fix>3d</fix>
2565 <sat>8</sat>
2566 <hdop>1.000000</hdop>
2567</trkpt>
2568<trkpt lat="53.792236667" lon="-1.726786667">
2569 <ele>157.900000</ele>
2570<time>2008-08-14T15:10:25Z</time>
2571 <course>5.590000</course>
2572 <speed>0.000000</speed>
2573 <fix>3d</fix>
2574 <sat>8</sat>
2575 <hdop>1.000000</hdop>
2576</trkpt>
2577<trkpt lat="53.792238333" lon="-1.726786667">
2578 <ele>158.300000</ele>
2579<time>2008-08-14T15:10:26Z</time>
2580 <course>5.590000</course>
2581 <speed>0.000000</speed>
2582 <fix>3d</fix>
2583 <sat>8</sat>
2584 <hdop>1.000000</hdop>
2585 <vdop>1.700000</vdop>
2586 <pdop>2.000000</pdop>
2587</trkpt>
2588<trkpt lat="53.792240000" lon="-1.726786667">
2589 <ele>158.900000</ele>
2590<time>2008-08-14T15:10:27Z</time>
2591 <course>5.590000</course>
2592 <speed>0.000000</speed>
2593 <fix>3d</fix>
2594 <sat>8</sat>
2595 <hdop>1.000000</hdop>
2596</trkpt>
2597<trkpt lat="53.792241667" lon="-1.726786667">
2598 <ele>159.500000</ele>
2599<time>2008-08-14T15:10:28Z</time>
2600 <course>5.590000</course>
2601 <speed>0.000000</speed>
2602 <fix>3d</fix>
2603 <sat>8</sat>
2604 <hdop>1.000000</hdop>
2605</trkpt>
2606<trkpt lat="53.792243333" lon="-1.726788333">
2607 <ele>160.000000</ele>
2608<time>2008-08-14T15:10:29Z</time>
2609 <course>5.590000</course>
2610 <speed>0.000000</speed>
2611 <fix>3d</fix>
2612 <sat>8</sat>
2613 <hdop>1.000000</hdop>
2614</trkpt>
2615<trkpt lat="53.792245000" lon="-1.726788333">
2616 <ele>160.400000</ele>
2617<time>2008-08-14T15:10:30Z</time>
2618 <course>5.590000</course>
2619 <speed>0.000000</speed>
2620 <fix>3d</fix>
2621 <sat>8</sat>
2622 <hdop>1.000000</hdop>
2623</trkpt>
2624<trkpt lat="53.792248333" lon="-1.726790000">
2625 <ele>160.800000</ele>
2626<time>2008-08-14T15:10:31Z</time>
2627 <course>5.590000</course>
2628 <speed>0.000000</speed>
2629 <fix>3d</fix>
2630 <sat>8</sat>
2631 <hdop>1.000000</hdop>
2632 <vdop>1.700000</vdop>
2633 <pdop>2.000000</pdop>
2634</trkpt>
2635<trkpt lat="53.792250000" lon="-1.726791667">
2636 <ele>161.200000</ele>
2637<time>2008-08-14T15:10:32Z</time>
2638 <course>5.590000</course>
2639 <speed>0.000000</speed>
2640 <fix>3d</fix>
2641 <sat>8</sat>
2642 <hdop>1.000000</hdop>
2643</trkpt>
2644<trkpt lat="53.792250000" lon="-1.726791667">
2645 <ele>161.400000</ele>
2646<time>2008-08-14T15:10:33Z</time>
2647 <course>5.590000</course>
2648 <speed>0.000000</speed>
2649 <fix>3d</fix>
2650 <sat>8</sat>
2651 <hdop>1.000000</hdop>
2652</trkpt>
2653<trkpt lat="53.792255000" lon="-1.726791667">
2654 <ele>161.500000</ele>
2655<time>2008-08-14T15:10:34Z</time>
2656 <course>5.590000</course>
2657 <speed>0.000000</speed>
2658 <fix>3d</fix>
2659 <sat>8</sat>
2660 <hdop>1.000000</hdop>
2661</trkpt>
2662<trkpt lat="53.792263333" lon="-1.726793333">
2663 <ele>160.500000</ele>
2664<time>2008-08-14T15:10:35Z</time>
2665 <course>353.260010</course>
2666 <speed>1.000000</speed>
2667 <fix>3d</fix>
2668 <sat>8</sat>
2669 <hdop>1.000000</hdop>
2670</trkpt>
2671<trkpt lat="53.792273333" lon="-1.726796667">
2672 <ele>160.300000</ele>
2673<time>2008-08-14T15:10:36Z</time>
2674 <course>353.260010</course>
2675 <speed>0.000000</speed>
2676 <fix>3d</fix>
2677 <sat>8</sat>
2678 <hdop>1.000000</hdop>
2679 <vdop>1.700000</vdop>
2680 <pdop>2.000000</pdop>
2681</trkpt>
2682<trkpt lat="53.792281667" lon="-1.726798333">
2683 <ele>159.500000</ele>
2684<time>2008-08-14T15:10:37Z</time>
2685 <course>353.260010</course>
2686 <speed>0.000000</speed>
2687 <fix>3d</fix>
2688 <sat>8</sat>
2689 <hdop>1.000000</hdop>
2690</trkpt>
2691<trkpt lat="53.792290000" lon="-1.726805000">
2692 <ele>159.500000</ele>
2693<time>2008-08-14T15:10:38Z</time>
2694 <course>353.260010</course>
2695 <speed>0.000000</speed>
2696 <fix>3d</fix>
2697 <sat>8</sat>
2698 <hdop>1.000000</hdop>
2699</trkpt>
2700<trkpt lat="53.792300000" lon="-1.726818333">
2701 <ele>158.900000</ele>
2702<time>2008-08-14T15:10:39Z</time>
2703 <course>313.619995</course>
2704 <speed>1.416667</speed>
2705 <fix>3d</fix>
2706 <sat>8</sat>
2707 <hdop>1.000000</hdop>
2708</trkpt>
2709<trkpt lat="53.792310000" lon="-1.726850000">
2710 <ele>158.200000</ele>
2711<time>2008-08-14T15:10:40Z</time>
2712 <course>288.829987</course>
2713 <speed>2.472222</speed>
2714 <fix>3d</fix>
2715 <sat>7</sat>
2716 <hdop>1.200000</hdop>
2717</trkpt>
2718<trkpt lat="53.792315000" lon="-1.726905000">
2719 <ele>157.700000</ele>
2720<time>2008-08-14T15:10:41Z</time>
2721 <course>276.029999</course>
2722 <speed>3.555556</speed>
2723 <fix>3d</fix>
2724 <sat>8</sat>
2725 <hdop>1.000000</hdop>
2726 <vdop>1.700000</vdop>
2727 <pdop>2.000000</pdop>
2728</trkpt>
2729<trkpt lat="53.792315000" lon="-1.726981667">
2730 <ele>157.000000</ele>
2731<time>2008-08-14T15:10:42Z</time>
2732 <course>269.880005</course>
2733 <speed>5.000000</speed>
2734 <fix>3d</fix>
2735 <sat>8</sat>
2736 <hdop>1.000000</hdop>
2737</trkpt>
2738<trkpt lat="53.792311667" lon="-1.727086667">
2739 <ele>156.400000</ele>
2740<time>2008-08-14T15:10:43Z</time>
2741 <course>266.799988</course>
2742 <speed>6.722222</speed>
2743 <fix>3d</fix>
2744 <sat>7</sat>
2745 <hdop>1.200000</hdop>
2746</trkpt>
2747<trkpt lat="53.792306667" lon="-1.727208333">
2748 <ele>155.500000</ele>
2749<time>2008-08-14T15:10:44Z</time>
2750 <course>265.570007</course>
2751 <speed>7.833333</speed>
2752 <fix>3d</fix>
2753 <sat>8</sat>
2754 <hdop>1.000000</hdop>
2755</trkpt>
2756<trkpt lat="53.792298333" lon="-1.727335000">
2757 <ele>154.500000</ele>
2758<time>2008-08-14T15:10:45Z</time>
2759 <course>265.959991</course>
2760 <speed>8.250000</speed>
2761 <fix>3d</fix>
2762 <sat>9</sat>
2763 <hdop>0.900000</hdop>
2764</trkpt>
2765<trkpt lat="53.792290000" lon="-1.727466667">
2766 <ele>153.800000</ele>
2767<time>2008-08-14T15:10:46Z</time>
2768 <course>264.980011</course>
2769 <speed>8.527778</speed>
2770 <fix>3d</fix>
2771 <sat>9</sat>
2772 <hdop>0.900000</hdop>
2773 <vdop>1.400000</vdop>
2774 <pdop>1.700000</pdop>
2775</trkpt>
2776<trkpt lat="53.792283333" lon="-1.727603333">
2777 <ele>153.000000</ele>
2778<time>2008-08-14T15:10:47Z</time>
2779 <course>266.450012</course>
2780 <speed>8.805555</speed>
2781 <fix>3d</fix>
2782 <sat>9</sat>
2783 <hdop>0.900000</hdop>
2784</trkpt>
2785<trkpt lat="53.792278333" lon="-1.727743333">
2786 <ele>152.400000</ele>
2787<time>2008-08-14T15:10:48Z</time>
2788 <course>267.390015</course>
2789 <speed>9.083333</speed>
2790 <fix>3d</fix>
2791 <sat>8</sat>
2792 <hdop>1.100000</hdop>
2793</trkpt>
2794<trkpt lat="53.792273333" lon="-1.727886667">
2795 <ele>151.700000</ele>
2796<time>2008-08-14T15:10:49Z</time>
2797 <course>266.920013</course>
2798 <speed>9.361111</speed>
2799 <fix>3d</fix>
2800 <sat>8</sat>
2801 <hdop>1.100000</hdop>
2802</trkpt>
2803<trkpt lat="53.792265000" lon="-1.728036667">
2804 <ele>151.100000</ele>
2805<time>2008-08-14T15:10:50Z</time>
2806 <course>266.589996</course>
2807 <speed>9.666667</speed>
2808 <fix>3d</fix>
2809 <sat>8</sat>
2810 <hdop>1.100000</hdop>
2811</trkpt>
2812<trkpt lat="53.792256667" lon="-1.728188333">
2813 <ele>150.500000</ele>
2814<time>2008-08-14T15:10:51Z</time>
2815 <course>265.899994</course>
2816 <speed>9.916667</speed>
2817 <fix>3d</fix>
2818 <sat>8</sat>
2819 <hdop>1.000000</hdop>
2820 <vdop>1.700000</vdop>
2821 <pdop>2.000000</pdop>
2822</trkpt>
2823<trkpt lat="53.792250000" lon="-1.728343333">
2824 <ele>149.800000</ele>
2825<time>2008-08-14T15:10:52Z</time>
2826 <course>266.279999</course>
2827 <speed>10.138889</speed>
2828 <fix>3d</fix>
2829 <sat>7</sat>
2830 <hdop>1.200000</hdop>
2831</trkpt>
2832<trkpt lat="53.792243333" lon="-1.728505000">
2833 <ele>148.800000</ele>
2834<time>2008-08-14T15:10:53Z</time>
2835 <course>268.500000</course>
2836 <speed>10.472222</speed>
2837 <fix>3d</fix>
2838 <sat>7</sat>
2839 <hdop>1.200000</hdop>
2840</trkpt>
2841<trkpt lat="53.792240000" lon="-1.728670000">
2842 <ele>148.200000</ele>
2843<time>2008-08-14T15:10:54Z</time>
2844 <course>266.429993</course>
2845 <speed>10.694445</speed>
2846 <fix>3d</fix>
2847 <sat>7</sat>
2848 <hdop>1.200000</hdop>
2849</trkpt>
2850<trkpt lat="53.792235000" lon="-1.728835000">
2851 <ele>147.500000</ele>
2852<time>2008-08-14T15:10:55Z</time>
2853 <course>269.239990</course>
2854 <speed>10.777778</speed>
2855 <fix>3d</fix>
2856 <sat>5</sat>
2857 <hdop>1.400000</hdop>
2858</trkpt>
2859<trkpt lat="53.792233333" lon="-1.729003333">
2860 <ele>146.700000</ele>
2861<time>2008-08-14T15:10:56Z</time>
2862 <course>270.339996</course>
2863 <speed>11.000000</speed>
2864 <fix>3d</fix>
2865 <sat>5</sat>
2866 <hdop>1.400000</hdop>
2867 <vdop>2.500000</vdop>
2868 <pdop>2.800000</pdop>
2869</trkpt>
2870<trkpt lat="53.792231667" lon="-1.729175000">
2871 <ele>146.000000</ele>
2872<time>2008-08-14T15:10:57Z</time>
2873 <course>269.399994</course>
2874 <speed>11.194445</speed>
2875 <fix>3d</fix>
2876 <sat>5</sat>
2877 <hdop>1.400000</hdop>
2878</trkpt>
2879<trkpt lat="53.792230000" lon="-1.729350000">
2880 <ele>145.400000</ele>
2881<time>2008-08-14T15:10:58Z</time>
2882 <course>269.019989</course>
2883 <speed>11.388889</speed>
2884 <fix>3d</fix>
2885 <sat>5</sat>
2886 <hdop>1.400000</hdop>
2887</trkpt>
2888<trkpt lat="53.792228333" lon="-1.729526667">
2889 <ele>144.700000</ele>
2890<time>2008-08-14T15:10:59Z</time>
2891 <course>269.959991</course>
2892 <speed>11.583333</speed>
2893 <fix>3d</fix>
2894 <sat>5</sat>
2895 <hdop>1.400000</hdop>
2896</trkpt>
2897<trkpt lat="53.792226667" lon="-1.729706667">
2898 <ele>144.100000</ele>
2899<time>2008-08-14T15:11:00Z</time>
2900 <course>269.880005</course>
2901 <speed>11.777778</speed>
2902 <fix>3d</fix>
2903 <sat>5</sat>
2904 <hdop>1.400000</hdop>
2905</trkpt>
2906<trkpt lat="53.792225000" lon="-1.729890000">
2907 <ele>143.500000</ele>
2908<time>2008-08-14T15:11:01Z</time>
2909 <course>269.170013</course>
2910 <speed>11.944445</speed>
2911 <fix>3d</fix>
2912 <sat>7</sat>
2913 <hdop>1.200000</hdop>
2914 <vdop>2.100000</vdop>
2915 <pdop>2.400000</pdop>
2916</trkpt>
2917<trkpt lat="53.792223333" lon="-1.730073333">
2918 <ele>142.900000</ele>
2919<time>2008-08-14T15:11:02Z</time>
2920 <course>269.500000</course>
2921 <speed>12.000000</speed>
2922 <fix>3d</fix>
2923 <sat>7</sat>
2924 <hdop>1.200000</hdop>
2925</trkpt>
2926<trkpt lat="53.792221667" lon="-1.730258333">
2927 <ele>142.500000</ele>
2928<time>2008-08-14T15:11:03Z</time>
2929 <course>269.489990</course>
2930 <speed>12.027778</speed>
2931 <fix>3d</fix>
2932 <sat>8</sat>
2933 <hdop>1.000000</hdop>
2934</trkpt>
2935<trkpt lat="53.792220000" lon="-1.730445000">
2936 <ele>141.800000</ele>
2937<time>2008-08-14T15:11:04Z</time>
2938 <course>269.359985</course>
2939 <speed>12.166667</speed>
2940 <fix>3d</fix>
2941 <sat>7</sat>
2942 <hdop>1.100000</hdop>
2943</trkpt>
2944<trkpt lat="53.792218333" lon="-1.730635000">
2945 <ele>141.200000</ele>
2946<time>2008-08-14T15:11:05Z</time>
2947 <course>269.959991</course>
2948 <speed>12.361111</speed>
2949 <fix>3d</fix>
2950 <sat>6</sat>
2951 <hdop>1.300000</hdop>
2952</trkpt>
2953<trkpt lat="53.792218333" lon="-1.730826667">
2954 <ele>140.700000</ele>
2955<time>2008-08-14T15:11:06Z</time>
2956 <course>270.910004</course>
2957 <speed>12.527778</speed>
2958 <fix>3d</fix>
2959 <sat>6</sat>
2960 <hdop>1.300000</hdop>
2961 <vdop>2.400000</vdop>
2962 <pdop>2.700000</pdop>
2963</trkpt>
2964<trkpt lat="53.792221667" lon="-1.731020000">
2965 <ele>140.500000</ele>
2966<time>2008-08-14T15:11:07Z</time>
2967 <course>271.549988</course>
2968 <speed>12.722222</speed>
2969 <fix>3d</fix>
2970 <sat>7</sat>
2971 <hdop>1.100000</hdop>
2972</trkpt>
2973<trkpt lat="53.792223333" lon="-1.731216667">
2974 <ele>140.100000</ele>
2975<time>2008-08-14T15:11:08Z</time>
2976 <course>270.440002</course>
2977 <speed>12.888889</speed>
2978 <fix>3d</fix>
2979 <sat>7</sat>
2980 <hdop>1.100000</hdop>
2981</trkpt>
2982<trkpt lat="53.792223333" lon="-1.731416667">
2983 <ele>139.600000</ele>
2984<time>2008-08-14T15:11:09Z</time>
2985 <course>269.839996</course>
2986 <speed>13.027778</speed>
2987 <fix>3d</fix>
2988 <sat>7</sat>
2989 <hdop>1.100000</hdop>
2990</trkpt>
2991<trkpt lat="53.792221667" lon="-1.731616667">
2992 <ele>139.000000</ele>
2993<time>2008-08-14T15:11:10Z</time>
2994 <course>269.390015</course>
2995 <speed>13.055555</speed>
2996 <fix>3d</fix>
2997 <sat>7</sat>
2998 <hdop>1.100000</hdop>
2999</trkpt>
3000<trkpt lat="53.792220000" lon="-1.731815000">
3001 <ele>138.400000</ele>
3002<time>2008-08-14T15:11:11Z</time>
3003 <course>270.140015</course>
3004 <speed>13.000000</speed>
3005 <fix>3d</fix>
3006 <sat>6</sat>
3007 <hdop>1.300000</hdop>
3008 <vdop>2.100000</vdop>
3009 <pdop>2.400000</pdop>
3010</trkpt>
3011<trkpt lat="53.792221667" lon="-1.732015000">
3012 <ele>137.800000</ele>
3013<time>2008-08-14T15:11:12Z</time>
3014 <course>271.559998</course>
3015 <speed>13.027778</speed>
3016 <fix>3d</fix>
3017 <sat>7</sat>
3018 <hdop>1.100000</hdop>
3019</trkpt>
3020<trkpt lat="53.792225000" lon="-1.732215000">
3021 <ele>137.400000</ele>
3022<time>2008-08-14T15:11:13Z</time>
3023 <course>272.510010</course>
3024 <speed>13.138889</speed>
3025 <fix>3d</fix>
3026 <sat>8</sat>
3027 <hdop>1.000000</hdop>
3028</trkpt>
3029<trkpt lat="53.792231667" lon="-1.732416667">
3030 <ele>136.900000</ele>
3031<time>2008-08-14T15:11:14Z</time>
3032 <course>273.380005</course>
3033 <speed>13.222222</speed>
3034 <fix>3d</fix>
3035 <sat>8</sat>
3036 <hdop>1.000000</hdop>
3037</trkpt>
3038<trkpt lat="53.792238333" lon="-1.732618333">
3039 <ele>136.700000</ele>
3040<time>2008-08-14T15:11:15Z</time>
3041 <course>273.350006</course>
3042 <speed>13.305555</speed>
3043 <fix>3d</fix>
3044 <sat>9</sat>
3045 <hdop>0.900000</hdop>
3046</trkpt>
3047<trkpt lat="53.792246667" lon="-1.732823333">
3048 <ele>136.300000</ele>
3049<time>2008-08-14T15:11:16Z</time>
3050 <course>273.519989</course>
3051 <speed>13.361111</speed>
3052 <fix>3d</fix>
3053 <sat>9</sat>
3054 <hdop>0.900000</hdop>
3055 <vdop>1.400000</vdop>
3056 <pdop>1.700000</pdop>
3057</trkpt>
3058<trkpt lat="53.792253333" lon="-1.733025000">
3059 <ele>135.800000</ele>
3060<time>2008-08-14T15:11:17Z</time>
3061 <course>273.130005</course>
3062 <speed>13.250000</speed>
3063 <fix>3d</fix>
3064 <sat>9</sat>
3065 <hdop>0.900000</hdop>
3066</trkpt>
3067<trkpt lat="53.792261667" lon="-1.733221667">
3068 <ele>135.700000</ele>
3069<time>2008-08-14T15:11:18Z</time>
3070 <course>274.940002</course>
3071 <speed>12.972222</speed>
3072 <fix>3d</fix>
3073 <sat>8</sat>
3074 <hdop>1.000000</hdop>
3075</trkpt>
3076<trkpt lat="53.792270000" lon="-1.733416667">
3077 <ele>135.500000</ele>
3078<time>2008-08-14T15:11:19Z</time>
3079 <course>273.959991</course>
3080 <speed>12.777778</speed>
3081 <fix>3d</fix>
3082 <sat>8</sat>
3083 <hdop>1.000000</hdop>
3084</trkpt>
3085<trkpt lat="53.792278333" lon="-1.733610000">
3086 <ele>135.100000</ele>
3087<time>2008-08-14T15:11:20Z</time>
3088 <course>274.140015</course>
3089 <speed>12.694445</speed>
3090 <fix>3d</fix>
3091 <sat>9</sat>
3092 <hdop>0.900000</hdop>
3093</trkpt>
3094<trkpt lat="53.792288333" lon="-1.733800000">
3095 <ele>134.700000</ele>
3096<time>2008-08-14T15:11:21Z</time>
3097 <course>274.549988</course>
3098 <speed>12.555555</speed>
3099 <fix>3d</fix>
3100 <sat>9</sat>
3101 <hdop>0.900000</hdop>
3102 <vdop>1.400000</vdop>
3103 <pdop>1.700000</pdop>
3104</trkpt>
3105<trkpt lat="53.792296667" lon="-1.733990000">
3106 <ele>134.300000</ele>
3107<time>2008-08-14T15:11:22Z</time>
3108 <course>275.070007</course>
3109 <speed>12.500000</speed>
3110 <fix>3d</fix>
3111 <sat>9</sat>
3112 <hdop>0.900000</hdop>
3113</trkpt>
3114<trkpt lat="53.792306667" lon="-1.734180000">
3115 <ele>134.000000</ele>
3116<time>2008-08-14T15:11:23Z</time>
3117 <course>275.040009</course>
3118 <speed>12.472222</speed>
3119 <fix>3d</fix>
3120 <sat>9</sat>
3121 <hdop>0.900000</hdop>
3122</trkpt>
3123<trkpt lat="53.792318333" lon="-1.734368333">
3124 <ele>133.700000</ele>
3125<time>2008-08-14T15:11:24Z</time>
3126 <course>275.820007</course>
3127 <speed>12.416667</speed>
3128 <fix>3d</fix>
3129 <sat>9</sat>
3130 <hdop>0.900000</hdop>
3131</trkpt>
3132<trkpt lat="53.792328333" lon="-1.734556667">
3133 <ele>133.300000</ele>
3134<time>2008-08-14T15:11:25Z</time>
3135 <course>275.339996</course>
3136 <speed>12.333333</speed>
3137 <fix>3d</fix>
3138 <sat>8</sat>
3139 <hdop>1.000000</hdop>
3140</trkpt>
3141<trkpt lat="53.792340000" lon="-1.734740000">
3142 <ele>133.100000</ele>
3143<time>2008-08-14T15:11:26Z</time>
3144 <course>276.149994</course>
3145 <speed>12.166667</speed>
3146 <fix>3d</fix>
3147 <sat>9</sat>
3148 <hdop>0.900000</hdop>
3149 <vdop>1.400000</vdop>
3150 <pdop>1.700000</pdop>
3151</trkpt>
3152<trkpt lat="53.792350000" lon="-1.734921667">
3153 <ele>132.900000</ele>
3154<time>2008-08-14T15:11:27Z</time>
3155 <course>274.839996</course>
3156 <speed>11.972222</speed>
3157 <fix>3d</fix>
3158 <sat>9</sat>
3159 <hdop>0.900000</hdop>
3160</trkpt>
3161<trkpt lat="53.792361667" lon="-1.735103333">
3162 <ele>132.700000</ele>
3163<time>2008-08-14T15:11:28Z</time>
3164 <course>275.769989</course>
3165 <speed>11.944445</speed>
3166 <fix>3d</fix>
3167 <sat>7</sat>
3168 <hdop>1.200000</hdop>
3169</trkpt>
3170<trkpt lat="53.792373333" lon="-1.735283333">
3171 <ele>132.700000</ele>
3172<time>2008-08-14T15:11:29Z</time>
3173 <course>275.779999</course>
3174 <speed>11.888889</speed>
3175 <fix>3d</fix>
3176 <sat>7</sat>
3177 <hdop>1.100000</hdop>
3178</trkpt>
3179<trkpt lat="53.792386667" lon="-1.735461667">
3180 <ele>132.700000</ele>
3181<time>2008-08-14T15:11:30Z</time>
3182 <course>276.380005</course>
3183 <speed>11.861111</speed>
3184 <fix>3d</fix>
3185 <sat>7</sat>
3186 <hdop>1.100000</hdop>
3187</trkpt>
3188<trkpt lat="53.792401667" lon="-1.735640000">
3189 <ele>132.600000</ele>
3190<time>2008-08-14T15:11:31Z</time>
3191 <course>277.549988</course>
3192 <speed>11.833333</speed>
3193 <fix>3d</fix>
3194 <sat>7</sat>
3195 <hdop>1.100000</hdop>
3196 <vdop>1.800000</vdop>
3197 <pdop>2.100000</pdop>
3198</trkpt>
3199<trkpt lat="53.792416667" lon="-1.735818333">
3200 <ele>132.500000</ele>
3201<time>2008-08-14T15:11:32Z</time>
3202 <course>278.070007</course>
3203 <speed>11.805555</speed>
3204 <fix>3d</fix>
3205 <sat>7</sat>
3206 <hdop>1.100000</hdop>
3207</trkpt>
3208<trkpt lat="53.792433333" lon="-1.735995000">
3209 <ele>132.400000</ele>
3210<time>2008-08-14T15:11:33Z</time>
3211 <course>279.019989</course>
3212 <speed>11.777778</speed>
3213 <fix>3d</fix>
3214 <sat>8</sat>
3215 <hdop>1.000000</hdop>
3216</trkpt>
3217<trkpt lat="53.792451667" lon="-1.736171667">
3218 <ele>132.300000</ele>
3219<time>2008-08-14T15:11:34Z</time>
3220 <course>279.410004</course>
3221 <speed>11.750000</speed>
3222 <fix>3d</fix>
3223 <sat>7</sat>
3224 <hdop>1.100000</hdop>
3225</trkpt>
3226<trkpt lat="53.792468333" lon="-1.736346667">
3227 <ele>132.100000</ele>
3228<time>2008-08-14T15:11:35Z</time>
3229 <course>278.799988</course>
3230 <speed>11.694445</speed>
3231 <fix>3d</fix>
3232 <sat>7</sat>
3233 <hdop>1.100000</hdop>
3234</trkpt>
3235<trkpt lat="53.792483333" lon="-1.736521667">
3236 <ele>131.900000</ele>
3237<time>2008-08-14T15:11:36Z</time>
3238 <course>276.510010</course>
3239 <speed>11.583333</speed>
3240 <fix>3d</fix>
3241 <sat>7</sat>
3242 <hdop>1.100000</hdop>
3243 <vdop>1.800000</vdop>
3244 <pdop>2.100000</pdop>
3245</trkpt>
3246<trkpt lat="53.792495000" lon="-1.736693333">
3247 <ele>131.700000</ele>
3248<time>2008-08-14T15:11:37Z</time>
3249 <course>276.609985</course>
3250 <speed>11.388889</speed>
3251 <fix>3d</fix>
3252 <sat>8</sat>
3253 <hdop>1.000000</hdop>
3254</trkpt>
3255<trkpt lat="53.792508333" lon="-1.736860000">
3256 <ele>131.500000</ele>
3257<time>2008-08-14T15:11:38Z</time>
3258 <course>277.820007</course>
3259 <speed>11.055555</speed>
3260 <fix>3d</fix>
3261 <sat>8</sat>
3262 <hdop>1.000000</hdop>
3263</trkpt>
3264<trkpt lat="53.792521667" lon="-1.737018333">
3265 <ele>131.300000</ele>
3266<time>2008-08-14T15:11:39Z</time>
3267 <course>277.649994</course>
3268 <speed>10.527778</speed>
3269 <fix>3d</fix>
3270 <sat>7</sat>
3271 <hdop>1.100000</hdop>
3272</trkpt>
3273<trkpt lat="53.792535000" lon="-1.737170000">
3274 <ele>131.100000</ele>
3275<time>2008-08-14T15:11:40Z</time>
3276 <course>277.420013</course>
3277 <speed>10.027778</speed>
3278 <fix>3d</fix>
3279 <sat>7</sat>
3280 <hdop>1.100000</hdop>
3281</trkpt>
3282<trkpt lat="53.792546667" lon="-1.737315000">
3283 <ele>130.800000</ele>
3284<time>2008-08-14T15:11:41Z</time>
3285 <course>277.750000</course>
3286 <speed>9.666667</speed>
3287 <fix>3d</fix>
3288 <sat>7</sat>
3289 <hdop>1.100000</hdop>
3290 <vdop>1.800000</vdop>
3291 <pdop>2.100000</pdop>
3292</trkpt>
3293<trkpt lat="53.792558333" lon="-1.737451667">
3294 <ele>130.600000</ele>
3295<time>2008-08-14T15:11:42Z</time>
3296 <course>278.480011</course>
3297 <speed>9.111111</speed>
3298 <fix>3d</fix>
3299 <sat>8</sat>
3300 <hdop>1.000000</hdop>
3301</trkpt>
3302<trkpt lat="53.792570000" lon="-1.737568333">
3303 <ele>130.500000</ele>
3304<time>2008-08-14T15:11:43Z</time>
3305 <course>278.500000</course>
3306 <speed>7.861111</speed>
3307 <fix>3d</fix>
3308 <sat>9</sat>
3309 <hdop>0.900000</hdop>
3310</trkpt>
3311<trkpt lat="53.792580000" lon="-1.737666667">
3312 <ele>130.600000</ele>
3313<time>2008-08-14T15:11:44Z</time>
3314 <course>278.619995</course>
3315 <speed>6.638889</speed>
3316 <fix>3d</fix>
3317 <sat>8</sat>
3318 <hdop>1.000000</hdop>
3319</trkpt>
3320<trkpt lat="53.792588333" lon="-1.737761667">
3321 <ele>130.500000</ele>
3322<time>2008-08-14T15:11:45Z</time>
3323 <course>278.790009</course>
3324 <speed>6.361111</speed>
3325 <fix>3d</fix>
3326 <sat>8</sat>
3327 <hdop>1.000000</hdop>
3328</trkpt>
3329<trkpt lat="53.792598333" lon="-1.737860000">
3330 <ele>130.200000</ele>
3331<time>2008-08-14T15:11:46Z</time>
3332 <course>279.329987</course>
3333 <speed>6.527778</speed>
3334 <fix>3d</fix>
3335 <sat>9</sat>
3336 <hdop>0.900000</hdop>
3337 <vdop>1.400000</vdop>
3338 <pdop>1.700000</pdop>
3339</trkpt>
3340<trkpt lat="53.792608333" lon="-1.737960000">
3341 <ele>130.000000</ele>
3342<time>2008-08-14T15:11:47Z</time>
3343 <course>279.290009</course>
3344 <speed>6.750000</speed>
3345 <fix>3d</fix>
3346 <sat>9</sat>
3347 <hdop>0.900000</hdop>
3348</trkpt>
3349<trkpt lat="53.792618333" lon="-1.738065000">
3350 <ele>129.700000</ele>
3351<time>2008-08-14T15:11:48Z</time>
3352 <course>279.049988</course>
3353 <speed>7.000000</speed>
3354 <fix>3d</fix>
3355 <sat>9</sat>
3356 <hdop>0.900000</hdop>
3357</trkpt>
3358<trkpt lat="53.792630000" lon="-1.738173333">
3359 <ele>129.300000</ele>
3360<time>2008-08-14T15:11:49Z</time>
3361 <course>279.510010</course>
3362 <speed>7.250000</speed>
3363 <fix>3d</fix>
3364 <sat>9</sat>
3365 <hdop>0.900000</hdop>
3366</trkpt>
3367<trkpt lat="53.792640000" lon="-1.738285000">
3368 <ele>128.900000</ele>
3369<time>2008-08-14T15:11:50Z</time>
3370 <course>280.000000</course>
3371 <speed>7.472222</speed>
3372 <fix>3d</fix>
3373 <sat>9</sat>
3374 <hdop>0.900000</hdop>
3375</trkpt>
3376<trkpt lat="53.792651667" lon="-1.738411667">
3377 <ele>128.600000</ele>
3378<time>2008-08-14T15:11:51Z</time>
3379 <course>278.079987</course>
3380 <speed>8.277778</speed>
3381 <fix>3d</fix>
3382 <sat>8</sat>
3383 <hdop>1.000000</hdop>
3384 <vdop>1.700000</vdop>
3385 <pdop>2.000000</pdop>
3386</trkpt>
3387<trkpt lat="53.792663333" lon="-1.738556667">
3388 <ele>128.200000</ele>
3389<time>2008-08-14T15:11:52Z</time>
3390 <course>277.630005</course>
3391 <speed>9.527778</speed>
3392 <fix>3d</fix>
3393 <sat>9</sat>
3394 <hdop>0.900000</hdop>
3395</trkpt>
3396<trkpt lat="53.792676667" lon="-1.738713333">
3397 <ele>127.700000</ele>
3398<time>2008-08-14T15:11:53Z</time>
3399 <course>277.679993</course>
3400 <speed>10.333333</speed>
3401 <fix>3d</fix>
3402 <sat>8</sat>
3403 <hdop>1.000000</hdop>
3404</trkpt>
3405<trkpt lat="53.792688333" lon="-1.738875000">
3406 <ele>127.000000</ele>
3407<time>2008-08-14T15:11:54Z</time>
3408 <course>278.019989</course>
3409 <speed>10.750000</speed>
3410 <fix>3d</fix>
3411 <sat>8</sat>
3412 <hdop>1.000000</hdop>
3413</trkpt>
3414<trkpt lat="53.792703333" lon="-1.739041667">
3415 <ele>126.400000</ele>
3416<time>2008-08-14T15:11:55Z</time>
3417 <course>278.489990</course>
3418 <speed>11.027778</speed>
3419 <fix>3d</fix>
3420 <sat>8</sat>
3421 <hdop>1.000000</hdop>
3422</trkpt>
3423<trkpt lat="53.792718333" lon="-1.739218333">
3424 <ele>125.700000</ele>
3425<time>2008-08-14T15:11:56Z</time>
3426 <course>279.329987</course>
3427 <speed>11.638889</speed>
3428 <fix>3d</fix>
3429 <sat>8</sat>
3430 <hdop>1.000000</hdop>
3431 <vdop>1.400000</vdop>
3432 <pdop>1.800000</pdop>
3433</trkpt>
3434<trkpt lat="53.792736667" lon="-1.739406667">
3435 <ele>125.000000</ele>
3436<time>2008-08-14T15:11:57Z</time>
3437 <course>279.369995</course>
3438 <speed>12.444445</speed>
3439 <fix>3d</fix>
3440 <sat>9</sat>
3441 <hdop>0.900000</hdop>
3442</trkpt>
3443<trkpt lat="53.792755000" lon="-1.739600000">
3444 <ele>124.300000</ele>
3445<time>2008-08-14T15:11:58Z</time>
3446 <course>279.450012</course>
3447 <speed>12.888889</speed>
3448 <fix>3d</fix>
3449 <sat>9</sat>
3450 <hdop>0.900000</hdop>
3451</trkpt>
3452<trkpt lat="53.792773333" lon="-1.739796667">
3453 <ele>123.500000</ele>
3454<time>2008-08-14T15:11:59Z</time>
3455 <course>279.529999</course>
3456 <speed>13.055555</speed>
3457 <fix>3d</fix>
3458 <sat>9</sat>
3459 <hdop>0.900000</hdop>
3460</trkpt>
3461<trkpt lat="53.792793333" lon="-1.739995000">
3462 <ele>122.900000</ele>
3463<time>2008-08-14T15:12:00Z</time>
3464 <course>279.820007</course>
3465 <speed>13.138889</speed>
3466 <fix>3d</fix>
3467 <sat>9</sat>
3468 <hdop>0.900000</hdop>
3469</trkpt>
3470<trkpt lat="53.792813333" lon="-1.740193333">
3471 <ele>122.200000</ele>
3472<time>2008-08-14T15:12:01Z</time>
3473 <course>280.149994</course>
3474 <speed>13.138889</speed>
3475 <fix>3d</fix>
3476 <sat>9</sat>
3477 <hdop>0.900000</hdop>
3478 <vdop>1.400000</vdop>
3479 <pdop>1.700000</pdop>
3480</trkpt>
3481<trkpt lat="53.792835000" lon="-1.740390000">
3482 <ele>121.400000</ele>
3483<time>2008-08-14T15:12:02Z</time>
3484 <course>280.429993</course>
3485 <speed>13.138889</speed>
3486 <fix>3d</fix>
3487 <sat>9</sat>
3488 <hdop>0.900000</hdop>
3489</trkpt>
3490<trkpt lat="53.792855000" lon="-1.740580000">
3491 <ele>120.600000</ele>
3492<time>2008-08-14T15:12:03Z</time>
3493 <course>280.589996</course>
3494 <speed>12.666667</speed>
3495 <fix>3d</fix>
3496 <sat>9</sat>
3497 <hdop>0.900000</hdop>
3498</trkpt>
3499<trkpt lat="53.792875000" lon="-1.740746667">
3500 <ele>120.000000</ele>
3501<time>2008-08-14T15:12:04Z</time>
3502 <course>280.869995</course>
3503 <speed>11.138889</speed>
3504 <fix>3d</fix>
3505 <sat>9</sat>
3506 <hdop>0.900000</hdop>
3507</trkpt>
3508<trkpt lat="53.792890000" lon="-1.740880000">
3509 <ele>119.400000</ele>
3510<time>2008-08-14T15:12:05Z</time>
3511 <course>280.739990</course>
3512 <speed>9.027778</speed>
3513 <fix>3d</fix>
3514 <sat>9</sat>
3515 <hdop>0.900000</hdop>
3516</trkpt>
3517<trkpt lat="53.792903333" lon="-1.740983333">
3518 <ele>118.900000</ele>
3519<time>2008-08-14T15:12:06Z</time>
3520 <course>280.730011</course>
3521 <speed>7.138889</speed>
3522 <fix>3d</fix>
3523 <sat>9</sat>
3524 <hdop>0.900000</hdop>
3525 <vdop>1.400000</vdop>
3526 <pdop>1.700000</pdop>
3527</trkpt>
3528<trkpt lat="53.792911667" lon="-1.741065000">
3529 <ele>118.400000</ele>
3530<time>2008-08-14T15:12:07Z</time>
3531 <course>279.320007</course>
3532 <speed>5.555555</speed>
3533 <fix>3d</fix>
3534 <sat>8</sat>
3535 <hdop>1.200000</hdop>
3536</trkpt>
3537<trkpt lat="53.792918333" lon="-1.741123333">
3538 <ele>118.100000</ele>
3539<time>2008-08-14T15:12:08Z</time>
3540 <course>278.290009</course>
3541 <speed>4.083333</speed>
3542 <fix>3d</fix>
3543 <sat>8</sat>
3544 <hdop>1.200000</hdop>
3545</trkpt>
3546<trkpt lat="53.792923333" lon="-1.741165000">
3547 <ele>117.800000</ele>
3548<time>2008-08-14T15:12:09Z</time>
3549 <course>277.190002</course>
3550 <speed>2.944444</speed>
3551 <fix>3d</fix>
3552 <sat>8</sat>
3553 <hdop>1.200000</hdop>
3554</trkpt>
3555<trkpt lat="53.792925000" lon="-1.741193333">
3556 <ele>117.600000</ele>
3557<time>2008-08-14T15:12:10Z</time>
3558 <course>274.980011</course>
3559 <speed>1.944444</speed>
3560 <fix>3d</fix>
3561 <sat>9</sat>
3562 <hdop>0.900000</hdop>
3563</trkpt>
3564<trkpt lat="53.792926667" lon="-1.741203333">
3565 <ele>117.500000</ele>
3566<time>2008-08-14T15:12:11Z</time>
3567 <course>274.980011</course>
3568 <speed>0.000000</speed>
3569 <fix>3d</fix>
3570 <sat>9</sat>
3571 <hdop>0.900000</hdop>
3572 <vdop>1.400000</vdop>
3573 <pdop>1.700000</pdop>
3574</trkpt>
3575<trkpt lat="53.792926667" lon="-1.741203333">
3576 <ele>117.300000</ele>
3577<time>2008-08-14T15:12:12Z</time>
3578 <course>274.980011</course>
3579 <speed>0.000000</speed>
3580 <fix>3d</fix>
3581 <sat>9</sat>
3582 <hdop>0.900000</hdop>
3583</trkpt>
3584<trkpt lat="53.792926667" lon="-1.741201667">
3585 <ele>117.300000</ele>
3586<time>2008-08-14T15:12:13Z</time>
3587 <course>274.980011</course>
3588 <speed>0.000000</speed>
3589 <fix>3d</fix>
3590 <sat>9</sat>
3591 <hdop>0.900000</hdop>
3592</trkpt>
3593<trkpt lat="53.792926667" lon="-1.741200000">
3594 <ele>117.200000</ele>
3595<time>2008-08-14T15:12:14Z</time>
3596 <course>274.980011</course>
3597 <speed>0.000000</speed>
3598 <fix>3d</fix>
3599 <sat>9</sat>
3600 <hdop>0.900000</hdop>
3601</trkpt>
3602<trkpt lat="53.792926667" lon="-1.741196667">
3603 <ele>117.100000</ele>
3604<time>2008-08-14T15:12:15Z</time>
3605 <course>274.980011</course>
3606 <speed>0.000000</speed>
3607 <fix>3d</fix>
3608 <sat>9</sat>
3609 <hdop>0.900000</hdop>
3610</trkpt>
3611<trkpt lat="53.792926667" lon="-1.741195000">
3612 <ele>117.000000</ele>
3613<time>2008-08-14T15:12:16Z</time>
3614 <course>274.980011</course>
3615 <speed>0.000000</speed>
3616 <fix>3d</fix>
3617 <sat>9</sat>
3618 <hdop>0.900000</hdop>
3619 <vdop>1.400000</vdop>
3620 <pdop>1.700000</pdop>
3621</trkpt>
3622<trkpt lat="53.792925000" lon="-1.741195000">
3623 <ele>116.900000</ele>
3624<time>2008-08-14T15:12:17Z</time>
3625 <course>274.980011</course>
3626 <speed>0.000000</speed>
3627 <fix>3d</fix>
3628 <sat>9</sat>
3629 <hdop>0.900000</hdop>
3630</trkpt>
3631<trkpt lat="53.792925000" lon="-1.741193333">
3632 <ele>116.900000</ele>
3633<time>2008-08-14T15:12:18Z</time>
3634 <course>274.980011</course>
3635 <speed>0.000000</speed>
3636 <fix>3d</fix>
3637 <sat>9</sat>
3638 <hdop>0.900000</hdop>
3639</trkpt>
3640<trkpt lat="53.792925000" lon="-1.741191667">
3641 <ele>116.800000</ele>
3642<time>2008-08-14T15:12:19Z</time>
3643 <course>274.980011</course>
3644 <speed>0.000000</speed>
3645 <fix>3d</fix>
3646 <sat>9</sat>
3647 <hdop>0.900000</hdop>
3648</trkpt>
3649<trkpt lat="53.792926667" lon="-1.741198333">
3650 <ele>116.600000</ele>
3651<time>2008-08-14T15:12:20Z</time>
3652 <course>274.980011</course>
3653 <speed>0.000000</speed>
3654 <fix>3d</fix>
3655 <sat>9</sat>
3656 <hdop>0.900000</hdop>
3657</trkpt>
3658<trkpt lat="53.792931667" lon="-1.741230000">
3659 <ele>116.900000</ele>
3660<time>2008-08-14T15:12:21Z</time>
3661 <course>282.070007</course>
3662 <speed>2.194444</speed>
3663 <fix>3d</fix>
3664 <sat>9</sat>
3665 <hdop>0.900000</hdop>
3666 <vdop>1.400000</vdop>
3667 <pdop>1.700000</pdop>
3668</trkpt>
3669<trkpt lat="53.792940000" lon="-1.741298333">
3670 <ele>116.700000</ele>
3671<time>2008-08-14T15:12:22Z</time>
3672 <course>283.089996</course>
3673 <speed>4.472222</speed>
3674 <fix>3d</fix>
3675 <sat>9</sat>
3676 <hdop>0.900000</hdop>
3677</trkpt>
3678<trkpt lat="53.792951667" lon="-1.741390000">
3679 <ele>116.400000</ele>
3680<time>2008-08-14T15:12:23Z</time>
3681 <course>282.359985</course>
3682 <speed>6.111111</speed>
3683 <fix>3d</fix>
3684 <sat>9</sat>
3685 <hdop>0.900000</hdop>
3686</trkpt>
3687<trkpt lat="53.792965000" lon="-1.741501667">
3688 <ele>115.900000</ele>
3689<time>2008-08-14T15:12:24Z</time>
3690 <course>282.440002</course>
3691 <speed>7.500000</speed>
3692 <fix>3d</fix>
3693 <sat>9</sat>
3694 <hdop>0.900000</hdop>
3695</trkpt>
3696<trkpt lat="53.792985000" lon="-1.741631667">
3697 <ele>116.100000</ele>
3698<time>2008-08-14T15:12:25Z</time>
3699 <course>283.010010</course>
3700 <speed>8.722222</speed>
3701 <fix>3d</fix>
3702 <sat>9</sat>
3703 <hdop>0.900000</hdop>
3704</trkpt>
3705<trkpt lat="53.793006667" lon="-1.741771667">
3706 <ele>116.400000</ele>
3707<time>2008-08-14T15:12:26Z</time>
3708 <course>283.790009</course>
3709 <speed>9.305555</speed>
3710 <fix>3d</fix>
3711 <sat>9</sat>
3712 <hdop>0.900000</hdop>
3713 <vdop>1.400000</vdop>
3714 <pdop>1.700000</pdop>
3715</trkpt>
3716<trkpt lat="53.793028333" lon="-1.741913333">
3717 <ele>116.500000</ele>
3718<time>2008-08-14T15:12:27Z</time>
3719 <course>283.260010</course>
3720 <speed>9.555555</speed>
3721 <fix>3d</fix>
3722 <sat>9</sat>
3723 <hdop>0.900000</hdop>
3724</trkpt>
3725<trkpt lat="53.793046667" lon="-1.742056667">
3726 <ele>116.600000</ele>
3727<time>2008-08-14T15:12:28Z</time>
3728 <course>281.059998</course>
3729 <speed>9.666667</speed>
3730 <fix>3d</fix>
3731 <sat>9</sat>
3732 <hdop>0.900000</hdop>
3733</trkpt>
3734<trkpt lat="53.793060000" lon="-1.742195000">
3735 <ele>116.300000</ele>
3736<time>2008-08-14T15:12:29Z</time>
3737 <course>277.940002</course>
3738 <speed>9.222222</speed>
3739 <fix>3d</fix>
3740 <sat>9</sat>
3741 <hdop>0.900000</hdop>
3742</trkpt>
3743<trkpt lat="53.793068333" lon="-1.742318333">
3744 <ele>116.000000</ele>
3745<time>2008-08-14T15:12:30Z</time>
3746 <course>275.600006</course>
3747 <speed>8.083333</speed>
3748 <fix>3d</fix>
3749 <sat>9</sat>
3750 <hdop>0.900000</hdop>
3751</trkpt>
3752<trkpt lat="53.793075000" lon="-1.742420000">
3753 <ele>116.200000</ele>
3754<time>2008-08-14T15:12:31Z</time>
3755 <course>273.730011</course>
3756 <speed>6.777778</speed>
3757 <fix>3d</fix>
3758 <sat>8</sat>
3759 <hdop>1.200000</hdop>
3760 <vdop>1.800000</vdop>
3761 <pdop>2.200000</pdop>
3762</trkpt>
3763<trkpt lat="53.793081667" lon="-1.742508333">
3764 <ele>117.000000</ele>
3765<time>2008-08-14T15:12:32Z</time>
3766 <course>272.859985</course>
3767 <speed>5.833333</speed>
3768 <fix>3d</fix>
3769 <sat>9</sat>
3770 <hdop>0.900000</hdop>
3771</trkpt>
3772<trkpt lat="53.793083333" lon="-1.742578333">
3773 <ele>117.100000</ele>
3774<time>2008-08-14T15:12:33Z</time>
3775 <course>270.959991</course>
3776 <speed>4.611111</speed>
3777 <fix>3d</fix>
3778 <sat>9</sat>
3779 <hdop>0.900000</hdop>
3780</trkpt>
3781<trkpt lat="53.793081667" lon="-1.742616667">
3782 <ele>117.400000</ele>
3783<time>2008-08-14T15:12:34Z</time>
3784 <course>265.140015</course>
3785 <speed>2.861111</speed>
3786 <fix>3d</fix>
3787 <sat>8</sat>
3788 <hdop>1.200000</hdop>
3789</trkpt>
3790<trkpt lat="53.793083333" lon="-1.742630000">
3791 <ele>117.400000</ele>
3792<time>2008-08-14T15:12:35Z</time>
3793 <course>265.140015</course>
3794 <speed>0.000000</speed>
3795 <fix>3d</fix>
3796 <sat>8</sat>
3797 <hdop>1.200000</hdop>
3798</trkpt>
3799<trkpt lat="53.793081667" lon="-1.742633333">
3800 <ele>117.600000</ele>
3801<time>2008-08-14T15:12:36Z</time>
3802 <course>265.140015</course>
3803 <speed>0.000000</speed>
3804 <fix>3d</fix>
3805 <sat>8</sat>
3806 <hdop>1.200000</hdop>
3807 <vdop>1.800000</vdop>
3808 <pdop>2.200000</pdop>
3809</trkpt>
3810<trkpt lat="53.793080000" lon="-1.742631667">
3811 <ele>117.800000</ele>
3812<time>2008-08-14T15:12:37Z</time>
3813 <course>265.140015</course>
3814 <speed>0.000000</speed>
3815 <fix>3d</fix>
3816 <sat>8</sat>
3817 <hdop>1.200000</hdop>
3818</trkpt>
3819<trkpt lat="53.793080000" lon="-1.742630000">
3820 <ele>117.900000</ele>
3821<time>2008-08-14T15:12:38Z</time>
3822 <course>265.140015</course>
3823 <speed>0.000000</speed>
3824 <fix>3d</fix>
3825 <sat>8</sat>
3826 <hdop>1.200000</hdop>
3827</trkpt>
3828<trkpt lat="53.793078333" lon="-1.742628333">
3829 <ele>118.000000</ele>
3830<time>2008-08-14T15:12:39Z</time>
3831 <course>265.140015</course>
3832 <speed>0.000000</speed>
3833 <fix>3d</fix>
3834 <sat>8</sat>
3835 <hdop>1.200000</hdop>
3836</trkpt>
3837<trkpt lat="53.793076667" lon="-1.742628333">
3838 <ele>118.200000</ele>
3839<time>2008-08-14T15:12:40Z</time>
3840 <course>265.140015</course>
3841 <speed>0.000000</speed>
3842 <fix>3d</fix>
3843 <sat>8</sat>
3844 <hdop>1.200000</hdop>
3845</trkpt>
3846<trkpt lat="53.793075000" lon="-1.742628333">
3847 <ele>118.500000</ele>
3848<time>2008-08-14T15:12:41Z</time>
3849 <course>265.140015</course>
3850 <speed>0.000000</speed>
3851 <fix>3d</fix>
3852 <sat>8</sat>
3853 <hdop>1.200000</hdop>
3854 <vdop>1.800000</vdop>
3855 <pdop>2.200000</pdop>
3856</trkpt>
3857<trkpt lat="53.793073333" lon="-1.742628333">
3858 <ele>118.800000</ele>
3859<time>2008-08-14T15:12:42Z</time>
3860 <course>265.140015</course>
3861 <speed>0.000000</speed>
3862 <fix>3d</fix>
3863 <sat>7</sat>
3864 <hdop>1.200000</hdop>
3865</trkpt>
3866<trkpt lat="53.793071667" lon="-1.742628333">
3867 <ele>119.000000</ele>
3868<time>2008-08-14T15:12:43Z</time>
3869 <course>265.140015</course>
3870 <speed>0.000000</speed>
3871 <fix>3d</fix>
3872 <sat>8</sat>
3873 <hdop>1.200000</hdop>
3874</trkpt>
3875<trkpt lat="53.793070000" lon="-1.742626667">
3876 <ele>119.300000</ele>
3877<time>2008-08-14T15:12:44Z</time>
3878 <course>265.140015</course>
3879 <speed>0.000000</speed>
3880 <fix>3d</fix>
3881 <sat>8</sat>
3882 <hdop>1.200000</hdop>
3883</trkpt>
3884<trkpt lat="53.793068333" lon="-1.742628333">
3885 <ele>119.400000</ele>
3886<time>2008-08-14T15:12:45Z</time>
3887 <course>265.140015</course>
3888 <speed>0.000000</speed>
3889 <fix>3d</fix>
3890 <sat>8</sat>
3891 <hdop>1.200000</hdop>
3892</trkpt>
3893<trkpt lat="53.793065000" lon="-1.742628333">
3894 <ele>119.600000</ele>
3895<time>2008-08-14T15:12:46Z</time>
3896 <course>265.140015</course>
3897 <speed>0.000000</speed>
3898 <fix>3d</fix>
3899 <sat>8</sat>
3900 <hdop>1.200000</hdop>
3901 <vdop>1.800000</vdop>
3902 <pdop>2.200000</pdop>
3903</trkpt>
3904<trkpt lat="53.793063333" lon="-1.742628333">
3905 <ele>119.800000</ele>
3906<time>2008-08-14T15:12:47Z</time>
3907 <course>265.140015</course>
3908 <speed>0.000000</speed>
3909 <fix>3d</fix>
3910 <sat>8</sat>
3911 <hdop>1.200000</hdop>
3912</trkpt>
3913<trkpt lat="53.793060000" lon="-1.742628333">
3914 <ele>119.900000</ele>
3915<time>2008-08-14T15:12:48Z</time>
3916 <course>265.140015</course>
3917 <speed>0.000000</speed>
3918 <fix>3d</fix>
3919 <sat>8</sat>
3920 <hdop>1.200000</hdop>
3921</trkpt>
3922<trkpt lat="53.793056667" lon="-1.742630000">
3923 <ele>120.000000</ele>
3924<time>2008-08-14T15:12:49Z</time>
3925 <course>265.140015</course>
3926 <speed>0.000000</speed>
3927 <fix>3d</fix>
3928 <sat>8</sat>
3929 <hdop>1.200000</hdop>
3930</trkpt>
3931<trkpt lat="53.793055000" lon="-1.742630000">
3932 <ele>120.100000</ele>
3933<time>2008-08-14T15:12:50Z</time>
3934 <course>265.140015</course>
3935 <speed>0.000000</speed>
3936 <fix>3d</fix>
3937 <sat>8</sat>
3938 <hdop>1.200000</hdop>
3939</trkpt>
3940<trkpt lat="53.793051667" lon="-1.742630000">
3941 <ele>120.200000</ele>
3942<time>2008-08-14T15:12:51Z</time>
3943 <course>265.140015</course>
3944 <speed>0.000000</speed>
3945 <fix>3d</fix>
3946 <sat>8</sat>
3947 <hdop>1.200000</hdop>
3948 <vdop>1.800000</vdop>
3949 <pdop>2.200000</pdop>
3950</trkpt>
3951<trkpt lat="53.793050000" lon="-1.742633333">
3952 <ele>120.300000</ele>
3953<time>2008-08-14T15:12:52Z</time>
3954 <course>265.140015</course>
3955 <speed>0.000000</speed>
3956 <fix>3d</fix>
3957 <sat>8</sat>
3958 <hdop>1.200000</hdop>
3959</trkpt>
3960<trkpt lat="53.793045000" lon="-1.742636667">
3961 <ele>119.800000</ele>
3962<time>2008-08-14T15:12:53Z</time>
3963 <course>265.140015</course>
3964 <speed>0.000000</speed>
3965 <fix>3d</fix>
3966 <sat>8</sat>
3967 <hdop>1.200000</hdop>
3968</trkpt>
3969<trkpt lat="53.793045000" lon="-1.742648333">
3970 <ele>119.500000</ele>
3971<time>2008-08-14T15:12:54Z</time>
3972 <course>271.869995</course>
3973 <speed>0.694444</speed>
3974 <fix>3d</fix>
3975 <sat>7</sat>
3976 <hdop>1.200000</hdop>
3977</trkpt>
3978<trkpt lat="53.793045000" lon="-1.742680000">
3979 <ele>119.200000</ele>
3980<time>2008-08-14T15:12:55Z</time>
3981 <course>272.589996</course>
3982 <speed>2.083333</speed>
3983 <fix>3d</fix>
3984 <sat>8</sat>
3985 <hdop>1.200000</hdop>
3986</trkpt>
3987<trkpt lat="53.793045000" lon="-1.742735000">
3988 <ele>119.100000</ele>
3989<time>2008-08-14T15:12:56Z</time>
3990 <course>270.329987</course>
3991 <speed>3.611111</speed>
3992 <fix>3d</fix>
3993 <sat>8</sat>
3994 <hdop>1.200000</hdop>
3995 <vdop>1.800000</vdop>
3996 <pdop>2.200000</pdop>
3997</trkpt>
3998<trkpt lat="53.793045000" lon="-1.742806667">
3999 <ele>118.800000</ele>
4000<time>2008-08-14T15:12:57Z</time>
4001 <course>269.660004</course>
4002 <speed>4.694445</speed>
4003 <fix>3d</fix>
4004 <sat>8</sat>
4005 <hdop>1.200000</hdop>
4006</trkpt>
4007<trkpt lat="53.793045000" lon="-1.742895000">
4008 <ele>118.500000</ele>
4009<time>2008-08-14T15:12:58Z</time>
4010 <course>269.250000</course>
4011 <speed>5.750000</speed>
4012 <fix>3d</fix>
4013 <sat>8</sat>
4014 <hdop>1.000000</hdop>
4015</trkpt>
4016<trkpt lat="53.793045000" lon="-1.742990000">
4017 <ele>118.300000</ele>
4018<time>2008-08-14T15:12:59Z</time>
4019 <course>268.369995</course>
4020 <speed>6.277778</speed>
4021 <fix>3d</fix>
4022 <sat>8</sat>
4023 <hdop>1.000000</hdop>
4024</trkpt>
4025<trkpt lat="53.793046667" lon="-1.743086667">
4026 <ele>118.000000</ele>
4027<time>2008-08-14T15:13:00Z</time>
4028 <course>274.269989</course>
4029 <speed>6.305555</speed>
4030 <fix>3d</fix>
4031 <sat>8</sat>
4032 <hdop>1.000000</hdop>
4033</trkpt>
4034<trkpt lat="53.793055000" lon="-1.743180000">
4035 <ele>117.600000</ele>
4036<time>2008-08-14T15:13:01Z</time>
4037 <course>284.850006</course>
4038 <speed>6.277778</speed>
4039 <fix>3d</fix>
4040 <sat>8</sat>
4041 <hdop>1.000000</hdop>
4042 <vdop>1.700000</vdop>
4043 <pdop>2.000000</pdop>
4044</trkpt>
4045<trkpt lat="53.793076667" lon="-1.743270000">
4046 <ele>117.200000</ele>
4047<time>2008-08-14T15:13:02Z</time>
4048 <course>297.989990</course>
4049 <speed>6.277778</speed>
4050 <fix>3d</fix>
4051 <sat>9</sat>
4052 <hdop>0.900000</hdop>
4053</trkpt>
4054<trkpt lat="53.793116667" lon="-1.743343333">
4055 <ele>116.800000</ele>
4056<time>2008-08-14T15:13:03Z</time>
4057 <course>317.130005</course>
4058 <speed>6.416667</speed>
4059 <fix>3d</fix>
4060 <sat>8</sat>
4061 <hdop>1.000000</hdop>
4062</trkpt>
4063<trkpt lat="53.793173333" lon="-1.743390000">
4064 <ele>116.900000</ele>
4065<time>2008-08-14T15:13:04Z</time>
4066 <course>336.500000</course>
4067 <speed>6.666667</speed>
4068 <fix>3d</fix>
4069 <sat>8</sat>
4070 <hdop>1.000000</hdop>
4071</trkpt>
4072<trkpt lat="53.793238333" lon="-1.743398333">
4073 <ele>116.700000</ele>
4074<time>2008-08-14T15:13:05Z</time>
4075 <course>359.750000</course>
4076 <speed>6.888889</speed>
4077 <fix>3d</fix>
4078 <sat>8</sat>
4079 <hdop>1.000000</hdop>
4080</trkpt>
4081<trkpt lat="53.793326667" lon="-1.743386667">
4082 <ele>120.100000</ele>
4083<time>2008-08-14T15:13:06Z</time>
4084 <course>10.270000</course>
4085 <speed>7.694445</speed>
4086 <fix>3d</fix>
4087 <sat>9</sat>
4088 <hdop>0.900000</hdop>
4089 <vdop>1.400000</vdop>
4090 <pdop>1.700000</pdop>
4091</trkpt>
4092<trkpt lat="53.793420000" lon="-1.743353333">
4093 <ele>121.600000</ele>
4094<time>2008-08-14T15:13:07Z</time>
4095 <course>17.360001</course>
4096 <speed>9.000000</speed>
4097 <fix>3d</fix>
4098 <sat>8</sat>
4099 <hdop>1.000000</hdop>
4100</trkpt>
4101<trkpt lat="53.793506667" lon="-1.743308333">
4102 <ele>121.800000</ele>
4103<time>2008-08-14T15:13:08Z</time>
4104 <course>16.559999</course>
4105 <speed>9.722222</speed>
4106 <fix>3d</fix>
4107 <sat>8</sat>
4108 <hdop>1.000000</hdop>
4109</trkpt>
4110<trkpt lat="53.793603333" lon="-1.743265000">
4111 <ele>122.800000</ele>
4112<time>2008-08-14T15:13:09Z</time>
4113 <course>14.890000</course>
4114 <speed>10.055555</speed>
4115 <fix>3d</fix>
4116 <sat>8</sat>
4117 <hdop>1.000000</hdop>
4118</trkpt>
4119<trkpt lat="53.793703333" lon="-1.743226667">
4120 <ele>123.600000</ele>
4121<time>2008-08-14T15:13:10Z</time>
4122 <course>11.590000</course>
4123 <speed>10.611111</speed>
4124 <fix>3d</fix>
4125 <sat>8</sat>
4126 <hdop>1.000000</hdop>
4127</trkpt>
4128<trkpt lat="53.793810000" lon="-1.743195000">
4129 <ele>123.800000</ele>
4130<time>2008-08-14T15:13:11Z</time>
4131 <course>7.080000</course>
4132 <speed>11.222222</speed>
4133 <fix>3d</fix>
4134 <sat>8</sat>
4135 <hdop>1.000000</hdop>
4136 <vdop>1.700000</vdop>
4137 <pdop>2.000000</pdop>
4138</trkpt>
4139<trkpt lat="53.793911667" lon="-1.743165000">
4140 <ele>124.600000</ele>
4141<time>2008-08-14T15:13:12Z</time>
4142 <course>3.210000</course>
4143 <speed>11.611111</speed>
4144 <fix>3d</fix>
4145 <sat>8</sat>
4146 <hdop>1.000000</hdop>
4147</trkpt>
4148<trkpt lat="53.794016667" lon="-1.743166667">
4149 <ele>124.700000</ele>
4150<time>2008-08-14T15:13:13Z</time>
4151 <course>358.779999</course>
4152 <speed>11.388889</speed>
4153 <fix>3d</fix>
4154 <sat>8</sat>
4155 <hdop>1.000000</hdop>
4156</trkpt>
4157<trkpt lat="53.794116667" lon="-1.743180000">
4158 <ele>124.800000</ele>
4159<time>2008-08-14T15:13:14Z</time>
4160 <course>354.880005</course>
4161 <speed>10.694445</speed>
4162 <fix>3d</fix>
4163 <sat>8</sat>
4164 <hdop>1.000000</hdop>
4165</trkpt>
4166<trkpt lat="53.794213333" lon="-1.743203333">
4167 <ele>125.500000</ele>
4168<time>2008-08-14T15:13:15Z</time>
4169 <course>352.359985</course>
4170 <speed>10.333333</speed>
4171 <fix>3d</fix>
4172 <sat>8</sat>
4173 <hdop>1.000000</hdop>
4174</trkpt>
4175<trkpt lat="53.794305000" lon="-1.743231667">
4176 <ele>125.300000</ele>
4177<time>2008-08-14T15:13:16Z</time>
4178 <course>349.899994</course>
4179 <speed>10.416667</speed>
4180 <fix>3d</fix>
4181 <sat>7</sat>
4182 <hdop>1.100000</hdop>
4183 <vdop>1.800000</vdop>
4184 <pdop>2.100000</pdop>
4185</trkpt>
4186<trkpt lat="53.794398333" lon="-1.743251667">
4187 <ele>126.000000</ele>
4188<time>2008-08-14T15:13:17Z</time>
4189 <course>348.209991</course>
4190 <speed>10.472222</speed>
4191 <fix>3d</fix>
4192 <sat>7</sat>
4193 <hdop>1.100000</hdop>
4194</trkpt>
4195<trkpt lat="53.794493333" lon="-1.743286667">
4196 <ele>126.800000</ele>
4197<time>2008-08-14T15:13:18Z</time>
4198 <course>348.010010</course>
4199 <speed>10.555555</speed>
4200 <fix>3d</fix>
4201 <sat>8</sat>
4202 <hdop>1.000000</hdop>
4203</trkpt>
4204<trkpt lat="53.794590000" lon="-1.743326667">
4205 <ele>127.700000</ele>
4206<time>2008-08-14T15:13:19Z</time>
4207 <course>345.079987</course>
4208 <speed>10.916667</speed>
4209 <fix>3d</fix>
4210 <sat>8</sat>
4211 <hdop>1.000000</hdop>
4212</trkpt>
4213<trkpt lat="53.794688333" lon="-1.743375000">
4214 <ele>128.300000</ele>
4215<time>2008-08-14T15:13:20Z</time>
4216 <course>342.299988</course>
4217 <speed>11.472222</speed>
4218 <fix>3d</fix>
4219 <sat>9</sat>
4220 <hdop>0.900000</hdop>
4221</trkpt>
4222<trkpt lat="53.794788333" lon="-1.743431667">
4223 <ele>128.900000</ele>
4224<time>2008-08-14T15:13:21Z</time>
4225 <course>341.269989</course>
4226 <speed>11.861111</speed>
4227 <fix>3d</fix>
4228 <sat>9</sat>
4229 <hdop>0.900000</hdop>
4230 <vdop>1.400000</vdop>
4231 <pdop>1.700000</pdop>
4232</trkpt>
4233<trkpt lat="53.794890000" lon="-1.743490000">
4234 <ele>129.400000</ele>
4235<time>2008-08-14T15:13:22Z</time>
4236 <course>340.730011</course>
4237 <speed>11.944445</speed>
4238 <fix>3d</fix>
4239 <sat>9</sat>
4240 <hdop>0.900000</hdop>
4241</trkpt>
4242<trkpt lat="53.794996667" lon="-1.743558333">
4243 <ele>129.200000</ele>
4244<time>2008-08-14T15:13:23Z</time>
4245 <course>340.019989</course>
4246 <speed>12.027778</speed>
4247 <fix>3d</fix>
4248 <sat>8</sat>
4249 <hdop>1.000000</hdop>
4250</trkpt>
4251<trkpt lat="53.795098333" lon="-1.743623333">
4252 <ele>131.300000</ele>
4253<time>2008-08-14T15:13:24Z</time>
4254 <course>339.489990</course>
4255 <speed>11.944445</speed>
4256 <fix>3d</fix>
4257 <sat>9</sat>
4258 <hdop>0.900000</hdop>
4259</trkpt>
4260<trkpt lat="53.795198333" lon="-1.743690000">
4261 <ele>131.700000</ele>
4262<time>2008-08-14T15:13:25Z</time>
4263 <course>338.160004</course>
4264 <speed>12.000000</speed>
4265 <fix>3d</fix>
4266 <sat>9</sat>
4267 <hdop>0.900000</hdop>
4268</trkpt>
4269<trkpt lat="53.795303333" lon="-1.743753333">
4270 <ele>132.900000</ele>
4271<time>2008-08-14T15:13:26Z</time>
4272 <course>341.649994</course>
4273 <speed>12.500000</speed>
4274 <fix>3d</fix>
4275 <sat>9</sat>
4276 <hdop>0.900000</hdop>
4277 <vdop>1.400000</vdop>
4278 <pdop>1.700000</pdop>
4279</trkpt>
4280<trkpt lat="53.795406667" lon="-1.743813333">
4281 <ele>134.300000</ele>
4282<time>2008-08-14T15:13:27Z</time>
4283 <course>340.549988</course>
4284 <speed>12.611111</speed>
4285 <fix>3d</fix>
4286 <sat>9</sat>
4287 <hdop>0.900000</hdop>
4288</trkpt>
4289<trkpt lat="53.795515000" lon="-1.743881667">
4290 <ele>134.200000</ele>
4291<time>2008-08-14T15:13:28Z</time>
4292 <course>341.769989</course>
4293 <speed>12.611111</speed>
4294 <fix>3d</fix>
4295 <sat>9</sat>
4296 <hdop>0.900000</hdop>
4297</trkpt>
4298<trkpt lat="53.795625000" lon="-1.743940000">
4299 <ele>134.600000</ele>
4300<time>2008-08-14T15:13:29Z</time>
4301 <course>341.739990</course>
4302 <speed>12.472222</speed>
4303 <fix>3d</fix>
4304 <sat>9</sat>
4305 <hdop>0.900000</hdop>
4306</trkpt>
4307<trkpt lat="53.795730000" lon="-1.744000000">
4308 <ele>135.000000</ele>
4309<time>2008-08-14T15:13:30Z</time>
4310 <course>342.119995</course>
4311 <speed>12.111111</speed>
4312 <fix>3d</fix>
4313 <sat>9</sat>
4314 <hdop>0.900000</hdop>
4315</trkpt>
4316<trkpt lat="53.795831667" lon="-1.744060000">
4317 <ele>131.700000</ele>
4318<time>2008-08-14T15:13:31Z</time>
4319 <course>343.589996</course>
4320 <speed>12.111111</speed>
4321 <fix>3d</fix>
4322 <sat>9</sat>
4323 <hdop>0.900000</hdop>
4324 <vdop>1.400000</vdop>
4325 <pdop>1.700000</pdop>
4326</trkpt>
4327<trkpt lat="53.795935000" lon="-1.744115000">
4328 <ele>129.500000</ele>
4329<time>2008-08-14T15:13:32Z</time>
4330 <course>344.089996</course>
4331 <speed>11.777778</speed>
4332 <fix>3d</fix>
4333 <sat>9</sat>
4334 <hdop>0.900000</hdop>
4335</trkpt>
4336<trkpt lat="53.796025000" lon="-1.744158333">
4337 <ele>127.800000</ele>
4338<time>2008-08-14T15:13:33Z</time>
4339 <course>344.329987</course>
4340 <speed>10.444445</speed>
4341 <fix>3d</fix>
4342 <sat>9</sat>
4343 <hdop>0.900000</hdop>
4344</trkpt>
4345<trkpt lat="53.796096667" lon="-1.744191667">
4346 <ele>126.400000</ele>
4347<time>2008-08-14T15:13:34Z</time>
4348 <course>343.980011</course>
4349 <speed>8.333333</speed>
4350 <fix>3d</fix>
4351 <sat>9</sat>
4352 <hdop>0.900000</hdop>
4353</trkpt>
4354<trkpt lat="53.796150000" lon="-1.744218333">
4355 <ele>126.200000</ele>
4356<time>2008-08-14T15:13:35Z</time>
4357 <course>345.140015</course>
4358 <speed>6.388889</speed>
4359 <fix>3d</fix>
4360 <sat>9</sat>
4361 <hdop>0.900000</hdop>
4362</trkpt>
4363<trkpt lat="53.796190000" lon="-1.744236667">
4364 <ele>126.200000</ele>
4365<time>2008-08-14T15:13:36Z</time>
4366 <course>343.769989</course>
4367 <speed>4.777778</speed>
4368 <fix>3d</fix>
4369 <sat>9</sat>
4370 <hdop>0.900000</hdop>
4371 <vdop>1.400000</vdop>
4372 <pdop>1.700000</pdop>
4373</trkpt>
4374<trkpt lat="53.796220000" lon="-1.744246667">
4375 <ele>126.100000</ele>
4376<time>2008-08-14T15:13:37Z</time>
4377 <course>344.910004</course>
4378 <speed>3.333333</speed>
4379 <fix>3d</fix>
4380 <sat>9</sat>
4381 <hdop>0.900000</hdop>
4382</trkpt>
4383<trkpt lat="53.796243333" lon="-1.744246667">
4384 <ele>125.900000</ele>
4385<time>2008-08-14T15:13:38Z</time>
4386 <course>344.390015</course>
4387 <speed>2.222222</speed>
4388 <fix>3d</fix>
4389 <sat>9</sat>
4390 <hdop>0.900000</hdop>
4391</trkpt>
4392<trkpt lat="53.796248333" lon="-1.744253333">
4393 <ele>126.000000</ele>
4394<time>2008-08-14T15:13:39Z</time>
4395 <course>344.390015</course>
4396 <speed>0.000000</speed>
4397 <fix>3d</fix>
4398 <sat>9</sat>
4399 <hdop>0.900000</hdop>
4400</trkpt>
4401<trkpt lat="53.796248333" lon="-1.744253333">
4402 <ele>126.100000</ele>
4403<time>2008-08-14T15:13:40Z</time>
4404 <course>344.390015</course>
4405 <speed>0.000000</speed>
4406 <fix>3d</fix>
4407 <sat>9</sat>
4408 <hdop>0.900000</hdop>
4409</trkpt>
4410<trkpt lat="53.796246667" lon="-1.744250000">
4411 <ele>125.900000</ele>
4412<time>2008-08-14T15:13:41Z</time>
4413 <course>344.390015</course>
4414 <speed>0.000000</speed>
4415 <fix>3d</fix>
4416 <sat>9</sat>
4417 <hdop>0.900000</hdop>
4418 <vdop>1.400000</vdop>
4419 <pdop>1.700000</pdop>
4420</trkpt>
4421<trkpt lat="53.796245000" lon="-1.744248333">
4422 <ele>126.300000</ele>
4423<time>2008-08-14T15:13:42Z</time>
4424 <course>344.390015</course>
4425 <speed>0.000000</speed>
4426 <fix>3d</fix>
4427 <sat>9</sat>
4428 <hdop>0.900000</hdop>
4429</trkpt>
4430<trkpt lat="53.796245000" lon="-1.744246667">
4431 <ele>126.700000</ele>
4432<time>2008-08-14T15:13:43Z</time>
4433 <course>344.390015</course>
4434 <speed>0.000000</speed>
4435 <fix>3d</fix>
4436 <sat>9</sat>
4437 <hdop>0.900000</hdop>
4438</trkpt>
4439<trkpt lat="53.796245000" lon="-1.744243333">
4440 <ele>127.100000</ele>
4441<time>2008-08-14T15:13:44Z</time>
4442 <course>344.390015</course>
4443 <speed>0.000000</speed>
4444 <fix>3d</fix>
4445 <sat>9</sat>
4446 <hdop>0.900000</hdop>
4447</trkpt>
4448<trkpt lat="53.796245000" lon="-1.744241667">
4449 <ele>127.500000</ele>
4450<time>2008-08-14T15:13:45Z</time>
4451 <course>344.390015</course>
4452 <speed>0.000000</speed>
4453 <fix>3d</fix>
4454 <sat>9</sat>
4455 <hdop>0.900000</hdop>
4456</trkpt>
4457<trkpt lat="53.796245000" lon="-1.744240000">
4458 <ele>127.700000</ele>
4459<time>2008-08-14T15:13:46Z</time>
4460 <course>344.390015</course>
4461 <speed>0.000000</speed>
4462 <fix>3d</fix>
4463 <sat>9</sat>
4464 <hdop>0.900000</hdop>
4465 <vdop>1.400000</vdop>
4466 <pdop>1.700000</pdop>
4467</trkpt>
4468<trkpt lat="53.796243333" lon="-1.744238333">
4469 <ele>127.800000</ele>
4470<time>2008-08-14T15:13:47Z</time>
4471 <course>344.390015</course>
4472 <speed>0.000000</speed>
4473 <fix>3d</fix>
4474 <sat>9</sat>
4475 <hdop>0.900000</hdop>
4476</trkpt>
4477<trkpt lat="53.796243333" lon="-1.744235000">
4478 <ele>128.100000</ele>
4479<time>2008-08-14T15:13:48Z</time>
4480 <course>344.390015</course>
4481 <speed>0.000000</speed>
4482 <fix>3d</fix>
4483 <sat>9</sat>
4484 <hdop>0.900000</hdop>
4485</trkpt>
4486<trkpt lat="53.796243333" lon="-1.744233333">
4487 <ele>128.400000</ele>
4488<time>2008-08-14T15:13:49Z</time>
4489 <course>344.390015</course>
4490 <speed>0.000000</speed>
4491 <fix>3d</fix>
4492 <sat>9</sat>
4493 <hdop>0.900000</hdop>
4494</trkpt>
4495<trkpt lat="53.796243333" lon="-1.744231667">
4496 <ele>128.800000</ele>
4497<time>2008-08-14T15:13:50Z</time>
4498 <course>344.390015</course>
4499 <speed>0.000000</speed>
4500 <fix>3d</fix>
4501 <sat>9</sat>
4502 <hdop>0.900000</hdop>
4503</trkpt>
4504<trkpt lat="53.796243333" lon="-1.744230000">
4505 <ele>129.100000</ele>
4506<time>2008-08-14T15:13:51Z</time>
4507 <course>344.390015</course>
4508 <speed>0.000000</speed>
4509 <fix>3d</fix>
4510 <sat>9</sat>
4511 <hdop>0.900000</hdop>
4512 <vdop>1.400000</vdop>
4513 <pdop>1.700000</pdop>
4514</trkpt>
4515<trkpt lat="53.796243333" lon="-1.744228333">
4516 <ele>129.400000</ele>
4517<time>2008-08-14T15:13:52Z</time>
4518 <course>344.390015</course>
4519 <speed>0.000000</speed>
4520 <fix>3d</fix>
4521 <sat>9</sat>
4522 <hdop>0.900000</hdop>
4523</trkpt>
4524<trkpt lat="53.796243333" lon="-1.744226667">
4525 <ele>129.600000</ele>
4526<time>2008-08-14T15:13:53Z</time>
4527 <course>344.390015</course>
4528 <speed>0.000000</speed>
4529 <fix>3d</fix>
4530 <sat>9</sat>
4531 <hdop>0.900000</hdop>
4532</trkpt>
4533<trkpt lat="53.796243333" lon="-1.744225000">
4534 <ele>129.700000</ele>
4535<time>2008-08-14T15:13:54Z</time>
4536 <course>344.390015</course>
4537 <speed>0.000000</speed>
4538 <fix>3d</fix>
4539 <sat>9</sat>
4540 <hdop>0.900000</hdop>
4541</trkpt>
4542<trkpt lat="53.796243333" lon="-1.744223333">
4543 <ele>129.800000</ele>
4544<time>2008-08-14T15:13:55Z</time>
4545 <course>344.390015</course>
4546 <speed>0.000000</speed>
4547 <fix>3d</fix>
4548 <sat>9</sat>
4549 <hdop>0.900000</hdop>
4550</trkpt>
4551<trkpt lat="53.796243333" lon="-1.744223333">
4552 <ele>130.100000</ele>
4553<time>2008-08-14T15:13:56Z</time>
4554 <course>344.390015</course>
4555 <speed>0.000000</speed>
4556 <fix>3d</fix>
4557 <sat>9</sat>
4558 <hdop>0.900000</hdop>
4559 <vdop>1.400000</vdop>
4560 <pdop>1.700000</pdop>
4561</trkpt>
4562<trkpt lat="53.796243333" lon="-1.744221667">
4563 <ele>130.300000</ele>
4564<time>2008-08-14T15:13:57Z</time>
4565 <course>344.390015</course>
4566 <speed>0.000000</speed>
4567 <fix>3d</fix>
4568 <sat>9</sat>
4569 <hdop>0.900000</hdop>
4570</trkpt>
4571<trkpt lat="53.796243333" lon="-1.744221667">
4572 <ele>130.600000</ele>
4573<time>2008-08-14T15:13:58Z</time>
4574 <course>344.390015</course>
4575 <speed>0.000000</speed>
4576 <fix>3d</fix>
4577 <sat>9</sat>
4578 <hdop>0.900000</hdop>
4579</trkpt>
4580<trkpt lat="53.796243333" lon="-1.744220000">
4581 <ele>130.700000</ele>
4582<time>2008-08-14T15:13:59Z</time>
4583 <course>344.390015</course>
4584 <speed>0.000000</speed>
4585 <fix>3d</fix>
4586 <sat>9</sat>
4587 <hdop>0.900000</hdop>
4588</trkpt>
4589<trkpt lat="53.796241667" lon="-1.744220000">
4590 <ele>130.700000</ele>
4591<time>2008-08-14T15:14:00Z</time>
4592 <course>344.390015</course>
4593 <speed>0.000000</speed>
4594 <fix>3d</fix>
4595 <sat>9</sat>
4596 <hdop>0.900000</hdop>
4597</trkpt>
4598<trkpt lat="53.796241667" lon="-1.744218333">
4599 <ele>130.900000</ele>
4600<time>2008-08-14T15:14:01Z</time>
4601 <course>344.390015</course>
4602 <speed>0.000000</speed>
4603 <fix>3d</fix>
4604 <sat>9</sat>
4605 <hdop>0.900000</hdop>
4606 <vdop>1.400000</vdop>
4607 <pdop>1.700000</pdop>
4608</trkpt>
4609<trkpt lat="53.796241667" lon="-1.744218333">
4610 <ele>131.100000</ele>
4611<time>2008-08-14T15:14:02Z</time>
4612 <course>344.390015</course>
4613 <speed>0.000000</speed>
4614 <fix>3d</fix>
4615 <sat>9</sat>
4616 <hdop>0.900000</hdop>
4617</trkpt>
4618<trkpt lat="53.796241667" lon="-1.744216667">
4619 <ele>131.100000</ele>
4620<time>2008-08-14T15:14:03Z</time>
4621 <course>344.390015</course>
4622 <speed>0.000000</speed>
4623 <fix>3d</fix>
4624 <sat>9</sat>
4625 <hdop>0.900000</hdop>
4626</trkpt>
4627<trkpt lat="53.796241667" lon="-1.744216667">
4628 <ele>131.100000</ele>
4629<time>2008-08-14T15:14:04Z</time>
4630 <course>344.390015</course>
4631 <speed>0.000000</speed>
4632 <fix>3d</fix>
4633 <sat>9</sat>
4634 <hdop>0.900000</hdop>
4635</trkpt>
4636<trkpt lat="53.796241667" lon="-1.744216667">
4637 <ele>131.100000</ele>
4638<time>2008-08-14T15:14:05Z</time>
4639 <course>344.390015</course>
4640 <speed>0.000000</speed>
4641 <fix>3d</fix>
4642 <sat>9</sat>
4643 <hdop>0.900000</hdop>
4644</trkpt>
4645<trkpt lat="53.796241667" lon="-1.744213333">
4646 <ele>131.200000</ele>
4647<time>2008-08-14T15:14:06Z</time>
4648 <course>344.390015</course>
4649 <speed>0.000000</speed>
4650 <fix>3d</fix>
4651 <sat>9</sat>
4652 <hdop>0.900000</hdop>
4653 <vdop>1.400000</vdop>
4654 <pdop>1.700000</pdop>
4655</trkpt>
4656<trkpt lat="53.796248333" lon="-1.744215000">
4657 <ele>131.200000</ele>
4658<time>2008-08-14T15:14:07Z</time>
4659 <course>343.820007</course>
4660 <speed>0.583333</speed>
4661 <fix>3d</fix>
4662 <sat>9</sat>
4663 <hdop>0.900000</hdop>
4664</trkpt>
4665<trkpt lat="53.796268333" lon="-1.744223333">
4666 <ele>131.100000</ele>
4667<time>2008-08-14T15:14:08Z</time>
4668 <course>343.779999</course>
4669 <speed>2.138889</speed>
4670 <fix>3d</fix>
4671 <sat>9</sat>
4672 <hdop>0.900000</hdop>
4673</trkpt>
4674<trkpt lat="53.796303333" lon="-1.744241667">
4675 <ele>130.900000</ele>
4676<time>2008-08-14T15:14:09Z</time>
4677 <course>341.790009</course>
4678 <speed>3.861111</speed>
4679 <fix>3d</fix>
4680 <sat>9</sat>
4681 <hdop>0.900000</hdop>
4682</trkpt>
4683<trkpt lat="53.796343333" lon="-1.744261667">
4684 <ele>130.900000</ele>
4685<time>2008-08-14T15:14:10Z</time>
4686 <course>343.690002</course>
4687 <speed>4.694445</speed>
4688 <fix>3d</fix>
4689 <sat>9</sat>
4690 <hdop>0.900000</hdop>
4691</trkpt>
4692<trkpt lat="53.796391667" lon="-1.744283333">
4693 <ele>130.800000</ele>
4694<time>2008-08-14T15:14:11Z</time>
4695 <course>344.029999</course>
4696 <speed>5.416667</speed>
4697 <fix>3d</fix>
4698 <sat>9</sat>
4699 <hdop>0.900000</hdop>
4700 <vdop>1.400000</vdop>
4701 <pdop>1.700000</pdop>
4702</trkpt>
4703<trkpt lat="53.796450000" lon="-1.744313333">
4704 <ele>128.900000</ele>
4705<time>2008-08-14T15:14:12Z</time>
4706 <course>341.989990</course>
4707 <speed>6.750000</speed>
4708 <fix>3d</fix>
4709 <sat>9</sat>
4710 <hdop>0.900000</hdop>
4711</trkpt>
4712<trkpt lat="53.796523333" lon="-1.744350000">
4713 <ele>127.400000</ele>
4714<time>2008-08-14T15:14:13Z</time>
4715 <course>343.049988</course>
4716 <speed>8.250000</speed>
4717 <fix>3d</fix>
4718 <sat>9</sat>
4719 <hdop>0.900000</hdop>
4720</trkpt>
4721<trkpt lat="53.796606667" lon="-1.744391667">
4722 <ele>126.500000</ele>
4723<time>2008-08-14T15:14:14Z</time>
4724 <course>342.829987</course>
4725 <speed>9.388889</speed>
4726 <fix>3d</fix>
4727 <sat>9</sat>
4728 <hdop>0.900000</hdop>
4729</trkpt>
4730<trkpt lat="53.796696667" lon="-1.744436667">
4731 <ele>125.600000</ele>
4732<time>2008-08-14T15:14:15Z</time>
4733 <course>342.839996</course>
4734 <speed>10.277778</speed>
4735 <fix>3d</fix>
4736 <sat>9</sat>
4737 <hdop>0.900000</hdop>
4738</trkpt>
4739<trkpt lat="53.796796667" lon="-1.744486667">
4740 <ele>125.200000</ele>
4741<time>2008-08-14T15:14:16Z</time>
4742 <course>342.739990</course>
4743 <speed>11.416667</speed>
4744 <fix>3d</fix>
4745 <sat>9</sat>
4746 <hdop>0.900000</hdop>
4747 <vdop>1.400000</vdop>
4748 <pdop>1.700000</pdop>
4749</trkpt>
4750<trkpt lat="53.796901667" lon="-1.744541667">
4751 <ele>125.300000</ele>
4752<time>2008-08-14T15:14:17Z</time>
4753 <course>340.959991</course>
4754 <speed>12.000000</speed>
4755 <fix>3d</fix>
4756 <sat>9</sat>
4757 <hdop>0.900000</hdop>
4758</trkpt>
4759<trkpt lat="53.797010000" lon="-1.744611667">
4760 <ele>126.000000</ele>
4761<time>2008-08-14T15:14:18Z</time>
4762 <course>339.279999</course>
4763 <speed>12.305555</speed>
4764 <fix>3d</fix>
4765 <sat>9</sat>
4766 <hdop>0.900000</hdop>
4767</trkpt>
4768<trkpt lat="53.797118333" lon="-1.744686667">
4769 <ele>126.000000</ele>
4770<time>2008-08-14T15:14:19Z</time>
4771 <course>338.670013</course>
4772 <speed>12.777778</speed>
4773 <fix>3d</fix>
4774 <sat>8</sat>
4775 <hdop>1.000000</hdop>
4776</trkpt>
4777<trkpt lat="53.797230000" lon="-1.744768333">
4778 <ele>126.300000</ele>
4779<time>2008-08-14T15:14:20Z</time>
4780 <course>336.730011</course>
4781 <speed>13.250000</speed>
4782 <fix>3d</fix>
4783 <sat>8</sat>
4784 <hdop>1.000000</hdop>
4785</trkpt>
4786<trkpt lat="53.797346667" lon="-1.744860000">
4787 <ele>126.500000</ele>
4788<time>2008-08-14T15:14:21Z</time>
4789 <course>335.459991</course>
4790 <speed>13.833333</speed>
4791 <fix>3d</fix>
4792 <sat>8</sat>
4793 <hdop>1.000000</hdop>
4794 <vdop>1.400000</vdop>
4795 <pdop>1.800000</pdop>
4796</trkpt>
4797<trkpt lat="53.797463333" lon="-1.744956667">
4798 <ele>126.600000</ele>
4799<time>2008-08-14T15:14:22Z</time>
4800 <course>333.750000</course>
4801 <speed>14.277778</speed>
4802 <fix>3d</fix>
4803 <sat>8</sat>
4804 <hdop>1.000000</hdop>
4805</trkpt>
4806<trkpt lat="53.797580000" lon="-1.745061667">
4807 <ele>126.600000</ele>
4808<time>2008-08-14T15:14:23Z</time>
4809 <course>331.489990</course>
4810 <speed>14.361111</speed>
4811 <fix>3d</fix>
4812 <sat>9</sat>
4813 <hdop>0.900000</hdop>
4814</trkpt>
4815<trkpt lat="53.797695000" lon="-1.745173333">
4816 <ele>126.400000</ele>
4817<time>2008-08-14T15:14:24Z</time>
4818 <course>329.450012</course>
4819 <speed>14.472222</speed>
4820 <fix>3d</fix>
4821 <sat>8</sat>
4822 <hdop>1.000000</hdop>
4823</trkpt>
4824<trkpt lat="53.797810000" lon="-1.745295000">
4825 <ele>126.300000</ele>
4826<time>2008-08-14T15:14:25Z</time>
4827 <course>327.579987</course>
4828 <speed>14.722222</speed>
4829 <fix>3d</fix>
4830 <sat>8</sat>
4831 <hdop>1.000000</hdop>
4832</trkpt>
4833<trkpt lat="53.797921667" lon="-1.745421667">
4834 <ele>124.900000</ele>
4835<time>2008-08-14T15:14:26Z</time>
4836 <course>326.200012</course>
4837 <speed>14.861111</speed>
4838 <fix>3d</fix>
4839 <sat>9</sat>
4840 <hdop>0.900000</hdop>
4841 <vdop>1.400000</vdop>
4842 <pdop>1.700000</pdop>
4843</trkpt>
4844<trkpt lat="53.798036667" lon="-1.745550000">
4845 <ele>124.500000</ele>
4846<time>2008-08-14T15:14:27Z</time>
4847 <course>325.769989</course>
4848 <speed>15.027778</speed>
4849 <fix>3d</fix>
4850 <sat>9</sat>
4851 <hdop>0.900000</hdop>
4852</trkpt>
4853<trkpt lat="53.798151667" lon="-1.745683333">
4854 <ele>124.100000</ele>
4855<time>2008-08-14T15:14:28Z</time>
4856 <course>325.700012</course>
4857 <speed>15.277778</speed>
4858 <fix>3d</fix>
4859 <sat>9</sat>
4860 <hdop>0.900000</hdop>
4861</trkpt>
4862<trkpt lat="53.798268333" lon="-1.745820000">
4863 <ele>123.500000</ele>
4864<time>2008-08-14T15:14:29Z</time>
4865 <course>325.500000</course>
4866 <speed>15.555555</speed>
4867 <fix>3d</fix>
4868 <sat>9</sat>
4869 <hdop>0.900000</hdop>
4870</trkpt>
4871<trkpt lat="53.798388333" lon="-1.745963333">
4872 <ele>122.700000</ele>
4873<time>2008-08-14T15:14:30Z</time>
4874 <course>324.859985</course>
4875 <speed>16.083334</speed>
4876 <fix>3d</fix>
4877 <sat>9</sat>
4878 <hdop>0.900000</hdop>
4879</trkpt>
4880<trkpt lat="53.798506667" lon="-1.746106667">
4881 <ele>121.700000</ele>
4882<time>2008-08-14T15:14:31Z</time>
4883 <course>324.709991</course>
4884 <speed>16.055555</speed>
4885 <fix>3d</fix>
4886 <sat>9</sat>
4887 <hdop>0.900000</hdop>
4888 <vdop>1.400000</vdop>
4889 <pdop>1.700000</pdop>
4890</trkpt>
4891<trkpt lat="53.798620000" lon="-1.746246667">
4892 <ele>121.000000</ele>
4893<time>2008-08-14T15:14:32Z</time>
4894 <course>324.089996</course>
4895 <speed>15.527778</speed>
4896 <fix>3d</fix>
4897 <sat>9</sat>
4898 <hdop>0.900000</hdop>
4899</trkpt>
4900<trkpt lat="53.798731667" lon="-1.746385000">
4901 <ele>120.100000</ele>
4902<time>2008-08-14T15:14:33Z</time>
4903 <course>323.609985</course>
4904 <speed>15.250000</speed>
4905 <fix>3d</fix>
4906 <sat>9</sat>
4907 <hdop>0.900000</hdop>
4908</trkpt>
4909<trkpt lat="53.798838333" lon="-1.746523333">
4910 <ele>119.400000</ele>
4911<time>2008-08-14T15:14:34Z</time>
4912 <course>323.059998</course>
4913 <speed>15.000000</speed>
4914 <fix>3d</fix>
4915 <sat>9</sat>
4916 <hdop>0.900000</hdop>
4917</trkpt>
4918<trkpt lat="53.798945000" lon="-1.746661667">
4919 <ele>118.700000</ele>
4920<time>2008-08-14T15:14:35Z</time>
4921 <course>322.279999</course>
4922 <speed>14.805555</speed>
4923 <fix>3d</fix>
4924 <sat>9</sat>
4925 <hdop>0.900000</hdop>
4926</trkpt>
4927<trkpt lat="53.799050000" lon="-1.746801667">
4928 <ele>117.900000</ele>
4929<time>2008-08-14T15:14:36Z</time>
4930 <course>321.619995</course>
4931 <speed>14.805555</speed>
4932 <fix>3d</fix>
4933 <sat>9</sat>
4934 <hdop>0.900000</hdop>
4935 <vdop>1.400000</vdop>
4936 <pdop>1.700000</pdop>
4937</trkpt>
4938<trkpt lat="53.799155000" lon="-1.746943333">
4939 <ele>117.100000</ele>
4940<time>2008-08-14T15:14:37Z</time>
4941 <course>321.339996</course>
4942 <speed>14.972222</speed>
4943 <fix>3d</fix>
4944 <sat>9</sat>
4945 <hdop>0.900000</hdop>
4946</trkpt>
4947<trkpt lat="53.799260000" lon="-1.747090000">
4948 <ele>116.500000</ele>
4949<time>2008-08-14T15:14:38Z</time>
4950 <course>320.709991</course>
4951 <speed>15.083333</speed>
4952 <fix>3d</fix>
4953 <sat>9</sat>
4954 <hdop>0.900000</hdop>
4955</trkpt>
4956<trkpt lat="53.799368333" lon="-1.747238333">
4957 <ele>115.600000</ele>
4958<time>2008-08-14T15:14:39Z</time>
4959 <course>321.269989</course>
4960 <speed>15.416667</speed>
4961 <fix>3d</fix>
4962 <sat>9</sat>
4963 <hdop>0.900000</hdop>
4964</trkpt>
4965<trkpt lat="53.799478333" lon="-1.747391667">
4966 <ele>115.100000</ele>
4967<time>2008-08-14T15:14:40Z</time>
4968 <course>320.059998</course>
4969 <speed>15.833333</speed>
4970 <fix>3d</fix>
4971 <sat>9</sat>
4972 <hdop>0.900000</hdop>
4973</trkpt>
4974<trkpt lat="53.799588333" lon="-1.747550000">
4975 <ele>114.800000</ele>
4976<time>2008-08-14T15:14:41Z</time>
4977 <course>319.429993</course>
4978 <speed>16.000000</speed>
4979 <fix>3d</fix>
4980 <sat>9</sat>
4981 <hdop>0.900000</hdop>
4982 <vdop>1.400000</vdop>
4983 <pdop>1.700000</pdop>
4984</trkpt>
4985<trkpt lat="53.799698333" lon="-1.747708333">
4986 <ele>114.500000</ele>
4987<time>2008-08-14T15:14:42Z</time>
4988 <course>319.250000</course>
4989 <speed>16.027779</speed>
4990 <fix>3d</fix>
4991 <sat>9</sat>
4992 <hdop>0.900000</hdop>
4993</trkpt>
4994<trkpt lat="53.799805000" lon="-1.747863333">
4995 <ele>114.300000</ele>
4996<time>2008-08-14T15:14:43Z</time>
4997 <course>319.059998</course>
4998 <speed>15.583333</speed>
4999 <fix>3d</fix>
5000 <sat>9</sat>
5001 <hdop>0.900000</hdop>
5002</trkpt>
5003<trkpt lat="53.799903333" lon="-1.748008333">
5004 <ele>113.900000</ele>
5005<time>2008-08-14T15:14:44Z</time>
5006 <course>318.869995</course>
5007 <speed>14.555555</speed>
5008 <fix>3d</fix>
5009 <sat>9</sat>
5010 <hdop>0.900000</hdop>
5011</trkpt>
5012<trkpt lat="53.799995000" lon="-1.748141667">
5013 <ele>113.600000</ele>
5014<time>2008-08-14T15:14:45Z</time>
5015 <course>319.200012</course>
5016 <speed>13.472222</speed>
5017 <fix>3d</fix>
5018 <sat>9</sat>
5019 <hdop>0.900000</hdop>
5020</trkpt>
5021<trkpt lat="53.800076667" lon="-1.748258333">
5022 <ele>113.400000</ele>
5023<time>2008-08-14T15:14:46Z</time>
5024 <course>319.809998</course>
5025 <speed>11.916667</speed>
5026 <fix>3d</fix>
5027 <sat>9</sat>
5028 <hdop>0.900000</hdop>
5029 <vdop>1.400000</vdop>
5030 <pdop>1.700000</pdop>
5031</trkpt>
5032<trkpt lat="53.800143333" lon="-1.748353333">
5033 <ele>113.000000</ele>
5034<time>2008-08-14T15:14:47Z</time>
5035 <course>319.899994</course>
5036 <speed>9.805555</speed>
5037 <fix>3d</fix>
5038 <sat>9</sat>
5039 <hdop>0.900000</hdop>
5040</trkpt>
5041<trkpt lat="53.800195000" lon="-1.748430000">
5042 <ele>112.300000</ele>
5043<time>2008-08-14T15:14:48Z</time>
5044 <course>319.179993</course>
5045 <speed>7.916667</speed>
5046 <fix>3d</fix>
5047 <sat>9</sat>
5048 <hdop>0.900000</hdop>
5049</trkpt>
5050<trkpt lat="53.800243333" lon="-1.748498333">
5051 <ele>111.700000</ele>
5052<time>2008-08-14T15:14:49Z</time>
5053 <course>319.450012</course>
5054 <speed>6.888889</speed>
5055 <fix>3d</fix>
5056 <sat>9</sat>
5057 <hdop>0.900000</hdop>
5058</trkpt>
5059<trkpt lat="53.800283333" lon="-1.748561667">
5060 <ele>111.100000</ele>
5061<time>2008-08-14T15:14:50Z</time>
5062 <course>318.339996</course>
5063 <speed>6.444445</speed>
5064 <fix>3d</fix>
5065 <sat>9</sat>
5066 <hdop>0.900000</hdop>
5067</trkpt>
5068<trkpt lat="53.800316667" lon="-1.748616667">
5069 <ele>110.500000</ele>
5070<time>2008-08-14T15:14:51Z</time>
5071 <course>319.440002</course>
5072 <speed>5.500000</speed>
5073 <fix>3d</fix>
5074 <sat>9</sat>
5075 <hdop>0.900000</hdop>
5076 <vdop>1.400000</vdop>
5077 <pdop>1.700000</pdop>
5078</trkpt>
5079<trkpt lat="53.800341667" lon="-1.748660000">
5080 <ele>110.000000</ele>
5081<time>2008-08-14T15:14:52Z</time>
5082 <course>316.790009</course>
5083 <speed>4.277778</speed>
5084 <fix>3d</fix>
5085 <sat>9</sat>
5086 <hdop>0.900000</hdop>
5087</trkpt>
5088<trkpt lat="53.800358333" lon="-1.748691667">
5089 <ele>108.200000</ele>
5090<time>2008-08-14T15:14:53Z</time>
5091 <course>323.350006</course>
5092 <speed>3.222222</speed>
5093 <fix>3d</fix>
5094 <sat>9</sat>
5095 <hdop>0.900000</hdop>
5096</trkpt>
5097<trkpt lat="53.800370000" lon="-1.748715000">
5098 <ele>106.700000</ele>
5099<time>2008-08-14T15:14:54Z</time>
5100 <course>319.279999</course>
5101 <speed>2.361111</speed>
5102 <fix>3d</fix>
5103 <sat>9</sat>
5104 <hdop>0.900000</hdop>
5105</trkpt>
5106<trkpt lat="53.800380000" lon="-1.748736667">
5107 <ele>105.500000</ele>
5108<time>2008-08-14T15:14:55Z</time>
5109 <course>314.549988</course>
5110 <speed>2.000000</speed>
5111 <fix>3d</fix>
5112 <sat>8</sat>
5113 <hdop>1.000000</hdop>
5114</trkpt>
5115<trkpt lat="53.800386667" lon="-1.748753333">
5116 <ele>105.100000</ele>
5117<time>2008-08-14T15:14:56Z</time>
5118 <course>315.929993</course>
5119 <speed>1.500000</speed>
5120 <fix>3d</fix>
5121 <sat>8</sat>
5122 <hdop>1.000000</hdop>
5123 <vdop>1.400000</vdop>
5124 <pdop>1.800000</pdop>
5125</trkpt>
5126<trkpt lat="53.800388333" lon="-1.748761667">
5127 <ele>103.700000</ele>
5128<time>2008-08-14T15:14:57Z</time>
5129 <course>315.929993</course>
5130 <speed>0.000000</speed>
5131 <fix>3d</fix>
5132 <sat>8</sat>
5133 <hdop>1.000000</hdop>
5134</trkpt>
5135<trkpt lat="53.800390000" lon="-1.748765000">
5136 <ele>103.500000</ele>
5137<time>2008-08-14T15:14:58Z</time>
5138 <course>315.929993</course>
5139 <speed>0.000000</speed>
5140 <fix>3d</fix>
5141 <sat>8</sat>
5142 <hdop>1.000000</hdop>
5143</trkpt>
5144<trkpt lat="53.800395000" lon="-1.748770000">
5145 <ele>103.700000</ele>
5146<time>2008-08-14T15:14:59Z</time>
5147 <course>310.600006</course>
5148 <speed>0.833333</speed>
5149 <fix>3d</fix>
5150 <sat>8</sat>
5151 <hdop>1.000000</hdop>
5152</trkpt>
5153<trkpt lat="53.800401667" lon="-1.748781667">
5154 <ele>104.200000</ele>
5155<time>2008-08-14T15:15:00Z</time>
5156 <course>305.589996</course>
5157 <speed>1.472222</speed>
5158 <fix>3d</fix>
5159 <sat>8</sat>
5160 <hdop>1.000000</hdop>
5161</trkpt>
5162<trkpt lat="53.800413333" lon="-1.748798333">
5163 <ele>104.700000</ele>
5164<time>2008-08-14T15:15:01Z</time>
5165 <course>314.549988</course>
5166 <speed>1.916667</speed>
5167 <fix>3d</fix>
5168 <sat>8</sat>
5169 <hdop>1.000000</hdop>
5170 <vdop>1.400000</vdop>
5171 <pdop>1.800000</pdop>
5172</trkpt>
5173<trkpt lat="53.800430000" lon="-1.748821667">
5174 <ele>105.000000</ele>
5175<time>2008-08-14T15:15:02Z</time>
5176 <course>317.739990</course>
5177 <speed>2.416667</speed>
5178 <fix>3d</fix>
5179 <sat>8</sat>
5180 <hdop>1.000000</hdop>
5181</trkpt>
5182<trkpt lat="53.800453333" lon="-1.748853333">
5183 <ele>105.400000</ele>
5184<time>2008-08-14T15:15:03Z</time>
5185 <course>322.850006</course>
5186 <speed>3.416667</speed>
5187 <fix>3d</fix>
5188 <sat>9</sat>
5189 <hdop>1.000000</hdop>
5190</trkpt>
5191<trkpt lat="53.800488333" lon="-1.748893333">
5192 <ele>105.600000</ele>
5193<time>2008-08-14T15:15:04Z</time>
5194 <course>323.029999</course>
5195 <speed>4.666667</speed>
5196 <fix>3d</fix>
5197 <sat>9</sat>
5198 <hdop>1.000000</hdop>
5199</trkpt>
5200<trkpt lat="53.800528333" lon="-1.748948333">
5201 <ele>105.800000</ele>
5202<time>2008-08-14T15:15:05Z</time>
5203 <course>320.619995</course>
5204 <speed>5.805555</speed>
5205 <fix>3d</fix>
5206 <sat>9</sat>
5207 <hdop>1.000000</hdop>
5208</trkpt>
5209<trkpt lat="53.800571667" lon="-1.749011667">
5210 <ele>105.500000</ele>
5211<time>2008-08-14T15:15:06Z</time>
5212 <course>320.350006</course>
5213 <speed>6.444445</speed>
5214 <fix>3d</fix>
5215 <sat>9</sat>
5216 <hdop>1.000000</hdop>
5217 <vdop>1.300000</vdop>
5218 <pdop>1.700000</pdop>
5219</trkpt>
5220<trkpt lat="53.800620000" lon="-1.749080000">
5221 <ele>105.500000</ele>
5222<time>2008-08-14T15:15:07Z</time>
5223 <course>319.820007</course>
5224 <speed>6.888889</speed>
5225 <fix>3d</fix>
5226 <sat>9</sat>
5227 <hdop>1.000000</hdop>
5228</trkpt>
5229<trkpt lat="53.800670000" lon="-1.749150000">
5230 <ele>105.900000</ele>
5231<time>2008-08-14T15:15:08Z</time>
5232 <course>320.380005</course>
5233 <speed>7.333333</speed>
5234 <fix>3d</fix>
5235 <sat>10</sat>
5236 <hdop>0.900000</hdop>
5237</trkpt>
5238<trkpt lat="53.800723333" lon="-1.749225000">
5239 <ele>105.900000</ele>
5240<time>2008-08-14T15:15:09Z</time>
5241 <course>321.190002</course>
5242 <speed>7.638889</speed>
5243 <fix>3d</fix>
5244 <sat>10</sat>
5245 <hdop>0.900000</hdop>
5246</trkpt>
5247<trkpt lat="53.800778333" lon="-1.749301667">
5248 <ele>106.100000</ele>
5249<time>2008-08-14T15:15:10Z</time>
5250 <course>320.410004</course>
5251 <speed>8.027778</speed>
5252 <fix>3d</fix>
5253 <sat>10</sat>
5254 <hdop>0.900000</hdop>
5255</trkpt>
5256<trkpt lat="53.800836667" lon="-1.749393333">
5257 <ele>105.200000</ele>
5258<time>2008-08-14T15:15:11Z</time>
5259 <course>319.690002</course>
5260 <speed>8.777778</speed>
5261 <fix>3d</fix>
5262 <sat>10</sat>
5263 <hdop>0.900000</hdop>
5264 <vdop>1.300000</vdop>
5265 <pdop>1.600000</pdop>
5266</trkpt>
5267<trkpt lat="53.800905000" lon="-1.749490000">
5268 <ele>104.900000</ele>
5269<time>2008-08-14T15:15:12Z</time>
5270 <course>323.179993</course>
5271 <speed>9.666667</speed>
5272 <fix>3d</fix>
5273 <sat>10</sat>
5274 <hdop>0.900000</hdop>
5275</trkpt>
5276<trkpt lat="53.800981667" lon="-1.749591667">
5277 <ele>104.600000</ele>
5278<time>2008-08-14T15:15:13Z</time>
5279 <course>321.510010</course>
5280 <speed>10.833333</speed>
5281 <fix>3d</fix>
5282 <sat>10</sat>
5283 <hdop>0.900000</hdop>
5284</trkpt>
5285<trkpt lat="53.801065000" lon="-1.749708333">
5286 <ele>104.200000</ele>
5287<time>2008-08-14T15:15:14Z</time>
5288 <course>319.980011</course>
5289 <speed>11.888889</speed>
5290 <fix>3d</fix>
5291 <sat>10</sat>
5292 <hdop>0.900000</hdop>
5293</trkpt>
5294<trkpt lat="53.801151667" lon="-1.749830000">
5295 <ele>103.900000</ele>
5296<time>2008-08-14T15:15:15Z</time>
5297 <course>319.480011</course>
5298 <speed>12.472222</speed>
5299 <fix>3d</fix>
5300 <sat>10</sat>
5301 <hdop>0.900000</hdop>
5302</trkpt>
5303<trkpt lat="53.801240000" lon="-1.749956667">
5304 <ele>103.800000</ele>
5305<time>2008-08-14T15:15:16Z</time>
5306 <course>319.359985</course>
5307 <speed>12.833333</speed>
5308 <fix>3d</fix>
5309 <sat>10</sat>
5310 <hdop>0.900000</hdop>
5311 <vdop>1.300000</vdop>
5312 <pdop>1.600000</pdop>
5313</trkpt>
5314<trkpt lat="53.801330000" lon="-1.750086667">
5315 <ele>103.500000</ele>
5316<time>2008-08-14T15:15:17Z</time>
5317 <course>318.850006</course>
5318 <speed>12.944445</speed>
5319 <fix>3d</fix>
5320 <sat>10</sat>
5321 <hdop>0.900000</hdop>
5322</trkpt>
5323<trkpt lat="53.801418333" lon="-1.750216667">
5324 <ele>103.300000</ele>
5325<time>2008-08-14T15:15:18Z</time>
5326 <course>318.450012</course>
5327 <speed>12.944445</speed>
5328 <fix>3d</fix>
5329 <sat>9</sat>
5330 <hdop>1.000000</hdop>
5331</trkpt>
5332<trkpt lat="53.801506667" lon="-1.750351667">
5333 <ele>102.500000</ele>
5334<time>2008-08-14T15:15:19Z</time>
5335 <course>318.489990</course>
5336 <speed>13.083333</speed>
5337 <fix>3d</fix>
5338 <sat>9</sat>
5339 <hdop>1.000000</hdop>
5340</trkpt>
5341<trkpt lat="53.801596667" lon="-1.750488333">
5342 <ele>102.000000</ele>
5343<time>2008-08-14T15:15:20Z</time>
5344 <course>318.500000</course>
5345 <speed>13.333333</speed>
5346 <fix>3d</fix>
5347 <sat>9</sat>
5348 <hdop>1.000000</hdop>
5349</trkpt>
5350<trkpt lat="53.801686667" lon="-1.750626667">
5351 <ele>101.400000</ele>
5352<time>2008-08-14T15:15:21Z</time>
5353 <course>318.519989</course>
5354 <speed>13.388889</speed>
5355 <fix>3d</fix>
5356 <sat>10</sat>
5357 <hdop>0.900000</hdop>
5358 <vdop>1.300000</vdop>
5359 <pdop>1.600000</pdop>
5360</trkpt>
5361<trkpt lat="53.801776667" lon="-1.750761667">
5362 <ele>100.800000</ele>
5363<time>2008-08-14T15:15:22Z</time>
5364 <course>318.769989</course>
5365 <speed>13.305555</speed>
5366 <fix>3d</fix>
5367 <sat>10</sat>
5368 <hdop>0.900000</hdop>
5369</trkpt>
5370<trkpt lat="53.801866667" lon="-1.750895000">
5371 <ele>100.300000</ele>
5372<time>2008-08-14T15:15:23Z</time>
5373 <course>319.660004</course>
5374 <speed>13.194445</speed>
5375 <fix>3d</fix>
5376 <sat>10</sat>
5377 <hdop>0.900000</hdop>
5378</trkpt>
5379<trkpt lat="53.801956667" lon="-1.751025000">
5380 <ele>99.800000</ele>
5381<time>2008-08-14T15:15:24Z</time>
5382 <course>319.589996</course>
5383 <speed>13.138889</speed>
5384 <fix>3d</fix>
5385 <sat>10</sat>
5386 <hdop>0.900000</hdop>
5387</trkpt>
5388<trkpt lat="53.802046667" lon="-1.751156667">
5389 <ele>99.400000</ele>
5390<time>2008-08-14T15:15:25Z</time>
5391 <course>319.079987</course>
5392 <speed>13.055555</speed>
5393 <fix>3d</fix>
5394 <sat>10</sat>
5395 <hdop>0.900000</hdop>
5396</trkpt>
5397<trkpt lat="53.802133333" lon="-1.751285000">
5398 <ele>99.200000</ele>
5399<time>2008-08-14T15:15:26Z</time>
5400 <course>318.769989</course>
5401 <speed>12.888889</speed>
5402 <fix>3d</fix>
5403 <sat>10</sat>
5404 <hdop>0.900000</hdop>
5405 <vdop>1.300000</vdop>
5406 <pdop>1.600000</pdop>
5407</trkpt>
5408<trkpt lat="53.802221667" lon="-1.751413333">
5409 <ele>98.800000</ele>
5410<time>2008-08-14T15:15:27Z</time>
5411 <course>319.160004</course>
5412 <speed>12.750000</speed>
5413 <fix>3d</fix>
5414 <sat>10</sat>
5415 <hdop>0.900000</hdop>
5416</trkpt>
5417<trkpt lat="53.802310000" lon="-1.751541667">
5418 <ele>98.500000</ele>
5419<time>2008-08-14T15:15:28Z</time>
5420 <course>318.959991</course>
5421 <speed>12.861111</speed>
5422 <fix>3d</fix>
5423 <sat>10</sat>
5424 <hdop>0.900000</hdop>
5425</trkpt>
5426<trkpt lat="53.802398333" lon="-1.751673333">
5427 <ele>98.200000</ele>
5428<time>2008-08-14T15:15:29Z</time>
5429 <course>318.779999</course>
5430 <speed>13.055555</speed>
5431 <fix>3d</fix>
5432 <sat>10</sat>
5433 <hdop>0.900000</hdop>
5434</trkpt>
5435<trkpt lat="53.802485000" lon="-1.751798333">
5436 <ele>97.900000</ele>
5437<time>2008-08-14T15:15:30Z</time>
5438 <course>319.679993</course>
5439 <speed>12.638889</speed>
5440 <fix>3d</fix>
5441 <sat>10</sat>
5442 <hdop>0.900000</hdop>
5443</trkpt>
5444<trkpt lat="53.802563333" lon="-1.751906667">
5445 <ele>97.700000</ele>
5446<time>2008-08-14T15:15:31Z</time>
5447 <course>321.010010</course>
5448 <speed>11.166667</speed>
5449 <fix>3d</fix>
5450 <sat>10</sat>
5451 <hdop>0.900000</hdop>
5452 <vdop>1.300000</vdop>
5453 <pdop>1.600000</pdop>
5454</trkpt>
5455<trkpt lat="53.802626667" lon="-1.751990000">
5456 <ele>97.600000</ele>
5457<time>2008-08-14T15:15:32Z</time>
5458 <course>321.739990</course>
5459 <speed>8.944445</speed>
5460 <fix>3d</fix>
5461 <sat>10</sat>
5462 <hdop>0.900000</hdop>
5463</trkpt>
5464<trkpt lat="53.802673333" lon="-1.752051667">
5465 <ele>97.400000</ele>
5466<time>2008-08-14T15:15:33Z</time>
5467 <course>322.429993</course>
5468 <speed>6.777778</speed>
5469 <fix>3d</fix>
5470 <sat>10</sat>
5471 <hdop>0.900000</hdop>
5472</trkpt>
5473<trkpt lat="53.802708333" lon="-1.752095000">
5474 <ele>97.300000</ele>
5475<time>2008-08-14T15:15:34Z</time>
5476 <course>322.989990</course>
5477 <speed>4.916667</speed>
5478 <fix>3d</fix>
5479 <sat>10</sat>
5480 <hdop>0.900000</hdop>
5481</trkpt>
5482<trkpt lat="53.802735000" lon="-1.752126667">
5483 <ele>97.400000</ele>
5484<time>2008-08-14T15:15:35Z</time>
5485 <course>322.760010</course>
5486 <speed>3.611111</speed>
5487 <fix>3d</fix>
5488 <sat>10</sat>
5489 <hdop>0.900000</hdop>
5490</trkpt>
5491<trkpt lat="53.802755000" lon="-1.752151667">
5492 <ele>97.500000</ele>
5493<time>2008-08-14T15:15:36Z</time>
5494 <course>323.100006</course>
5495 <speed>2.805556</speed>
5496 <fix>3d</fix>
5497 <sat>10</sat>
5498 <hdop>0.900000</hdop>
5499 <vdop>1.300000</vdop>
5500 <pdop>1.600000</pdop>
5501</trkpt>
5502<trkpt lat="53.802771667" lon="-1.752171667">
5503 <ele>97.500000</ele>
5504<time>2008-08-14T15:15:37Z</time>
5505 <course>322.640015</course>
5506 <speed>2.222222</speed>
5507 <fix>3d</fix>
5508 <sat>10</sat>
5509 <hdop>0.900000</hdop>
5510</trkpt>
5511<trkpt lat="53.802783333" lon="-1.752185000">
5512 <ele>97.600000</ele>
5513<time>2008-08-14T15:15:38Z</time>
5514 <course>323.170013</course>
5515 <speed>1.555556</speed>
5516 <fix>3d</fix>
5517 <sat>10</sat>
5518 <hdop>0.900000</hdop>
5519</trkpt>
5520<trkpt lat="53.802790000" lon="-1.752191667">
5521 <ele>97.600000</ele>
5522<time>2008-08-14T15:15:39Z</time>
5523 <course>323.170013</course>
5524 <speed>0.000000</speed>
5525 <fix>3d</fix>
5526 <sat>10</sat>
5527 <hdop>0.900000</hdop>
5528</trkpt>
5529<trkpt lat="53.802793333" lon="-1.752193333">
5530 <ele>97.700000</ele>
5531<time>2008-08-14T15:15:40Z</time>
5532 <course>323.170013</course>
5533 <speed>0.000000</speed>
5534 <fix>3d</fix>
5535 <sat>10</sat>
5536 <hdop>0.900000</hdop>
5537</trkpt>
5538<trkpt lat="53.802796667" lon="-1.752195000">
5539 <ele>97.700000</ele>
5540<time>2008-08-14T15:15:41Z</time>
5541 <course>323.170013</course>
5542 <speed>0.000000</speed>
5543 <fix>3d</fix>
5544 <sat>10</sat>
5545 <hdop>0.900000</hdop>
5546 <vdop>1.300000</vdop>
5547 <pdop>1.600000</pdop>
5548</trkpt>
5549<trkpt lat="53.802796667" lon="-1.752195000">
5550 <ele>97.700000</ele>
5551<time>2008-08-14T15:15:42Z</time>
5552 <course>323.170013</course>
5553 <speed>0.000000</speed>
5554 <fix>3d</fix>
5555 <sat>9</sat>
5556 <hdop>0.900000</hdop>
5557</trkpt>
5558<trkpt lat="53.802796667" lon="-1.752195000">
5559 <ele>97.600000</ele>
5560<time>2008-08-14T15:15:43Z</time>
5561 <course>323.170013</course>
5562 <speed>0.000000</speed>
5563 <fix>3d</fix>
5564 <sat>9</sat>
5565 <hdop>0.900000</hdop>
5566</trkpt>
5567<trkpt lat="53.802796667" lon="-1.752195000">
5568 <ele>97.700000</ele>
5569<time>2008-08-14T15:15:44Z</time>
5570 <course>323.170013</course>
5571 <speed>0.000000</speed>
5572 <fix>3d</fix>
5573 <sat>9</sat>
5574 <hdop>0.900000</hdop>
5575</trkpt>
5576<trkpt lat="53.802795000" lon="-1.752195000">
5577 <ele>97.800000</ele>
5578<time>2008-08-14T15:15:45Z</time>
5579 <course>323.170013</course>
5580 <speed>0.000000</speed>
5581 <fix>3d</fix>
5582 <sat>9</sat>
5583 <hdop>0.900000</hdop>
5584</trkpt>
5585<trkpt lat="53.802795000" lon="-1.752195000">
5586 <ele>97.800000</ele>
5587<time>2008-08-14T15:15:46Z</time>
5588 <course>323.170013</course>
5589 <speed>0.000000</speed>
5590 <fix>3d</fix>
5591 <sat>9</sat>
5592 <hdop>0.900000</hdop>
5593 <vdop>1.400000</vdop>
5594 <pdop>1.700000</pdop>
5595</trkpt>
5596<trkpt lat="53.802795000" lon="-1.752195000">
5597 <ele>97.900000</ele>
5598<time>2008-08-14T15:15:47Z</time>
5599 <course>323.170013</course>
5600 <speed>0.000000</speed>
5601 <fix>3d</fix>
5602 <sat>9</sat>
5603 <hdop>0.900000</hdop>
5604</trkpt>
5605<trkpt lat="53.802795000" lon="-1.752195000">
5606 <ele>98.000000</ele>
5607<time>2008-08-14T15:15:48Z</time>
5608 <course>323.170013</course>
5609 <speed>0.000000</speed>
5610 <fix>3d</fix>
5611 <sat>9</sat>
5612 <hdop>0.900000</hdop>
5613</trkpt>
5614<trkpt lat="53.802795000" lon="-1.752195000">
5615 <ele>98.000000</ele>
5616<time>2008-08-14T15:15:49Z</time>
5617 <course>323.170013</course>
5618 <speed>0.000000</speed>
5619 <fix>3d</fix>
5620 <sat>9</sat>
5621 <hdop>0.900000</hdop>
5622</trkpt>
5623<trkpt lat="53.802795000" lon="-1.752195000">
5624 <ele>98.000000</ele>
5625<time>2008-08-14T15:15:50Z</time>
5626 <course>323.170013</course>
5627 <speed>0.000000</speed>
5628 <fix>3d</fix>
5629 <sat>9</sat>
5630 <hdop>0.900000</hdop>
5631</trkpt>
5632<trkpt lat="53.802795000" lon="-1.752195000">
5633 <ele>98.100000</ele>
5634<time>2008-08-14T15:15:51Z</time>
5635 <course>323.170013</course>
5636 <speed>0.000000</speed>
5637 <fix>3d</fix>
5638 <sat>9</sat>
5639 <hdop>0.900000</hdop>
5640 <vdop>1.400000</vdop>
5641 <pdop>1.700000</pdop>
5642</trkpt>
5643<trkpt lat="53.802795000" lon="-1.752193333">
5644 <ele>98.100000</ele>
5645<time>2008-08-14T15:15:52Z</time>
5646 <course>323.170013</course>
5647 <speed>0.000000</speed>
5648 <fix>3d</fix>
5649 <sat>9</sat>
5650 <hdop>0.900000</hdop>
5651</trkpt>
5652<trkpt lat="53.802795000" lon="-1.752193333">
5653 <ele>98.200000</ele>
5654<time>2008-08-14T15:15:53Z</time>
5655 <course>323.170013</course>
5656 <speed>0.000000</speed>
5657 <fix>3d</fix>
5658 <sat>9</sat>
5659 <hdop>0.900000</hdop>
5660</trkpt>
5661<trkpt lat="53.802795000" lon="-1.752193333">
5662 <ele>98.200000</ele>
5663<time>2008-08-14T15:15:54Z</time>
5664 <course>323.170013</course>
5665 <speed>0.000000</speed>
5666 <fix>3d</fix>
5667 <sat>10</sat>
5668 <hdop>0.900000</hdop>
5669</trkpt>
5670<trkpt lat="53.802795000" lon="-1.752193333">
5671 <ele>98.200000</ele>
5672<time>2008-08-14T15:15:55Z</time>
5673 <course>323.170013</course>
5674 <speed>0.000000</speed>
5675 <fix>3d</fix>
5676 <sat>10</sat>
5677 <hdop>0.900000</hdop>
5678</trkpt>
5679<trkpt lat="53.802795000" lon="-1.752193333">
5680 <ele>98.200000</ele>
5681<time>2008-08-14T15:15:56Z</time>
5682 <course>323.170013</course>
5683 <speed>0.000000</speed>
5684 <fix>3d</fix>
5685 <sat>10</sat>
5686 <hdop>0.900000</hdop>
5687 <vdop>1.300000</vdop>
5688 <pdop>1.600000</pdop>
5689</trkpt>
5690<trkpt lat="53.802795000" lon="-1.752193333">
5691 <ele>98.300000</ele>
5692<time>2008-08-14T15:15:57Z</time>
5693 <course>323.170013</course>
5694 <speed>0.000000</speed>
5695 <fix>3d</fix>
5696 <sat>10</sat>
5697 <hdop>0.900000</hdop>
5698</trkpt>
5699<trkpt lat="53.802793333" lon="-1.752193333">
5700 <ele>98.300000</ele>
5701<time>2008-08-14T15:15:58Z</time>
5702 <course>323.170013</course>
5703 <speed>0.000000</speed>
5704 <fix>3d</fix>
5705 <sat>10</sat>
5706 <hdop>0.900000</hdop>
5707</trkpt>
5708<trkpt lat="53.802793333" lon="-1.752193333">
5709 <ele>98.300000</ele>
5710<time>2008-08-14T15:15:59Z</time>
5711 <course>323.170013</course>
5712 <speed>0.000000</speed>
5713 <fix>3d</fix>
5714 <sat>10</sat>
5715 <hdop>0.900000</hdop>
5716</trkpt>
5717<trkpt lat="53.802801667" lon="-1.752201667">
5718 <ele>98.200000</ele>
5719<time>2008-08-14T15:16:00Z</time>
5720 <course>324.160004</course>
5721 <speed>1.000000</speed>
5722 <fix>3d</fix>
5723 <sat>10</sat>
5724 <hdop>0.900000</hdop>
5725</trkpt>
5726<trkpt lat="53.802823333" lon="-1.752226667">
5727 <ele>98.100000</ele>
5728<time>2008-08-14T15:16:01Z</time>
5729 <course>326.079987</course>
5730 <speed>2.888889</speed>
5731 <fix>3d</fix>
5732 <sat>10</sat>
5733 <hdop>0.900000</hdop>
5734 <vdop>1.300000</vdop>
5735 <pdop>1.600000</pdop>
5736</trkpt>
5737<trkpt lat="53.802856667" lon="-1.752265000">
5738 <ele>98.200000</ele>
5739<time>2008-08-14T15:16:02Z</time>
5740 <course>325.790009</course>
5741 <speed>4.388889</speed>
5742 <fix>3d</fix>
5743 <sat>10</sat>
5744 <hdop>0.900000</hdop>
5745</trkpt>
5746<trkpt lat="53.802896667" lon="-1.752310000">
5747 <ele>98.300000</ele>
5748<time>2008-08-14T15:16:03Z</time>
5749 <course>326.489990</course>
5750 <speed>5.305555</speed>
5751 <fix>3d</fix>
5752 <sat>10</sat>
5753 <hdop>0.900000</hdop>
5754</trkpt>
5755<trkpt lat="53.802945000" lon="-1.752363333">
5756 <ele>98.200000</ele>
5757<time>2008-08-14T15:16:04Z</time>
5758 <course>327.079987</course>
5759 <speed>6.388889</speed>
5760 <fix>3d</fix>
5761 <sat>10</sat>
5762 <hdop>0.900000</hdop>
5763</trkpt>
5764<trkpt lat="53.803005000" lon="-1.752428333">
5765 <ele>98.100000</ele>
5766<time>2008-08-14T15:16:05Z</time>
5767 <course>327.809998</course>
5768 <speed>7.722222</speed>
5769 <fix>3d</fix>
5770 <sat>10</sat>
5771 <hdop>0.900000</hdop>
5772</trkpt>
5773<trkpt lat="53.803075000" lon="-1.752500000">
5774 <ele>98.100000</ele>
5775<time>2008-08-14T15:16:06Z</time>
5776 <course>329.380005</course>
5777 <speed>9.027778</speed>
5778 <fix>3d</fix>
5779 <sat>10</sat>
5780 <hdop>0.900000</hdop>
5781 <vdop>1.300000</vdop>
5782 <pdop>1.600000</pdop>
5783</trkpt>
5784<trkpt lat="53.803153333" lon="-1.752576667">
5785 <ele>98.000000</ele>
5786<time>2008-08-14T15:16:07Z</time>
5787 <course>331.170013</course>
5788 <speed>10.027778</speed>
5789 <fix>3d</fix>
5790 <sat>10</sat>
5791 <hdop>0.900000</hdop>
5792</trkpt>
5793<trkpt lat="53.803243333" lon="-1.752656667">
5794 <ele>98.000000</ele>
5795<time>2008-08-14T15:16:08Z</time>
5796 <course>332.869995</course>
5797 <speed>11.000000</speed>
5798 <fix>3d</fix>
5799 <sat>9</sat>
5800 <hdop>0.900000</hdop>
5801</trkpt>
5802<trkpt lat="53.803341667" lon="-1.752738333">
5803 <ele>97.900000</ele>
5804<time>2008-08-14T15:16:09Z</time>
5805 <course>334.670013</course>
5806 <speed>12.083333</speed>
5807 <fix>3d</fix>
5808 <sat>9</sat>
5809 <hdop>0.900000</hdop>
5810</trkpt>
5811<trkpt lat="53.803446667" lon="-1.752818333">
5812 <ele>97.800000</ele>
5813<time>2008-08-14T15:16:10Z</time>
5814 <course>336.739990</course>
5815 <speed>12.694445</speed>
5816 <fix>3d</fix>
5817 <sat>9</sat>
5818 <hdop>0.900000</hdop>
5819</trkpt>
5820<trkpt lat="53.803555000" lon="-1.752896667">
5821 <ele>97.800000</ele>
5822<time>2008-08-14T15:16:11Z</time>
5823 <course>337.119995</course>
5824 <speed>12.944445</speed>
5825 <fix>3d</fix>
5826 <sat>10</sat>
5827 <hdop>0.900000</hdop>
5828 <vdop>1.300000</vdop>
5829 <pdop>1.600000</pdop>
5830</trkpt>
5831<trkpt lat="53.803666667" lon="-1.752975000">
5832 <ele>97.600000</ele>
5833<time>2008-08-14T15:16:12Z</time>
5834 <course>337.940002</course>
5835 <speed>13.388889</speed>
5836 <fix>3d</fix>
5837 <sat>10</sat>
5838 <hdop>0.900000</hdop>
5839</trkpt>
5840<trkpt lat="53.803783333" lon="-1.753051667">
5841 <ele>97.600000</ele>
5842<time>2008-08-14T15:16:13Z</time>
5843 <course>339.200012</course>
5844 <speed>13.750000</speed>
5845 <fix>3d</fix>
5846 <sat>10</sat>
5847 <hdop>0.900000</hdop>
5848</trkpt>
5849<trkpt lat="53.803901667" lon="-1.753118333">
5850 <ele>97.500000</ele>
5851<time>2008-08-14T15:16:14Z</time>
5852 <course>341.109985</course>
5853 <speed>13.805555</speed>
5854 <fix>3d</fix>
5855 <sat>10</sat>
5856 <hdop>0.900000</hdop>
5857</trkpt>
5858<trkpt lat="53.804023333" lon="-1.753181667">
5859 <ele>97.400000</ele>
5860<time>2008-08-14T15:16:15Z</time>
5861 <course>342.630005</course>
5862 <speed>13.861111</speed>
5863 <fix>3d</fix>
5864 <sat>10</sat>
5865 <hdop>0.900000</hdop>
5866</trkpt>
5867<trkpt lat="53.804146667" lon="-1.753245000">
5868 <ele>97.300000</ele>
5869<time>2008-08-14T15:16:16Z</time>
5870 <course>343.670013</course>
5871 <speed>14.166667</speed>
5872 <fix>3d</fix>
5873 <sat>10</sat>
5874 <hdop>0.900000</hdop>
5875 <vdop>1.300000</vdop>
5876 <pdop>1.600000</pdop>
5877</trkpt>
5878<trkpt lat="53.804273333" lon="-1.753305000">
5879 <ele>97.200000</ele>
5880<time>2008-08-14T15:16:17Z</time>
5881 <course>344.630005</course>
5882 <speed>14.388889</speed>
5883 <fix>3d</fix>
5884 <sat>10</sat>
5885 <hdop>0.900000</hdop>
5886</trkpt>
5887<trkpt lat="53.804396667" lon="-1.753360000">
5888 <ele>97.300000</ele>
5889<time>2008-08-14T15:16:18Z</time>
5890 <course>346.350006</course>
5891 <speed>14.194445</speed>
5892 <fix>3d</fix>
5893 <sat>10</sat>
5894 <hdop>0.900000</hdop>
5895</trkpt>
5896<trkpt lat="53.804523333" lon="-1.753405000">
5897 <ele>96.700000</ele>
5898<time>2008-08-14T15:16:19Z</time>
5899 <course>349.079987</course>
5900 <speed>13.888889</speed>
5901 <fix>3d</fix>
5902 <sat>10</sat>
5903 <hdop>0.900000</hdop>
5904</trkpt>
5905<trkpt lat="53.804645000" lon="-1.753443333">
5906 <ele>96.500000</ele>
5907<time>2008-08-14T15:16:20Z</time>
5908 <course>350.850006</course>
5909 <speed>13.638889</speed>
5910 <fix>3d</fix>
5911 <sat>10</sat>
5912 <hdop>0.900000</hdop>
5913</trkpt>
5914<trkpt lat="53.804766667" lon="-1.753476667">
5915 <ele>96.100000</ele>
5916<time>2008-08-14T15:16:21Z</time>
5917 <course>351.540009</course>
5918 <speed>13.555555</speed>
5919 <fix>3d</fix>
5920 <sat>10</sat>
5921 <hdop>0.900000</hdop>
5922 <vdop>1.300000</vdop>
5923 <pdop>1.600000</pdop>
5924</trkpt>
5925<trkpt lat="53.804891667" lon="-1.753510000">
5926 <ele>95.800000</ele>
5927<time>2008-08-14T15:16:22Z</time>
5928 <course>351.549988</course>
5929 <speed>13.833333</speed>
5930 <fix>3d</fix>
5931 <sat>9</sat>
5932 <hdop>1.200000</hdop>
5933</trkpt>
5934<trkpt lat="53.805020000" lon="-1.753543333">
5935 <ele>95.400000</ele>
5936<time>2008-08-14T15:16:23Z</time>
5937 <course>351.160004</course>
5938 <speed>14.444445</speed>
5939 <fix>3d</fix>
5940 <sat>9</sat>
5941 <hdop>0.900000</hdop>
5942</trkpt>
5943<trkpt lat="53.805156667" lon="-1.753583333">
5944 <ele>95.500000</ele>
5945<time>2008-08-14T15:16:24Z</time>
5946 <course>350.339996</course>
5947 <speed>15.083333</speed>
5948 <fix>3d</fix>
5949 <sat>9</sat>
5950 <hdop>0.900000</hdop>
5951</trkpt>
5952<trkpt lat="53.805296667" lon="-1.753626667">
5953 <ele>95.600000</ele>
5954<time>2008-08-14T15:16:25Z</time>
5955 <course>349.369995</course>
5956 <speed>15.555555</speed>
5957 <fix>3d</fix>
5958 <sat>9</sat>
5959 <hdop>0.900000</hdop>
5960</trkpt>
5961<trkpt lat="53.805438333" lon="-1.753675000">
5962 <ele>95.500000</ele>
5963<time>2008-08-14T15:16:26Z</time>
5964 <course>348.339996</course>
5965 <speed>15.833333</speed>
5966 <fix>3d</fix>
5967 <sat>9</sat>
5968 <hdop>0.900000</hdop>
5969 <vdop>1.300000</vdop>
5970 <pdop>1.600000</pdop>
5971</trkpt>
5972<trkpt lat="53.805581667" lon="-1.753730000">
5973 <ele>95.500000</ele>
5974<time>2008-08-14T15:16:27Z</time>
5975 <course>346.559998</course>
5976 <speed>16.111111</speed>
5977 <fix>3d</fix>
5978 <sat>9</sat>
5979 <hdop>0.900000</hdop>
5980</trkpt>
5981<trkpt lat="53.805726667" lon="-1.753791667">
5982 <ele>95.700000</ele>
5983<time>2008-08-14T15:16:28Z</time>
5984 <course>345.279999</course>
5985 <speed>16.472221</speed>
5986 <fix>3d</fix>
5987 <sat>8</sat>
5988 <hdop>1.100000</hdop>
5989</trkpt>
5990<trkpt lat="53.805873333" lon="-1.753861667">
5991 <ele>95.400000</ele>
5992<time>2008-08-14T15:16:29Z</time>
5993 <course>344.190002</course>
5994 <speed>16.916666</speed>
5995 <fix>3d</fix>
5996 <sat>9</sat>
5997 <hdop>0.900000</hdop>
5998</trkpt>
5999<trkpt lat="53.806020000" lon="-1.753938333">
6000 <ele>95.200000</ele>
6001<time>2008-08-14T15:16:30Z</time>
6002 <course>342.440002</course>
6003 <speed>17.000000</speed>
6004 <fix>3d</fix>
6005 <sat>10</sat>
6006 <hdop>0.900000</hdop>
6007</trkpt>
6008<trkpt lat="53.806165000" lon="-1.754020000">
6009 <ele>95.100000</ele>
6010<time>2008-08-14T15:16:31Z</time>
6011 <course>339.899994</course>
6012 <speed>16.694445</speed>
6013 <fix>3d</fix>
6014 <sat>10</sat>
6015 <hdop>0.900000</hdop>
6016 <vdop>1.300000</vdop>
6017 <pdop>1.600000</pdop>
6018</trkpt>
6019<trkpt lat="53.806305000" lon="-1.754108333">
6020 <ele>95.100000</ele>
6021<time>2008-08-14T15:16:32Z</time>
6022 <course>338.489990</course>
6023 <speed>16.388889</speed>
6024 <fix>3d</fix>
6025 <sat>10</sat>
6026 <hdop>0.900000</hdop>
6027</trkpt>
6028<trkpt lat="53.806441667" lon="-1.754196667">
6029 <ele>95.000000</ele>
6030<time>2008-08-14T15:16:33Z</time>
6031 <course>338.230011</course>
6032 <speed>16.055555</speed>
6033 <fix>3d</fix>
6034 <sat>10</sat>
6035 <hdop>0.900000</hdop>
6036</trkpt>
6037<trkpt lat="53.806573333" lon="-1.754286667">
6038 <ele>95.000000</ele>
6039<time>2008-08-14T15:16:34Z</time>
6040 <course>337.869995</course>
6041 <speed>15.722222</speed>
6042 <fix>3d</fix>
6043 <sat>10</sat>
6044 <hdop>0.900000</hdop>
6045</trkpt>
6046<trkpt lat="53.806700000" lon="-1.754378333">
6047 <ele>95.100000</ele>
6048<time>2008-08-14T15:16:35Z</time>
6049 <course>337.239990</course>
6050 <speed>15.361111</speed>
6051 <fix>3d</fix>
6052 <sat>9</sat>
6053 <hdop>0.900000</hdop>
6054</trkpt>
6055<trkpt lat="53.806823333" lon="-1.754468333">
6056 <ele>95.200000</ele>
6057<time>2008-08-14T15:16:36Z</time>
6058 <course>337.119995</course>
6059 <speed>14.805555</speed>
6060 <fix>3d</fix>
6061 <sat>9</sat>
6062 <hdop>0.900000</hdop>
6063 <vdop>1.400000</vdop>
6064 <pdop>1.700000</pdop>
6065</trkpt>
6066<trkpt lat="53.806931667" lon="-1.754548333">
6067 <ele>95.200000</ele>
6068<time>2008-08-14T15:16:37Z</time>
6069 <course>336.989990</course>
6070 <speed>13.250000</speed>
6071 <fix>3d</fix>
6072 <sat>9</sat>
6073 <hdop>0.900000</hdop>
6074</trkpt>
6075<trkpt lat="53.807018333" lon="-1.754615000">
6076 <ele>95.300000</ele>
6077<time>2008-08-14T15:16:38Z</time>
6078 <course>337.299988</course>
6079 <speed>10.833333</speed>
6080 <fix>3d</fix>
6081 <sat>9</sat>
6082 <hdop>0.900000</hdop>
6083</trkpt>
6084<trkpt lat="53.807090000" lon="-1.754668333">
6085 <ele>95.400000</ele>
6086<time>2008-08-14T15:16:39Z</time>
6087 <course>337.399994</course>
6088 <speed>8.777778</speed>
6089 <fix>3d</fix>
6090 <sat>9</sat>
6091 <hdop>0.900000</hdop>
6092</trkpt>
6093<trkpt lat="53.807145000" lon="-1.754710000">
6094 <ele>94.200000</ele>
6095<time>2008-08-14T15:16:40Z</time>
6096 <course>337.410004</course>
6097 <speed>7.083333</speed>
6098 <fix>3d</fix>
6099 <sat>10</sat>
6100 <hdop>0.900000</hdop>
6101</trkpt>
6102<trkpt lat="53.807188333" lon="-1.754743333">
6103 <ele>94.200000</ele>
6104<time>2008-08-14T15:16:41Z</time>
6105 <course>337.500000</course>
6106 <speed>5.472222</speed>
6107 <fix>3d</fix>
6108 <sat>10</sat>
6109 <hdop>0.900000</hdop>
6110 <vdop>1.300000</vdop>
6111 <pdop>1.600000</pdop>
6112</trkpt>
6113<trkpt lat="53.807218333" lon="-1.754766667">
6114 <ele>94.200000</ele>
6115<time>2008-08-14T15:16:42Z</time>
6116 <course>337.109985</course>
6117 <speed>4.083333</speed>
6118 <fix>3d</fix>
6119 <sat>10</sat>
6120 <hdop>0.900000</hdop>
6121</trkpt>
6122<trkpt lat="53.807243333" lon="-1.754786667">
6123 <ele>94.400000</ele>
6124<time>2008-08-14T15:16:43Z</time>
6125 <course>337.380005</course>
6126 <speed>3.194444</speed>
6127 <fix>3d</fix>
6128 <sat>10</sat>
6129 <hdop>0.900000</hdop>
6130</trkpt>
6131<trkpt lat="53.807263333" lon="-1.754803333">
6132 <ele>94.500000</ele>
6133<time>2008-08-14T15:16:44Z</time>
6134 <course>337.529999</course>
6135 <speed>2.777778</speed>
6136 <fix>3d</fix>
6137 <sat>10</sat>
6138 <hdop>0.900000</hdop>
6139</trkpt>
6140<trkpt lat="53.807283333" lon="-1.754818333">
6141 <ele>94.600000</ele>
6142<time>2008-08-14T15:16:45Z</time>
6143 <course>338.079987</course>
6144 <speed>2.583333</speed>
6145 <fix>3d</fix>
6146 <sat>10</sat>
6147 <hdop>0.900000</hdop>
6148</trkpt>
6149<trkpt lat="53.807303333" lon="-1.754835000">
6150 <ele>94.700000</ele>
6151<time>2008-08-14T15:16:46Z</time>
6152 <course>337.019989</course>
6153 <speed>2.638889</speed>
6154 <fix>3d</fix>
6155 <sat>10</sat>
6156 <hdop>0.900000</hdop>
6157 <vdop>1.300000</vdop>
6158 <pdop>1.600000</pdop>
6159</trkpt>
6160<trkpt lat="53.807325000" lon="-1.754853333">
6161 <ele>94.700000</ele>
6162<time>2008-08-14T15:16:47Z</time>
6163 <course>337.260010</course>
6164 <speed>2.750000</speed>
6165 <fix>3d</fix>
6166 <sat>10</sat>
6167 <hdop>0.900000</hdop>
6168</trkpt>
6169<trkpt lat="53.807345000" lon="-1.754868333">
6170 <ele>94.800000</ele>
6171<time>2008-08-14T15:16:48Z</time>
6172 <course>338.079987</course>
6173 <speed>2.583333</speed>
6174 <fix>3d</fix>
6175 <sat>10</sat>
6176 <hdop>0.900000</hdop>
6177</trkpt>
6178<trkpt lat="53.807360000" lon="-1.754881667">
6179 <ele>94.900000</ele>
6180<time>2008-08-14T15:16:49Z</time>
6181 <course>338.119995</course>
6182 <speed>2.166667</speed>
6183 <fix>3d</fix>
6184 <sat>10</sat>
6185 <hdop>0.900000</hdop>
6186</trkpt>
6187<trkpt lat="53.807375000" lon="-1.754891667">
6188 <ele>94.900000</ele>
6189<time>2008-08-14T15:16:50Z</time>
6190 <course>337.809998</course>
6191 <speed>1.805556</speed>
6192 <fix>3d</fix>
6193 <sat>10</sat>
6194 <hdop>0.900000</hdop>
6195</trkpt>
6196<trkpt lat="53.807388333" lon="-1.754901667">
6197 <ele>95.100000</ele>
6198<time>2008-08-14T15:16:51Z</time>
6199 <course>338.420013</course>
6200 <speed>1.750000</speed>
6201 <fix>3d</fix>
6202 <sat>10</sat>
6203 <hdop>0.900000</hdop>
6204 <vdop>1.300000</vdop>
6205 <pdop>1.600000</pdop>
6206</trkpt>
6207<trkpt lat="53.807401667" lon="-1.754913333">
6208 <ele>95.200000</ele>
6209<time>2008-08-14T15:16:52Z</time>
6210 <course>337.269989</course>
6211 <speed>1.777778</speed>
6212 <fix>3d</fix>
6213 <sat>10</sat>
6214 <hdop>0.900000</hdop>
6215</trkpt>
6216<trkpt lat="53.807415000" lon="-1.754923333">
6217 <ele>95.400000</ele>
6218<time>2008-08-14T15:16:53Z</time>
6219 <course>336.709991</course>
6220 <speed>1.750000</speed>
6221 <fix>3d</fix>
6222 <sat>10</sat>
6223 <hdop>0.900000</hdop>
6224</trkpt>
6225<trkpt lat="53.807426667" lon="-1.754935000">
6226 <ele>95.500000</ele>
6227<time>2008-08-14T15:16:54Z</time>
6228 <course>336.790009</course>
6229 <speed>1.722222</speed>
6230 <fix>3d</fix>
6231 <sat>10</sat>
6232 <hdop>0.900000</hdop>
6233</trkpt>
6234<trkpt lat="53.807440000" lon="-1.754945000">
6235 <ele>95.600000</ele>
6236<time>2008-08-14T15:16:55Z</time>
6237 <course>337.480011</course>
6238 <speed>1.638889</speed>
6239 <fix>3d</fix>
6240 <sat>10</sat>
6241 <hdop>0.900000</hdop>
6242</trkpt>
6243<trkpt lat="53.807451667" lon="-1.754953333">
6244 <ele>95.600000</ele>
6245<time>2008-08-14T15:16:56Z</time>
6246 <course>337.359985</course>
6247 <speed>1.472222</speed>
6248 <fix>3d</fix>
6249 <sat>10</sat>
6250 <hdop>0.900000</hdop>
6251 <vdop>1.300000</vdop>
6252 <pdop>1.600000</pdop>
6253</trkpt>
6254<trkpt lat="53.807461667" lon="-1.754961667">
6255 <ele>95.700000</ele>
6256<time>2008-08-14T15:16:57Z</time>
6257 <course>336.630005</course>
6258 <speed>1.416667</speed>
6259 <fix>3d</fix>
6260 <sat>10</sat>
6261 <hdop>0.900000</hdop>
6262</trkpt>
6263<trkpt lat="53.807473333" lon="-1.754971667">
6264 <ele>95.800000</ele>
6265<time>2008-08-14T15:16:58Z</time>
6266 <course>336.649994</course>
6267 <speed>1.527778</speed>
6268 <fix>3d</fix>
6269 <sat>10</sat>
6270 <hdop>0.900000</hdop>
6271</trkpt>
6272<trkpt lat="53.807483333" lon="-1.754983333">
6273 <ele>96.000000</ele>
6274<time>2008-08-14T15:16:59Z</time>
6275 <course>337.519989</course>
6276 <speed>1.500000</speed>
6277 <fix>3d</fix>
6278 <sat>10</sat>
6279 <hdop>0.900000</hdop>
6280</trkpt>
6281<trkpt lat="53.807496667" lon="-1.754991667">
6282 <ele>96.100000</ele>
6283<time>2008-08-14T15:17:00Z</time>
6284 <course>336.500000</course>
6285 <speed>1.527778</speed>
6286 <fix>3d</fix>
6287 <sat>10</sat>
6288 <hdop>0.900000</hdop>
6289</trkpt>
6290<trkpt lat="53.807508333" lon="-1.755001667">
6291 <ele>96.200000</ele>
6292<time>2008-08-14T15:17:01Z</time>
6293 <course>337.369995</course>
6294 <speed>1.638889</speed>
6295 <fix>3d</fix>
6296 <sat>10</sat>
6297 <hdop>0.900000</hdop>
6298 <vdop>1.300000</vdop>
6299 <pdop>1.600000</pdop>
6300</trkpt>
6301<trkpt lat="53.807521667" lon="-1.755010000">
6302 <ele>96.300000</ele>
6303<time>2008-08-14T15:17:02Z</time>
6304 <course>337.559998</course>
6305 <speed>1.638889</speed>
6306 <fix>3d</fix>
6307 <sat>10</sat>
6308 <hdop>0.900000</hdop>
6309</trkpt>
6310<trkpt lat="53.807535000" lon="-1.755018333">
6311 <ele>96.400000</ele>
6312<time>2008-08-14T15:17:03Z</time>
6313 <course>338.260010</course>
6314 <speed>1.527778</speed>
6315 <fix>3d</fix>
6316 <sat>10</sat>
6317 <hdop>0.900000</hdop>
6318</trkpt>
6319<trkpt lat="53.807546667" lon="-1.755026667">
6320 <ele>96.500000</ele>
6321<time>2008-08-14T15:17:04Z</time>
6322 <course>336.720001</course>
6323 <speed>1.444444</speed>
6324 <fix>3d</fix>
6325 <sat>10</sat>
6326 <hdop>0.900000</hdop>
6327</trkpt>
6328<trkpt lat="53.807558333" lon="-1.755035000">
6329 <ele>96.600000</ele>
6330<time>2008-08-14T15:17:05Z</time>
6331 <course>336.480011</course>
6332 <speed>1.527778</speed>
6333 <fix>3d</fix>
6334 <sat>10</sat>
6335 <hdop>0.900000</hdop>
6336</trkpt>
6337<trkpt lat="53.807571667" lon="-1.755045000">
6338 <ele>96.700000</ele>
6339<time>2008-08-14T15:17:06Z</time>
6340 <course>337.290009</course>
6341 <speed>1.666667</speed>
6342 <fix>3d</fix>
6343 <sat>10</sat>
6344 <hdop>0.900000</hdop>
6345 <vdop>1.300000</vdop>
6346 <pdop>1.600000</pdop>
6347</trkpt>
6348<trkpt lat="53.807590000" lon="-1.755058333">
6349 <ele>96.800000</ele>
6350<time>2008-08-14T15:17:07Z</time>
6351 <course>336.320007</course>
6352 <speed>2.222222</speed>
6353 <fix>3d</fix>
6354 <sat>10</sat>
6355 <hdop>0.900000</hdop>
6356</trkpt>
6357<trkpt lat="53.807613333" lon="-1.755076667">
6358 <ele>96.900000</ele>
6359<time>2008-08-14T15:17:08Z</time>
6360 <course>336.410004</course>
6361 <speed>2.861111</speed>
6362 <fix>3d</fix>
6363 <sat>10</sat>
6364 <hdop>0.900000</hdop>
6365</trkpt>
6366<trkpt lat="53.807643333" lon="-1.755098333">
6367 <ele>97.100000</ele>
6368<time>2008-08-14T15:17:09Z</time>
6369 <course>336.510010</course>
6370 <speed>3.583333</speed>
6371 <fix>3d</fix>
6372 <sat>10</sat>
6373 <hdop>0.900000</hdop>
6374</trkpt>
6375<trkpt lat="53.807680000" lon="-1.755125000">
6376 <ele>98.200000</ele>
6377<time>2008-08-14T15:17:10Z</time>
6378 <course>336.950012</course>
6379 <speed>4.583333</speed>
6380 <fix>3d</fix>
6381 <sat>10</sat>
6382 <hdop>0.900000</hdop>
6383</trkpt>
6384<trkpt lat="53.807720000" lon="-1.755155000">
6385 <ele>98.500000</ele>
6386<time>2008-08-14T15:17:11Z</time>
6387 <course>337.010010</course>
6388 <speed>4.861111</speed>
6389 <fix>3d</fix>
6390 <sat>10</sat>
6391 <hdop>0.900000</hdop>
6392 <vdop>1.300000</vdop>
6393 <pdop>1.600000</pdop>
6394</trkpt>
6395<trkpt lat="53.807758333" lon="-1.755183333">
6396 <ele>98.800000</ele>
6397<time>2008-08-14T15:17:12Z</time>
6398 <course>335.989990</course>
6399 <speed>4.638889</speed>
6400 <fix>3d</fix>
6401 <sat>10</sat>
6402 <hdop>0.900000</hdop>
6403</trkpt>
6404<trkpt lat="53.807795000" lon="-1.755211667">
6405 <ele>98.900000</ele>
6406<time>2008-08-14T15:17:13Z</time>
6407 <course>336.390015</course>
6408 <speed>4.472222</speed>
6409 <fix>3d</fix>
6410 <sat>10</sat>
6411 <hdop>0.900000</hdop>
6412</trkpt>
6413<trkpt lat="53.807831667" lon="-1.755238333">
6414 <ele>99.000000</ele>
6415<time>2008-08-14T15:17:14Z</time>
6416 <course>336.679993</course>
6417 <speed>4.361111</speed>
6418 <fix>3d</fix>
6419 <sat>10</sat>
6420 <hdop>0.900000</hdop>
6421</trkpt>
6422<trkpt lat="53.807865000" lon="-1.755265000">
6423 <ele>99.100000</ele>
6424<time>2008-08-14T15:17:15Z</time>
6425 <course>335.279999</course>
6426 <speed>4.194445</speed>
6427 <fix>3d</fix>
6428 <sat>10</sat>
6429 <hdop>0.900000</hdop>
6430</trkpt>
6431<trkpt lat="53.807898333" lon="-1.755291667">
6432 <ele>99.200000</ele>
6433<time>2008-08-14T15:17:16Z</time>
6434 <course>335.880005</course>
6435 <speed>4.000000</speed>
6436 <fix>3d</fix>
6437 <sat>10</sat>
6438 <hdop>0.900000</hdop>
6439 <vdop>1.300000</vdop>
6440 <pdop>1.600000</pdop>
6441</trkpt>
6442<trkpt lat="53.807928333" lon="-1.755316667">
6443 <ele>99.300000</ele>
6444<time>2008-08-14T15:17:17Z</time>
6445 <course>334.910004</course>
6446 <speed>3.833333</speed>
6447 <fix>3d</fix>
6448 <sat>10</sat>
6449 <hdop>0.900000</hdop>
6450</trkpt>
6451<trkpt lat="53.807960000" lon="-1.755341667">
6452 <ele>99.400000</ele>
6453<time>2008-08-14T15:17:18Z</time>
6454 <course>335.929993</course>
6455 <speed>3.833333</speed>
6456 <fix>3d</fix>
6457 <sat>10</sat>
6458 <hdop>0.900000</hdop>
6459</trkpt>
6460<trkpt lat="53.807991667" lon="-1.755366667">
6461 <ele>99.500000</ele>
6462<time>2008-08-14T15:17:19Z</time>
6463 <course>335.660004</course>
6464 <speed>3.888889</speed>
6465 <fix>3d</fix>
6466 <sat>10</sat>
6467 <hdop>0.900000</hdop>
6468</trkpt>
6469<trkpt lat="53.808023333" lon="-1.755391667">
6470 <ele>99.600000</ele>
6471<time>2008-08-14T15:17:20Z</time>
6472 <course>335.989990</course>
6473 <speed>3.805556</speed>
6474 <fix>3d</fix>
6475 <sat>10</sat>
6476 <hdop>0.900000</hdop>
6477</trkpt>
6478<trkpt lat="53.808053333" lon="-1.755416667">
6479 <ele>99.600000</ele>
6480<time>2008-08-14T15:17:21Z</time>
6481 <course>335.570007</course>
6482 <speed>3.722222</speed>
6483 <fix>3d</fix>
6484 <sat>10</sat>
6485 <hdop>0.900000</hdop>
6486 <vdop>1.300000</vdop>
6487 <pdop>1.600000</pdop>
6488</trkpt>
6489<trkpt lat="53.808085000" lon="-1.755441667">
6490 <ele>99.600000</ele>
6491<time>2008-08-14T15:17:22Z</time>
6492 <course>335.890015</course>
6493 <speed>3.888889</speed>
6494 <fix>3d</fix>
6495 <sat>10</sat>
6496 <hdop>0.900000</hdop>
6497</trkpt>
6498<trkpt lat="53.808121667" lon="-1.755470000">
6499 <ele>99.600000</ele>
6500<time>2008-08-14T15:17:23Z</time>
6501 <course>336.820007</course>
6502 <speed>4.527778</speed>
6503 <fix>3d</fix>
6504 <sat>10</sat>
6505 <hdop>0.900000</hdop>
6506</trkpt>
6507<trkpt lat="53.808166667" lon="-1.755503333">
6508 <ele>99.700000</ele>
6509<time>2008-08-14T15:17:24Z</time>
6510 <course>336.250000</course>
6511 <speed>5.305555</speed>
6512 <fix>3d</fix>
6513 <sat>10</sat>
6514 <hdop>0.900000</hdop>
6515</trkpt>
6516<trkpt lat="53.808211667" lon="-1.755538333">
6517 <ele>99.800000</ele>
6518<time>2008-08-14T15:17:25Z</time>
6519 <course>336.230011</course>
6520 <speed>5.583333</speed>
6521 <fix>3d</fix>
6522 <sat>10</sat>
6523 <hdop>0.900000</hdop>
6524</trkpt>
6525<trkpt lat="53.808258333" lon="-1.755573333">
6526 <ele>99.900000</ele>
6527<time>2008-08-14T15:17:26Z</time>
6528 <course>335.859985</course>
6529 <speed>5.500000</speed>
6530 <fix>3d</fix>
6531 <sat>10</sat>
6532 <hdop>0.900000</hdop>
6533 <vdop>1.300000</vdop>
6534 <pdop>1.600000</pdop>
6535</trkpt>
6536<trkpt lat="53.808303333" lon="-1.755608333">
6537 <ele>100.000000</ele>
6538<time>2008-08-14T15:17:27Z</time>
6539 <course>335.100006</course>
6540 <speed>5.472222</speed>
6541 <fix>3d</fix>
6542 <sat>10</sat>
6543 <hdop>0.900000</hdop>
6544</trkpt>
6545<trkpt lat="53.808350000" lon="-1.755646667">
6546 <ele>100.100000</ele>
6547<time>2008-08-14T15:17:28Z</time>
6548 <course>334.809998</course>
6549 <speed>5.833333</speed>
6550 <fix>3d</fix>
6551 <sat>9</sat>
6552 <hdop>0.900000</hdop>
6553</trkpt>
6554<trkpt lat="53.808401667" lon="-1.755688333">
6555 <ele>100.100000</ele>
6556<time>2008-08-14T15:17:29Z</time>
6557 <course>335.059998</course>
6558 <speed>6.194445</speed>
6559 <fix>3d</fix>
6560 <sat>10</sat>
6561 <hdop>0.900000</hdop>
6562</trkpt>
6563<trkpt lat="53.808451667" lon="-1.755728333">
6564 <ele>100.200000</ele>
6565<time>2008-08-14T15:17:30Z</time>
6566 <course>335.329987</course>
6567 <speed>6.166667</speed>
6568 <fix>3d</fix>
6569 <sat>10</sat>
6570 <hdop>0.900000</hdop>
6571</trkpt>
6572<trkpt lat="53.808501667" lon="-1.755768333">
6573 <ele>100.300000</ele>
6574<time>2008-08-14T15:17:31Z</time>
6575 <course>334.850006</course>
6576 <speed>6.083333</speed>
6577 <fix>3d</fix>
6578 <sat>10</sat>
6579 <hdop>0.900000</hdop>
6580 <vdop>1.300000</vdop>
6581 <pdop>1.600000</pdop>
6582</trkpt>
6583<trkpt lat="53.808550000" lon="-1.755808333">
6584 <ele>100.400000</ele>
6585<time>2008-08-14T15:17:32Z</time>
6586 <course>334.230011</course>
6587 <speed>5.972222</speed>
6588 <fix>3d</fix>
6589 <sat>10</sat>
6590 <hdop>0.900000</hdop>
6591</trkpt>
6592<trkpt lat="53.808600000" lon="-1.755848333">
6593 <ele>100.200000</ele>
6594<time>2008-08-14T15:17:33Z</time>
6595 <course>333.559998</course>
6596 <speed>6.055555</speed>
6597 <fix>3d</fix>
6598 <sat>10</sat>
6599 <hdop>0.900000</hdop>
6600</trkpt>
6601<trkpt lat="53.808651667" lon="-1.755891667">
6602 <ele>100.100000</ele>
6603<time>2008-08-14T15:17:34Z</time>
6604 <course>333.790009</course>
6605 <speed>6.416667</speed>
6606 <fix>3d</fix>
6607 <sat>10</sat>
6608 <hdop>0.900000</hdop>
6609</trkpt>
6610<trkpt lat="53.808710000" lon="-1.755941667">
6611 <ele>100.000000</ele>
6612<time>2008-08-14T15:17:35Z</time>
6613 <course>332.869995</course>
6614 <speed>7.083333</speed>
6615 <fix>3d</fix>
6616 <sat>10</sat>
6617 <hdop>0.900000</hdop>
6618</trkpt>
6619<trkpt lat="53.808775000" lon="-1.755995000">
6620 <ele>99.800000</ele>
6621<time>2008-08-14T15:17:36Z</time>
6622 <course>332.399994</course>
6623 <speed>7.888889</speed>
6624 <fix>3d</fix>
6625 <sat>10</sat>
6626 <hdop>0.900000</hdop>
6627 <vdop>1.300000</vdop>
6628 <pdop>1.600000</pdop>
6629</trkpt>
6630<trkpt lat="53.808843333" lon="-1.756053333">
6631 <ele>99.700000</ele>
6632<time>2008-08-14T15:17:37Z</time>
6633 <course>332.619995</course>
6634 <speed>8.388889</speed>
6635 <fix>3d</fix>
6636 <sat>9</sat>
6637 <hdop>0.900000</hdop>
6638</trkpt>
6639<trkpt lat="53.808911667" lon="-1.756111667">
6640 <ele>99.500000</ele>
6641<time>2008-08-14T15:17:38Z</time>
6642 <course>332.600006</course>
6643 <speed>8.444445</speed>
6644 <fix>3d</fix>
6645 <sat>9</sat>
6646 <hdop>0.900000</hdop>
6647</trkpt>
6648<trkpt lat="53.808978333" lon="-1.756168333">
6649 <ele>99.200000</ele>
6650<time>2008-08-14T15:17:39Z</time>
6651 <course>332.899994</course>
6652 <speed>8.277778</speed>
6653 <fix>3d</fix>
6654 <sat>9</sat>
6655 <hdop>0.900000</hdop>
6656</trkpt>
6657<trkpt lat="53.809043333" lon="-1.756223333">
6658 <ele>98.900000</ele>
6659<time>2008-08-14T15:17:40Z</time>
6660 <course>332.609985</course>
6661 <speed>7.972222</speed>
6662 <fix>3d</fix>
6663 <sat>9</sat>
6664 <hdop>0.900000</hdop>
6665</trkpt>
6666<trkpt lat="53.809105000" lon="-1.756276667">
6667 <ele>98.700000</ele>
6668<time>2008-08-14T15:17:41Z</time>
6669 <course>332.029999</course>
6670 <speed>7.611111</speed>
6671 <fix>3d</fix>
6672 <sat>9</sat>
6673 <hdop>0.900000</hdop>
6674 <vdop>1.400000</vdop>
6675 <pdop>1.700000</pdop>
6676</trkpt>
6677<trkpt lat="53.809163333" lon="-1.756328333">
6678 <ele>98.500000</ele>
6679<time>2008-08-14T15:17:42Z</time>
6680 <course>331.679993</course>
6681 <speed>7.222222</speed>
6682 <fix>3d</fix>
6683 <sat>9</sat>
6684 <hdop>0.900000</hdop>
6685</trkpt>
6686<trkpt lat="53.809216667" lon="-1.756378333">
6687 <ele>98.300000</ele>
6688<time>2008-08-14T15:17:43Z</time>
6689 <course>331.049988</course>
6690 <speed>6.888889</speed>
6691 <fix>3d</fix>
6692 <sat>9</sat>
6693 <hdop>0.900000</hdop>
6694</trkpt>
6695<trkpt lat="53.809266667" lon="-1.756426667">
6696 <ele>96.500000</ele>
6697<time>2008-08-14T15:17:44Z</time>
6698 <course>330.309998</course>
6699 <speed>6.666667</speed>
6700 <fix>3d</fix>
6701 <sat>8</sat>
6702 <hdop>1.000000</hdop>
6703</trkpt>
6704<trkpt lat="53.809318333" lon="-1.756476667">
6705 <ele>95.100000</ele>
6706<time>2008-08-14T15:17:45Z</time>
6707 <course>330.329987</course>
6708 <speed>6.750000</speed>
6709 <fix>3d</fix>
6710 <sat>6</sat>
6711 <hdop>1.200000</hdop>
6712</trkpt>
6713<trkpt lat="53.809370000" lon="-1.756528333">
6714 <ele>95.100000</ele>
6715<time>2008-08-14T15:17:46Z</time>
6716 <course>328.989990</course>
6717 <speed>6.750000</speed>
6718 <fix>3d</fix>
6719 <sat>5</sat>
6720 <hdop>1.300000</hdop>
6721 <vdop>2.000000</vdop>
6722 <pdop>2.400000</pdop>
6723</trkpt>
6724<trkpt lat="53.809420000" lon="-1.756585000">
6725 <ele>94.100000</ele>
6726<time>2008-08-14T15:17:47Z</time>
6727 <course>327.750000</course>
6728 <speed>6.638889</speed>
6729 <fix>3d</fix>
6730 <sat>7</sat>
6731 <hdop>1.400000</hdop>
6732</trkpt>
6733<trkpt lat="53.809470000" lon="-1.756636667">
6734 <ele>94.200000</ele>
6735<time>2008-08-14T15:17:48Z</time>
6736 <course>328.420013</course>
6737 <speed>6.555555</speed>
6738 <fix>3d</fix>
6739 <sat>7</sat>
6740 <hdop>1.400000</hdop>
6741</trkpt>
6742<trkpt lat="53.809511667" lon="-1.756693333">
6743 <ele>93.300000</ele>
6744<time>2008-08-14T15:17:49Z</time>
6745 <course>325.149994</course>
6746 <speed>5.861111</speed>
6747 <fix>3d</fix>
6748 <sat>8</sat>
6749 <hdop>1.100000</hdop>
6750</trkpt>
6751<trkpt lat="53.809548333" lon="-1.756726667">
6752 <ele>92.400000</ele>
6753<time>2008-08-14T15:17:50Z</time>
6754 <course>327.809998</course>
6755 <speed>4.722222</speed>
6756 <fix>3d</fix>
6757 <sat>8</sat>
6758 <hdop>1.100000</hdop>
6759</trkpt>
6760<trkpt lat="53.809573333" lon="-1.756755000">
6761 <ele>91.000000</ele>
6762<time>2008-08-14T15:17:51Z</time>
6763 <course>329.480011</course>
6764 <speed>3.722222</speed>
6765 <fix>3d</fix>
6766 <sat>9</sat>
6767 <hdop>0.900000</hdop>
6768 <vdop>1.300000</vdop>
6769 <pdop>1.600000</pdop>
6770</trkpt>
6771<trkpt lat="53.809598333" lon="-1.756771667">
6772 <ele>90.100000</ele>
6773<time>2008-08-14T15:17:52Z</time>
6774 <course>325.869995</course>
6775 <speed>3.055556</speed>
6776 <fix>3d</fix>
6777 <sat>10</sat>
6778 <hdop>0.900000</hdop>
6779</trkpt>
6780<trkpt lat="53.809620000" lon="-1.756790000">
6781 <ele>89.200000</ele>
6782<time>2008-08-14T15:17:53Z</time>
6783 <course>327.000000</course>
6784 <speed>2.638889</speed>
6785 <fix>3d</fix>
6786 <sat>10</sat>
6787 <hdop>0.900000</hdop>
6788</trkpt>
6789<trkpt lat="53.809638333" lon="-1.756805000">
6790 <ele>88.300000</ele>
6791<time>2008-08-14T15:17:54Z</time>
6792 <course>327.779999</course>
6793 <speed>2.277778</speed>
6794 <fix>3d</fix>
6795 <sat>10</sat>
6796 <hdop>0.900000</hdop>
6797</trkpt>
6798<trkpt lat="53.809655000" lon="-1.756820000">
6799 <ele>87.500000</ele>
6800<time>2008-08-14T15:17:55Z</time>
6801 <course>327.820007</course>
6802 <speed>2.055556</speed>
6803 <fix>3d</fix>
6804 <sat>10</sat>
6805 <hdop>0.900000</hdop>
6806</trkpt>
6807<trkpt lat="53.809668333" lon="-1.756831667">
6808 <ele>86.800000</ele>
6809<time>2008-08-14T15:17:56Z</time>
6810 <course>328.170013</course>
6811 <speed>1.888889</speed>
6812 <fix>3d</fix>
6813 <sat>10</sat>
6814 <hdop>0.900000</hdop>
6815 <vdop>1.300000</vdop>
6816 <pdop>1.600000</pdop>
6817</trkpt>
6818<trkpt lat="53.809678333" lon="-1.756843333">
6819 <ele>85.900000</ele>
6820<time>2008-08-14T15:17:57Z</time>
6821 <course>326.859985</course>
6822 <speed>1.472222</speed>
6823 <fix>3d</fix>
6824 <sat>10</sat>
6825 <hdop>0.900000</hdop>
6826</trkpt>
6827<trkpt lat="53.809686667" lon="-1.756848333">
6828 <ele>85.700000</ele>
6829<time>2008-08-14T15:17:58Z</time>
6830 <course>326.859985</course>
6831 <speed>0.000000</speed>
6832 <fix>3d</fix>
6833 <sat>9</sat>
6834 <hdop>0.900000</hdop>
6835</trkpt>
6836<trkpt lat="53.809690000" lon="-1.756851667">
6837 <ele>85.700000</ele>
6838<time>2008-08-14T15:17:59Z</time>
6839 <course>326.859985</course>
6840 <speed>0.000000</speed>
6841 <fix>3d</fix>
6842 <sat>9</sat>
6843 <hdop>0.900000</hdop>
6844</trkpt>
6845<trkpt lat="53.809691667" lon="-1.756851667">
6846 <ele>85.600000</ele>
6847<time>2008-08-14T15:18:00Z</time>
6848 <course>326.859985</course>
6849 <speed>0.000000</speed>
6850 <fix>3d</fix>
6851 <sat>9</sat>
6852 <hdop>0.900000</hdop>
6853</trkpt>
6854<trkpt lat="53.809691667" lon="-1.756851667">
6855 <ele>85.600000</ele>
6856<time>2008-08-14T15:18:01Z</time>
6857 <course>326.859985</course>
6858 <speed>0.000000</speed>
6859 <fix>3d</fix>
6860 <sat>8</sat>
6861 <hdop>1.000000</hdop>
6862 <vdop>1.700000</vdop>
6863 <pdop>1.900000</pdop>
6864</trkpt>
6865<trkpt lat="53.809693333" lon="-1.756851667">
6866 <ele>85.700000</ele>
6867<time>2008-08-14T15:18:02Z</time>
6868 <course>326.859985</course>
6869 <speed>0.000000</speed>
6870 <fix>3d</fix>
6871 <sat>8</sat>
6872 <hdop>1.000000</hdop>
6873</trkpt>
6874<trkpt lat="53.809693333" lon="-1.756851667">
6875 <ele>85.700000</ele>
6876<time>2008-08-14T15:18:03Z</time>
6877 <course>326.859985</course>
6878 <speed>0.000000</speed>
6879 <fix>3d</fix>
6880 <sat>8</sat>
6881 <hdop>1.000000</hdop>
6882</trkpt>
6883<trkpt lat="53.809695000" lon="-1.756851667">
6884 <ele>85.900000</ele>
6885<time>2008-08-14T15:18:04Z</time>
6886 <course>326.859985</course>
6887 <speed>0.000000</speed>
6888 <fix>3d</fix>
6889 <sat>8</sat>
6890 <hdop>1.000000</hdop>
6891</trkpt>
6892<trkpt lat="53.809695000" lon="-1.756851667">
6893 <ele>85.900000</ele>
6894<time>2008-08-14T15:18:05Z</time>
6895 <course>326.859985</course>
6896 <speed>0.000000</speed>
6897 <fix>3d</fix>
6898 <sat>8</sat>
6899 <hdop>1.000000</hdop>
6900</trkpt>
6901<trkpt lat="53.809695000" lon="-1.756851667">
6902 <ele>85.700000</ele>
6903<time>2008-08-14T15:18:06Z</time>
6904 <course>326.859985</course>
6905 <speed>0.000000</speed>
6906 <fix>3d</fix>
6907 <sat>8</sat>
6908 <hdop>1.000000</hdop>
6909 <vdop>1.700000</vdop>
6910 <pdop>1.900000</pdop>
6911</trkpt>
6912<trkpt lat="53.809701667" lon="-1.756856667">
6913 <ele>85.700000</ele>
6914<time>2008-08-14T15:18:07Z</time>
6915 <course>328.089996</course>
6916 <speed>0.583333</speed>
6917 <fix>3d</fix>
6918 <sat>8</sat>
6919 <hdop>1.000000</hdop>
6920</trkpt>
6921<trkpt lat="53.809720000" lon="-1.756873333">
6922 <ele>85.800000</ele>
6923<time>2008-08-14T15:18:08Z</time>
6924 <course>328.739990</course>
6925 <speed>2.083333</speed>
6926 <fix>3d</fix>
6927 <sat>8</sat>
6928 <hdop>1.000000</hdop>
6929</trkpt>
6930<trkpt lat="53.809746667" lon="-1.756901667">
6931 <ele>86.000000</ele>
6932<time>2008-08-14T15:18:09Z</time>
6933 <course>327.820007</course>
6934 <speed>3.388889</speed>
6935 <fix>3d</fix>
6936 <sat>8</sat>
6937 <hdop>1.000000</hdop>
6938</trkpt>
6939<trkpt lat="53.809776667" lon="-1.756931667">
6940 <ele>86.200000</ele>
6941<time>2008-08-14T15:18:10Z</time>
6942 <course>328.089996</course>
6943 <speed>3.750000</speed>
6944 <fix>3d</fix>
6945 <sat>8</sat>
6946 <hdop>1.000000</hdop>
6947</trkpt>
6948<trkpt lat="53.809811667" lon="-1.756966667">
6949 <ele>86.400000</ele>
6950<time>2008-08-14T15:18:11Z</time>
6951 <course>328.859985</course>
6952 <speed>4.333333</speed>
6953 <fix>3d</fix>
6954 <sat>9</sat>
6955 <hdop>0.900000</hdop>
6956 <vdop>1.400000</vdop>
6957 <pdop>1.600000</pdop>
6958</trkpt>
6959<trkpt lat="53.809853333" lon="-1.757008333">
6960 <ele>86.600000</ele>
6961<time>2008-08-14T15:18:12Z</time>
6962 <course>329.579987</course>
6963 <speed>5.333333</speed>
6964 <fix>3d</fix>
6965 <sat>9</sat>
6966 <hdop>0.900000</hdop>
6967</trkpt>
6968<trkpt lat="53.809900000" lon="-1.757055000">
6969 <ele>86.700000</ele>
6970<time>2008-08-14T15:18:13Z</time>
6971 <course>330.010010</course>
6972 <speed>5.833333</speed>
6973 <fix>3d</fix>
6974 <sat>9</sat>
6975 <hdop>0.900000</hdop>
6976</trkpt>
6977<trkpt lat="53.809946667" lon="-1.757100000">
6978 <ele>86.800000</ele>
6979<time>2008-08-14T15:18:14Z</time>
6980 <course>330.100006</course>
6981 <speed>5.833333</speed>
6982 <fix>3d</fix>
6983 <sat>9</sat>
6984 <hdop>0.900000</hdop>
6985</trkpt>
6986<trkpt lat="53.809993333" lon="-1.757143333">
6987 <ele>86.900000</ele>
6988<time>2008-08-14T15:18:15Z</time>
6989 <course>329.760010</course>
6990 <speed>5.750000</speed>
6991 <fix>3d</fix>
6992 <sat>9</sat>
6993 <hdop>0.900000</hdop>
6994</trkpt>
6995<trkpt lat="53.810036667" lon="-1.757186667">
6996 <ele>87.100000</ele>
6997<time>2008-08-14T15:18:16Z</time>
6998 <course>329.609985</course>
6999 <speed>5.611111</speed>
7000 <fix>3d</fix>
7001 <sat>9</sat>
7002 <hdop>0.900000</hdop>
7003 <vdop>1.400000</vdop>
7004 <pdop>1.600000</pdop>
7005</trkpt>
7006<trkpt lat="53.810080000" lon="-1.757230000">
7007 <ele>87.300000</ele>
7008<time>2008-08-14T15:18:17Z</time>
7009 <course>328.779999</course>
7010 <speed>5.444445</speed>
7011 <fix>3d</fix>
7012 <sat>9</sat>
7013 <hdop>0.900000</hdop>
7014</trkpt>
7015<trkpt lat="53.810123333" lon="-1.757275000">
7016 <ele>87.400000</ele>
7017<time>2008-08-14T15:18:18Z</time>
7018 <course>328.309998</course>
7019 <speed>5.611111</speed>
7020 <fix>3d</fix>
7021 <sat>9</sat>
7022 <hdop>0.900000</hdop>
7023</trkpt>
7024<trkpt lat="53.810173333" lon="-1.757326667">
7025 <ele>87.600000</ele>
7026<time>2008-08-14T15:18:19Z</time>
7027 <course>327.630005</course>
7028 <speed>6.333333</speed>
7029 <fix>3d</fix>
7030 <sat>9</sat>
7031 <hdop>0.900000</hdop>
7032</trkpt>
7033<trkpt lat="53.810230000" lon="-1.757386667">
7034 <ele>87.700000</ele>
7035<time>2008-08-14T15:18:20Z</time>
7036 <course>328.709991</course>
7037 <speed>7.333333</speed>
7038 <fix>3d</fix>
7039 <sat>9</sat>
7040 <hdop>0.900000</hdop>
7041</trkpt>
7042<trkpt lat="53.810295000" lon="-1.757451667">
7043 <ele>87.800000</ele>
7044<time>2008-08-14T15:18:21Z</time>
7045 <course>329.660004</course>
7046 <speed>8.277778</speed>
7047 <fix>3d</fix>
7048 <sat>9</sat>
7049 <hdop>0.900000</hdop>
7050 <vdop>1.400000</vdop>
7051 <pdop>1.600000</pdop>
7052</trkpt>
7053<trkpt lat="53.810363333" lon="-1.757518333">
7054 <ele>87.900000</ele>
7055<time>2008-08-14T15:18:22Z</time>
7056 <course>329.519989</course>
7057 <speed>8.694445</speed>
7058 <fix>3d</fix>
7059 <sat>9</sat>
7060 <hdop>0.900000</hdop>
7061</trkpt>
7062<trkpt lat="53.810433333" lon="-1.757588333">
7063 <ele>88.100000</ele>
7064<time>2008-08-14T15:18:23Z</time>
7065 <course>328.940002</course>
7066 <speed>8.861111</speed>
7067 <fix>3d</fix>
7068 <sat>9</sat>
7069 <hdop>0.900000</hdop>
7070</trkpt>
7071<trkpt lat="53.810505000" lon="-1.757661667">
7072 <ele>88.200000</ele>
7073<time>2008-08-14T15:18:24Z</time>
7074 <course>328.410004</course>
7075 <speed>9.277778</speed>
7076 <fix>3d</fix>
7077 <sat>9</sat>
7078 <hdop>0.900000</hdop>
7079</trkpt>
7080<trkpt lat="53.810578333" lon="-1.757738333">
7081 <ele>88.300000</ele>
7082<time>2008-08-14T15:18:25Z</time>
7083 <course>327.730011</course>
7084 <speed>9.472222</speed>
7085 <fix>3d</fix>
7086 <sat>9</sat>
7087 <hdop>0.900000</hdop>
7088</trkpt>
7089<trkpt lat="53.810650000" lon="-1.757815000">
7090 <ele>88.400000</ele>
7091<time>2008-08-14T15:18:26Z</time>
7092 <course>326.950012</course>
7093 <speed>9.361111</speed>
7094 <fix>3d</fix>
7095 <sat>8</sat>
7096 <hdop>1.000000</hdop>
7097 <vdop>1.400000</vdop>
7098 <pdop>1.700000</pdop>
7099</trkpt>
7100<trkpt lat="53.810721667" lon="-1.757891667">
7101 <ele>88.600000</ele>
7102<time>2008-08-14T15:18:27Z</time>
7103 <course>327.600006</course>
7104 <speed>9.277778</speed>
7105 <fix>3d</fix>
7106 <sat>8</sat>
7107 <hdop>1.000000</hdop>
7108</trkpt>
7109<trkpt lat="53.810791667" lon="-1.757965000">
7110 <ele>88.800000</ele>
7111<time>2008-08-14T15:18:28Z</time>
7112 <course>328.940002</course>
7113 <speed>9.194445</speed>
7114 <fix>3d</fix>
7115 <sat>9</sat>
7116 <hdop>0.900000</hdop>
7117</trkpt>
7118<trkpt lat="53.810863333" lon="-1.758035000">
7119 <ele>88.800000</ele>
7120<time>2008-08-14T15:18:29Z</time>
7121 <course>330.470001</course>
7122 <speed>9.027778</speed>
7123 <fix>3d</fix>
7124 <sat>9</sat>
7125 <hdop>0.900000</hdop>
7126</trkpt>
7127<trkpt lat="53.810933333" lon="-1.758100000">
7128 <ele>88.900000</ele>
7129<time>2008-08-14T15:18:30Z</time>
7130 <course>331.019989</course>
7131 <speed>8.833333</speed>
7132 <fix>3d</fix>
7133 <sat>9</sat>
7134 <hdop>0.900000</hdop>
7135</trkpt>
7136<trkpt lat="53.811001667" lon="-1.758165000">
7137 <ele>89.000000</ele>
7138<time>2008-08-14T15:18:31Z</time>
7139 <course>330.079987</course>
7140 <speed>8.638889</speed>
7141 <fix>3d</fix>
7142 <sat>9</sat>
7143 <hdop>0.900000</hdop>
7144 <vdop>1.400000</vdop>
7145 <pdop>1.600000</pdop>
7146</trkpt>
7147<trkpt lat="53.811068333" lon="-1.758231667">
7148 <ele>89.000000</ele>
7149<time>2008-08-14T15:18:32Z</time>
7150 <course>329.140015</course>
7151 <speed>8.583333</speed>
7152 <fix>3d</fix>
7153 <sat>9</sat>
7154 <hdop>0.900000</hdop>
7155</trkpt>
7156<trkpt lat="53.811138333" lon="-1.758301667">
7157 <ele>89.000000</ele>
7158<time>2008-08-14T15:18:33Z</time>
7159 <course>329.040009</course>
7160 <speed>8.944445</speed>
7161 <fix>3d</fix>
7162 <sat>9</sat>
7163 <hdop>0.900000</hdop>
7164</trkpt>
7165<trkpt lat="53.811213333" lon="-1.758378333">
7166 <ele>89.000000</ele>
7167<time>2008-08-14T15:18:34Z</time>
7168 <course>328.380005</course>
7169 <speed>9.666667</speed>
7170 <fix>3d</fix>
7171 <sat>9</sat>
7172 <hdop>0.900000</hdop>
7173</trkpt>
7174<trkpt lat="53.811293333" lon="-1.758461667">
7175 <ele>89.100000</ele>
7176<time>2008-08-14T15:18:35Z</time>
7177 <course>328.299988</course>
7178 <speed>10.388889</speed>
7179 <fix>3d</fix>
7180 <sat>9</sat>
7181 <hdop>0.900000</hdop>
7182</trkpt>
7183<trkpt lat="53.811380000" lon="-1.758551667">
7184 <ele>89.100000</ele>
7185<time>2008-08-14T15:18:36Z</time>
7186 <course>328.640015</course>
7187 <speed>11.083333</speed>
7188 <fix>3d</fix>
7189 <sat>9</sat>
7190 <hdop>0.900000</hdop>
7191 <vdop>1.400000</vdop>
7192 <pdop>1.600000</pdop>
7193</trkpt>
7194<trkpt lat="53.811471667" lon="-1.758643333">
7195 <ele>89.000000</ele>
7196<time>2008-08-14T15:18:37Z</time>
7197 <course>328.910004</course>
7198 <speed>11.666667</speed>
7199 <fix>3d</fix>
7200 <sat>9</sat>
7201 <hdop>0.900000</hdop>
7202</trkpt>
7203<trkpt lat="53.811563333" lon="-1.758736667">
7204 <ele>89.000000</ele>
7205<time>2008-08-14T15:18:38Z</time>
7206 <course>328.850006</course>
7207 <speed>11.833333</speed>
7208 <fix>3d</fix>
7209 <sat>9</sat>
7210 <hdop>0.900000</hdop>
7211</trkpt>
7212<trkpt lat="53.811655000" lon="-1.758831667">
7213 <ele>89.000000</ele>
7214<time>2008-08-14T15:18:39Z</time>
7215 <course>328.730011</course>
7216 <speed>11.888889</speed>
7217 <fix>3d</fix>
7218 <sat>9</sat>
7219 <hdop>0.900000</hdop>
7220</trkpt>
7221<trkpt lat="53.811750000" lon="-1.758928333">
7222 <ele>89.000000</ele>
7223<time>2008-08-14T15:18:40Z</time>
7224 <course>328.359985</course>
7225 <speed>12.166667</speed>
7226 <fix>3d</fix>
7227 <sat>9</sat>
7228 <hdop>0.900000</hdop>
7229</trkpt>
7230<trkpt lat="53.811845000" lon="-1.759028333">
7231 <ele>88.900000</ele>
7232<time>2008-08-14T15:18:41Z</time>
7233 <course>327.809998</course>
7234 <speed>12.361111</speed>
7235 <fix>3d</fix>
7236 <sat>9</sat>
7237 <hdop>0.900000</hdop>
7238 <vdop>1.400000</vdop>
7239 <pdop>1.600000</pdop>
7240</trkpt>
7241<trkpt lat="53.811940000" lon="-1.759128333">
7242 <ele>89.000000</ele>
7243<time>2008-08-14T15:18:42Z</time>
7244 <course>327.899994</course>
7245 <speed>12.277778</speed>
7246 <fix>3d</fix>
7247 <sat>9</sat>
7248 <hdop>0.900000</hdop>
7249</trkpt>
7250<trkpt lat="53.812033333" lon="-1.759226667">
7251 <ele>89.000000</ele>
7252<time>2008-08-14T15:18:43Z</time>
7253 <course>327.859985</course>
7254 <speed>12.166667</speed>
7255 <fix>3d</fix>
7256 <sat>9</sat>
7257 <hdop>0.900000</hdop>
7258</trkpt>
7259<trkpt lat="53.812125000" lon="-1.759323333">
7260 <ele>89.000000</ele>
7261<time>2008-08-14T15:18:44Z</time>
7262 <course>327.700012</course>
7263 <speed>12.027778</speed>
7264 <fix>3d</fix>
7265 <sat>9</sat>
7266 <hdop>0.900000</hdop>
7267</trkpt>
7268<trkpt lat="53.812216667" lon="-1.759420000">
7269 <ele>89.100000</ele>
7270<time>2008-08-14T15:18:45Z</time>
7271 <course>327.970001</course>
7272 <speed>11.777778</speed>
7273 <fix>3d</fix>
7274 <sat>9</sat>
7275 <hdop>0.900000</hdop>
7276</trkpt>
7277<trkpt lat="53.812305000" lon="-1.759510000">
7278 <ele>89.200000</ele>
7279<time>2008-08-14T15:18:46Z</time>
7280 <course>328.720001</course>
7281 <speed>11.472222</speed>
7282 <fix>3d</fix>
7283 <sat>9</sat>
7284 <hdop>0.900000</hdop>
7285 <vdop>1.400000</vdop>
7286 <pdop>1.600000</pdop>
7287</trkpt>
7288<trkpt lat="53.812393333" lon="-1.759596667">
7289 <ele>89.300000</ele>
7290<time>2008-08-14T15:18:47Z</time>
7291 <course>329.760010</course>
7292 <speed>11.222222</speed>
7293 <fix>3d</fix>
7294 <sat>9</sat>
7295 <hdop>0.900000</hdop>
7296</trkpt>
7297<trkpt lat="53.812478333" lon="-1.759681667">
7298 <ele>89.300000</ele>
7299<time>2008-08-14T15:18:48Z</time>
7300 <course>328.339996</course>
7301 <speed>10.972222</speed>
7302 <fix>3d</fix>
7303 <sat>9</sat>
7304 <hdop>0.900000</hdop>
7305</trkpt>
7306<trkpt lat="53.812561667" lon="-1.759768333">
7307 <ele>89.400000</ele>
7308<time>2008-08-14T15:18:49Z</time>
7309 <course>328.279999</course>
7310 <speed>10.750000</speed>
7311 <fix>3d</fix>
7312 <sat>9</sat>
7313 <hdop>0.900000</hdop>
7314</trkpt>
7315<trkpt lat="53.812640000" lon="-1.759850000">
7316 <ele>89.600000</ele>
7317<time>2008-08-14T15:18:50Z</time>
7318 <course>328.079987</course>
7319 <speed>10.277778</speed>
7320 <fix>3d</fix>
7321 <sat>9</sat>
7322 <hdop>0.900000</hdop>
7323</trkpt>
7324<trkpt lat="53.812710000" lon="-1.759920000">
7325 <ele>89.800000</ele>
7326<time>2008-08-14T15:18:51Z</time>
7327 <course>328.630005</course>
7328 <speed>8.944445</speed>
7329 <fix>3d</fix>
7330 <sat>9</sat>
7331 <hdop>0.900000</hdop>
7332 <vdop>1.400000</vdop>
7333 <pdop>1.600000</pdop>
7334</trkpt>
7335<trkpt lat="53.812763333" lon="-1.759978333">
7336 <ele>89.900000</ele>
7337<time>2008-08-14T15:18:52Z</time>
7338 <course>325.649994</course>
7339 <speed>7.138889</speed>
7340 <fix>3d</fix>
7341 <sat>9</sat>
7342 <hdop>0.900000</hdop>
7343</trkpt>
7344<trkpt lat="53.812803333" lon="-1.760023333">
7345 <ele>89.800000</ele>
7346<time>2008-08-14T15:18:53Z</time>
7347 <course>324.480011</course>
7348 <speed>5.444445</speed>
7349 <fix>3d</fix>
7350 <sat>9</sat>
7351 <hdop>0.900000</hdop>
7352</trkpt>
7353<trkpt lat="53.812833333" lon="-1.760060000">
7354 <ele>89.900000</ele>
7355<time>2008-08-14T15:18:54Z</time>
7356 <course>324.260010</course>
7357 <speed>4.111111</speed>
7358 <fix>3d</fix>
7359 <sat>9</sat>
7360 <hdop>0.900000</hdop>
7361</trkpt>
7362<trkpt lat="53.812856667" lon="-1.760086667">
7363 <ele>90.100000</ele>
7364<time>2008-08-14T15:18:55Z</time>
7365 <course>324.309998</course>
7366 <speed>3.138889</speed>
7367 <fix>3d</fix>
7368 <sat>9</sat>
7369 <hdop>0.900000</hdop>
7370</trkpt>
7371<trkpt lat="53.812875000" lon="-1.760106667">
7372 <ele>90.300000</ele>
7373<time>2008-08-14T15:18:56Z</time>
7374 <course>324.380005</course>
7375 <speed>2.472222</speed>
7376 <fix>3d</fix>
7377 <sat>9</sat>
7378 <hdop>0.900000</hdop>
7379 <vdop>1.400000</vdop>
7380 <pdop>1.600000</pdop>
7381</trkpt>
7382<trkpt lat="53.812895000" lon="-1.760130000">
7383 <ele>90.300000</ele>
7384<time>2008-08-14T15:18:57Z</time>
7385 <course>324.630005</course>
7386 <speed>2.750000</speed>
7387 <fix>3d</fix>
7388 <sat>9</sat>
7389 <hdop>0.900000</hdop>
7390</trkpt>
7391<trkpt lat="53.812925000" lon="-1.760165000">
7392 <ele>90.400000</ele>
7393<time>2008-08-14T15:18:58Z</time>
7394 <course>325.619995</course>
7395 <speed>4.055555</speed>
7396 <fix>3d</fix>
7397 <sat>9</sat>
7398 <hdop>0.900000</hdop>
7399</trkpt>
7400<trkpt lat="53.812965000" lon="-1.760210000">
7401 <ele>90.700000</ele>
7402<time>2008-08-14T15:18:59Z</time>
7403 <course>326.239990</course>
7404 <speed>5.388889</speed>
7405 <fix>3d</fix>
7406 <sat>9</sat>
7407 <hdop>0.900000</hdop>
7408</trkpt>
7409<trkpt lat="53.813013333" lon="-1.760261667">
7410 <ele>90.800000</ele>
7411<time>2008-08-14T15:19:00Z</time>
7412 <course>326.910004</course>
7413 <speed>6.305555</speed>
7414 <fix>3d</fix>
7415 <sat>9</sat>
7416 <hdop>0.900000</hdop>
7417</trkpt>
7418<trkpt lat="53.813065000" lon="-1.760318333">
7419 <ele>91.000000</ele>
7420<time>2008-08-14T15:19:01Z</time>
7421 <course>327.899994</course>
7422 <speed>6.916667</speed>
7423 <fix>3d</fix>
7424 <sat>9</sat>
7425 <hdop>0.900000</hdop>
7426 <vdop>1.400000</vdop>
7427 <pdop>1.600000</pdop>
7428</trkpt>
7429<trkpt lat="53.813120000" lon="-1.760375000">
7430 <ele>91.300000</ele>
7431<time>2008-08-14T15:19:02Z</time>
7432 <course>327.959991</course>
7433 <speed>7.083333</speed>
7434 <fix>3d</fix>
7435 <sat>9</sat>
7436 <hdop>0.900000</hdop>
7437</trkpt>
7438<trkpt lat="53.813176667" lon="-1.760433333">
7439 <ele>91.600000</ele>
7440<time>2008-08-14T15:19:03Z</time>
7441 <course>327.779999</course>
7442 <speed>7.472222</speed>
7443 <fix>3d</fix>
7444 <sat>9</sat>
7445 <hdop>0.900000</hdop>
7446</trkpt>
7447<trkpt lat="53.813241667" lon="-1.760501667">
7448 <ele>91.800000</ele>
7449<time>2008-08-14T15:19:04Z</time>
7450 <course>328.220001</course>
7451 <speed>8.416667</speed>
7452 <fix>3d</fix>
7453 <sat>9</sat>
7454 <hdop>0.900000</hdop>
7455</trkpt>
7456<trkpt lat="53.813315000" lon="-1.760576667">
7457 <ele>92.000000</ele>
7458<time>2008-08-14T15:19:05Z</time>
7459 <course>328.670013</course>
7460 <speed>9.444445</speed>
7461 <fix>3d</fix>
7462 <sat>9</sat>
7463 <hdop>0.900000</hdop>
7464</trkpt>
7465<trkpt lat="53.813393333" lon="-1.760656667">
7466 <ele>92.000000</ele>
7467<time>2008-08-14T15:19:06Z</time>
7468 <course>329.040009</course>
7469 <speed>10.083333</speed>
7470 <fix>3d</fix>
7471 <sat>9</sat>
7472 <hdop>0.900000</hdop>
7473 <vdop>1.400000</vdop>
7474 <pdop>1.600000</pdop>
7475</trkpt>
7476<trkpt lat="53.813475000" lon="-1.760740000">
7477 <ele>91.900000</ele>
7478<time>2008-08-14T15:19:07Z</time>
7479 <course>329.339996</course>
7480 <speed>10.583333</speed>
7481 <fix>3d</fix>
7482 <sat>9</sat>
7483 <hdop>0.900000</hdop>
7484</trkpt>
7485<trkpt lat="53.813563333" lon="-1.760828333">
7486 <ele>91.800000</ele>
7487<time>2008-08-14T15:19:08Z</time>
7488 <course>329.679993</course>
7489 <speed>11.361111</speed>
7490 <fix>3d</fix>
7491 <sat>9</sat>
7492 <hdop>0.900000</hdop>
7493</trkpt>
7494<trkpt lat="53.813656667" lon="-1.760920000">
7495 <ele>91.700000</ele>
7496<time>2008-08-14T15:19:09Z</time>
7497 <course>330.529999</course>
7498 <speed>11.916667</speed>
7499 <fix>3d</fix>
7500 <sat>9</sat>
7501 <hdop>0.900000</hdop>
7502</trkpt>
7503<trkpt lat="53.813751667" lon="-1.761010000">
7504 <ele>91.600000</ele>
7505<time>2008-08-14T15:19:10Z</time>
7506 <course>331.179993</course>
7507 <speed>12.000000</speed>
7508 <fix>3d</fix>
7509 <sat>9</sat>
7510 <hdop>0.900000</hdop>
7511</trkpt>
7512<trkpt lat="53.813846667" lon="-1.761096667">
7513 <ele>91.600000</ele>
7514<time>2008-08-14T15:19:11Z</time>
7515 <course>331.679993</course>
7516 <speed>11.944445</speed>
7517 <fix>3d</fix>
7518 <sat>9</sat>
7519 <hdop>0.900000</hdop>
7520 <vdop>1.400000</vdop>
7521 <pdop>1.600000</pdop>
7522</trkpt>
7523<trkpt lat="53.813943333" lon="-1.761183333">
7524 <ele>91.400000</ele>
7525<time>2008-08-14T15:19:12Z</time>
7526 <course>332.510010</course>
7527 <speed>12.166667</speed>
7528 <fix>3d</fix>
7529 <sat>9</sat>
7530 <hdop>0.900000</hdop>
7531</trkpt>
7532<trkpt lat="53.814045000" lon="-1.761271667">
7533 <ele>91.300000</ele>
7534<time>2008-08-14T15:19:13Z</time>
7535 <course>332.750000</course>
7536 <speed>12.500000</speed>
7537 <fix>3d</fix>
7538 <sat>9</sat>
7539 <hdop>0.900000</hdop>
7540</trkpt>
7541<trkpt lat="53.814146667" lon="-1.761360000">
7542 <ele>91.200000</ele>
7543<time>2008-08-14T15:19:14Z</time>
7544 <course>332.950012</course>
7545 <speed>12.638889</speed>
7546 <fix>3d</fix>
7547 <sat>9</sat>
7548 <hdop>0.900000</hdop>
7549</trkpt>
7550<trkpt lat="53.814246667" lon="-1.761448333">
7551 <ele>91.000000</ele>
7552<time>2008-08-14T15:19:15Z</time>
7553 <course>333.260010</course>
7554 <speed>12.555555</speed>
7555 <fix>3d</fix>
7556 <sat>9</sat>
7557 <hdop>0.900000</hdop>
7558</trkpt>
7559<trkpt lat="53.814346667" lon="-1.761533333">
7560 <ele>90.900000</ele>
7561<time>2008-08-14T15:19:16Z</time>
7562 <course>332.600006</course>
7563 <speed>12.333333</speed>
7564 <fix>3d</fix>
7565 <sat>9</sat>
7566 <hdop>0.900000</hdop>
7567 <vdop>1.400000</vdop>
7568 <pdop>1.600000</pdop>
7569</trkpt>
7570<trkpt lat="53.814441667" lon="-1.761621667">
7571 <ele>90.900000</ele>
7572<time>2008-08-14T15:19:17Z</time>
7573 <course>330.299988</course>
7574 <speed>12.083333</speed>
7575 <fix>3d</fix>
7576 <sat>9</sat>
7577 <hdop>0.900000</hdop>
7578</trkpt>
7579<trkpt lat="53.814531667" lon="-1.761718333">
7580 <ele>90.900000</ele>
7581<time>2008-08-14T15:19:18Z</time>
7582 <course>324.630005</course>
7583 <speed>11.805555</speed>
7584 <fix>3d</fix>
7585 <sat>9</sat>
7586 <hdop>0.900000</hdop>
7587</trkpt>
7588<trkpt lat="53.814613333" lon="-1.761828333">
7589 <ele>91.100000</ele>
7590<time>2008-08-14T15:19:19Z</time>
7591 <course>317.350006</course>
7592 <speed>11.500000</speed>
7593 <fix>3d</fix>
7594 <sat>9</sat>
7595 <hdop>0.900000</hdop>
7596</trkpt>
7597<trkpt lat="53.814678333" lon="-1.761956667">
7598 <ele>90.900000</ele>
7599<time>2008-08-14T15:19:20Z</time>
7600 <course>306.820007</course>
7601 <speed>11.250000</speed>
7602 <fix>3d</fix>
7603 <sat>9</sat>
7604 <hdop>0.900000</hdop>
7605</trkpt>
7606<trkpt lat="53.814733333" lon="-1.762101667">
7607 <ele>90.800000</ele>
7608<time>2008-08-14T15:19:21Z</time>
7609 <course>300.529999</course>
7610 <speed>11.277778</speed>
7611 <fix>3d</fix>
7612 <sat>8</sat>
7613 <hdop>0.900000</hdop>
7614 <vdop>1.400000</vdop>
7615 <pdop>1.700000</pdop>
7616</trkpt>
7617<trkpt lat="53.814780000" lon="-1.762261667">
7618 <ele>90.100000</ele>
7619<time>2008-08-14T15:19:22Z</time>
7620 <course>295.309998</course>
7621 <speed>11.666667</speed>
7622 <fix>3d</fix>
7623 <sat>9</sat>
7624 <hdop>0.900000</hdop>
7625</trkpt>
7626<trkpt lat="53.814826667" lon="-1.762426667">
7627 <ele>89.300000</ele>
7628<time>2008-08-14T15:19:23Z</time>
7629 <course>295.209991</course>
7630 <speed>12.083333</speed>
7631 <fix>3d</fix>
7632 <sat>9</sat>
7633 <hdop>0.900000</hdop>
7634</trkpt>
7635<trkpt lat="53.814875000" lon="-1.762601667">
7636 <ele>88.900000</ele>
7637<time>2008-08-14T15:19:24Z</time>
7638 <course>294.529999</course>
7639 <speed>12.583333</speed>
7640 <fix>3d</fix>
7641 <sat>9</sat>
7642 <hdop>0.900000</hdop>
7643</trkpt>
7644<trkpt lat="53.814925000" lon="-1.762788333">
7645 <ele>88.600000</ele>
7646<time>2008-08-14T15:19:25Z</time>
7647 <course>295.769989</course>
7648 <speed>13.333333</speed>
7649 <fix>3d</fix>
7650 <sat>9</sat>
7651 <hdop>0.900000</hdop>
7652</trkpt>
7653<trkpt lat="53.814978333" lon="-1.762976667">
7654 <ele>87.900000</ele>
7655<time>2008-08-14T15:19:26Z</time>
7656 <course>295.049988</course>
7657 <speed>13.777778</speed>
7658 <fix>3d</fix>
7659 <sat>9</sat>
7660 <hdop>0.900000</hdop>
7661 <vdop>1.400000</vdop>
7662 <pdop>1.600000</pdop>
7663</trkpt>
7664<trkpt lat="53.815026667" lon="-1.763170000">
7665 <ele>87.200000</ele>
7666<time>2008-08-14T15:19:27Z</time>
7667 <course>296.049988</course>
7668 <speed>13.833333</speed>
7669 <fix>3d</fix>
7670 <sat>9</sat>
7671 <hdop>0.900000</hdop>
7672</trkpt>
7673<trkpt lat="53.815081667" lon="-1.763360000">
7674 <ele>87.000000</ele>
7675<time>2008-08-14T15:19:28Z</time>
7676 <course>296.609985</course>
7677 <speed>13.888889</speed>
7678 <fix>3d</fix>
7679 <sat>9</sat>
7680 <hdop>0.900000</hdop>
7681</trkpt>
7682<trkpt lat="53.815150000" lon="-1.763541667">
7683 <ele>86.500000</ele>
7684<time>2008-08-14T15:19:29Z</time>
7685 <course>305.679993</course>
7686 <speed>14.250000</speed>
7687 <fix>3d</fix>
7688 <sat>9</sat>
7689 <hdop>0.900000</hdop>
7690</trkpt>
7691<trkpt lat="53.815238333" lon="-1.763710000">
7692 <ele>86.600000</ele>
7693<time>2008-08-14T15:19:30Z</time>
7694 <course>313.679993</course>
7695 <speed>14.583333</speed>
7696 <fix>3d</fix>
7697 <sat>9</sat>
7698 <hdop>0.900000</hdop>
7699</trkpt>
7700<trkpt lat="53.815333333" lon="-1.763858333">
7701 <ele>86.500000</ele>
7702<time>2008-08-14T15:19:31Z</time>
7703 <course>317.720001</course>
7704 <speed>14.194445</speed>
7705 <fix>3d</fix>
7706 <sat>9</sat>
7707 <hdop>0.900000</hdop>
7708 <vdop>1.400000</vdop>
7709 <pdop>1.600000</pdop>
7710</trkpt>
7711<trkpt lat="53.815428333" lon="-1.763991667">
7712 <ele>86.500000</ele>
7713<time>2008-08-14T15:19:32Z</time>
7714 <course>322.250000</course>
7715 <speed>13.583333</speed>
7716 <fix>3d</fix>
7717 <sat>9</sat>
7718 <hdop>0.900000</hdop>
7719</trkpt>
7720<trkpt lat="53.815528333" lon="-1.764111667">
7721 <ele>86.400000</ele>
7722<time>2008-08-14T15:19:33Z</time>
7723 <course>325.970001</course>
7724 <speed>13.444445</speed>
7725 <fix>3d</fix>
7726 <sat>9</sat>
7727 <hdop>0.900000</hdop>
7728</trkpt>
7729<trkpt lat="53.815631667" lon="-1.764223333">
7730 <ele>86.300000</ele>
7731<time>2008-08-14T15:19:34Z</time>
7732 <course>326.470001</course>
7733 <speed>13.472222</speed>
7734 <fix>3d</fix>
7735 <sat>9</sat>
7736 <hdop>0.900000</hdop>
7737</trkpt>
7738<trkpt lat="53.815733333" lon="-1.764335000">
7739 <ele>86.300000</ele>
7740<time>2008-08-14T15:19:35Z</time>
7741 <course>326.489990</course>
7742 <speed>13.305555</speed>
7743 <fix>3d</fix>
7744 <sat>9</sat>
7745 <hdop>0.900000</hdop>
7746</trkpt>
7747<trkpt lat="53.815831667" lon="-1.764443333">
7748 <ele>86.200000</ele>
7749<time>2008-08-14T15:19:36Z</time>
7750 <course>326.260010</course>
7751 <speed>13.027778</speed>
7752 <fix>3d</fix>
7753 <sat>9</sat>
7754 <hdop>0.900000</hdop>
7755 <vdop>1.400000</vdop>
7756 <pdop>1.600000</pdop>
7757</trkpt>
7758<trkpt lat="53.815928333" lon="-1.764550000">
7759 <ele>86.100000</ele>
7760<time>2008-08-14T15:19:37Z</time>
7761 <course>325.510010</course>
7762 <speed>12.694445</speed>
7763 <fix>3d</fix>
7764 <sat>9</sat>
7765 <hdop>0.900000</hdop>
7766</trkpt>
7767<trkpt lat="53.816021667" lon="-1.764656667">
7768 <ele>86.000000</ele>
7769<time>2008-08-14T15:19:38Z</time>
7770 <course>325.299988</course>
7771 <speed>12.444445</speed>
7772 <fix>3d</fix>
7773 <sat>9</sat>
7774 <hdop>0.900000</hdop>
7775</trkpt>
7776<trkpt lat="53.816116667" lon="-1.764765000">
7777 <ele>85.900000</ele>
7778<time>2008-08-14T15:19:39Z</time>
7779 <course>325.230011</course>
7780 <speed>12.527778</speed>
7781 <fix>3d</fix>
7782 <sat>9</sat>
7783 <hdop>0.900000</hdop>
7784</trkpt>
7785<trkpt lat="53.816211667" lon="-1.764875000">
7786 <ele>85.800000</ele>
7787<time>2008-08-14T15:19:40Z</time>
7788 <course>325.440002</course>
7789 <speed>12.750000</speed>
7790 <fix>3d</fix>
7791 <sat>9</sat>
7792 <hdop>0.900000</hdop>
7793</trkpt>
7794<trkpt lat="53.816308333" lon="-1.764986667">
7795 <ele>85.800000</ele>
7796<time>2008-08-14T15:19:41Z</time>
7797 <course>325.160004</course>
7798 <speed>12.861111</speed>
7799 <fix>3d</fix>
7800 <sat>9</sat>
7801 <hdop>0.900000</hdop>
7802 <vdop>1.400000</vdop>
7803 <pdop>1.600000</pdop>
7804</trkpt>
7805<trkpt lat="53.816403333" lon="-1.765098333">
7806 <ele>85.600000</ele>
7807<time>2008-08-14T15:19:42Z</time>
7808 <course>325.040009</course>
7809 <speed>12.777778</speed>
7810 <fix>3d</fix>
7811 <sat>9</sat>
7812 <hdop>0.900000</hdop>
7813</trkpt>
7814<trkpt lat="53.816498333" lon="-1.765208333">
7815 <ele>85.600000</ele>
7816<time>2008-08-14T15:19:43Z</time>
7817 <course>325.010010</course>
7818 <speed>12.638889</speed>
7819 <fix>3d</fix>
7820 <sat>9</sat>
7821 <hdop>0.900000</hdop>
7822</trkpt>
7823<trkpt lat="53.816591667" lon="-1.765318333">
7824 <ele>85.400000</ele>
7825<time>2008-08-14T15:19:44Z</time>
7826 <course>325.380005</course>
7827 <speed>12.527778</speed>
7828 <fix>3d</fix>
7829 <sat>9</sat>
7830 <hdop>0.900000</hdop>
7831</trkpt>
7832<trkpt lat="53.816685000" lon="-1.765421667">
7833 <ele>85.400000</ele>
7834<time>2008-08-14T15:19:45Z</time>
7835 <course>327.260010</course>
7836 <speed>12.388889</speed>
7837 <fix>3d</fix>
7838 <sat>9</sat>
7839 <hdop>0.900000</hdop>
7840</trkpt>
7841<trkpt lat="53.816778333" lon="-1.765523333">
7842 <ele>85.300000</ele>
7843<time>2008-08-14T15:19:46Z</time>
7844 <course>327.779999</course>
7845 <speed>12.277778</speed>
7846 <fix>3d</fix>
7847 <sat>9</sat>
7848 <hdop>0.900000</hdop>
7849 <vdop>1.400000</vdop>
7850 <pdop>1.600000</pdop>
7851</trkpt>
7852<trkpt lat="53.816873333" lon="-1.765621667">
7853 <ele>85.200000</ele>
7854<time>2008-08-14T15:19:47Z</time>
7855 <course>328.429993</course>
7856 <speed>12.361111</speed>
7857 <fix>3d</fix>
7858 <sat>9</sat>
7859 <hdop>0.900000</hdop>
7860</trkpt>
7861<trkpt lat="53.816970000" lon="-1.765720000">
7862 <ele>85.200000</ele>
7863<time>2008-08-14T15:19:48Z</time>
7864 <course>329.470001</course>
7865 <speed>12.444445</speed>
7866 <fix>3d</fix>
7867 <sat>9</sat>
7868 <hdop>0.900000</hdop>
7869</trkpt>
7870<trkpt lat="53.817066667" lon="-1.765815000">
7871 <ele>85.100000</ele>
7872<time>2008-08-14T15:19:49Z</time>
7873 <course>329.260010</course>
7874 <speed>12.361111</speed>
7875 <fix>3d</fix>
7876 <sat>9</sat>
7877 <hdop>0.900000</hdop>
7878</trkpt>
7879<trkpt lat="53.817161667" lon="-1.765911667">
7880 <ele>85.000000</ele>
7881<time>2008-08-14T15:19:50Z</time>
7882 <course>329.239990</course>
7883 <speed>12.305555</speed>
7884 <fix>3d</fix>
7885 <sat>9</sat>
7886 <hdop>0.900000</hdop>
7887</trkpt>
7888<trkpt lat="53.817260000" lon="-1.766010000">
7889 <ele>85.000000</ele>
7890<time>2008-08-14T15:19:51Z</time>
7891 <course>329.709991</course>
7892 <speed>12.555555</speed>
7893 <fix>3d</fix>
7894 <sat>9</sat>
7895 <hdop>0.900000</hdop>
7896 <vdop>1.400000</vdop>
7897 <pdop>1.600000</pdop>
7898</trkpt>
7899<trkpt lat="53.817361667" lon="-1.766110000">
7900 <ele>85.000000</ele>
7901<time>2008-08-14T15:19:52Z</time>
7902 <course>330.290009</course>
7903 <speed>13.027778</speed>
7904 <fix>3d</fix>
7905 <sat>9</sat>
7906 <hdop>0.900000</hdop>
7907</trkpt>
7908<trkpt lat="53.817468333" lon="-1.766211667">
7909 <ele>85.000000</ele>
7910<time>2008-08-14T15:19:53Z</time>
7911 <course>330.309998</course>
7912 <speed>13.583333</speed>
7913 <fix>3d</fix>
7914 <sat>9</sat>
7915 <hdop>0.900000</hdop>
7916</trkpt>
7917<trkpt lat="53.817580000" lon="-1.766316667">
7918 <ele>84.800000</ele>
7919<time>2008-08-14T15:19:54Z</time>
7920 <course>331.140015</course>
7921 <speed>14.111111</speed>
7922 <fix>3d</fix>
7923 <sat>9</sat>
7924 <hdop>0.900000</hdop>
7925</trkpt>
7926<trkpt lat="53.817695000" lon="-1.766423333">
7927 <ele>84.800000</ele>
7928<time>2008-08-14T15:19:55Z</time>
7929 <course>331.619995</course>
7930 <speed>14.361111</speed>
7931 <fix>3d</fix>
7932 <sat>9</sat>
7933 <hdop>0.900000</hdop>
7934</trkpt>
7935<trkpt lat="53.817810000" lon="-1.766526667">
7936 <ele>84.600000</ele>
7937<time>2008-08-14T15:19:56Z</time>
7938 <course>332.459991</course>
7939 <speed>14.444445</speed>
7940 <fix>3d</fix>
7941 <sat>9</sat>
7942 <hdop>0.900000</hdop>
7943 <vdop>1.400000</vdop>
7944 <pdop>1.600000</pdop>
7945</trkpt>
7946<trkpt lat="53.817928333" lon="-1.766628333">
7947 <ele>84.500000</ele>
7948<time>2008-08-14T15:19:57Z</time>
7949 <course>333.250000</course>
7950 <speed>14.722222</speed>
7951 <fix>3d</fix>
7952 <sat>9</sat>
7953 <hdop>0.900000</hdop>
7954</trkpt>
7955<trkpt lat="53.818051667" lon="-1.766731667">
7956 <ele>84.300000</ele>
7957<time>2008-08-14T15:19:58Z</time>
7958 <course>334.109985</course>
7959 <speed>15.277778</speed>
7960 <fix>3d</fix>
7961 <sat>9</sat>
7962 <hdop>0.900000</hdop>
7963</trkpt>
7964<trkpt lat="53.818180000" lon="-1.766835000">
7965 <ele>84.200000</ele>
7966<time>2008-08-14T15:19:59Z</time>
7967 <course>334.839996</course>
7968 <speed>15.694445</speed>
7969 <fix>3d</fix>
7970 <sat>9</sat>
7971 <hdop>0.900000</hdop>
7972</trkpt>
7973<trkpt lat="53.818310000" lon="-1.766936667">
7974 <ele>84.000000</ele>
7975<time>2008-08-14T15:20:00Z</time>
7976 <course>335.350006</course>
7977 <speed>15.750000</speed>
7978 <fix>3d</fix>
7979 <sat>9</sat>
7980 <hdop>0.900000</hdop>
7981</trkpt>
7982<trkpt lat="53.818438333" lon="-1.767036667">
7983 <ele>83.800000</ele>
7984<time>2008-08-14T15:20:01Z</time>
7985 <course>335.410004</course>
7986 <speed>15.638889</speed>
7987 <fix>3d</fix>
7988 <sat>9</sat>
7989 <hdop>0.900000</hdop>
7990 <vdop>1.400000</vdop>
7991 <pdop>1.600000</pdop>
7992</trkpt>
7993<trkpt lat="53.818568333" lon="-1.767135000">
7994 <ele>83.600000</ele>
7995<time>2008-08-14T15:20:02Z</time>
7996 <course>335.619995</course>
7997 <speed>15.638889</speed>
7998 <fix>3d</fix>
7999 <sat>9</sat>
8000 <hdop>0.900000</hdop>
8001</trkpt>
8002<trkpt lat="53.818695000" lon="-1.767233333">
8003 <ele>83.500000</ele>
8004<time>2008-08-14T15:20:03Z</time>
8005 <course>335.480011</course>
8006 <speed>15.555555</speed>
8007 <fix>3d</fix>
8008 <sat>9</sat>
8009 <hdop>0.900000</hdop>
8010</trkpt>
8011<trkpt lat="53.818821667" lon="-1.767330000">
8012 <ele>83.400000</ele>
8013<time>2008-08-14T15:20:04Z</time>
8014 <course>335.570007</course>
8015 <speed>15.333333</speed>
8016 <fix>3d</fix>
8017 <sat>9</sat>
8018 <hdop>0.900000</hdop>
8019</trkpt>
8020<trkpt lat="53.818946667" lon="-1.767425000">
8021 <ele>83.200000</ele>
8022<time>2008-08-14T15:20:05Z</time>
8023 <course>336.070007</course>
8024 <speed>15.138889</speed>
8025 <fix>3d</fix>
8026 <sat>9</sat>
8027 <hdop>0.900000</hdop>
8028</trkpt>
8029<trkpt lat="53.819073333" lon="-1.767515000">
8030 <ele>83.100000</ele>
8031<time>2008-08-14T15:20:06Z</time>
8032 <course>337.720001</course>
8033 <speed>15.166667</speed>
8034 <fix>3d</fix>
8035 <sat>9</sat>
8036 <hdop>0.900000</hdop>
8037 <vdop>1.400000</vdop>
8038 <pdop>1.600000</pdop>
8039</trkpt>
8040<trkpt lat="53.819203333" lon="-1.767598333">
8041 <ele>83.100000</ele>
8042<time>2008-08-14T15:20:07Z</time>
8043 <course>339.970001</course>
8044 <speed>15.361111</speed>
8045 <fix>3d</fix>
8046 <sat>9</sat>
8047 <hdop>0.900000</hdop>
8048</trkpt>
8049<trkpt lat="53.819335000" lon="-1.767675000">
8050 <ele>83.000000</ele>
8051<time>2008-08-14T15:20:08Z</time>
8052 <course>341.890015</course>
8053 <speed>15.444445</speed>
8054 <fix>3d</fix>
8055 <sat>9</sat>
8056 <hdop>0.900000</hdop>
8057</trkpt>
8058<trkpt lat="53.819465000" lon="-1.767745000">
8059 <ele>83.100000</ele>
8060<time>2008-08-14T15:20:09Z</time>
8061 <course>342.480011</course>
8062 <speed>15.277778</speed>
8063 <fix>3d</fix>
8064 <sat>9</sat>
8065 <hdop>0.900000</hdop>
8066</trkpt>
8067<trkpt lat="53.819595000" lon="-1.767811667">
8068 <ele>83.100000</ele>
8069<time>2008-08-14T15:20:10Z</time>
8070 <course>343.279999</course>
8071 <speed>15.194445</speed>
8072 <fix>3d</fix>
8073 <sat>9</sat>
8074 <hdop>0.900000</hdop>
8075</trkpt>
8076<trkpt lat="53.819728333" lon="-1.767878333">
8077 <ele>82.800000</ele>
8078<time>2008-08-14T15:20:11Z</time>
8079 <course>343.690002</course>
8080 <speed>15.222222</speed>
8081 <fix>3d</fix>
8082 <sat>9</sat>
8083 <hdop>0.900000</hdop>
8084 <vdop>1.400000</vdop>
8085 <pdop>1.600000</pdop>
8086</trkpt>
8087<trkpt lat="53.819858333" lon="-1.767936667">
8088 <ele>83.100000</ele>
8089<time>2008-08-14T15:20:12Z</time>
8090 <course>343.410004</course>
8091 <speed>15.277778</speed>
8092 <fix>3d</fix>
8093 <sat>9</sat>
8094 <hdop>0.900000</hdop>
8095</trkpt>
8096<trkpt lat="53.819991667" lon="-1.768001667">
8097 <ele>82.900000</ele>
8098<time>2008-08-14T15:20:13Z</time>
8099 <course>343.440002</course>
8100 <speed>15.611111</speed>
8101 <fix>3d</fix>
8102 <sat>9</sat>
8103 <hdop>0.900000</hdop>
8104</trkpt>
8105<trkpt lat="53.820131667" lon="-1.768068333">
8106 <ele>82.600000</ele>
8107<time>2008-08-14T15:20:14Z</time>
8108 <course>344.920013</course>
8109 <speed>15.722222</speed>
8110 <fix>3d</fix>
8111 <sat>9</sat>
8112 <hdop>0.900000</hdop>
8113</trkpt>
8114<trkpt lat="53.820270000" lon="-1.768128333">
8115 <ele>82.300000</ele>
8116<time>2008-08-14T15:20:15Z</time>
8117 <course>347.130005</course>
8118 <speed>15.500000</speed>
8119 <fix>3d</fix>
8120 <sat>9</sat>
8121 <hdop>0.900000</hdop>
8122</trkpt>
8123<trkpt lat="53.820406667" lon="-1.768181667">
8124 <ele>81.800000</ele>
8125<time>2008-08-14T15:20:16Z</time>
8126 <course>347.690002</course>
8127 <speed>15.416667</speed>
8128 <fix>3d</fix>
8129 <sat>9</sat>
8130 <hdop>0.900000</hdop>
8131 <vdop>1.400000</vdop>
8132 <pdop>1.600000</pdop>
8133</trkpt>
8134<trkpt lat="53.820543333" lon="-1.768230000">
8135 <ele>81.400000</ele>
8136<time>2008-08-14T15:20:17Z</time>
8137 <course>349.179993</course>
8138 <speed>15.555555</speed>
8139 <fix>3d</fix>
8140 <sat>9</sat>
8141 <hdop>0.900000</hdop>
8142</trkpt>
8143<trkpt lat="53.820683333" lon="-1.768275000">
8144 <ele>81.000000</ele>
8145<time>2008-08-14T15:20:18Z</time>
8146 <course>349.829987</course>
8147 <speed>15.666667</speed>
8148 <fix>3d</fix>
8149 <sat>9</sat>
8150 <hdop>0.900000</hdop>
8151</trkpt>
8152<trkpt lat="53.820825000" lon="-1.768316667">
8153 <ele>80.700000</ele>
8154<time>2008-08-14T15:20:19Z</time>
8155 <course>350.320007</course>
8156 <speed>15.750000</speed>
8157 <fix>3d</fix>
8158 <sat>9</sat>
8159 <hdop>0.900000</hdop>
8160</trkpt>
8161<trkpt lat="53.820966667" lon="-1.768360000">
8162 <ele>80.200000</ele>
8163<time>2008-08-14T15:20:20Z</time>
8164 <course>349.589996</course>
8165 <speed>16.027779</speed>
8166 <fix>3d</fix>
8167 <sat>9</sat>
8168 <hdop>0.900000</hdop>
8169</trkpt>
8170<trkpt lat="53.821113333" lon="-1.768406667">
8171 <ele>79.800000</ele>
8172<time>2008-08-14T15:20:21Z</time>
8173 <course>350.070007</course>
8174 <speed>16.416666</speed>
8175 <fix>3d</fix>
8176 <sat>9</sat>
8177 <hdop>0.900000</hdop>
8178 <vdop>1.400000</vdop>
8179 <pdop>1.600000</pdop>
8180</trkpt>
8181<trkpt lat="53.821261667" lon="-1.768451667">
8182 <ele>79.700000</ele>
8183<time>2008-08-14T15:20:22Z</time>
8184 <course>349.890015</course>
8185 <speed>16.527779</speed>
8186 <fix>3d</fix>
8187 <sat>9</sat>
8188 <hdop>0.900000</hdop>
8189</trkpt>
8190<trkpt lat="53.821410000" lon="-1.768495000">
8191 <ele>79.600000</ele>
8192<time>2008-08-14T15:20:23Z</time>
8193 <course>350.890015</course>
8194 <speed>16.388889</speed>
8195 <fix>3d</fix>
8196 <sat>9</sat>
8197 <hdop>0.900000</hdop>
8198</trkpt>
8199<trkpt lat="53.821553333" lon="-1.768538333">
8200 <ele>79.100000</ele>
8201<time>2008-08-14T15:20:24Z</time>
8202 <course>349.500000</course>
8203 <speed>16.194445</speed>
8204 <fix>3d</fix>
8205 <sat>9</sat>
8206 <hdop>0.900000</hdop>
8207</trkpt>
8208<trkpt lat="53.821696667" lon="-1.768581667">
8209 <ele>78.500000</ele>
8210<time>2008-08-14T15:20:25Z</time>
8211 <course>349.429993</course>
8212 <speed>16.000000</speed>
8213 <fix>3d</fix>
8214 <sat>9</sat>
8215 <hdop>0.900000</hdop>
8216</trkpt>
8217<trkpt lat="53.821835000" lon="-1.768625000">
8218 <ele>78.100000</ele>
8219<time>2008-08-14T15:20:26Z</time>
8220 <course>349.339996</course>
8221 <speed>15.722222</speed>
8222 <fix>3d</fix>
8223 <sat>9</sat>
8224 <hdop>0.900000</hdop>
8225 <vdop>1.400000</vdop>
8226 <pdop>1.600000</pdop>
8227</trkpt>
8228<trkpt lat="53.821970000" lon="-1.768670000">
8229 <ele>77.700000</ele>
8230<time>2008-08-14T15:20:27Z</time>
8231 <course>348.429993</course>
8232 <speed>15.250000</speed>
8233 <fix>3d</fix>
8234 <sat>9</sat>
8235 <hdop>0.900000</hdop>
8236</trkpt>
8237<trkpt lat="53.822101667" lon="-1.768716667">
8238 <ele>77.600000</ele>
8239<time>2008-08-14T15:20:28Z</time>
8240 <course>348.149994</course>
8241 <speed>14.888889</speed>
8242 <fix>3d</fix>
8243 <sat>9</sat>
8244 <hdop>0.900000</hdop>
8245</trkpt>
8246<trkpt lat="53.822230000" lon="-1.768768333">
8247 <ele>77.400000</ele>
8248<time>2008-08-14T15:20:29Z</time>
8249 <course>345.320007</course>
8250 <speed>14.611111</speed>
8251 <fix>3d</fix>
8252 <sat>9</sat>
8253 <hdop>0.900000</hdop>
8254</trkpt>
8255<trkpt lat="53.822353333" lon="-1.768831667">
8256 <ele>77.000000</ele>
8257<time>2008-08-14T15:20:30Z</time>
8258 <course>342.109985</course>
8259 <speed>14.444445</speed>
8260 <fix>3d</fix>
8261 <sat>9</sat>
8262 <hdop>0.900000</hdop>
8263</trkpt>
8264<trkpt lat="53.822475000" lon="-1.768906667">
8265 <ele>76.400000</ele>
8266<time>2008-08-14T15:20:31Z</time>
8267 <course>338.470001</course>
8268 <speed>14.361111</speed>
8269 <fix>3d</fix>
8270 <sat>9</sat>
8271 <hdop>0.900000</hdop>
8272 <vdop>1.400000</vdop>
8273 <pdop>1.600000</pdop>
8274</trkpt>
8275<trkpt lat="53.822595000" lon="-1.768995000">
8276 <ele>76.200000</ele>
8277<time>2008-08-14T15:20:32Z</time>
8278 <course>336.010010</course>
8279 <speed>14.416667</speed>
8280 <fix>3d</fix>
8281 <sat>9</sat>
8282 <hdop>0.900000</hdop>
8283</trkpt>
8284<trkpt lat="53.822711667" lon="-1.769090000">
8285 <ele>75.800000</ele>
8286<time>2008-08-14T15:20:33Z</time>
8287 <course>333.660004</course>
8288 <speed>14.500000</speed>
8289 <fix>3d</fix>
8290 <sat>9</sat>
8291 <hdop>0.900000</hdop>
8292</trkpt>
8293<trkpt lat="53.822826667" lon="-1.769190000">
8294 <ele>75.900000</ele>
8295<time>2008-08-14T15:20:34Z</time>
8296 <course>333.339996</course>
8297 <speed>14.194445</speed>
8298 <fix>3d</fix>
8299 <sat>8</sat>
8300 <hdop>1.000000</hdop>
8301</trkpt>
8302<trkpt lat="53.822940000" lon="-1.769295000">
8303 <ele>76.000000</ele>
8304<time>2008-08-14T15:20:35Z</time>
8305 <course>332.589996</course>
8306 <speed>14.111111</speed>
8307 <fix>3d</fix>
8308 <sat>8</sat>
8309 <hdop>1.000000</hdop>
8310</trkpt>
8311<trkpt lat="53.823055000" lon="-1.769400000">
8312 <ele>76.000000</ele>
8313<time>2008-08-14T15:20:36Z</time>
8314 <course>332.089996</course>
8315 <speed>14.250000</speed>
8316 <fix>3d</fix>
8317 <sat>9</sat>
8318 <hdop>0.900000</hdop>
8319 <vdop>1.400000</vdop>
8320 <pdop>1.600000</pdop>
8321</trkpt>
8322<trkpt lat="53.823168333" lon="-1.769503333">
8323 <ele>76.000000</ele>
8324<time>2008-08-14T15:20:37Z</time>
8325 <course>332.049988</course>
8326 <speed>14.138889</speed>
8327 <fix>3d</fix>
8328 <sat>9</sat>
8329 <hdop>0.900000</hdop>
8330</trkpt>
8331<trkpt lat="53.823280000" lon="-1.769606667">
8332 <ele>76.100000</ele>
8333<time>2008-08-14T15:20:38Z</time>
8334 <course>332.089996</course>
8335 <speed>14.000000</speed>
8336 <fix>3d</fix>
8337 <sat>9</sat>
8338 <hdop>0.900000</hdop>
8339</trkpt>
8340<trkpt lat="53.823391667" lon="-1.769706667">
8341 <ele>76.100000</ele>
8342<time>2008-08-14T15:20:39Z</time>
8343 <course>332.040009</course>
8344 <speed>13.833333</speed>
8345 <fix>3d</fix>
8346 <sat>9</sat>
8347 <hdop>0.900000</hdop>
8348</trkpt>
8349<trkpt lat="53.823500000" lon="-1.769806667">
8350 <ele>76.200000</ele>
8351<time>2008-08-14T15:20:40Z</time>
8352 <course>332.200012</course>
8353 <speed>13.666667</speed>
8354 <fix>3d</fix>
8355 <sat>8</sat>
8356 <hdop>1.000000</hdop>
8357</trkpt>
8358<trkpt lat="53.823611667" lon="-1.769896667">
8359 <ele>76.400000</ele>
8360<time>2008-08-14T15:20:41Z</time>
8361 <course>333.760010</course>
8362 <speed>13.527778</speed>
8363 <fix>3d</fix>
8364 <sat>8</sat>
8365 <hdop>1.000000</hdop>
8366 <vdop>1.400000</vdop>
8367 <pdop>1.700000</pdop>
8368</trkpt>
8369<trkpt lat="53.823723333" lon="-1.769983333">
8370 <ele>76.600000</ele>
8371<time>2008-08-14T15:20:42Z</time>
8372 <course>334.660004</course>
8373 <speed>13.472222</speed>
8374 <fix>3d</fix>
8375 <sat>8</sat>
8376 <hdop>0.900000</hdop>
8377</trkpt>
8378<trkpt lat="53.823833333" lon="-1.770071667">
8379 <ele>76.700000</ele>
8380<time>2008-08-14T15:20:43Z</time>
8381 <course>335.390015</course>
8382 <speed>13.666667</speed>
8383 <fix>3d</fix>
8384 <sat>7</sat>
8385 <hdop>1.200000</hdop>
8386</trkpt>
8387<trkpt lat="53.823946667" lon="-1.770160000">
8388 <ele>77.000000</ele>
8389<time>2008-08-14T15:20:44Z</time>
8390 <course>334.239990</course>
8391 <speed>13.888889</speed>
8392 <fix>3d</fix>
8393 <sat>8</sat>
8394 <hdop>0.900000</hdop>
8395</trkpt>
8396<trkpt lat="53.824066667" lon="-1.770238333">
8397 <ele>77.600000</ele>
8398<time>2008-08-14T15:20:45Z</time>
8399 <course>339.100006</course>
8400 <speed>13.916667</speed>
8401 <fix>3d</fix>
8402 <sat>8</sat>
8403 <hdop>0.900000</hdop>
8404</trkpt>
8405<trkpt lat="53.824186667" lon="-1.770308333">
8406 <ele>77.700000</ele>
8407<time>2008-08-14T15:20:46Z</time>
8408 <course>337.899994</course>
8409 <speed>13.805555</speed>
8410 <fix>3d</fix>
8411 <sat>6</sat>
8412 <hdop>1.500000</hdop>
8413 <vdop>2.300000</vdop>
8414 <pdop>2.800000</pdop>
8415</trkpt>
8416<trkpt lat="53.824311667" lon="-1.770368333">
8417 <ele>77.400000</ele>
8418<time>2008-08-14T15:20:47Z</time>
8419 <course>336.339996</course>
8420 <speed>13.861111</speed>
8421 <fix>3d</fix>
8422 <sat>8</sat>
8423 <hdop>1.200000</hdop>
8424</trkpt>
8425<trkpt lat="53.824433333" lon="-1.770438333">
8426 <ele>77.400000</ele>
8427<time>2008-08-14T15:20:48Z</time>
8428 <course>336.160004</course>
8429 <speed>13.916667</speed>
8430 <fix>3d</fix>
8431 <sat>7</sat>
8432 <hdop>1.300000</hdop>
8433</trkpt>
8434<trkpt lat="53.824546667" lon="-1.770525000">
8435 <ele>77.300000</ele>
8436<time>2008-08-14T15:20:49Z</time>
8437 <course>335.500000</course>
8438 <speed>13.805555</speed>
8439 <fix>3d</fix>
8440 <sat>7</sat>
8441 <hdop>1.300000</hdop>
8442</trkpt>
8443<trkpt lat="53.824656667" lon="-1.770613333">
8444 <ele>76.800000</ele>
8445<time>2008-08-14T15:20:50Z</time>
8446 <course>334.850006</course>
8447 <speed>13.583333</speed>
8448 <fix>3d</fix>
8449 <sat>7</sat>
8450 <hdop>1.300000</hdop>
8451</trkpt>
8452<trkpt lat="53.824763333" lon="-1.770705000">
8453 <ele>76.600000</ele>
8454<time>2008-08-14T15:20:51Z</time>
8455 <course>333.220001</course>
8456 <speed>13.250000</speed>
8457 <fix>3d</fix>
8458 <sat>7</sat>
8459 <hdop>1.300000</hdop>
8460 <vdop>2.200000</vdop>
8461 <pdop>2.500000</pdop>
8462</trkpt>
8463<trkpt lat="53.824866667" lon="-1.770793333">
8464 <ele>76.300000</ele>
8465<time>2008-08-14T15:20:52Z</time>
8466 <course>332.929993</course>
8467 <speed>12.861111</speed>
8468 <fix>3d</fix>
8469 <sat>7</sat>
8470 <hdop>1.300000</hdop>
8471</trkpt>
8472<trkpt lat="53.824966667" lon="-1.770881667">
8473 <ele>76.700000</ele>
8474<time>2008-08-14T15:20:53Z</time>
8475 <course>331.829987</course>
8476 <speed>12.527778</speed>
8477 <fix>3d</fix>
8478 <sat>7</sat>
8479 <hdop>1.300000</hdop>
8480</trkpt>
8481<trkpt lat="53.825066667" lon="-1.770978333">
8482 <ele>77.000000</ele>
8483<time>2008-08-14T15:20:54Z</time>
8484 <course>331.100006</course>
8485 <speed>12.694445</speed>
8486 <fix>3d</fix>
8487 <sat>7</sat>
8488 <hdop>1.300000</hdop>
8489</trkpt>
8490<trkpt lat="53.825168333" lon="-1.771080000">
8491 <ele>77.000000</ele>
8492<time>2008-08-14T15:20:55Z</time>
8493 <course>329.570007</course>
8494 <speed>13.166667</speed>
8495 <fix>3d</fix>
8496 <sat>7</sat>
8497 <hdop>1.300000</hdop>
8498</trkpt>
8499<trkpt lat="53.825273333" lon="-1.771193333">
8500 <ele>78.100000</ele>
8501<time>2008-08-14T15:20:56Z</time>
8502 <course>326.700012</course>
8503 <speed>13.722222</speed>
8504 <fix>3d</fix>
8505 <sat>8</sat>
8506 <hdop>1.000000</hdop>
8507 <vdop>1.700000</vdop>
8508 <pdop>1.900000</pdop>
8509</trkpt>
8510<trkpt lat="53.825375000" lon="-1.771315000">
8511 <ele>79.400000</ele>
8512<time>2008-08-14T15:20:57Z</time>
8513 <course>321.880005</course>
8514 <speed>13.805555</speed>
8515 <fix>3d</fix>
8516 <sat>9</sat>
8517 <hdop>0.900000</hdop>
8518</trkpt>
8519<trkpt lat="53.825465000" lon="-1.771446667">
8520 <ele>80.200000</ele>
8521<time>2008-08-14T15:20:58Z</time>
8522 <course>316.820007</course>
8523 <speed>13.250000</speed>
8524 <fix>3d</fix>
8525 <sat>9</sat>
8526 <hdop>0.900000</hdop>
8527</trkpt>
8528<trkpt lat="53.825543333" lon="-1.771583333">
8529 <ele>80.700000</ele>
8530<time>2008-08-14T15:20:59Z</time>
8531 <course>313.089996</course>
8532 <speed>12.722222</speed>
8533 <fix>3d</fix>
8534 <sat>9</sat>
8535 <hdop>0.900000</hdop>
8536</trkpt>
8537<trkpt lat="53.825615000" lon="-1.771725000">
8538 <ele>81.500000</ele>
8539<time>2008-08-14T15:21:00Z</time>
8540 <course>309.200012</course>
8541 <speed>12.305555</speed>
8542 <fix>3d</fix>
8543 <sat>9</sat>
8544 <hdop>0.900000</hdop>
8545</trkpt>
8546<trkpt lat="53.825683333" lon="-1.771868333">
8547 <ele>82.400000</ele>
8548<time>2008-08-14T15:21:01Z</time>
8549 <course>309.760010</course>
8550 <speed>12.250000</speed>
8551 <fix>3d</fix>
8552 <sat>9</sat>
8553 <hdop>0.900000</hdop>
8554 <vdop>1.400000</vdop>
8555 <pdop>1.600000</pdop>
8556</trkpt>
8557<trkpt lat="53.825751667" lon="-1.772013333">
8558 <ele>83.600000</ele>
8559<time>2008-08-14T15:21:02Z</time>
8560 <course>308.589996</course>
8561 <speed>12.194445</speed>
8562 <fix>3d</fix>
8563 <sat>9</sat>
8564 <hdop>0.900000</hdop>
8565</trkpt>
8566<trkpt lat="53.825816667" lon="-1.772150000">
8567 <ele>85.100000</ele>
8568<time>2008-08-14T15:21:03Z</time>
8569 <course>311.410004</course>
8570 <speed>11.888889</speed>
8571 <fix>3d</fix>
8572 <sat>9</sat>
8573 <hdop>0.900000</hdop>
8574</trkpt>
8575<trkpt lat="53.825883333" lon="-1.772286667">
8576 <ele>86.100000</ele>
8577<time>2008-08-14T15:21:04Z</time>
8578 <course>312.769989</course>
8579 <speed>11.805555</speed>
8580 <fix>3d</fix>
8581 <sat>9</sat>
8582 <hdop>0.900000</hdop>
8583</trkpt>
8584<trkpt lat="53.825953333" lon="-1.772425000">
8585 <ele>86.500000</ele>
8586<time>2008-08-14T15:21:05Z</time>
8587 <course>313.019989</course>
8588 <speed>12.055555</speed>
8589 <fix>3d</fix>
8590 <sat>9</sat>
8591 <hdop>0.900000</hdop>
8592</trkpt>
8593<trkpt lat="53.826031667" lon="-1.772555000">
8594 <ele>86.300000</ele>
8595<time>2008-08-14T15:21:06Z</time>
8596 <course>317.100006</course>
8597 <speed>12.333333</speed>
8598 <fix>3d</fix>
8599 <sat>9</sat>
8600 <hdop>0.900000</hdop>
8601 <vdop>1.400000</vdop>
8602 <pdop>1.600000</pdop>
8603</trkpt>
8604<trkpt lat="53.826118333" lon="-1.772683333">
8605 <ele>86.200000</ele>
8606<time>2008-08-14T15:21:07Z</time>
8607 <course>321.809998</course>
8608 <speed>12.527778</speed>
8609 <fix>3d</fix>
8610 <sat>9</sat>
8611 <hdop>0.900000</hdop>
8612</trkpt>
8613<trkpt lat="53.826215000" lon="-1.772793333">
8614 <ele>85.900000</ele>
8615<time>2008-08-14T15:21:08Z</time>
8616 <course>326.690002</course>
8617 <speed>12.805555</speed>
8618 <fix>3d</fix>
8619 <sat>9</sat>
8620 <hdop>0.900000</hdop>
8621</trkpt>
8622<trkpt lat="53.826318333" lon="-1.772898333">
8623 <ele>85.700000</ele>
8624<time>2008-08-14T15:21:09Z</time>
8625 <course>331.040009</course>
8626 <speed>13.277778</speed>
8627 <fix>3d</fix>
8628 <sat>9</sat>
8629 <hdop>0.900000</hdop>
8630</trkpt>
8631<trkpt lat="53.826428333" lon="-1.772993333">
8632 <ele>84.900000</ele>
8633<time>2008-08-14T15:21:10Z</time>
8634 <course>335.660004</course>
8635 <speed>13.638889</speed>
8636 <fix>3d</fix>
8637 <sat>9</sat>
8638 <hdop>0.900000</hdop>
8639</trkpt>
8640<trkpt lat="53.826543333" lon="-1.773071667">
8641 <ele>83.400000</ele>
8642<time>2008-08-14T15:21:11Z</time>
8643 <course>340.399994</course>
8644 <speed>13.694445</speed>
8645 <fix>3d</fix>
8646 <sat>9</sat>
8647 <hdop>0.900000</hdop>
8648 <vdop>1.400000</vdop>
8649 <pdop>1.600000</pdop>
8650</trkpt>
8651<trkpt lat="53.826661667" lon="-1.773133333">
8652 <ele>82.200000</ele>
8653<time>2008-08-14T15:21:12Z</time>
8654 <course>344.540009</course>
8655 <speed>13.638889</speed>
8656 <fix>3d</fix>
8657 <sat>9</sat>
8658 <hdop>0.900000</hdop>
8659</trkpt>
8660<trkpt lat="53.826783333" lon="-1.773188333">
8661 <ele>80.500000</ele>
8662<time>2008-08-14T15:21:13Z</time>
8663 <course>346.059998</course>
8664 <speed>13.750000</speed>
8665 <fix>3d</fix>
8666 <sat>9</sat>
8667 <hdop>0.900000</hdop>
8668</trkpt>
8669<trkpt lat="53.826905000" lon="-1.773243333">
8670 <ele>79.300000</ele>
8671<time>2008-08-14T15:21:14Z</time>
8672 <course>344.579987</course>
8673 <speed>13.833333</speed>
8674 <fix>3d</fix>
8675 <sat>9</sat>
8676 <hdop>0.900000</hdop>
8677</trkpt>
8678<trkpt lat="53.827026667" lon="-1.773300000">
8679 <ele>78.500000</ele>
8680<time>2008-08-14T15:21:15Z</time>
8681 <course>343.500000</course>
8682 <speed>13.833333</speed>
8683 <fix>3d</fix>
8684 <sat>9</sat>
8685 <hdop>0.900000</hdop>
8686</trkpt>
8687<trkpt lat="53.827150000" lon="-1.773360000">
8688 <ele>77.200000</ele>
8689<time>2008-08-14T15:21:16Z</time>
8690 <course>343.640015</course>
8691 <speed>14.055555</speed>
8692 <fix>3d</fix>
8693 <sat>9</sat>
8694 <hdop>0.900000</hdop>
8695 <vdop>1.400000</vdop>
8696 <pdop>1.600000</pdop>
8697</trkpt>
8698<trkpt lat="53.827275000" lon="-1.773423333">
8699 <ele>76.200000</ele>
8700<time>2008-08-14T15:21:17Z</time>
8701 <course>343.730011</course>
8702 <speed>14.194445</speed>
8703 <fix>3d</fix>
8704 <sat>9</sat>
8705 <hdop>0.900000</hdop>
8706</trkpt>
8707<trkpt lat="53.827400000" lon="-1.773485000">
8708 <ele>75.600000</ele>
8709<time>2008-08-14T15:21:18Z</time>
8710 <course>343.269989</course>
8711 <speed>14.333333</speed>
8712 <fix>3d</fix>
8713 <sat>9</sat>
8714 <hdop>0.900000</hdop>
8715</trkpt>
8716<trkpt lat="53.827526667" lon="-1.773548333">
8717 <ele>75.700000</ele>
8718<time>2008-08-14T15:21:19Z</time>
8719 <course>342.910004</course>
8720 <speed>14.722222</speed>
8721 <fix>3d</fix>
8722 <sat>9</sat>
8723 <hdop>0.900000</hdop>
8724</trkpt>
8725<trkpt lat="53.827658333" lon="-1.773618333">
8726 <ele>75.300000</ele>
8727<time>2008-08-14T15:21:20Z</time>
8728 <course>341.899994</course>
8729 <speed>15.194445</speed>
8730 <fix>3d</fix>
8731 <sat>9</sat>
8732 <hdop>0.900000</hdop>
8733</trkpt>
8734<trkpt lat="53.827791667" lon="-1.773695000">
8735 <ele>74.700000</ele>
8736<time>2008-08-14T15:21:21Z</time>
8737 <course>341.309998</course>
8738 <speed>15.361111</speed>
8739 <fix>3d</fix>
8740 <sat>9</sat>
8741 <hdop>0.900000</hdop>
8742 <vdop>1.400000</vdop>
8743 <pdop>1.600000</pdop>
8744</trkpt>
8745<trkpt lat="53.827923333" lon="-1.773771667">
8746 <ele>74.200000</ele>
8747<time>2008-08-14T15:21:22Z</time>
8748 <course>341.809998</course>
8749 <speed>15.138889</speed>
8750 <fix>3d</fix>
8751 <sat>9</sat>
8752 <hdop>0.900000</hdop>
8753</trkpt>
8754<trkpt lat="53.828050000" lon="-1.773845000">
8755 <ele>73.600000</ele>
8756<time>2008-08-14T15:21:23Z</time>
8757 <course>341.579987</course>
8758 <speed>14.805555</speed>
8759 <fix>3d</fix>
8760 <sat>9</sat>
8761 <hdop>0.900000</hdop>
8762</trkpt>
8763<trkpt lat="53.828171667" lon="-1.773920000">
8764 <ele>72.900000</ele>
8765<time>2008-08-14T15:21:24Z</time>
8766 <course>339.679993</course>
8767 <speed>14.138889</speed>
8768 <fix>3d</fix>
8769 <sat>9</sat>
8770 <hdop>0.900000</hdop>
8771</trkpt>
8772<trkpt lat="53.828283333" lon="-1.773995000">
8773 <ele>72.000000</ele>
8774<time>2008-08-14T15:21:25Z</time>
8775 <course>338.809998</course>
8776 <speed>13.194445</speed>
8777 <fix>3d</fix>
8778 <sat>9</sat>
8779 <hdop>0.900000</hdop>
8780</trkpt>
8781<trkpt lat="53.828383333" lon="-1.774063333">
8782 <ele>71.900000</ele>
8783<time>2008-08-14T15:21:26Z</time>
8784 <course>338.640015</course>
8785 <speed>11.888889</speed>
8786 <fix>3d</fix>
8787 <sat>9</sat>
8788 <hdop>0.900000</hdop>
8789 <vdop>1.400000</vdop>
8790 <pdop>1.600000</pdop>
8791</trkpt>
8792<trkpt lat="53.828468333" lon="-1.774125000">
8793 <ele>71.800000</ele>
8794<time>2008-08-14T15:21:27Z</time>
8795 <course>337.329987</course>
8796 <speed>10.388889</speed>
8797 <fix>3d</fix>
8798 <sat>9</sat>
8799 <hdop>0.900000</hdop>
8800</trkpt>
8801<trkpt lat="53.828543333" lon="-1.774183333">
8802 <ele>71.800000</ele>
8803<time>2008-08-14T15:21:28Z</time>
8804 <course>334.760010</course>
8805 <speed>9.277778</speed>
8806 <fix>3d</fix>
8807 <sat>9</sat>
8808 <hdop>0.900000</hdop>
8809</trkpt>
8810<trkpt lat="53.828618333" lon="-1.774248333">
8811 <ele>72.400000</ele>
8812<time>2008-08-14T15:21:29Z</time>
8813 <course>332.760010</course>
8814 <speed>9.194445</speed>
8815 <fix>3d</fix>
8816 <sat>9</sat>
8817 <hdop>0.900000</hdop>
8818</trkpt>
8819<trkpt lat="53.828695000" lon="-1.774318333">
8820 <ele>72.900000</ele>
8821<time>2008-08-14T15:21:30Z</time>
8822 <course>330.850006</course>
8823 <speed>9.750000</speed>
8824 <fix>3d</fix>
8825 <sat>9</sat>
8826 <hdop>0.900000</hdop>
8827</trkpt>
8828<trkpt lat="53.828775000" lon="-1.774393333">
8829 <ele>73.300000</ele>
8830<time>2008-08-14T15:21:31Z</time>
8831 <course>332.140015</course>
8832 <speed>10.083333</speed>
8833 <fix>3d</fix>
8834 <sat>9</sat>
8835 <hdop>0.900000</hdop>
8836 <vdop>1.400000</vdop>
8837 <pdop>1.600000</pdop>
8838</trkpt>
8839<trkpt lat="53.828856667" lon="-1.774466667">
8840 <ele>73.900000</ele>
8841<time>2008-08-14T15:21:32Z</time>
8842 <course>332.149994</course>
8843 <speed>10.361111</speed>
8844 <fix>3d</fix>
8845 <sat>9</sat>
8846 <hdop>0.900000</hdop>
8847</trkpt>
8848<trkpt lat="53.828945000" lon="-1.774541667">
8849 <ele>74.600000</ele>
8850<time>2008-08-14T15:21:33Z</time>
8851 <course>332.950012</course>
8852 <speed>10.805555</speed>
8853 <fix>3d</fix>
8854 <sat>9</sat>
8855 <hdop>0.900000</hdop>
8856</trkpt>
8857<trkpt lat="53.829031667" lon="-1.774618333">
8858 <ele>75.500000</ele>
8859<time>2008-08-14T15:21:34Z</time>
8860 <course>332.470001</course>
8861 <speed>10.944445</speed>
8862 <fix>3d</fix>
8863 <sat>9</sat>
8864 <hdop>0.900000</hdop>
8865</trkpt>
8866<trkpt lat="53.829115000" lon="-1.774700000">
8867 <ele>76.500000</ele>
8868<time>2008-08-14T15:21:35Z</time>
8869 <course>328.059998</course>
8870 <speed>10.777778</speed>
8871 <fix>3d</fix>
8872 <sat>9</sat>
8873 <hdop>0.900000</hdop>
8874</trkpt>
8875<trkpt lat="53.829191667" lon="-1.774801667">
8876 <ele>77.500000</ele>
8877<time>2008-08-14T15:21:36Z</time>
8878 <course>317.670013</course>
8879 <speed>10.833333</speed>
8880 <fix>3d</fix>
8881 <sat>9</sat>
8882 <hdop>0.900000</hdop>
8883 <vdop>1.400000</vdop>
8884 <pdop>1.600000</pdop>
8885</trkpt>
8886<trkpt lat="53.829258333" lon="-1.774926667">
8887 <ele>78.500000</ele>
8888<time>2008-08-14T15:21:37Z</time>
8889 <course>308.329987</course>
8890 <speed>11.138889</speed>
8891 <fix>3d</fix>
8892 <sat>9</sat>
8893 <hdop>0.900000</hdop>
8894</trkpt>
8895<trkpt lat="53.829315000" lon="-1.775076667">
8896 <ele>78.900000</ele>
8897<time>2008-08-14T15:21:38Z</time>
8898 <course>301.000000</course>
8899 <speed>11.666667</speed>
8900 <fix>3d</fix>
8901 <sat>9</sat>
8902 <hdop>0.900000</hdop>
8903</trkpt>
8904<trkpt lat="53.829366667" lon="-1.775250000">
8905 <ele>79.400000</ele>
8906<time>2008-08-14T15:21:39Z</time>
8907 <course>294.690002</course>
8908 <speed>12.527778</speed>
8909 <fix>3d</fix>
8910 <sat>9</sat>
8911 <hdop>0.900000</hdop>
8912</trkpt>
8913<trkpt lat="53.829415000" lon="-1.775435000">
8914 <ele>80.000000</ele>
8915<time>2008-08-14T15:21:40Z</time>
8916 <course>295.089996</course>
8917 <speed>13.027778</speed>
8918 <fix>3d</fix>
8919 <sat>9</sat>
8920 <hdop>0.900000</hdop>
8921</trkpt>
8922<trkpt lat="53.829463333" lon="-1.775620000">
8923 <ele>80.500000</ele>
8924<time>2008-08-14T15:21:41Z</time>
8925 <course>295.160004</course>
8926 <speed>13.138889</speed>
8927 <fix>3d</fix>
8928 <sat>9</sat>
8929 <hdop>0.900000</hdop>
8930 <vdop>1.400000</vdop>
8931 <pdop>1.600000</pdop>
8932</trkpt>
8933<trkpt lat="53.829511667" lon="-1.775803333">
8934 <ele>81.100000</ele>
8935<time>2008-08-14T15:21:42Z</time>
8936 <course>294.109985</course>
8937 <speed>13.083333</speed>
8938 <fix>3d</fix>
8939 <sat>9</sat>
8940 <hdop>0.900000</hdop>
8941</trkpt>
8942<trkpt lat="53.829556667" lon="-1.775985000">
8943 <ele>81.600000</ele>
8944<time>2008-08-14T15:21:43Z</time>
8945 <course>293.359985</course>
8946 <speed>12.750000</speed>
8947 <fix>3d</fix>
8948 <sat>9</sat>
8949 <hdop>0.900000</hdop>
8950</trkpt>
8951<trkpt lat="53.829600000" lon="-1.776156667">
8952 <ele>82.100000</ele>
8953<time>2008-08-14T15:21:44Z</time>
8954 <course>294.350006</course>
8955 <speed>12.250000</speed>
8956 <fix>3d</fix>
8957 <sat>9</sat>
8958 <hdop>0.900000</hdop>
8959</trkpt>
8960<trkpt lat="53.829646667" lon="-1.776305000">
8961 <ele>82.800000</ele>
8962<time>2008-08-14T15:21:45Z</time>
8963 <course>301.200012</course>
8964 <speed>11.277778</speed>
8965 <fix>3d</fix>
8966 <sat>8</sat>
8967 <hdop>1.000000</hdop>
8968</trkpt>
8969<trkpt lat="53.829696667" lon="-1.776420000">
8970 <ele>83.200000</ele>
8971<time>2008-08-14T15:21:46Z</time>
8972 <course>310.019989</course>
8973 <speed>9.888889</speed>
8974 <fix>3d</fix>
8975 <sat>8</sat>
8976 <hdop>1.000000</hdop>
8977 <vdop>1.600000</vdop>
8978 <pdop>1.900000</pdop>
8979</trkpt>
8980<trkpt lat="53.829745000" lon="-1.776493333">
8981 <ele>83.700000</ele>
8982<time>2008-08-14T15:21:47Z</time>
8983 <course>321.700012</course>
8984 <speed>8.000000</speed>
8985 <fix>3d</fix>
8986 <sat>8</sat>
8987 <hdop>1.000000</hdop>
8988</trkpt>
8989<trkpt lat="53.829775000" lon="-1.776523333">
8990 <ele>84.200000</ele>
8991<time>2008-08-14T15:21:48Z</time>
8992 <course>334.339996</course>
8993 <speed>5.527778</speed>
8994 <fix>3d</fix>
8995 <sat>8</sat>
8996 <hdop>1.000000</hdop>
8997</trkpt>
8998<trkpt lat="53.829791667" lon="-1.776530000">
8999 <ele>84.700000</ele>
9000<time>2008-08-14T15:21:49Z</time>
9001 <course>341.399994</course>
9002 <speed>3.138889</speed>
9003 <fix>3d</fix>
9004 <sat>8</sat>
9005 <hdop>1.000000</hdop>
9006</trkpt>
9007<trkpt lat="53.829800000" lon="-1.776531667">
9008 <ele>85.100000</ele>
9009<time>2008-08-14T15:21:50Z</time>
9010 <course>342.920013</course>
9011 <speed>1.555556</speed>
9012 <fix>3d</fix>
9013 <sat>8</sat>
9014 <hdop>1.000000</hdop>
9015</trkpt>
9016<trkpt lat="53.829803333" lon="-1.776525000">
9017 <ele>85.400000</ele>
9018<time>2008-08-14T15:21:51Z</time>
9019 <course>342.920013</course>
9020 <speed>0.000000</speed>
9021 <fix>3d</fix>
9022 <sat>8</sat>
9023 <hdop>1.000000</hdop>
9024 <vdop>1.600000</vdop>
9025 <pdop>1.900000</pdop>
9026</trkpt>
9027<trkpt lat="53.829801667" lon="-1.776516667">
9028 <ele>85.800000</ele>
9029<time>2008-08-14T15:21:52Z</time>
9030 <course>342.920013</course>
9031 <speed>0.000000</speed>
9032 <fix>3d</fix>
9033 <sat>8</sat>
9034 <hdop>1.000000</hdop>
9035</trkpt>
9036<trkpt lat="53.829800000" lon="-1.776510000">
9037 <ele>86.200000</ele>
9038<time>2008-08-14T15:21:53Z</time>
9039 <course>342.920013</course>
9040 <speed>0.000000</speed>
9041 <fix>3d</fix>
9042 <sat>8</sat>
9043 <hdop>1.000000</hdop>
9044</trkpt>
9045<trkpt lat="53.829798333" lon="-1.776503333">
9046 <ele>86.500000</ele>
9047<time>2008-08-14T15:21:54Z</time>
9048 <course>342.920013</course>
9049 <speed>0.000000</speed>
9050 <fix>3d</fix>
9051 <sat>8</sat>
9052 <hdop>1.000000</hdop>
9053</trkpt>
9054<trkpt lat="53.829801667" lon="-1.776496667">
9055 <ele>86.900000</ele>
9056<time>2008-08-14T15:21:55Z</time>
9057 <course>342.920013</course>
9058 <speed>0.000000</speed>
9059 <fix>3d</fix>
9060 <sat>8</sat>
9061 <hdop>1.000000</hdop>
9062</trkpt>
9063<trkpt lat="53.829805000" lon="-1.776493333">
9064 <ele>87.100000</ele>
9065<time>2008-08-14T15:21:56Z</time>
9066 <course>342.920013</course>
9067 <speed>0.000000</speed>
9068 <fix>3d</fix>
9069 <sat>8</sat>
9070 <hdop>1.000000</hdop>
9071 <vdop>1.600000</vdop>
9072 <pdop>1.900000</pdop>
9073</trkpt>
9074<trkpt lat="53.829808333" lon="-1.776488333">
9075 <ele>87.300000</ele>
9076<time>2008-08-14T15:21:57Z</time>
9077 <course>342.920013</course>
9078 <speed>0.000000</speed>
9079 <fix>3d</fix>
9080 <sat>8</sat>
9081 <hdop>1.000000</hdop>
9082</trkpt>
9083<trkpt lat="53.829810000" lon="-1.776485000">
9084 <ele>87.500000</ele>
9085<time>2008-08-14T15:21:58Z</time>
9086 <course>342.920013</course>
9087 <speed>0.000000</speed>
9088 <fix>3d</fix>
9089 <sat>8</sat>
9090 <hdop>1.000000</hdop>
9091</trkpt>
9092<trkpt lat="53.829813333" lon="-1.776481667">
9093 <ele>87.800000</ele>
9094<time>2008-08-14T15:21:59Z</time>
9095 <course>342.920013</course>
9096 <speed>0.000000</speed>
9097 <fix>3d</fix>
9098 <sat>8</sat>
9099 <hdop>1.000000</hdop>
9100</trkpt>
9101<trkpt lat="53.829816667" lon="-1.776476667">
9102 <ele>88.000000</ele>
9103<time>2008-08-14T15:22:00Z</time>
9104 <course>342.920013</course>
9105 <speed>0.000000</speed>
9106 <fix>3d</fix>
9107 <sat>8</sat>
9108 <hdop>1.000000</hdop>
9109</trkpt>
9110<trkpt lat="53.829820000" lon="-1.776473333">
9111 <ele>88.100000</ele>
9112<time>2008-08-14T15:22:01Z</time>
9113 <course>342.920013</course>
9114 <speed>0.000000</speed>
9115 <fix>3d</fix>
9116 <sat>8</sat>
9117 <hdop>1.000000</hdop>
9118 <vdop>1.600000</vdop>
9119 <pdop>1.900000</pdop>
9120</trkpt>
9121<trkpt lat="53.829823333" lon="-1.776468333">
9122 <ele>88.300000</ele>
9123<time>2008-08-14T15:22:02Z</time>
9124 <course>342.920013</course>
9125 <speed>0.000000</speed>
9126 <fix>3d</fix>
9127 <sat>8</sat>
9128 <hdop>1.000000</hdop>
9129</trkpt>
9130<trkpt lat="53.829825000" lon="-1.776465000">
9131 <ele>88.400000</ele>
9132<time>2008-08-14T15:22:03Z</time>
9133 <course>342.920013</course>
9134 <speed>0.000000</speed>
9135 <fix>3d</fix>
9136 <sat>8</sat>
9137 <hdop>1.000000</hdop>
9138</trkpt>
9139<trkpt lat="53.829828333" lon="-1.776460000">
9140 <ele>88.500000</ele>
9141<time>2008-08-14T15:22:04Z</time>
9142 <course>342.920013</course>
9143 <speed>0.000000</speed>
9144 <fix>3d</fix>
9145 <sat>8</sat>
9146 <hdop>1.000000</hdop>
9147</trkpt>
9148<trkpt lat="53.829831667" lon="-1.776456667">
9149 <ele>88.600000</ele>
9150<time>2008-08-14T15:22:05Z</time>
9151 <course>342.920013</course>
9152 <speed>0.000000</speed>
9153 <fix>3d</fix>
9154 <sat>8</sat>
9155 <hdop>1.000000</hdop>
9156</trkpt>
9157<trkpt lat="53.829833333" lon="-1.776453333">
9158 <ele>88.700000</ele>
9159<time>2008-08-14T15:22:06Z</time>
9160 <course>342.920013</course>
9161 <speed>0.000000</speed>
9162 <fix>3d</fix>
9163 <sat>8</sat>
9164 <hdop>1.000000</hdop>
9165 <vdop>1.600000</vdop>
9166 <pdop>1.900000</pdop>
9167</trkpt>
9168<trkpt lat="53.829836667" lon="-1.776450000">
9169 <ele>88.800000</ele>
9170<time>2008-08-14T15:22:07Z</time>
9171 <course>342.920013</course>
9172 <speed>0.000000</speed>
9173 <fix>3d</fix>
9174 <sat>8</sat>
9175 <hdop>1.000000</hdop>
9176</trkpt>
9177<trkpt lat="53.829838333" lon="-1.776446667">
9178 <ele>88.800000</ele>
9179<time>2008-08-14T15:22:08Z</time>
9180 <course>342.920013</course>
9181 <speed>0.000000</speed>
9182 <fix>3d</fix>
9183 <sat>8</sat>
9184 <hdop>1.000000</hdop>
9185</trkpt>
9186<trkpt lat="53.829840000" lon="-1.776441667">
9187 <ele>88.900000</ele>
9188<time>2008-08-14T15:22:09Z</time>
9189 <course>342.920013</course>
9190 <speed>0.000000</speed>
9191 <fix>3d</fix>
9192 <sat>8</sat>
9193 <hdop>1.000000</hdop>
9194</trkpt>
9195<trkpt lat="53.829843333" lon="-1.776438333">
9196 <ele>88.900000</ele>
9197<time>2008-08-14T15:22:10Z</time>
9198 <course>342.920013</course>
9199 <speed>0.000000</speed>
9200 <fix>3d</fix>
9201 <sat>8</sat>
9202 <hdop>1.000000</hdop>
9203</trkpt>
9204<trkpt lat="53.829845000" lon="-1.776435000">
9205 <ele>89.000000</ele>
9206<time>2008-08-14T15:22:11Z</time>
9207 <course>342.920013</course>
9208 <speed>0.000000</speed>
9209 <fix>3d</fix>
9210 <sat>8</sat>
9211 <hdop>1.000000</hdop>
9212 <vdop>1.600000</vdop>
9213 <pdop>1.900000</pdop>
9214</trkpt>
9215<trkpt lat="53.829846667" lon="-1.776431667">
9216 <ele>89.000000</ele>
9217<time>2008-08-14T15:22:12Z</time>
9218 <course>342.920013</course>
9219 <speed>0.000000</speed>
9220 <fix>3d</fix>
9221 <sat>8</sat>
9222 <hdop>1.000000</hdop>
9223</trkpt>
9224<trkpt lat="53.829850000" lon="-1.776428333">
9225 <ele>89.000000</ele>
9226<time>2008-08-14T15:22:13Z</time>
9227 <course>342.920013</course>
9228 <speed>0.000000</speed>
9229 <fix>3d</fix>
9230 <sat>8</sat>
9231 <hdop>1.000000</hdop>
9232</trkpt>
9233<trkpt lat="53.829851667" lon="-1.776425000">
9234 <ele>88.800000</ele>
9235<time>2008-08-14T15:22:14Z</time>
9236 <course>342.920013</course>
9237 <speed>0.000000</speed>
9238 <fix>3d</fix>
9239 <sat>8</sat>
9240 <hdop>1.000000</hdop>
9241</trkpt>
9242<trkpt lat="53.829853333" lon="-1.776421667">
9243 <ele>88.600000</ele>
9244<time>2008-08-14T15:22:15Z</time>
9245 <course>342.920013</course>
9246 <speed>0.000000</speed>
9247 <fix>3d</fix>
9248 <sat>8</sat>
9249 <hdop>1.000000</hdop>
9250</trkpt>
9251<trkpt lat="53.829855000" lon="-1.776420000">
9252 <ele>88.400000</ele>
9253<time>2008-08-14T15:22:16Z</time>
9254 <course>342.920013</course>
9255 <speed>0.000000</speed>
9256 <fix>3d</fix>
9257 <sat>8</sat>
9258 <hdop>1.000000</hdop>
9259 <vdop>1.600000</vdop>
9260 <pdop>1.900000</pdop>
9261</trkpt>
9262<trkpt lat="53.829856667" lon="-1.776416667">
9263 <ele>88.300000</ele>
9264<time>2008-08-14T15:22:17Z</time>
9265 <course>342.920013</course>
9266 <speed>0.000000</speed>
9267 <fix>3d</fix>
9268 <sat>7</sat>
9269 <hdop>1.000000</hdop>
9270</trkpt>
9271<trkpt lat="53.829863333" lon="-1.776420000">
9272 <ele>88.200000</ele>
9273<time>2008-08-14T15:22:18Z</time>
9274 <course>336.579987</course>
9275 <speed>0.611111</speed>
9276 <fix>3d</fix>
9277 <sat>7</sat>
9278 <hdop>1.000000</hdop>
9279</trkpt>
9280<trkpt lat="53.829883333" lon="-1.776430000">
9281 <ele>88.000000</ele>
9282<time>2008-08-14T15:22:19Z</time>
9283 <course>340.640015</course>
9284 <speed>2.222222</speed>
9285 <fix>3d</fix>
9286 <sat>7</sat>
9287 <hdop>1.000000</hdop>
9288</trkpt>
9289<trkpt lat="53.829913333" lon="-1.776451667">
9290 <ele>89.000000</ele>
9291<time>2008-08-14T15:22:20Z</time>
9292 <course>341.149994</course>
9293 <speed>3.944444</speed>
9294 <fix>3d</fix>
9295 <sat>7</sat>
9296 <hdop>1.000000</hdop>
9297</trkpt>
9298<trkpt lat="53.829963333" lon="-1.776480000">
9299 <ele>89.100000</ele>
9300<time>2008-08-14T15:22:21Z</time>
9301 <course>342.170013</course>
9302 <speed>4.916667</speed>
9303 <fix>3d</fix>
9304 <sat>8</sat>
9305 <hdop>1.000000</hdop>
9306 <vdop>1.600000</vdop>
9307 <pdop>1.900000</pdop>
9308</trkpt>
9309<trkpt lat="53.830010000" lon="-1.776506667">
9310 <ele>89.100000</ele>
9311<time>2008-08-14T15:22:22Z</time>
9312 <course>337.880005</course>
9313 <speed>5.250000</speed>
9314 <fix>3d</fix>
9315 <sat>8</sat>
9316 <hdop>1.000000</hdop>
9317</trkpt>
9318<trkpt lat="53.830056667" lon="-1.776543333">
9319 <ele>89.900000</ele>
9320<time>2008-08-14T15:22:23Z</time>
9321 <course>329.040009</course>
9322 <speed>5.444445</speed>
9323 <fix>3d</fix>
9324 <sat>8</sat>
9325 <hdop>1.000000</hdop>
9326</trkpt>
9327<trkpt lat="53.830100000" lon="-1.776591667">
9328 <ele>90.900000</ele>
9329<time>2008-08-14T15:22:24Z</time>
9330 <course>320.200012</course>
9331 <speed>5.722222</speed>
9332 <fix>3d</fix>
9333 <sat>8</sat>
9334 <hdop>1.000000</hdop>
9335</trkpt>
9336<trkpt lat="53.830140000" lon="-1.776656667">
9337 <ele>91.500000</ele>
9338<time>2008-08-14T15:22:25Z</time>
9339 <course>311.700012</course>
9340 <speed>6.055555</speed>
9341 <fix>3d</fix>
9342 <sat>8</sat>
9343 <hdop>1.000000</hdop>
9344</trkpt>
9345<trkpt lat="53.830175000" lon="-1.776725000">
9346 <ele>92.700000</ele>
9347<time>2008-08-14T15:22:26Z</time>
9348 <course>307.869995</course>
9349 <speed>6.083333</speed>
9350 <fix>3d</fix>
9351 <sat>8</sat>
9352 <hdop>1.000000</hdop>
9353 <vdop>1.600000</vdop>
9354 <pdop>1.900000</pdop>
9355</trkpt>
9356<trkpt lat="53.830215000" lon="-1.776786667">
9357 <ele>93.300000</ele>
9358<time>2008-08-14T15:22:27Z</time>
9359 <course>324.619995</course>
9360 <speed>6.138889</speed>
9361 <fix>3d</fix>
9362 <sat>8</sat>
9363 <hdop>1.000000</hdop>
9364</trkpt>
9365<trkpt lat="53.830260000" lon="-1.776825000">
9366 <ele>94.600000</ele>
9367<time>2008-08-14T15:22:28Z</time>
9368 <course>347.690002</course>
9369 <speed>6.305555</speed>
9370 <fix>3d</fix>
9371 <sat>8</sat>
9372 <hdop>1.000000</hdop>
9373</trkpt>
9374<trkpt lat="53.830313333" lon="-1.776821667">
9375 <ele>94.800000</ele>
9376<time>2008-08-14T15:22:29Z</time>
9377 <course>14.640000</course>
9378 <speed>6.666667</speed>
9379 <fix>3d</fix>
9380 <sat>8</sat>
9381 <hdop>1.000000</hdop>
9382</trkpt>
9383<trkpt lat="53.830383333" lon="-1.776776667">
9384 <ele>95.100000</ele>
9385<time>2008-08-14T15:22:30Z</time>
9386 <course>24.500000</course>
9387 <speed>7.750000</speed>
9388 <fix>3d</fix>
9389 <sat>8</sat>
9390 <hdop>1.000000</hdop>
9391</trkpt>
9392<trkpt lat="53.830456667" lon="-1.776715000">
9393 <ele>94.900000</ele>
9394<time>2008-08-14T15:22:31Z</time>
9395 <course>27.090000</course>
9396 <speed>8.777778</speed>
9397 <fix>3d</fix>
9398 <sat>8</sat>
9399 <hdop>1.000000</hdop>
9400 <vdop>1.600000</vdop>
9401 <pdop>1.900000</pdop>
9402</trkpt>
9403<trkpt lat="53.830535000" lon="-1.776645000">
9404 <ele>94.500000</ele>
9405<time>2008-08-14T15:22:32Z</time>
9406 <course>26.650000</course>
9407 <speed>9.583333</speed>
9408 <fix>3d</fix>
9409 <sat>8</sat>
9410 <hdop>1.000000</hdop>
9411</trkpt>
9412<trkpt lat="53.830623333" lon="-1.776571667">
9413 <ele>94.100000</ele>
9414<time>2008-08-14T15:22:33Z</time>
9415 <course>26.400000</course>
9416 <speed>10.555555</speed>
9417 <fix>3d</fix>
9418 <sat>8</sat>
9419 <hdop>1.000000</hdop>
9420</trkpt>
9421<trkpt lat="53.830718333" lon="-1.776495000">
9422 <ele>93.600000</ele>
9423<time>2008-08-14T15:22:34Z</time>
9424 <course>25.340000</course>
9425 <speed>11.527778</speed>
9426 <fix>3d</fix>
9427 <sat>8</sat>
9428 <hdop>1.000000</hdop>
9429</trkpt>
9430<trkpt lat="53.830816667" lon="-1.776415000">
9431 <ele>93.300000</ele>
9432<time>2008-08-14T15:22:35Z</time>
9433 <course>25.500000</course>
9434 <speed>11.888889</speed>
9435 <fix>3d</fix>
9436 <sat>8</sat>
9437 <hdop>1.000000</hdop>
9438</trkpt>
9439<trkpt lat="53.830911667" lon="-1.776338333">
9440 <ele>92.800000</ele>
9441<time>2008-08-14T15:22:36Z</time>
9442 <course>26.750000</course>
9443 <speed>11.916667</speed>
9444 <fix>3d</fix>
9445 <sat>8</sat>
9446 <hdop>1.000000</hdop>
9447 <vdop>1.600000</vdop>
9448 <pdop>1.900000</pdop>
9449</trkpt>
9450<trkpt lat="53.831006667" lon="-1.776263333">
9451 <ele>92.100000</ele>
9452<time>2008-08-14T15:22:37Z</time>
9453 <course>25.200001</course>
9454 <speed>11.833333</speed>
9455 <fix>3d</fix>
9456 <sat>8</sat>
9457 <hdop>1.000000</hdop>
9458</trkpt>
9459<trkpt lat="53.831101667" lon="-1.776186667">
9460 <ele>91.700000</ele>
9461<time>2008-08-14T15:22:38Z</time>
9462 <course>27.430000</course>
9463 <speed>11.777778</speed>
9464 <fix>3d</fix>
9465 <sat>8</sat>
9466 <hdop>1.000000</hdop>
9467</trkpt>
9468<trkpt lat="53.831193333" lon="-1.776115000">
9469 <ele>91.200000</ele>
9470<time>2008-08-14T15:22:39Z</time>
9471 <course>24.879999</course>
9472 <speed>11.583333</speed>
9473 <fix>3d</fix>
9474 <sat>8</sat>
9475 <hdop>1.000000</hdop>
9476</trkpt>
9477<trkpt lat="53.831280000" lon="-1.776050000">
9478 <ele>90.700000</ele>
9479<time>2008-08-14T15:22:40Z</time>
9480 <course>24.420000</course>
9481 <speed>10.861111</speed>
9482 <fix>3d</fix>
9483 <sat>8</sat>
9484 <hdop>1.000000</hdop>
9485</trkpt>
9486<trkpt lat="53.831353333" lon="-1.775993333">
9487 <ele>90.100000</ele>
9488<time>2008-08-14T15:22:41Z</time>
9489 <course>25.110001</course>
9490 <speed>9.416667</speed>
9491 <fix>3d</fix>
9492 <sat>8</sat>
9493 <hdop>1.000000</hdop>
9494 <vdop>1.600000</vdop>
9495 <pdop>1.900000</pdop>
9496</trkpt>
9497<trkpt lat="53.831411667" lon="-1.775950000">
9498 <ele>89.700000</ele>
9499<time>2008-08-14T15:22:42Z</time>
9500 <course>24.650000</course>
9501 <speed>7.472222</speed>
9502 <fix>3d</fix>
9503 <sat>8</sat>
9504 <hdop>1.000000</hdop>
9505</trkpt>
9506<trkpt lat="53.831456667" lon="-1.775918333">
9507 <ele>89.400000</ele>
9508<time>2008-08-14T15:22:43Z</time>
9509 <course>25.030001</course>
9510 <speed>5.750000</speed>
9511 <fix>3d</fix>
9512 <sat>8</sat>
9513 <hdop>1.000000</hdop>
9514</trkpt>
9515<trkpt lat="53.831488333" lon="-1.775895000">
9516 <ele>89.100000</ele>
9517<time>2008-08-14T15:22:44Z</time>
9518 <course>24.290001</course>
9519 <speed>4.250000</speed>
9520 <fix>3d</fix>
9521 <sat>8</sat>
9522 <hdop>1.000000</hdop>
9523</trkpt>
9524<trkpt lat="53.831510000" lon="-1.775880000">
9525 <ele>88.800000</ele>
9526<time>2008-08-14T15:22:45Z</time>
9527 <course>24.110001</course>
9528 <speed>2.944444</speed>
9529 <fix>3d</fix>
9530 <sat>8</sat>
9531 <hdop>1.000000</hdop>
9532</trkpt>
9533<trkpt lat="53.831521667" lon="-1.775871667">
9534 <ele>88.500000</ele>
9535<time>2008-08-14T15:22:46Z</time>
9536 <course>26.980000</course>
9537 <speed>1.805556</speed>
9538 <fix>3d</fix>
9539 <sat>9</sat>
9540 <hdop>0.900000</hdop>
9541 <vdop>1.300000</vdop>
9542 <pdop>1.600000</pdop>
9543</trkpt>
9544<trkpt lat="53.831525000" lon="-1.775870000">
9545 <ele>88.300000</ele>
9546<time>2008-08-14T15:22:47Z</time>
9547 <course>26.980000</course>
9548 <speed>0.000000</speed>
9549 <fix>3d</fix>
9550 <sat>9</sat>
9551 <hdop>0.900000</hdop>
9552</trkpt>
9553<trkpt lat="53.831523333" lon="-1.775871667">
9554 <ele>88.100000</ele>
9555<time>2008-08-14T15:22:48Z</time>
9556 <course>26.980000</course>
9557 <speed>0.000000</speed>
9558 <fix>3d</fix>
9559 <sat>9</sat>
9560 <hdop>0.900000</hdop>
9561</trkpt>
9562<trkpt lat="53.831521667" lon="-1.775875000">
9563 <ele>88.000000</ele>
9564<time>2008-08-14T15:22:49Z</time>
9565 <course>26.980000</course>
9566 <speed>0.000000</speed>
9567 <fix>3d</fix>
9568 <sat>8</sat>
9569 <hdop>1.200000</hdop>
9570</trkpt>
9571<trkpt lat="53.831518333" lon="-1.775876667">
9572 <ele>87.800000</ele>
9573<time>2008-08-14T15:22:50Z</time>
9574 <course>26.980000</course>
9575 <speed>0.000000</speed>
9576 <fix>3d</fix>
9577 <sat>8</sat>
9578 <hdop>1.200000</hdop>
9579</trkpt>
9580<trkpt lat="53.831515000" lon="-1.775878333">
9581 <ele>87.700000</ele>
9582<time>2008-08-14T15:22:51Z</time>
9583 <course>26.980000</course>
9584 <speed>0.000000</speed>
9585 <fix>3d</fix>
9586 <sat>9</sat>
9587 <hdop>0.900000</hdop>
9588 <vdop>1.300000</vdop>
9589 <pdop>1.600000</pdop>
9590</trkpt>
9591<trkpt lat="53.831513333" lon="-1.775880000">
9592 <ele>87.500000</ele>
9593<time>2008-08-14T15:22:52Z</time>
9594 <course>26.980000</course>
9595 <speed>0.000000</speed>
9596 <fix>3d</fix>
9597 <sat>8</sat>
9598 <hdop>1.200000</hdop>
9599</trkpt>
9600<trkpt lat="53.831510000" lon="-1.775880000">
9601 <ele>87.400000</ele>
9602<time>2008-08-14T15:22:53Z</time>
9603 <course>26.980000</course>
9604 <speed>0.000000</speed>
9605 <fix>3d</fix>
9606 <sat>8</sat>
9607 <hdop>1.200000</hdop>
9608</trkpt>
9609<trkpt lat="53.831508333" lon="-1.775881667">
9610 <ele>87.200000</ele>
9611<time>2008-08-14T15:22:54Z</time>
9612 <course>26.980000</course>
9613 <speed>0.000000</speed>
9614 <fix>3d</fix>
9615 <sat>8</sat>
9616 <hdop>1.200000</hdop>
9617</trkpt>
9618<trkpt lat="53.831505000" lon="-1.775881667">
9619 <ele>87.100000</ele>
9620<time>2008-08-14T15:22:55Z</time>
9621 <course>26.980000</course>
9622 <speed>0.000000</speed>
9623 <fix>3d</fix>
9624 <sat>8</sat>
9625 <hdop>1.200000</hdop>
9626</trkpt>
9627<trkpt lat="53.831503333" lon="-1.775883333">
9628 <ele>86.900000</ele>
9629<time>2008-08-14T15:22:56Z</time>
9630 <course>26.980000</course>
9631 <speed>0.000000</speed>
9632 <fix>3d</fix>
9633 <sat>8</sat>
9634 <hdop>1.200000</hdop>
9635 <vdop>1.900000</vdop>
9636 <pdop>2.300000</pdop>
9637</trkpt>
9638<trkpt lat="53.831501667" lon="-1.775883333">
9639 <ele>86.900000</ele>
9640<time>2008-08-14T15:22:57Z</time>
9641 <course>26.980000</course>
9642 <speed>0.000000</speed>
9643 <fix>3d</fix>
9644 <sat>8</sat>
9645 <hdop>1.200000</hdop>
9646</trkpt>
9647<trkpt lat="53.831500000" lon="-1.775885000">
9648 <ele>86.800000</ele>
9649<time>2008-08-14T15:22:58Z</time>
9650 <course>26.980000</course>
9651 <speed>0.000000</speed>
9652 <fix>3d</fix>
9653 <sat>8</sat>
9654 <hdop>1.200000</hdop>
9655</trkpt>
9656<trkpt lat="53.831500000" lon="-1.775885000">
9657 <ele>86.800000</ele>
9658<time>2008-08-14T15:22:59Z</time>
9659 <course>26.980000</course>
9660 <speed>0.000000</speed>
9661 <fix>3d</fix>
9662 <sat>8</sat>
9663 <hdop>1.200000</hdop>
9664</trkpt>
9665<trkpt lat="53.831498333" lon="-1.775885000">
9666 <ele>86.800000</ele>
9667<time>2008-08-14T15:23:00Z</time>
9668 <course>26.980000</course>
9669 <speed>0.000000</speed>
9670 <fix>3d</fix>
9671 <sat>8</sat>
9672 <hdop>1.200000</hdop>
9673</trkpt>
9674<trkpt lat="53.831498333" lon="-1.775885000">
9675 <ele>86.900000</ele>
9676<time>2008-08-14T15:23:01Z</time>
9677 <course>26.980000</course>
9678 <speed>0.000000</speed>
9679 <fix>3d</fix>
9680 <sat>8</sat>
9681 <hdop>1.200000</hdop>
9682 <vdop>1.900000</vdop>
9683 <pdop>2.300000</pdop>
9684</trkpt>
9685<trkpt lat="53.831496667" lon="-1.775885000">
9686 <ele>87.000000</ele>
9687<time>2008-08-14T15:23:02Z</time>
9688 <course>26.980000</course>
9689 <speed>0.000000</speed>
9690 <fix>3d</fix>
9691 <sat>8</sat>
9692 <hdop>1.200000</hdop>
9693</trkpt>
9694<trkpt lat="53.831496667" lon="-1.775885000">
9695 <ele>87.100000</ele>
9696<time>2008-08-14T15:23:03Z</time>
9697 <course>26.980000</course>
9698 <speed>0.000000</speed>
9699 <fix>3d</fix>
9700 <sat>8</sat>
9701 <hdop>1.200000</hdop>
9702</trkpt>
9703<trkpt lat="53.831496667" lon="-1.775885000">
9704 <ele>87.200000</ele>
9705<time>2008-08-14T15:23:04Z</time>
9706 <course>26.980000</course>
9707 <speed>0.000000</speed>
9708 <fix>3d</fix>
9709 <sat>8</sat>
9710 <hdop>1.200000</hdop>
9711</trkpt>
9712<trkpt lat="53.831496667" lon="-1.775886667">
9713 <ele>87.300000</ele>
9714<time>2008-08-14T15:23:05Z</time>
9715 <course>26.980000</course>
9716 <speed>0.000000</speed>
9717 <fix>3d</fix>
9718 <sat>8</sat>
9719 <hdop>1.200000</hdop>
9720</trkpt>
9721<trkpt lat="53.831496667" lon="-1.775886667">
9722 <ele>87.400000</ele>
9723<time>2008-08-14T15:23:06Z</time>
9724 <course>26.980000</course>
9725 <speed>0.000000</speed>
9726 <fix>3d</fix>
9727 <sat>8</sat>
9728 <hdop>1.200000</hdop>
9729 <vdop>1.900000</vdop>
9730 <pdop>2.300000</pdop>
9731</trkpt>
9732<trkpt lat="53.831496667" lon="-1.775886667">
9733 <ele>87.600000</ele>
9734<time>2008-08-14T15:23:07Z</time>
9735 <course>26.980000</course>
9736 <speed>0.000000</speed>
9737 <fix>3d</fix>
9738 <sat>8</sat>
9739 <hdop>1.200000</hdop>
9740</trkpt>
9741<trkpt lat="53.831496667" lon="-1.775886667">
9742 <ele>87.700000</ele>
9743<time>2008-08-14T15:23:08Z</time>
9744 <course>26.980000</course>
9745 <speed>0.000000</speed>
9746 <fix>3d</fix>
9747 <sat>8</sat>
9748 <hdop>1.200000</hdop>
9749</trkpt>
9750<trkpt lat="53.831496667" lon="-1.775886667">
9751 <ele>87.900000</ele>
9752<time>2008-08-14T15:23:09Z</time>
9753 <course>26.980000</course>
9754 <speed>0.000000</speed>
9755 <fix>3d</fix>
9756 <sat>8</sat>
9757 <hdop>1.200000</hdop>
9758</trkpt>
9759<trkpt lat="53.831496667" lon="-1.775886667">
9760 <ele>88.000000</ele>
9761<time>2008-08-14T15:23:10Z</time>
9762 <course>26.980000</course>
9763 <speed>0.000000</speed>
9764 <fix>3d</fix>
9765 <sat>8</sat>
9766 <hdop>1.200000</hdop>
9767</trkpt>
9768<trkpt lat="53.831496667" lon="-1.775886667">
9769 <ele>88.000000</ele>
9770<time>2008-08-14T15:23:11Z</time>
9771 <course>26.980000</course>
9772 <speed>0.000000</speed>
9773 <fix>3d</fix>
9774 <sat>8</sat>
9775 <hdop>1.200000</hdop>
9776 <vdop>1.900000</vdop>
9777 <pdop>2.300000</pdop>
9778</trkpt>
9779<trkpt lat="53.831496667" lon="-1.775886667">
9780 <ele>88.100000</ele>
9781<time>2008-08-14T15:23:12Z</time>
9782 <course>26.980000</course>
9783 <speed>0.000000</speed>
9784 <fix>3d</fix>
9785 <sat>8</sat>
9786 <hdop>1.200000</hdop>
9787</trkpt>
9788<trkpt lat="53.831495000" lon="-1.775888333">
9789 <ele>88.100000</ele>
9790<time>2008-08-14T15:23:13Z</time>
9791 <course>26.980000</course>
9792 <speed>0.000000</speed>
9793 <fix>3d</fix>
9794 <sat>8</sat>
9795 <hdop>1.200000</hdop>
9796</trkpt>
9797<trkpt lat="53.831495000" lon="-1.775888333">
9798 <ele>88.100000</ele>
9799<time>2008-08-14T15:23:14Z</time>
9800 <course>26.980000</course>
9801 <speed>0.000000</speed>
9802 <fix>3d</fix>
9803 <sat>8</sat>
9804 <hdop>1.200000</hdop>
9805</trkpt>
9806<trkpt lat="53.831493333" lon="-1.775888333">
9807 <ele>88.000000</ele>
9808<time>2008-08-14T15:23:15Z</time>
9809 <course>26.980000</course>
9810 <speed>0.000000</speed>
9811 <fix>3d</fix>
9812 <sat>8</sat>
9813 <hdop>1.200000</hdop>
9814</trkpt>
9815<trkpt lat="53.831493333" lon="-1.775888333">
9816 <ele>88.100000</ele>
9817<time>2008-08-14T15:23:16Z</time>
9818 <course>26.980000</course>
9819 <speed>0.000000</speed>
9820 <fix>3d</fix>
9821 <sat>9</sat>
9822 <hdop>0.900000</hdop>
9823 <vdop>1.300000</vdop>
9824 <pdop>1.600000</pdop>
9825</trkpt>
9826<trkpt lat="53.831493333" lon="-1.775888333">
9827 <ele>88.100000</ele>
9828<time>2008-08-14T15:23:17Z</time>
9829 <course>26.980000</course>
9830 <speed>0.000000</speed>
9831 <fix>3d</fix>
9832 <sat>9</sat>
9833 <hdop>0.900000</hdop>
9834</trkpt>
9835<trkpt lat="53.831493333" lon="-1.775890000">
9836 <ele>88.200000</ele>
9837<time>2008-08-14T15:23:18Z</time>
9838 <course>26.980000</course>
9839 <speed>0.000000</speed>
9840 <fix>3d</fix>
9841 <sat>9</sat>
9842 <hdop>0.900000</hdop>
9843</trkpt>
9844<trkpt lat="53.831491667" lon="-1.775890000">
9845 <ele>88.200000</ele>
9846<time>2008-08-14T15:23:19Z</time>
9847 <course>26.980000</course>
9848 <speed>0.000000</speed>
9849 <fix>3d</fix>
9850 <sat>9</sat>
9851 <hdop>0.900000</hdop>
9852</trkpt>
9853<trkpt lat="53.831491667" lon="-1.775890000">
9854 <ele>88.100000</ele>
9855<time>2008-08-14T15:23:20Z</time>
9856 <course>26.980000</course>
9857 <speed>0.000000</speed>
9858 <fix>3d</fix>
9859 <sat>9</sat>
9860 <hdop>0.900000</hdop>
9861</trkpt>
9862<trkpt lat="53.831491667" lon="-1.775890000">
9863 <ele>88.100000</ele>
9864<time>2008-08-14T15:23:21Z</time>
9865 <course>26.980000</course>
9866 <speed>0.000000</speed>
9867 <fix>3d</fix>
9868 <sat>9</sat>
9869 <hdop>0.900000</hdop>
9870 <vdop>1.300000</vdop>
9871 <pdop>1.600000</pdop>
9872</trkpt>
9873<trkpt lat="53.831490000" lon="-1.775891667">
9874 <ele>88.000000</ele>
9875<time>2008-08-14T15:23:22Z</time>
9876 <course>26.980000</course>
9877 <speed>0.000000</speed>
9878 <fix>3d</fix>
9879 <sat>9</sat>
9880 <hdop>0.900000</hdop>
9881</trkpt>
9882<trkpt lat="53.831490000" lon="-1.775891667">
9883 <ele>87.900000</ele>
9884<time>2008-08-14T15:23:23Z</time>
9885 <course>26.980000</course>
9886 <speed>0.000000</speed>
9887 <fix>3d</fix>
9888 <sat>9</sat>
9889 <hdop>0.900000</hdop>
9890</trkpt>
9891<trkpt lat="53.831488333" lon="-1.775891667">
9892 <ele>87.900000</ele>
9893<time>2008-08-14T15:23:24Z</time>
9894 <course>26.980000</course>
9895 <speed>0.000000</speed>
9896 <fix>3d</fix>
9897 <sat>9</sat>
9898 <hdop>0.900000</hdop>
9899</trkpt>
9900<trkpt lat="53.831488333" lon="-1.775891667">
9901 <ele>87.800000</ele>
9902<time>2008-08-14T15:23:25Z</time>
9903 <course>26.980000</course>
9904 <speed>0.000000</speed>
9905 <fix>3d</fix>
9906 <sat>9</sat>
9907 <hdop>0.900000</hdop>
9908</trkpt>
9909<trkpt lat="53.831486667" lon="-1.775893333">
9910 <ele>87.700000</ele>
9911<time>2008-08-14T15:23:26Z</time>
9912 <course>26.980000</course>
9913 <speed>0.000000</speed>
9914 <fix>3d</fix>
9915 <sat>9</sat>
9916 <hdop>0.900000</hdop>
9917 <vdop>1.300000</vdop>
9918 <pdop>1.600000</pdop>
9919</trkpt>
9920<trkpt lat="53.831486667" lon="-1.775893333">
9921 <ele>87.500000</ele>
9922<time>2008-08-14T15:23:27Z</time>
9923 <course>26.980000</course>
9924 <speed>0.000000</speed>
9925 <fix>3d</fix>
9926 <sat>8</sat>
9927 <hdop>1.200000</hdop>
9928</trkpt>
9929<trkpt lat="53.831485000" lon="-1.775893333">
9930 <ele>87.400000</ele>
9931<time>2008-08-14T15:23:28Z</time>
9932 <course>26.980000</course>
9933 <speed>0.000000</speed>
9934 <fix>3d</fix>
9935 <sat>8</sat>
9936 <hdop>1.200000</hdop>
9937</trkpt>
9938<trkpt lat="53.831483333" lon="-1.775895000">
9939 <ele>87.300000</ele>
9940<time>2008-08-14T15:23:29Z</time>
9941 <course>26.980000</course>
9942 <speed>0.000000</speed>
9943 <fix>3d</fix>
9944 <sat>8</sat>
9945 <hdop>1.200000</hdop>
9946</trkpt>
9947<trkpt lat="53.831483333" lon="-1.775895000">
9948 <ele>87.200000</ele>
9949<time>2008-08-14T15:23:30Z</time>
9950 <course>26.980000</course>
9951 <speed>0.000000</speed>
9952 <fix>3d</fix>
9953 <sat>8</sat>
9954 <hdop>1.200000</hdop>
9955</trkpt>
9956<trkpt lat="53.831481667" lon="-1.775895000">
9957 <ele>87.000000</ele>
9958<time>2008-08-14T15:23:31Z</time>
9959 <course>26.980000</course>
9960 <speed>0.000000</speed>
9961 <fix>3d</fix>
9962 <sat>9</sat>
9963 <hdop>0.900000</hdop>
9964 <vdop>1.300000</vdop>
9965 <pdop>1.600000</pdop>
9966</trkpt>
9967<trkpt lat="53.831481667" lon="-1.775896667">
9968 <ele>86.900000</ele>
9969<time>2008-08-14T15:23:32Z</time>
9970 <course>26.980000</course>
9971 <speed>0.000000</speed>
9972 <fix>3d</fix>
9973 <sat>8</sat>
9974 <hdop>1.200000</hdop>
9975</trkpt>
9976<trkpt lat="53.831480000" lon="-1.775896667">
9977 <ele>86.800000</ele>
9978<time>2008-08-14T15:23:33Z</time>
9979 <course>26.980000</course>
9980 <speed>0.000000</speed>
9981 <fix>3d</fix>
9982 <sat>8</sat>
9983 <hdop>1.200000</hdop>
9984</trkpt>
9985<trkpt lat="53.831480000" lon="-1.775896667">
9986 <ele>86.700000</ele>
9987<time>2008-08-14T15:23:34Z</time>
9988 <course>26.980000</course>
9989 <speed>0.000000</speed>
9990 <fix>3d</fix>
9991 <sat>8</sat>
9992 <hdop>1.200000</hdop>
9993</trkpt>
9994<trkpt lat="53.831488333" lon="-1.775890000">
9995 <ele>86.700000</ele>
9996<time>2008-08-14T15:23:35Z</time>
9997 <course>26.639999</course>
9998 <speed>1.000000</speed>
9999 <fix>3d</fix>
10000 <sat>8</sat>
10001 <hdop>1.200000</hdop>
10002</trkpt>
10003<trkpt lat="53.831513333" lon="-1.775870000">
10004 <ele>86.600000</ele>
10005<time>2008-08-14T15:23:36Z</time>
10006 <course>25.660000</course>
10007 <speed>3.027778</speed>
10008 <fix>3d</fix>
10009 <sat>8</sat>
10010 <hdop>1.200000</hdop>
10011 <vdop>1.900000</vdop>
10012 <pdop>2.300000</pdop>
10013</trkpt>
10014<trkpt lat="53.831553333" lon="-1.775843333">
10015 <ele>86.500000</ele>
10016<time>2008-08-14T15:23:37Z</time>
10017 <course>18.910000</course>
10018 <speed>4.472222</speed>
10019 <fix>3d</fix>
10020 <sat>8</sat>
10021 <hdop>1.200000</hdop>
10022</trkpt>
10023<trkpt lat="53.831593333" lon="-1.775830000">
10024 <ele>86.300000</ele>
10025<time>2008-08-14T15:23:38Z</time>
10026 <course>2.170000</course>
10027 <speed>4.916667</speed>
10028 <fix>3d</fix>
10029 <sat>8</sat>
10030 <hdop>1.200000</hdop>
10031</trkpt>
10032<trkpt lat="53.831635000" lon="-1.775850000">
10033 <ele>86.200000</ele>
10034<time>2008-08-14T15:23:39Z</time>
10035 <course>333.540009</course>
10036 <speed>5.083333</speed>
10037 <fix>3d</fix>
10038 <sat>8</sat>
10039 <hdop>1.200000</hdop>
10040</trkpt>
10041<trkpt lat="53.831663333" lon="-1.775910000">
10042 <ele>86.100000</ele>
10043<time>2008-08-14T15:23:40Z</time>
10044 <course>300.679993</course>
10045 <speed>5.416667</speed>
10046 <fix>3d</fix>
10047 <sat>9</sat>
10048 <hdop>0.900000</hdop>
10049</trkpt>
10050<trkpt lat="53.831691667" lon="-1.776001667">
10051 <ele>85.800000</ele>
10052<time>2008-08-14T15:23:41Z</time>
10053 <course>294.190002</course>
10054 <speed>6.388889</speed>
10055 <fix>3d</fix>
10056 <sat>9</sat>
10057 <hdop>0.900000</hdop>
10058 <vdop>1.300000</vdop>
10059 <pdop>1.600000</pdop>
10060</trkpt>
10061<trkpt lat="53.831721667" lon="-1.776108333">
10062 <ele>86.000000</ele>
10063<time>2008-08-14T15:23:42Z</time>
10064 <course>292.839996</course>
10065 <speed>7.361111</speed>
10066 <fix>3d</fix>
10067 <sat>9</sat>
10068 <hdop>0.900000</hdop>
10069</trkpt>
10070<trkpt lat="53.831751667" lon="-1.776220000">
10071 <ele>86.200000</ele>
10072<time>2008-08-14T15:23:43Z</time>
10073 <course>293.529999</course>
10074 <speed>7.833333</speed>
10075 <fix>3d</fix>
10076 <sat>9</sat>
10077 <hdop>0.900000</hdop>
10078</trkpt>
10079<trkpt lat="53.831785000" lon="-1.776333333">
10080 <ele>86.700000</ele>
10081<time>2008-08-14T15:23:44Z</time>
10082 <course>296.559998</course>
10083 <speed>7.944445</speed>
10084 <fix>3d</fix>
10085 <sat>9</sat>
10086 <hdop>0.900000</hdop>
10087</trkpt>
10088<trkpt lat="53.831820000" lon="-1.776438333">
10089 <ele>87.100000</ele>
10090<time>2008-08-14T15:23:45Z</time>
10091 <course>301.679993</course>
10092 <speed>7.805555</speed>
10093 <fix>3d</fix>
10094 <sat>9</sat>
10095 <hdop>0.900000</hdop>
10096</trkpt>
10097<trkpt lat="53.831861667" lon="-1.776538333">
10098 <ele>87.700000</ele>
10099<time>2008-08-14T15:23:46Z</time>
10100 <course>307.549988</course>
10101 <speed>7.722222</speed>
10102 <fix>3d</fix>
10103 <sat>9</sat>
10104 <hdop>0.900000</hdop>
10105 <vdop>1.300000</vdop>
10106 <pdop>1.600000</pdop>
10107</trkpt>
10108<trkpt lat="53.831910000" lon="-1.776625000">
10109 <ele>88.300000</ele>
10110<time>2008-08-14T15:23:47Z</time>
10111 <course>316.339996</course>
10112 <speed>7.555555</speed>
10113 <fix>3d</fix>
10114 <sat>9</sat>
10115 <hdop>0.900000</hdop>
10116</trkpt>
10117<trkpt lat="53.831963333" lon="-1.776696667">
10118 <ele>89.000000</ele>
10119<time>2008-08-14T15:23:48Z</time>
10120 <course>327.200012</course>
10121 <speed>7.305555</speed>
10122 <fix>3d</fix>
10123 <sat>9</sat>
10124 <hdop>0.900000</hdop>
10125</trkpt>
10126<trkpt lat="53.832020000" lon="-1.776748333">
10127 <ele>89.400000</ele>
10128<time>2008-08-14T15:23:49Z</time>
10129 <course>335.750000</course>
10130 <speed>7.055555</speed>
10131 <fix>3d</fix>
10132 <sat>9</sat>
10133 <hdop>0.900000</hdop>
10134</trkpt>
10135<trkpt lat="53.832080000" lon="-1.776790000">
10136 <ele>89.900000</ele>
10137<time>2008-08-14T15:23:50Z</time>
10138 <course>340.970001</course>
10139 <speed>6.861111</speed>
10140 <fix>3d</fix>
10141 <sat>9</sat>
10142 <hdop>0.900000</hdop>
10143</trkpt>
10144<trkpt lat="53.832136667" lon="-1.776815000">
10145 <ele>90.200000</ele>
10146<time>2008-08-14T15:23:51Z</time>
10147 <course>351.079987</course>
10148 <speed>6.638889</speed>
10149 <fix>3d</fix>
10150 <sat>8</sat>
10151 <hdop>1.000000</hdop>
10152 <vdop>1.600000</vdop>
10153 <pdop>1.900000</pdop>
10154</trkpt>
10155<trkpt lat="53.832195000" lon="-1.776825000">
10156 <ele>90.400000</ele>
10157<time>2008-08-14T15:23:52Z</time>
10158 <course>358.220001</course>
10159 <speed>6.472222</speed>
10160 <fix>3d</fix>
10161 <sat>8</sat>
10162 <hdop>1.000000</hdop>
10163</trkpt>
10164<trkpt lat="53.832251667" lon="-1.776820000">
10165 <ele>90.700000</ele>
10166<time>2008-08-14T15:23:53Z</time>
10167 <course>2.640000</course>
10168 <speed>6.638889</speed>
10169 <fix>3d</fix>
10170 <sat>8</sat>
10171 <hdop>1.000000</hdop>
10172</trkpt>
10173<trkpt lat="53.832310000" lon="-1.776813333">
10174 <ele>91.000000</ele>
10175<time>2008-08-14T15:23:54Z</time>
10176 <course>1.650000</course>
10177 <speed>6.833333</speed>
10178 <fix>3d</fix>
10179 <sat>8</sat>
10180 <hdop>1.000000</hdop>
10181</trkpt>
10182<trkpt lat="53.832366667" lon="-1.776808333">
10183 <ele>91.400000</ele>
10184<time>2008-08-14T15:23:55Z</time>
10185 <course>1.950000</course>
10186 <speed>6.777778</speed>
10187 <fix>3d</fix>
10188 <sat>8</sat>
10189 <hdop>1.000000</hdop>
10190</trkpt>
10191<trkpt lat="53.832428333" lon="-1.776803333">
10192 <ele>91.500000</ele>
10193<time>2008-08-14T15:23:56Z</time>
10194 <course>0.920000</course>
10195 <speed>7.055555</speed>
10196 <fix>3d</fix>
10197 <sat>7</sat>
10198 <hdop>1.100000</hdop>
10199 <vdop>1.800000</vdop>
10200 <pdop>2.100000</pdop>
10201</trkpt>
10202<trkpt lat="53.832491667" lon="-1.776798333">
10203 <ele>91.700000</ele>
10204<time>2008-08-14T15:23:57Z</time>
10205 <course>0.580000</course>
10206 <speed>7.333333</speed>
10207 <fix>3d</fix>
10208 <sat>7</sat>
10209 <hdop>1.100000</hdop>
10210</trkpt>
10211<trkpt lat="53.832553333" lon="-1.776795000">
10212 <ele>91.800000</ele>
10213<time>2008-08-14T15:23:58Z</time>
10214 <course>359.799988</course>
10215 <speed>7.222222</speed>
10216 <fix>3d</fix>
10217 <sat>7</sat>
10218 <hdop>1.100000</hdop>
10219</trkpt>
10220<trkpt lat="53.832610000" lon="-1.776790000">
10221 <ele>92.100000</ele>
10222<time>2008-08-14T15:23:59Z</time>
10223 <course>0.480000</course>
10224 <speed>6.833333</speed>
10225 <fix>3d</fix>
10226 <sat>7</sat>
10227 <hdop>1.100000</hdop>
10228</trkpt>
10229<trkpt lat="53.832665000" lon="-1.776788333">
10230 <ele>92.900000</ele>
10231<time>2008-08-14T15:24:00Z</time>
10232 <course>0.080000</course>
10233 <speed>6.611111</speed>
10234 <fix>3d</fix>
10235 <sat>7</sat>
10236 <hdop>1.100000</hdop>
10237</trkpt>
10238<trkpt lat="53.832723333" lon="-1.776795000">
10239 <ele>94.000000</ele>
10240<time>2008-08-14T15:24:01Z</time>
10241 <course>355.320007</course>
10242 <speed>6.611111</speed>
10243 <fix>3d</fix>
10244 <sat>8</sat>
10245 <hdop>1.000000</hdop>
10246 <vdop>1.600000</vdop>
10247 <pdop>1.900000</pdop>
10248</trkpt>
10249<trkpt lat="53.832781667" lon="-1.776806667">
10250 <ele>95.000000</ele>
10251<time>2008-08-14T15:24:02Z</time>
10252 <course>353.660004</course>
10253 <speed>6.694445</speed>
10254 <fix>3d</fix>
10255 <sat>7</sat>
10256 <hdop>1.300000</hdop>
10257</trkpt>
10258<trkpt lat="53.832840000" lon="-1.776823333">
10259 <ele>95.100000</ele>
10260<time>2008-08-14T15:24:03Z</time>
10261 <course>356.369995</course>
10262 <speed>6.611111</speed>
10263 <fix>3d</fix>
10264 <sat>7</sat>
10265 <hdop>1.300000</hdop>
10266</trkpt>
10267<trkpt lat="53.832903333" lon="-1.776841667">
10268 <ele>95.100000</ele>
10269<time>2008-08-14T15:24:04Z</time>
10270 <course>356.350006</course>
10271 <speed>6.805555</speed>
10272 <fix>3d</fix>
10273 <sat>8</sat>
10274 <hdop>1.200000</hdop>
10275</trkpt>
10276<trkpt lat="53.832971667" lon="-1.776855000">
10277 <ele>95.600000</ele>
10278<time>2008-08-14T15:24:05Z</time>
10279 <course>352.559998</course>
10280 <speed>7.333333</speed>
10281 <fix>3d</fix>
10282 <sat>8</sat>
10283 <hdop>1.200000</hdop>
10284</trkpt>
10285<trkpt lat="53.833038333" lon="-1.776868333">
10286 <ele>94.800000</ele>
10287<time>2008-08-14T15:24:06Z</time>
10288 <course>354.850006</course>
10289 <speed>7.277778</speed>
10290 <fix>3d</fix>
10291 <sat>8</sat>
10292 <hdop>1.200000</hdop>
10293 <vdop>1.900000</vdop>
10294 <pdop>2.300000</pdop>
10295</trkpt>
10296<trkpt lat="53.833106667" lon="-1.776886667">
10297 <ele>93.700000</ele>
10298<time>2008-08-14T15:24:07Z</time>
10299 <course>352.600006</course>
10300 <speed>7.416667</speed>
10301 <fix>3d</fix>
10302 <sat>8</sat>
10303 <hdop>1.200000</hdop>
10304</trkpt>
10305<trkpt lat="53.833178333" lon="-1.776903333">
10306 <ele>92.600000</ele>
10307<time>2008-08-14T15:24:08Z</time>
10308 <course>353.100006</course>
10309 <speed>7.722222</speed>
10310 <fix>3d</fix>
10311 <sat>8</sat>
10312 <hdop>1.200000</hdop>
10313</trkpt>
10314<trkpt lat="53.833248333" lon="-1.776916667">
10315 <ele>91.500000</ele>
10316<time>2008-08-14T15:24:09Z</time>
10317 <course>354.480011</course>
10318 <speed>7.777778</speed>
10319 <fix>3d</fix>
10320 <sat>8</sat>
10321 <hdop>1.200000</hdop>
10322</trkpt>
10323<trkpt lat="53.833320000" lon="-1.776928333">
10324 <ele>90.300000</ele>
10325<time>2008-08-14T15:24:10Z</time>
10326 <course>354.290009</course>
10327 <speed>7.888889</speed>
10328 <fix>3d</fix>
10329 <sat>8</sat>
10330 <hdop>1.200000</hdop>
10331</trkpt>
10332<trkpt lat="53.833391667" lon="-1.776946667">
10333 <ele>90.400000</ele>
10334<time>2008-08-14T15:24:11